<?xml version='1.0' encoding='UTF-8'?><gpx version="1.1" creator="JPX - https://github.com/jenetics/jpx" xmlns="http://www.topografix.com/GPX/1/1"><trk><trkseg><trkpt lat="45.7935769" lon="13.4157872"><ele>4.142857142857142</ele><time>2026-04-25T07:39:34.302Z</time></trkpt><trkpt lat="45.7934918" lon="13.4157664"><ele>4.285714285714286</ele><time>2026-04-25T07:39:37.307Z</time></trkpt><trkpt lat="45.7934267" lon="13.4157406"><ele>4.428571428571429</ele><time>2026-04-25T07:39:39.288Z</time></trkpt><trkpt lat="45.7933634" lon="13.4157153"><ele>4.571428571428571</ele><time>2026-04-25T07:39:41.297Z</time></trkpt><trkpt lat="45.7932969" lon="13.415718"><ele>4.714285714285714</ele><time>2026-04-25T07:39:43.306Z</time></trkpt><trkpt lat="45.793248" lon="13.4157775"><ele>4.857142857142857</ele><time>2026-04-25T07:39:45.312Z</time></trkpt><trkpt lat="45.793212" lon="13.4158577"><ele>5.0</ele><time>2026-04-25T07:39:47.329Z</time></trkpt><trkpt lat="45.7931714" lon="13.4159341"><ele>5.0</ele><time>2026-04-25T07:39:49.301Z</time></trkpt><trkpt lat="45.7931171" lon="13.4160031"><ele>5.0</ele><time>2026-04-25T07:39:51.293Z</time></trkpt><trkpt lat="45.7930663" lon="13.4160827"><ele>5.0</ele><time>2026-04-25T07:39:53.29Z</time></trkpt><trkpt lat="45.7930236" lon="13.4161727"><ele>5.0</ele><time>2026-04-25T07:39:55.294Z</time></trkpt><trkpt lat="45.7929862" lon="13.4162707"><ele>5.0</ele><time>2026-04-25T07:39:57.304Z</time></trkpt><trkpt lat="45.7929563" lon="13.4163744"><ele>5.0</ele><time>2026-04-25T07:39:59.314Z</time></trkpt><trkpt lat="45.7929242" lon="13.4164791"><ele>5.0</ele><time>2026-04-25T07:40:01.295Z</time></trkpt><trkpt lat="45.79289" lon="13.4165827"><ele>5.0</ele><time>2026-04-25T07:40:03.304Z</time></trkpt><trkpt lat="45.7928652" lon="13.4166905"><ele>5.0</ele><time>2026-04-25T07:40:05.315Z</time></trkpt><trkpt lat="45.7928461" lon="13.4168011"><ele>5.0</ele><time>2026-04-25T07:40:07.298Z</time></trkpt><trkpt lat="45.79283" lon="13.4169122"><ele>5.0</ele><time>2026-04-25T07:40:09.3Z</time></trkpt><trkpt lat="45.792818" lon="13.4170229"><ele>5.0</ele><time>2026-04-25T07:40:11.297Z</time></trkpt><trkpt lat="45.7928146" lon="13.4171336"><ele>5.166666666666667</ele><time>2026-04-25T07:40:13.29Z</time></trkpt><trkpt lat="45.7928183" lon="13.4172466"><ele>5.333333333333334</ele><time>2026-04-25T07:40:15.298Z</time></trkpt><trkpt lat="45.7928267" lon="13.4173595"><ele>5.5</ele><time>2026-04-25T07:40:17.294Z</time></trkpt><trkpt lat="45.7928416" lon="13.4174713"><ele>5.666666666666667</ele><time>2026-04-25T07:40:19.299Z</time></trkpt><trkpt lat="45.7928619" lon="13.4175804"><ele>5.833333333333333</ele><time>2026-04-25T07:40:21.301Z</time></trkpt><trkpt lat="45.7928845" lon="13.4176894"><ele>6.0</ele><time>2026-04-25T07:40:23.301Z</time></trkpt><trkpt lat="45.7929249" lon="13.4178444"><ele>6.0</ele><time>2026-04-25T07:40:26.3Z</time></trkpt><trkpt lat="45.7929539" lon="13.4179462"><ele>6.0</ele><time>2026-04-25T07:40:28.286Z</time></trkpt><trkpt lat="45.7929829" lon="13.4180509"><ele>6.0</ele><time>2026-04-25T07:40:30.299Z</time></trkpt><trkpt lat="45.7930105" lon="13.4181576"><ele>6.0</ele><time>2026-04-25T07:40:32.3Z</time></trkpt><trkpt lat="45.793038" lon="13.4182627"><ele>6.0</ele><time>2026-04-25T07:40:34.299Z</time></trkpt><trkpt lat="45.7930646" lon="13.4183695"><ele>6.0</ele><time>2026-04-25T07:40:36.307Z</time></trkpt><trkpt lat="45.7930895" lon="13.4184747"><ele>5.5</ele><time>2026-04-25T07:40:38.319Z</time></trkpt><trkpt lat="45.7931148" lon="13.4185801"><ele>5.0</ele><time>2026-04-25T07:40:40.331Z</time></trkpt><trkpt lat="45.7931398" lon="13.4186867"><ele>4.5</ele><time>2026-04-25T07:40:42.306Z</time></trkpt><trkpt lat="45.793169" lon="13.4187897"><ele>4.0</ele><time>2026-04-25T07:40:44.317Z</time></trkpt><trkpt lat="45.7931997" lon="13.4188941"><ele>3.5</ele><time>2026-04-25T07:40:46.338Z</time></trkpt><trkpt lat="45.7932253" lon="13.4189999"><ele>3.0</ele><time>2026-04-25T07:40:48.345Z</time></trkpt><trkpt lat="45.7932513" lon="13.4191071"><ele>3.0</ele><time>2026-04-25T07:40:50.32Z</time></trkpt><trkpt lat="45.7932782" lon="13.4192125"><ele>3.0</ele><time>2026-04-25T07:40:52.317Z</time></trkpt><trkpt lat="45.7933058" lon="13.4193187"><ele>3.0</ele><time>2026-04-25T07:40:54.327Z</time></trkpt><trkpt lat="45.7933279" lon="13.4194248"><ele>3.0</ele><time>2026-04-25T07:40:56.321Z</time></trkpt><trkpt lat="45.7933829" lon="13.4194923"><ele>3.0</ele><time>2026-04-25T07:40:58.338Z</time></trkpt><trkpt lat="45.7934577" lon="13.4194751"><ele>3.0</ele><time>2026-04-25T07:41:00.323Z</time></trkpt><trkpt lat="45.7935323" lon="13.4194425"><ele>3.1428571428571423</ele><time>2026-04-25T07:41:02.316Z</time></trkpt><trkpt lat="45.7936073" lon="13.4194064"><ele>3.2857142857142856</ele><time>2026-04-25T07:41:04.341Z</time></trkpt><trkpt lat="45.7936794" lon="13.4193674"><ele>3.4285714285714284</ele><time>2026-04-25T07:41:06.322Z</time></trkpt><trkpt lat="45.7937476" lon="13.4193342"><ele>3.571428571428571</ele><time>2026-04-25T07:41:08.313Z</time></trkpt><trkpt lat="45.7938238" lon="13.4193502"><ele>3.714285714285714</ele><time>2026-04-25T07:41:11.327Z</time></trkpt><trkpt lat="45.7938561" lon="13.4194514"><ele>3.8571428571428568</ele><time>2026-04-25T07:41:14.33Z</time></trkpt><trkpt lat="45.7938764" lon="13.4195389"><ele>4.0</ele><time>2026-04-25T07:41:17.328Z</time></trkpt><trkpt lat="45.7939634" lon="13.4195109"><ele>3.9999999999999996</ele><time>2026-04-25T07:41:22.324Z</time></trkpt><trkpt lat="45.7940403" lon="13.4194518"><ele>4.0</ele><time>2026-04-25T07:41:25.332Z</time></trkpt><trkpt lat="45.794102" lon="13.4193984"><ele>4.0</ele><time>2026-04-25T07:41:27.341Z</time></trkpt><trkpt lat="45.7941792" lon="13.4193438"><ele>4.0</ele><time>2026-04-25T07:41:30.334Z</time></trkpt><trkpt lat="45.7942528" lon="13.419359"><ele>3.9999999999999996</ele><time>2026-04-25T07:41:32.327Z</time></trkpt><trkpt lat="45.7943251" lon="13.4193758"><ele>4.0</ele><time>2026-04-25T07:41:34.323Z</time></trkpt><trkpt lat="45.7943926" lon="13.4193368"><ele>3.8571428571428568</ele><time>2026-04-25T07:41:36.311Z</time></trkpt><trkpt lat="45.7944545" lon="13.4193008"><ele>3.714285714285714</ele><time>2026-04-25T07:41:38.333Z</time></trkpt><trkpt lat="45.7945141" lon="13.4192628"><ele>3.571428571428571</ele><time>2026-04-25T07:41:40.331Z</time></trkpt><trkpt lat="45.7945768" lon="13.4192247"><ele>3.4285714285714284</ele><time>2026-04-25T07:41:42.318Z</time></trkpt><trkpt lat="45.794637" lon="13.4191836"><ele>3.2857142857142856</ele><time>2026-04-25T07:41:44.317Z</time></trkpt><trkpt lat="45.7947001" lon="13.419145"><ele>3.1428571428571423</ele><time>2026-04-25T07:41:46.312Z</time></trkpt><trkpt lat="45.7947622" lon="13.4191016"><ele>3.0</ele><time>2026-04-25T07:41:48.325Z</time></trkpt><trkpt lat="45.7948261" lon="13.4190621"><ele>2.9999999999999996</ele><time>2026-04-25T07:41:50.331Z</time></trkpt><trkpt lat="45.7948874" lon="13.419021"><ele>3.0</ele><time>2026-04-25T07:41:52.319Z</time></trkpt><trkpt lat="45.7949507" lon="13.4189807"><ele>3.0</ele><time>2026-04-25T07:41:54.337Z</time></trkpt><trkpt lat="45.7950156" lon="13.4189396"><ele>3.0</ele><time>2026-04-25T07:41:56.33Z</time></trkpt><trkpt lat="45.7950796" lon="13.4188977"><ele>3.0</ele><time>2026-04-25T07:41:58.328Z</time></trkpt><trkpt lat="45.7951421" lon="13.4188565"><ele>2.9999999999999996</ele><time>2026-04-25T07:42:00.337Z</time></trkpt><trkpt lat="45.7952054" lon="13.4188181"><ele>3.0</ele><time>2026-04-25T07:42:02.33Z</time></trkpt><trkpt lat="45.7952649" lon="13.4187753"><ele>2.9999999999999996</ele><time>2026-04-25T07:42:04.335Z</time></trkpt><trkpt lat="45.7953342" lon="13.4187776"><ele>3.0</ele><time>2026-04-25T07:42:07.315Z</time></trkpt><trkpt lat="45.795362" lon="13.4188969"><ele>3.0</ele><time>2026-04-25T07:42:10.331Z</time></trkpt><trkpt lat="45.7953694" lon="13.418994"><ele>3.0</ele><time>2026-04-25T07:42:12.318Z</time></trkpt><trkpt lat="45.7953395" lon="13.4190819"><ele>3.0</ele><time>2026-04-25T07:42:14.32Z</time></trkpt><trkpt lat="45.7953103" lon="13.4191722"><ele>2.9999999999999996</ele><time>2026-04-25T07:42:16.322Z</time></trkpt><trkpt lat="45.7953069" lon="13.4192714"><ele>3.0</ele><time>2026-04-25T07:42:18.32Z</time></trkpt><trkpt lat="45.7953169" lon="13.4193951"><ele>3.0</ele><time>2026-04-25T07:42:21.324Z</time></trkpt><trkpt lat="45.7953263" lon="13.4195014"><ele>3.0</ele><time>2026-04-25T07:42:24.343Z</time></trkpt><trkpt lat="45.7953492" lon="13.4195943"><ele>3.0</ele><time>2026-04-25T07:42:29.316Z</time></trkpt><trkpt lat="45.7953609" lon="13.4196995"><ele>3.0</ele><time>2026-04-25T07:42:33.323Z</time></trkpt><trkpt lat="45.7953795" lon="13.4198206"><ele>3.0</ele><time>2026-04-25T07:42:36.334Z</time></trkpt><trkpt lat="45.7953989" lon="13.4199376"><ele>3.0</ele><time>2026-04-25T07:42:39.331Z</time></trkpt><trkpt lat="45.7954162" lon="13.4200519"><ele>2.9999999999999996</ele><time>2026-04-25T07:42:42.321Z</time></trkpt><trkpt lat="45.7954289" lon="13.4201453"><ele>3.0</ele><time>2026-04-25T07:42:45.341Z</time></trkpt><trkpt lat="45.7954265" lon="13.4200377"><ele>3.0</ele><time>2026-04-25T07:42:54.338Z</time></trkpt><trkpt lat="45.7954003" lon="13.4199525"><ele>3.0</ele><time>2026-04-25T07:42:56.327Z</time></trkpt><trkpt lat="45.7953849" lon="13.4198543"><ele>3.0</ele><time>2026-04-25T07:42:58.317Z</time></trkpt><trkpt lat="45.7953675" lon="13.4197562"><ele>2.9999999999999996</ele><time>2026-04-25T07:43:00.31Z</time></trkpt><trkpt lat="45.7953533" lon="13.4196584"><ele>3.0</ele><time>2026-04-25T07:43:02.329Z</time></trkpt><trkpt lat="45.7953395" lon="13.4195626"><ele>2.9999999999999996</ele><time>2026-04-25T07:43:04.316Z</time></trkpt><trkpt lat="45.7953252" lon="13.4194642"><ele>3.0</ele><time>2026-04-25T07:43:06.318Z</time></trkpt><trkpt lat="45.7953137" lon="13.4193653"><ele>3.0</ele><time>2026-04-25T07:43:08.333Z</time></trkpt><trkpt lat="45.7953145" lon="13.419266"><ele>3.0</ele><time>2026-04-25T07:43:10.325Z</time></trkpt><trkpt lat="45.7953316" lon="13.4191663"><ele>3.0</ele><time>2026-04-25T07:43:12.324Z</time></trkpt><trkpt lat="45.7953632" lon="13.4190739"><ele>2.9999999999999996</ele><time>2026-04-25T07:43:14.329Z</time></trkpt><trkpt lat="45.7954088" lon="13.418999"><ele>3.0</ele><time>2026-04-25T07:43:16.32Z</time></trkpt><trkpt lat="45.795477" lon="13.4189483"><ele>3.0</ele><time>2026-04-25T07:43:18.331Z</time></trkpt><trkpt lat="45.7955493" lon="13.4189016"><ele>3.0</ele><time>2026-04-25T07:43:20.327Z</time></trkpt><trkpt lat="45.7956221" lon="13.4188629"><ele>3.0</ele><time>2026-04-25T07:43:22.325Z</time></trkpt><trkpt lat="45.7956933" lon="13.4188234"><ele>3.0</ele><time>2026-04-25T07:43:24.328Z</time></trkpt><trkpt lat="45.7957639" lon="13.4187859"><ele>3.0</ele><time>2026-04-25T07:43:26.335Z</time></trkpt><trkpt lat="45.7958334" lon="13.4187479"><ele>3.0</ele><time>2026-04-25T07:43:28.333Z</time></trkpt><trkpt lat="45.7959043" lon="13.4187104"><ele>3.0</ele><time>2026-04-25T07:43:30.331Z</time></trkpt><trkpt lat="45.7959773" lon="13.4186724"><ele>3.0</ele><time>2026-04-25T07:43:32.351Z</time></trkpt><trkpt lat="45.7960525" lon="13.4186321"><ele>3.0</ele><time>2026-04-25T07:43:34.325Z</time></trkpt><trkpt lat="45.7961266" lon="13.4185928"><ele>3.0</ele><time>2026-04-25T07:43:36.34Z</time></trkpt><trkpt lat="45.7962024" lon="13.4185503"><ele>3.0</ele><time>2026-04-25T07:43:38.324Z</time></trkpt><trkpt lat="45.7962779" lon="13.4185099"><ele>3.0</ele><time>2026-04-25T07:43:40.337Z</time></trkpt><trkpt lat="45.7963534" lon="13.4184688"><ele>3.1666666666666665</ele><time>2026-04-25T07:43:42.322Z</time></trkpt><trkpt lat="45.7964286" lon="13.4184266"><ele>3.333333333333333</ele><time>2026-04-25T07:43:44.332Z</time></trkpt><trkpt lat="45.7965036" lon="13.4183858"><ele>3.5</ele><time>2026-04-25T07:43:46.324Z</time></trkpt><trkpt lat="45.79658" lon="13.418347"><ele>3.6666666666666665</ele><time>2026-04-25T07:43:48.326Z</time></trkpt><trkpt lat="45.7966552" lon="13.4183078"><ele>3.833333333333333</ele><time>2026-04-25T07:43:50.346Z</time></trkpt><trkpt lat="45.7967311" lon="13.418267"><ele>4.0</ele><time>2026-04-25T07:43:52.339Z</time></trkpt><trkpt lat="45.7968074" lon="13.418228"><ele>3.833333333333333</ele><time>2026-04-25T07:43:54.337Z</time></trkpt><trkpt lat="45.7968831" lon="13.4181883"><ele>3.6666666666666665</ele><time>2026-04-25T07:43:56.337Z</time></trkpt><trkpt lat="45.7969578" lon="13.4181477"><ele>3.5</ele><time>2026-04-25T07:43:58.351Z</time></trkpt><trkpt lat="45.7970358" lon="13.4181069"><ele>3.333333333333333</ele><time>2026-04-25T07:44:00.321Z</time></trkpt><trkpt lat="45.7971149" lon="13.4180625"><ele>3.1666666666666665</ele><time>2026-04-25T07:44:02.324Z</time></trkpt><trkpt lat="45.7971868" lon="13.418024"><ele>3.0</ele><time>2026-04-25T07:44:04.326Z</time></trkpt><trkpt lat="45.7972591" lon="13.4179836"><ele>3.0</ele><time>2026-04-25T07:44:06.323Z</time></trkpt><trkpt lat="45.7973345" lon="13.4179426"><ele>3.0</ele><time>2026-04-25T07:44:08.331Z</time></trkpt><trkpt lat="45.7974079" lon="13.4179056"><ele>3.0</ele><time>2026-04-25T07:44:10.322Z</time></trkpt><trkpt lat="45.7974821" lon="13.4178673"><ele>3.0</ele><time>2026-04-25T07:44:12.322Z</time></trkpt><trkpt lat="45.7975557" lon="13.4178238"><ele>3.0</ele><time>2026-04-25T07:44:14.324Z</time></trkpt><trkpt lat="45.7976288" lon="13.4177845"><ele>3.0</ele><time>2026-04-25T07:44:16.339Z</time></trkpt><trkpt lat="45.7977016" lon="13.4177448"><ele>3.0</ele><time>2026-04-25T07:44:18.316Z</time></trkpt><trkpt lat="45.797767" lon="13.4176868"><ele>3.0</ele><time>2026-04-25T07:44:20.323Z</time></trkpt><trkpt lat="45.7978238" lon="13.417609"><ele>3.0</ele><time>2026-04-25T07:44:22.339Z</time></trkpt><trkpt lat="45.7978719" lon="13.4175204"><ele>3.0</ele><time>2026-04-25T07:44:24.324Z</time></trkpt><trkpt lat="45.797913" lon="13.4174277"><ele>3.0</ele><time>2026-04-25T07:44:26.317Z</time></trkpt><trkpt lat="45.7979538" lon="13.4173357"><ele>3.0</ele><time>2026-04-25T07:44:28.34Z</time></trkpt><trkpt lat="45.7980246" lon="13.4173021"><ele>3.0</ele><time>2026-04-25T07:44:30.338Z</time></trkpt><trkpt lat="45.7980846" lon="13.4173622"><ele>3.0</ele><time>2026-04-25T07:44:32.34Z</time></trkpt><trkpt lat="45.7981222" lon="13.4174625"><ele>3.0</ele><time>2026-04-25T07:44:34.335Z</time></trkpt><trkpt lat="45.7981593" lon="13.4175679"><ele>3.0</ele><time>2026-04-25T07:44:36.322Z</time></trkpt><trkpt lat="45.798194" lon="13.4176674"><ele>3.0</ele><time>2026-04-25T07:44:38.326Z</time></trkpt><trkpt lat="45.7982297" lon="13.4177693"><ele>3.0</ele><time>2026-04-25T07:44:40.342Z</time></trkpt><trkpt lat="45.7982622" lon="13.4178749"><ele>3.0</ele><time>2026-04-25T07:44:42.342Z</time></trkpt><trkpt lat="45.7982985" lon="13.4179791"><ele>3.0</ele><time>2026-04-25T07:44:44.325Z</time></trkpt><trkpt lat="45.7983334" lon="13.4180827"><ele>3.0</ele><time>2026-04-25T07:44:46.332Z</time></trkpt><trkpt lat="45.7983654" lon="13.4181862"><ele>3.0</ele><time>2026-04-25T07:44:48.348Z</time></trkpt><trkpt lat="45.7983797" lon="13.4182964"><ele>3.0</ele><time>2026-04-25T07:44:50.342Z</time></trkpt><trkpt lat="45.7983733" lon="13.4184056"><ele>3.0</ele><time>2026-04-25T07:44:52.345Z</time></trkpt><trkpt lat="45.7983586" lon="13.418513"><ele>2.6666666666666665</ele><time>2026-04-25T07:44:54.324Z</time></trkpt><trkpt lat="45.7983809" lon="13.418614"><ele>2.3333333333333335</ele><time>2026-04-25T07:44:56.333Z</time></trkpt><trkpt lat="45.7984521" lon="13.4186386"><ele>2.0</ele><time>2026-04-25T07:44:58.337Z</time></trkpt><trkpt lat="45.7985279" lon="13.4186507"><ele>1.6666666666666665</ele><time>2026-04-25T07:45:00.331Z</time></trkpt><trkpt lat="45.7986068" lon="13.418668"><ele>1.3333333333333333</ele><time>2026-04-25T07:45:02.328Z</time></trkpt><trkpt lat="45.7986862" lon="13.4186846"><ele>1.0</ele><time>2026-04-25T07:45:04.325Z</time></trkpt><trkpt lat="45.7987654" lon="13.4186979"><ele>0.9999999999999999</ele><time>2026-04-25T07:45:06.328Z</time></trkpt><trkpt lat="45.798846" lon="13.4187177"><ele>1.0</ele><time>2026-04-25T07:45:08.341Z</time></trkpt><trkpt lat="45.7989279" lon="13.4187301"><ele>1.0</ele><time>2026-04-25T07:45:10.331Z</time></trkpt><trkpt lat="45.7990101" lon="13.4187376"><ele>1.0</ele><time>2026-04-25T07:45:12.331Z</time></trkpt><trkpt lat="45.799093" lon="13.4187363"><ele>0.9999999999999999</ele><time>2026-04-25T07:45:14.326Z</time></trkpt><trkpt lat="45.7991744" lon="13.4187155"><ele>1.0</ele><time>2026-04-25T07:45:16.322Z</time></trkpt><trkpt lat="45.7992579" lon="13.4187085"><ele>1.5</ele><time>2026-04-25T07:45:18.321Z</time></trkpt><trkpt lat="45.7993408" lon="13.4186959"><ele>2.0</ele><time>2026-04-25T07:45:20.319Z</time></trkpt><trkpt lat="45.7994234" lon="13.4186846"><ele>2.5</ele><time>2026-04-25T07:45:22.319Z</time></trkpt><trkpt lat="45.7995063" lon="13.4186813"><ele>3.0</ele><time>2026-04-25T07:45:24.322Z</time></trkpt><trkpt lat="45.799588" lon="13.4186739"><ele>3.4999999999999996</ele><time>2026-04-25T07:45:26.331Z</time></trkpt><trkpt lat="45.7996714" lon="13.4186592"><ele>4.0</ele><time>2026-04-25T07:45:28.325Z</time></trkpt><trkpt lat="45.7997454" lon="13.418691"><ele>3.9999999999999996</ele><time>2026-04-25T07:45:30.321Z</time></trkpt><trkpt lat="45.7997661" lon="13.418783"><ele>4.0</ele><time>2026-04-25T07:45:32.313Z</time></trkpt><trkpt lat="45.7997454" lon="13.4188875"><ele>4.0</ele><time>2026-04-25T07:45:34.324Z</time></trkpt><trkpt lat="45.7997172" lon="13.418995"><ele>4.0</ele><time>2026-04-25T07:45:36.319Z</time></trkpt><trkpt lat="45.7996693" lon="13.4190915"><ele>3.9999999999999996</ele><time>2026-04-25T07:45:38.334Z</time></trkpt><trkpt lat="45.7996124" lon="13.4191774"><ele>4.0</ele><time>2026-04-25T07:45:40.304Z</time></trkpt><trkpt lat="45.7995543" lon="13.4192592"><ele>4.166666666666666</ele><time>2026-04-25T07:45:42.348Z</time></trkpt><trkpt lat="45.7994978" lon="13.4193407"><ele>4.333333333333333</ele><time>2026-04-25T07:45:44.336Z</time></trkpt><trkpt lat="45.7994397" lon="13.4194204"><ele>4.5</ele><time>2026-04-25T07:45:46.328Z</time></trkpt><trkpt lat="45.7993822" lon="13.4194996"><ele>4.666666666666667</ele><time>2026-04-25T07:45:48.331Z</time></trkpt><trkpt lat="45.799325" lon="13.4195787"><ele>4.833333333333334</ele><time>2026-04-25T07:45:50.313Z</time></trkpt><trkpt lat="45.7992659" lon="13.4196591"><ele>5.0</ele><time>2026-04-25T07:45:52.315Z</time></trkpt><trkpt lat="45.7992054" lon="13.4197419"><ele>5.0</ele><time>2026-04-25T07:45:54.326Z</time></trkpt><trkpt lat="45.7991442" lon="13.4198268"><ele>5.0</ele><time>2026-04-25T07:45:56.337Z</time></trkpt><trkpt lat="45.7990835" lon="13.419911"><ele>5.0</ele><time>2026-04-25T07:45:58.319Z</time></trkpt><trkpt lat="45.7990225" lon="13.4199922"><ele>5.0</ele><time>2026-04-25T07:46:00.324Z</time></trkpt><trkpt lat="45.7989615" lon="13.4200724"><ele>5.0</ele><time>2026-04-25T07:46:02.32Z</time></trkpt><trkpt lat="45.7989018" lon="13.420155"><ele>5.0</ele><time>2026-04-25T07:46:04.321Z</time></trkpt><trkpt lat="45.7988438" lon="13.4202313"><ele>5.0</ele><time>2026-04-25T07:46:06.312Z</time></trkpt><trkpt lat="45.7987983" lon="13.4203122"><ele>5.0</ele><time>2026-04-25T07:46:08.337Z</time></trkpt><trkpt lat="45.798815" lon="13.4204237"><ele>5.0</ele><time>2026-04-25T07:46:10.335Z</time></trkpt><trkpt lat="45.7988479" lon="13.4205296"><ele>5.0</ele><time>2026-04-25T07:46:12.33Z</time></trkpt><trkpt lat="45.7988891" lon="13.4206392"><ele>5.0</ele><time>2026-04-25T07:46:14.34Z</time></trkpt><trkpt lat="45.7989441" lon="13.4207281"><ele>5.0</ele><time>2026-04-25T07:46:16.336Z</time></trkpt><trkpt lat="45.7990195" lon="13.420788"><ele>4.833333333333334</ele><time>2026-04-25T07:46:18.321Z</time></trkpt><trkpt lat="45.7991001" lon="13.4208217"><ele>4.666666666666667</ele><time>2026-04-25T07:46:20.324Z</time></trkpt><trkpt lat="45.7991832" lon="13.4208283"><ele>4.5</ele><time>2026-04-25T07:46:22.343Z</time></trkpt><trkpt lat="45.7992599" lon="13.4207977"><ele>4.333333333333333</ele><time>2026-04-25T07:46:24.332Z</time></trkpt><trkpt lat="45.7993273" lon="13.4207369"><ele>4.166666666666666</ele><time>2026-04-25T07:46:26.327Z</time></trkpt><trkpt lat="45.7993943" lon="13.4206617"><ele>4.0</ele><time>2026-04-25T07:46:28.331Z</time></trkpt><trkpt lat="45.7994637" lon="13.4205858"><ele>3.833333333333333</ele><time>2026-04-25T07:46:30.33Z</time></trkpt><trkpt lat="45.7995349" lon="13.4205083"><ele>3.6666666666666665</ele><time>2026-04-25T07:46:32.338Z</time></trkpt><trkpt lat="45.7996065" lon="13.4204301"><ele>3.5</ele><time>2026-04-25T07:46:34.334Z</time></trkpt><trkpt lat="45.7996757" lon="13.4203482"><ele>3.333333333333333</ele><time>2026-04-25T07:46:36.327Z</time></trkpt><trkpt lat="45.7997434" lon="13.4202701"><ele>3.1666666666666665</ele><time>2026-04-25T07:46:38.335Z</time></trkpt><trkpt lat="45.7998104" lon="13.4202153"><ele>3.0</ele><time>2026-04-25T07:46:40.325Z</time></trkpt><trkpt lat="45.7998668" lon="13.4203284"><ele>3.0</ele><time>2026-04-25T07:46:43.325Z</time></trkpt><trkpt lat="45.7998924" lon="13.4204396"><ele>3.0</ele><time>2026-04-25T07:46:45.323Z</time></trkpt><trkpt lat="45.7999187" lon="13.4205542"><ele>3.0</ele><time>2026-04-25T07:46:47.329Z</time></trkpt><trkpt lat="45.7999461" lon="13.4206697"><ele>3.0</ele><time>2026-04-25T07:46:49.327Z</time></trkpt><trkpt lat="45.7999713" lon="13.4207857"><ele>3.0</ele><time>2026-04-25T07:46:51.322Z</time></trkpt><trkpt lat="45.7999984" lon="13.4209011"><ele>3.0</ele><time>2026-04-25T07:46:53.34Z</time></trkpt><trkpt lat="45.800025" lon="13.4210158"><ele>3.0</ele><time>2026-04-25T07:46:55.331Z</time></trkpt><trkpt lat="45.8000469" lon="13.421131"><ele>3.0</ele><time>2026-04-25T07:46:57.373Z</time></trkpt><trkpt lat="45.8000769" lon="13.4212429"><ele>3.0</ele><time>2026-04-25T07:46:59.35Z</time></trkpt><trkpt lat="45.8001197" lon="13.4213488"><ele>3.0</ele><time>2026-04-25T07:47:01.337Z</time></trkpt><trkpt lat="45.8001678" lon="13.4214482"><ele>3.0</ele><time>2026-04-25T07:47:03.342Z</time></trkpt><trkpt lat="45.8002159" lon="13.4215561"><ele>3.0</ele><time>2026-04-25T07:47:05.344Z</time></trkpt><trkpt lat="45.8002613" lon="13.42168"><ele>3.666666666666667</ele><time>2026-04-25T07:47:07.336Z</time></trkpt><trkpt lat="45.8003082" lon="13.4217963"><ele>4.333333333333334</ele><time>2026-04-25T07:47:09.328Z</time></trkpt><trkpt lat="45.8003699" lon="13.4218879"><ele>5.0</ele><time>2026-04-25T07:47:11.317Z</time></trkpt><trkpt lat="45.8004427" lon="13.4219495"><ele>5.666666666666667</ele><time>2026-04-25T07:47:13.346Z</time></trkpt><trkpt lat="45.8005209" lon="13.4220093"><ele>6.333333333333334</ele><time>2026-04-25T07:47:15.36Z</time></trkpt><trkpt lat="45.8006032" lon="13.422064"><ele>7.0</ele><time>2026-04-25T07:47:17.334Z</time></trkpt><trkpt lat="45.8006906" lon="13.4220919"><ele>7.000000000000001</ele><time>2026-04-25T07:47:19.341Z</time></trkpt><trkpt lat="45.8007764" lon="13.4221164"><ele>7.0</ele><time>2026-04-25T07:47:21.329Z</time></trkpt><trkpt lat="45.8008634" lon="13.4221111"><ele>7.0</ele><time>2026-04-25T07:47:23.322Z</time></trkpt><trkpt lat="45.8009518" lon="13.422102"><ele>7.0</ele><time>2026-04-25T07:47:25.327Z</time></trkpt><trkpt lat="45.8010412" lon="13.4221158"><ele>7.000000000000001</ele><time>2026-04-25T07:47:27.316Z</time></trkpt><trkpt lat="45.8011275" lon="13.4221568"><ele>7.0</ele><time>2026-04-25T07:47:29.318Z</time></trkpt><trkpt lat="45.8012044" lon="13.4222202"><ele>6.666666666666667</ele><time>2026-04-25T07:47:31.335Z</time></trkpt><trkpt lat="45.8012671" lon="13.4222964"><ele>6.333333333333334</ele><time>2026-04-25T07:47:33.328Z</time></trkpt><trkpt lat="45.8013242" lon="13.4223684"><ele>6.0</ele><time>2026-04-25T07:47:35.324Z</time></trkpt><trkpt lat="45.8013745" lon="13.422438"><ele>5.666666666666667</ele><time>2026-04-25T07:47:37.325Z</time></trkpt><trkpt lat="45.8014259" lon="13.4225135"><ele>5.333333333333334</ele><time>2026-04-25T07:47:39.321Z</time></trkpt><trkpt lat="45.8014719" lon="13.4226078"><ele>5.0</ele><time>2026-04-25T07:47:41.325Z</time></trkpt><trkpt lat="45.8015269" lon="13.422701"><ele>5.0</ele><time>2026-04-25T07:47:43.325Z</time></trkpt><trkpt lat="45.8015862" lon="13.4227946"><ele>5.0</ele><time>2026-04-25T07:47:45.324Z</time></trkpt><trkpt lat="45.8016459" lon="13.422889"><ele>5.0</ele><time>2026-04-25T07:47:47.336Z</time></trkpt><trkpt lat="45.801704" lon="13.4229815"><ele>5.0</ele><time>2026-04-25T07:47:49.344Z</time></trkpt><trkpt lat="45.8017651" lon="13.4230756"><ele>5.0</ele><time>2026-04-25T07:47:51.328Z</time></trkpt><trkpt lat="45.8018298" lon="13.423167"><ele>5.0</ele><time>2026-04-25T07:47:53.322Z</time></trkpt><trkpt lat="45.8018894" lon="13.4232585"><ele>4.666666666666667</ele><time>2026-04-25T07:47:55.344Z</time></trkpt><trkpt lat="45.8019439" lon="13.4233514"><ele>4.333333333333334</ele><time>2026-04-25T07:47:57.314Z</time></trkpt><trkpt lat="45.8019949" lon="13.4234494"><ele>4.0</ele><time>2026-04-25T07:47:59.329Z</time></trkpt><trkpt lat="45.80205" lon="13.4235352"><ele>3.666666666666667</ele><time>2026-04-25T07:48:01.344Z</time></trkpt><trkpt lat="45.8021093" lon="13.4236157"><ele>3.3333333333333335</ele><time>2026-04-25T07:48:04.321Z</time></trkpt><trkpt lat="45.8021785" lon="13.4236297"><ele>3.0</ele><time>2026-04-25T07:48:07.323Z</time></trkpt><trkpt lat="45.8022457" lon="13.4235757"><ele>3.0</ele><time>2026-04-25T07:48:09.319Z</time></trkpt><trkpt lat="45.8023245" lon="13.4235287"><ele>3.0</ele><time>2026-04-25T07:48:11.349Z</time></trkpt><trkpt lat="45.8023995" lon="13.4235784"><ele>3.0</ele><time>2026-04-25T07:48:13.323Z</time></trkpt><trkpt lat="45.8024642" lon="13.4236586"><ele>3.0</ele><time>2026-04-25T07:48:15.34Z</time></trkpt><trkpt lat="45.8025362" lon="13.4237325"><ele>3.0</ele><time>2026-04-25T07:48:17.325Z</time></trkpt><trkpt lat="45.8026058" lon="13.4238131"><ele>3.0</ele><time>2026-04-25T07:48:19.345Z</time></trkpt><trkpt lat="45.8026754" lon="13.423896"><ele>3.0</ele><time>2026-04-25T07:48:21.333Z</time></trkpt><trkpt lat="45.8027443" lon="13.4239776"><ele>3.0</ele><time>2026-04-25T07:48:23.345Z</time></trkpt><trkpt lat="45.8028141" lon="13.4240558"><ele>3.0</ele><time>2026-04-25T07:48:25.345Z</time></trkpt><trkpt lat="45.8028839" lon="13.424132"><ele>3.0</ele><time>2026-04-25T07:48:27.334Z</time></trkpt><trkpt lat="45.8029522" lon="13.4242099"><ele>3.0</ele><time>2026-04-25T07:48:29.328Z</time></trkpt><trkpt lat="45.8030219" lon="13.4242871"><ele>3.0</ele><time>2026-04-25T07:48:31.327Z</time></trkpt><trkpt lat="45.8030864" lon="13.4243611"><ele>3.0</ele><time>2026-04-25T07:48:33.35Z</time></trkpt><trkpt lat="45.8031524" lon="13.4244331"><ele>3.0</ele><time>2026-04-25T07:48:35.341Z</time></trkpt><trkpt lat="45.8032183" lon="13.4245053"><ele>3.0</ele><time>2026-04-25T07:48:37.334Z</time></trkpt><trkpt lat="45.803285" lon="13.4245744"><ele>3.0</ele><time>2026-04-25T07:48:39.323Z</time></trkpt><trkpt lat="45.8033564" lon="13.4246413"><ele>3.0</ele><time>2026-04-25T07:48:41.334Z</time></trkpt><trkpt lat="45.8034284" lon="13.4247086"><ele>3.0</ele><time>2026-04-25T07:48:43.342Z</time></trkpt><trkpt lat="45.8035013" lon="13.4247744"><ele>3.3333333333333335</ele><time>2026-04-25T07:48:45.371Z</time></trkpt><trkpt lat="45.8035751" lon="13.424836"><ele>3.666666666666667</ele><time>2026-04-25T07:48:47.324Z</time></trkpt><trkpt lat="45.8036507" lon="13.4248918"><ele>4.0</ele><time>2026-04-25T07:48:49.357Z</time></trkpt><trkpt lat="45.8037265" lon="13.4249446"><ele>4.333333333333334</ele><time>2026-04-25T07:48:51.326Z</time></trkpt><trkpt lat="45.8038062" lon="13.4249901"><ele>4.666666666666667</ele><time>2026-04-25T07:48:53.349Z</time></trkpt><trkpt lat="45.8038852" lon="13.425036"><ele>5.0</ele><time>2026-04-25T07:48:55.317Z</time></trkpt><trkpt lat="45.8039617" lon="13.4250903"><ele>5.0</ele><time>2026-04-25T07:48:57.351Z</time></trkpt><trkpt lat="45.8040428" lon="13.4251206"><ele>5.0</ele><time>2026-04-25T07:48:59.325Z</time></trkpt><trkpt lat="45.8041232" lon="13.42516"><ele>5.0</ele><time>2026-04-25T07:49:01.328Z</time></trkpt><trkpt lat="45.8042026" lon="13.4251996"><ele>5.0</ele><time>2026-04-25T07:49:03.327Z</time></trkpt><trkpt lat="45.8042814" lon="13.4252419"><ele>5.0</ele><time>2026-04-25T07:49:05.328Z</time></trkpt><trkpt lat="45.8043553" lon="13.4252849"><ele>5.0</ele><time>2026-04-25T07:49:07.322Z</time></trkpt><trkpt lat="45.8044246" lon="13.4253274"><ele>5.0</ele><time>2026-04-25T07:49:09.351Z</time></trkpt><trkpt lat="45.8044922" lon="13.4253637"><ele>5.0</ele><time>2026-04-25T07:49:11.351Z</time></trkpt><trkpt lat="45.804565" lon="13.4253948"><ele>5.0</ele><time>2026-04-25T07:49:13.335Z</time></trkpt><trkpt lat="45.8046352" lon="13.4254319"><ele>5.0</ele><time>2026-04-25T07:49:15.33Z</time></trkpt><trkpt lat="45.8047027" lon="13.4254733"><ele>5.0</ele><time>2026-04-25T07:49:17.344Z</time></trkpt><trkpt lat="45.8047607" lon="13.4255258"><ele>5.0</ele><time>2026-04-25T07:49:19.33Z</time></trkpt><trkpt lat="45.8047972" lon="13.4256036"><ele>5.0</ele><time>2026-04-25T07:49:21.352Z</time></trkpt><trkpt lat="45.8048001" lon="13.4257116"><ele>5.333333333333334</ele><time>2026-04-25T07:49:23.324Z</time></trkpt><trkpt lat="45.8047947" lon="13.4258243"><ele>5.666666666666667</ele><time>2026-04-25T07:49:25.37Z</time></trkpt><trkpt lat="45.8047894" lon="13.4259352"><ele>6.0</ele><time>2026-04-25T07:49:27.322Z</time></trkpt><trkpt lat="45.8047857" lon="13.4260471"><ele>6.333333333333334</ele><time>2026-04-25T07:49:29.324Z</time></trkpt><trkpt lat="45.8047857" lon="13.426159"><ele>6.666666666666667</ele><time>2026-04-25T07:49:31.325Z</time></trkpt><trkpt lat="45.8047906" lon="13.4262709"><ele>7.0</ele><time>2026-04-25T07:49:33.34Z</time></trkpt><trkpt lat="45.8047991" lon="13.4263831"><ele>7.500000000000001</ele><time>2026-04-25T07:49:35.326Z</time></trkpt><trkpt lat="45.8048106" lon="13.4264935"><ele>8.0</ele><time>2026-04-25T07:49:37.317Z</time></trkpt><trkpt lat="45.8048226" lon="13.4266089"><ele>8.5</ele><time>2026-04-25T07:49:39.342Z</time></trkpt><trkpt lat="45.8048375" lon="13.4267291"><ele>9.0</ele><time>2026-04-25T07:49:41.327Z</time></trkpt><trkpt lat="45.8048573" lon="13.4268513"><ele>9.5</ele><time>2026-04-25T07:49:43.322Z</time></trkpt><trkpt lat="45.8048794" lon="13.4269722"><ele>10.0</ele><time>2026-04-25T07:49:45.345Z</time></trkpt><trkpt lat="45.8049032" lon="13.4270922"><ele>10.0</ele><time>2026-04-25T07:49:47.314Z</time></trkpt><trkpt lat="45.8049313" lon="13.4272109"><ele>10.0</ele><time>2026-04-25T07:49:49.342Z</time></trkpt><trkpt lat="45.804962" lon="13.4273306"><ele>10.0</ele><time>2026-04-25T07:49:51.327Z</time></trkpt><trkpt lat="45.8049931" lon="13.4274507"><ele>10.0</ele><time>2026-04-25T07:49:53.33Z</time></trkpt><trkpt lat="45.8050269" lon="13.4275695"><ele>10.0</ele><time>2026-04-25T07:49:55.319Z</time></trkpt><trkpt lat="45.8050609" lon="13.4276937"><ele>10.0</ele><time>2026-04-25T07:49:57.332Z</time></trkpt><trkpt lat="45.8050944" lon="13.4278168"><ele>10.0</ele><time>2026-04-25T07:49:59.339Z</time></trkpt><trkpt lat="45.8051307" lon="13.4279399"><ele>10.0</ele><time>2026-04-25T07:50:01.336Z</time></trkpt><trkpt lat="45.8051666" lon="13.4280669"><ele>10.0</ele><time>2026-04-25T07:50:03.327Z</time></trkpt><trkpt lat="45.8052037" lon="13.4281985"><ele>10.0</ele><time>2026-04-25T07:50:05.336Z</time></trkpt><trkpt lat="45.8052421" lon="13.4283311"><ele>10.0</ele><time>2026-04-25T07:50:07.331Z</time></trkpt><trkpt lat="45.8052801" lon="13.4284671"><ele>9.6</ele><time>2026-04-25T07:50:09.343Z</time></trkpt><trkpt lat="45.8053198" lon="13.4286034"><ele>9.2</ele><time>2026-04-25T07:50:11.348Z</time></trkpt><trkpt lat="45.805358" lon="13.4287408"><ele>8.8</ele><time>2026-04-25T07:50:13.332Z</time></trkpt><trkpt lat="45.8053969" lon="13.4288783"><ele>8.4</ele><time>2026-04-25T07:50:15.332Z</time></trkpt><trkpt lat="45.805436" lon="13.4290149"><ele>8.0</ele><time>2026-04-25T07:50:17.35Z</time></trkpt><trkpt lat="45.8054754" lon="13.4291527"><ele>7.2</ele><time>2026-04-25T07:50:19.333Z</time></trkpt><trkpt lat="45.8055142" lon="13.4292903"><ele>6.4</ele><time>2026-04-25T07:50:21.344Z</time></trkpt><trkpt lat="45.8055533" lon="13.4294289"><ele>5.6000000000000005</ele><time>2026-04-25T07:50:23.329Z</time></trkpt><trkpt lat="45.8055921" lon="13.4295669"><ele>4.800000000000001</ele><time>2026-04-25T07:50:25.339Z</time></trkpt><trkpt lat="45.8056308" lon="13.4297061"><ele>4.0</ele><time>2026-04-25T07:50:27.346Z</time></trkpt><trkpt lat="45.8056699" lon="13.4298448"><ele>4.0</ele><time>2026-04-25T07:50:29.325Z</time></trkpt><trkpt lat="45.8057092" lon="13.4299832"><ele>4.0</ele><time>2026-04-25T07:50:31.346Z</time></trkpt><trkpt lat="45.8057491" lon="13.4301221"><ele>4.0</ele><time>2026-04-25T07:50:33.317Z</time></trkpt><trkpt lat="45.8057879" lon="13.430259"><ele>4.0</ele><time>2026-04-25T07:50:35.339Z</time></trkpt><trkpt lat="45.8058274" lon="13.4303982"><ele>4.0</ele><time>2026-04-25T07:50:37.358Z</time></trkpt><trkpt lat="45.8058655" lon="13.4305359"><ele>4.0</ele><time>2026-04-25T07:50:39.334Z</time></trkpt><trkpt lat="45.8059056" lon="13.4306739"><ele>4.0</ele><time>2026-04-25T07:50:41.349Z</time></trkpt><trkpt lat="45.8059465" lon="13.4308141"><ele>4.0</ele><time>2026-04-25T07:50:43.334Z</time></trkpt><trkpt lat="45.805985" lon="13.4309552"><ele>4.0</ele><time>2026-04-25T07:50:45.342Z</time></trkpt><trkpt lat="45.8060258" lon="13.4310957"><ele>4.0</ele><time>2026-04-25T07:50:47.339Z</time></trkpt><trkpt lat="45.8060664" lon="13.4312357"><ele>4.2</ele><time>2026-04-25T07:50:49.333Z</time></trkpt><trkpt lat="45.8061067" lon="13.4313805"><ele>4.4</ele><time>2026-04-25T07:50:51.327Z</time></trkpt><trkpt lat="45.8061487" lon="13.4315252"><ele>4.6</ele><time>2026-04-25T07:50:53.345Z</time></trkpt><trkpt lat="45.8061905" lon="13.4316714"><ele>4.8</ele><time>2026-04-25T07:50:55.34Z</time></trkpt><trkpt lat="45.8062322" lon="13.4318201"><ele>5.0</ele><time>2026-04-25T07:50:57.333Z</time></trkpt><trkpt lat="45.8062741" lon="13.4319687"><ele>5.0</ele><time>2026-04-25T07:50:59.328Z</time></trkpt><trkpt lat="45.8063174" lon="13.4321185"><ele>5.0</ele><time>2026-04-25T07:51:01.321Z</time></trkpt><trkpt lat="45.8063599" lon="13.4322682"><ele>5.0</ele><time>2026-04-25T07:51:03.327Z</time></trkpt><trkpt lat="45.8064035" lon="13.4324197"><ele>5.0</ele><time>2026-04-25T07:51:05.333Z</time></trkpt><trkpt lat="45.8064472" lon="13.4325695"><ele>6.25</ele><time>2026-04-25T07:51:07.334Z</time></trkpt><trkpt lat="45.8064881" lon="13.4327208"><ele>7.5</ele><time>2026-04-25T07:51:09.327Z</time></trkpt><trkpt lat="45.8065313" lon="13.4328715"><ele>8.75</ele><time>2026-04-25T07:51:11.32Z</time></trkpt><trkpt lat="45.8065751" lon="13.4330233"><ele>10.0</ele><time>2026-04-25T07:51:13.317Z</time></trkpt><trkpt lat="45.806618" lon="13.4331737"><ele>10.25</ele><time>2026-04-25T07:51:15.329Z</time></trkpt><trkpt lat="45.8066604" lon="13.4333197"><ele>10.5</ele><time>2026-04-25T07:51:17.32Z</time></trkpt><trkpt lat="45.806706" lon="13.4334702"><ele>10.75</ele><time>2026-04-25T07:51:19.318Z</time></trkpt><trkpt lat="45.8067557" lon="13.4336241"><ele>11.0</ele><time>2026-04-25T07:51:21.329Z</time></trkpt><trkpt lat="45.8068078" lon="13.4337796"><ele>10.0</ele><time>2026-04-25T07:51:23.319Z</time></trkpt><trkpt lat="45.8068612" lon="13.4339337"><ele>9.0</ele><time>2026-04-25T07:51:25.312Z</time></trkpt><trkpt lat="45.8069108" lon="13.4340872"><ele>8.0</ele><time>2026-04-25T07:51:27.326Z</time></trkpt><trkpt lat="45.8069603" lon="13.4342416"><ele>7.0</ele><time>2026-04-25T07:51:29.319Z</time></trkpt><trkpt lat="45.807025" lon="13.4343927"><ele>7.0</ele><time>2026-04-25T07:51:31.338Z</time></trkpt><trkpt lat="45.8070902" lon="13.4344903"><ele>6.999999999999999</ele><time>2026-04-25T07:51:33.334Z</time></trkpt><trkpt lat="45.8071636" lon="13.4344686"><ele>6.999999999999999</ele><time>2026-04-25T07:51:35.325Z</time></trkpt><trkpt lat="45.8072508" lon="13.4343782"><ele>7.0</ele><time>2026-04-25T07:51:37.329Z</time></trkpt><trkpt lat="45.8073444" lon="13.4342858"><ele>7.0</ele><time>2026-04-25T07:51:39.322Z</time></trkpt><trkpt lat="45.8074402" lon="13.4341908"><ele>7.0</ele><time>2026-04-25T07:51:41.347Z</time></trkpt><trkpt lat="45.8075371" lon="13.4341026"><ele>7.0</ele><time>2026-04-25T07:51:43.312Z</time></trkpt><trkpt lat="45.8076348" lon="13.4340195"><ele>7.0</ele><time>2026-04-25T07:51:45.334Z</time></trkpt><trkpt lat="45.8077338" lon="13.4339407"><ele>7.0</ele><time>2026-04-25T07:51:47.332Z</time></trkpt><trkpt lat="45.8078299" lon="13.4338636"><ele>6.6</ele><time>2026-04-25T07:51:49.328Z</time></trkpt><trkpt lat="45.8079231" lon="13.4337835"><ele>6.199999999999999</ele><time>2026-04-25T07:51:51.309Z</time></trkpt><trkpt lat="45.8080174" lon="13.4337078"><ele>5.8</ele><time>2026-04-25T07:51:53.333Z</time></trkpt><trkpt lat="45.8081119" lon="13.4336327"><ele>5.4</ele><time>2026-04-25T07:51:55.317Z</time></trkpt><trkpt lat="45.8082064" lon="13.4335571"><ele>5.0</ele><time>2026-04-25T07:51:57.338Z</time></trkpt><trkpt lat="45.8083004" lon="13.4334785"><ele>5.0</ele><time>2026-04-25T07:51:59.333Z</time></trkpt><trkpt lat="45.8083945" lon="13.433404"><ele>5.0</ele><time>2026-04-25T07:52:01.344Z</time></trkpt><trkpt lat="45.8084895" lon="13.4333309"><ele>5.0</ele><time>2026-04-25T07:52:03.33Z</time></trkpt><trkpt lat="45.8085846" lon="13.4332548"><ele>5.0</ele><time>2026-04-25T07:52:05.33Z</time></trkpt><trkpt lat="45.8086747" lon="13.4331694"><ele>5.0</ele><time>2026-04-25T07:52:07.339Z</time></trkpt><trkpt lat="45.808768" lon="13.4330713"><ele>5.285714285714286</ele><time>2026-04-25T07:52:09.346Z</time></trkpt><trkpt lat="45.8088155" lon="13.4330103"><ele>5.571428571428571</ele><time>2026-04-25T07:52:10.328Z</time></trkpt><trkpt lat="45.8088558" lon="13.4329352"><ele>5.857142857142858</ele><time>2026-04-25T07:52:11.344Z</time></trkpt><trkpt lat="45.8088846" lon="13.4328464"><ele>6.142857142857142</ele><time>2026-04-25T07:52:12.354Z</time></trkpt><trkpt lat="45.8089037" lon="13.4327494"><ele>6.428571428571429</ele><time>2026-04-25T07:52:13.343Z</time></trkpt><trkpt lat="45.8089083" lon="13.4326547"><ele>6.714285714285714</ele><time>2026-04-25T07:52:14.343Z</time></trkpt><trkpt lat="45.8088999" lon="13.4324942"><ele>7.0</ele><time>2026-04-25T07:52:16.344Z</time></trkpt><trkpt lat="45.8089613" lon="13.4323705"><ele>7.0</ele><time>2026-04-25T07:52:18.338Z</time></trkpt><trkpt lat="45.8090595" lon="13.4322905"><ele>7.0</ele><time>2026-04-25T07:52:20.328Z</time></trkpt><trkpt lat="45.8091692" lon="13.4322434"><ele>7.0</ele><time>2026-04-25T07:52:22.322Z</time></trkpt><trkpt lat="45.8092783" lon="13.4321929"><ele>7.0</ele><time>2026-04-25T07:52:24.346Z</time></trkpt><trkpt lat="45.8093832" lon="13.4321408"><ele>7.0</ele><time>2026-04-25T07:52:26.334Z</time></trkpt><trkpt lat="45.8094888" lon="13.4320895"><ele>6.999999999999999</ele><time>2026-04-25T07:52:28.318Z</time></trkpt><trkpt lat="45.8095961" lon="13.4320461"><ele>6.999999999999999</ele><time>2026-04-25T07:52:30.323Z</time></trkpt><trkpt lat="45.8097015" lon="13.4320042"><ele>7.0</ele><time>2026-04-25T07:52:32.324Z</time></trkpt><trkpt lat="45.8098079" lon="13.4319639"><ele>7.0</ele><time>2026-04-25T07:52:34.335Z</time></trkpt><trkpt lat="45.8099128" lon="13.4319309"><ele>7.0</ele><time>2026-04-25T07:52:36.333Z</time></trkpt><trkpt lat="45.8100095" lon="13.4318757"><ele>6.999999999999999</ele><time>2026-04-25T07:52:38.346Z</time></trkpt><trkpt lat="45.810112" lon="13.4318231"><ele>6.999999999999999</ele><time>2026-04-25T07:52:40.324Z</time></trkpt><trkpt lat="45.8102178" lon="13.4317912"><ele>7.0</ele><time>2026-04-25T07:52:42.337Z</time></trkpt><trkpt lat="45.8103185" lon="13.4317593"><ele>7.0</ele><time>2026-04-25T07:52:44.335Z</time></trkpt><trkpt lat="45.8104229" lon="13.4317262"><ele>7.0</ele><time>2026-04-25T07:52:46.325Z</time></trkpt><trkpt lat="45.8105277" lon="13.4316869"><ele>6.999999999999999</ele><time>2026-04-25T07:52:48.351Z</time></trkpt><trkpt lat="45.8106269" lon="13.4316459"><ele>6.999999999999999</ele><time>2026-04-25T07:52:50.351Z</time></trkpt><trkpt lat="45.8107266" lon="13.4316019"><ele>7.0</ele><time>2026-04-25T07:52:52.337Z</time></trkpt><trkpt lat="45.8108331" lon="13.4315651"><ele>7.0</ele><time>2026-04-25T07:52:54.327Z</time></trkpt><trkpt lat="45.8109426" lon="13.4315329"><ele>7.3999999999999995</ele><time>2026-04-25T07:52:56.322Z</time></trkpt><trkpt lat="45.8110553" lon="13.4315038"><ele>7.799999999999999</ele><time>2026-04-25T07:52:58.319Z</time></trkpt><trkpt lat="45.8111602" lon="13.4314715"><ele>8.2</ele><time>2026-04-25T07:53:00.337Z</time></trkpt><trkpt lat="45.8112655" lon="13.4314368"><ele>8.6</ele><time>2026-04-25T07:53:02.334Z</time></trkpt><trkpt lat="45.8113799" lon="13.4314021"><ele>9.0</ele><time>2026-04-25T07:53:04.316Z</time></trkpt><trkpt lat="45.8114803" lon="13.4313771"><ele>9.0</ele><time>2026-04-25T07:53:06.328Z</time></trkpt><trkpt lat="45.8115804" lon="13.4313795"><ele>9.0</ele><time>2026-04-25T07:53:08.332Z</time></trkpt><trkpt lat="45.8116914" lon="13.4314115"><ele>9.0</ele><time>2026-04-25T07:53:10.314Z</time></trkpt><trkpt lat="45.8118004" lon="13.4314577"><ele>9.0</ele><time>2026-04-25T07:53:12.333Z</time></trkpt><trkpt lat="45.8119058" lon="13.4315058"><ele>9.0</ele><time>2026-04-25T07:53:14.335Z</time></trkpt><trkpt lat="45.8120146" lon="13.4315561"><ele>9.5</ele><time>2026-04-25T07:53:16.323Z</time></trkpt><trkpt lat="45.8121254" lon="13.4316017"><ele>10.0</ele><time>2026-04-25T07:53:18.337Z</time></trkpt><trkpt lat="45.8122354" lon="13.4316428"><ele>10.5</ele><time>2026-04-25T07:53:20.342Z</time></trkpt><trkpt lat="45.8123461" lon="13.4316792"><ele>11.0</ele><time>2026-04-25T07:53:22.31Z</time></trkpt><trkpt lat="45.8124514" lon="13.4317109"><ele>11.0</ele><time>2026-04-25T07:53:24.316Z</time></trkpt><trkpt lat="45.8125538" lon="13.4317285"><ele>11.0</ele><time>2026-04-25T07:53:26.315Z</time></trkpt><trkpt lat="45.8126672" lon="13.4317336"><ele>11.0</ele><time>2026-04-25T07:53:28.312Z</time></trkpt><trkpt lat="45.8127878" lon="13.431731"><ele>11.0</ele><time>2026-04-25T07:53:30.338Z</time></trkpt><trkpt lat="45.8129065" lon="13.4317362"><ele>10.25</ele><time>2026-04-25T07:53:32.325Z</time></trkpt><trkpt lat="45.8130236" lon="13.4317382"><ele>9.5</ele><time>2026-04-25T07:53:34.326Z</time></trkpt><trkpt lat="45.8131389" lon="13.4317461"><ele>8.75</ele><time>2026-04-25T07:53:36.313Z</time></trkpt><trkpt lat="45.813252" lon="13.4317499"><ele>8.0</ele><time>2026-04-25T07:53:38.332Z</time></trkpt><trkpt lat="45.8133598" lon="13.4317377"><ele>8.0</ele><time>2026-04-25T07:53:40.332Z</time></trkpt><trkpt lat="45.8134669" lon="13.4317173"><ele>8.0</ele><time>2026-04-25T07:53:42.324Z</time></trkpt><trkpt lat="45.8135837" lon="13.4316817"><ele>8.0</ele><time>2026-04-25T07:53:44.33Z</time></trkpt><trkpt lat="45.8136992" lon="13.4316488"><ele>8.0</ele><time>2026-04-25T07:53:46.319Z</time></trkpt><trkpt lat="45.8138079" lon="13.4316197"><ele>8.200000000000001</ele><time>2026-04-25T07:53:48.323Z</time></trkpt><trkpt lat="45.8139181" lon="13.4315955"><ele>8.4</ele><time>2026-04-25T07:53:50.339Z</time></trkpt><trkpt lat="45.814029" lon="13.4315866"><ele>8.600000000000001</ele><time>2026-04-25T07:53:52.322Z</time></trkpt><trkpt lat="45.8141349" lon="13.4316117"><ele>8.8</ele><time>2026-04-25T07:53:54.338Z</time></trkpt><trkpt lat="45.8142381" lon="13.4316619"><ele>9.0</ele><time>2026-04-25T07:53:56.321Z</time></trkpt><trkpt lat="45.8143399" lon="13.4317226"><ele>9.0</ele><time>2026-04-25T07:53:58.32Z</time></trkpt><trkpt lat="45.8144458" lon="13.4317773"><ele>9.0</ele><time>2026-04-25T07:54:00.322Z</time></trkpt><trkpt lat="45.8145516" lon="13.4317994"><ele>9.0</ele><time>2026-04-25T07:54:02.324Z</time></trkpt><trkpt lat="45.8146613" lon="13.431801"><ele>9.0</ele><time>2026-04-25T07:54:04.314Z</time></trkpt><trkpt lat="45.8147729" lon="13.4317897"><ele>9.0</ele><time>2026-04-25T07:54:06.326Z</time></trkpt><trkpt lat="45.8148848" lon="13.4317701"><ele>9.0</ele><time>2026-04-25T07:54:08.329Z</time></trkpt><trkpt lat="45.8149924" lon="13.4317487"><ele>9.0</ele><time>2026-04-25T07:54:10.314Z</time></trkpt><trkpt lat="45.815109" lon="13.4317137"><ele>9.0</ele><time>2026-04-25T07:54:12.314Z</time></trkpt><trkpt lat="45.8152217" lon="13.4316788"><ele>9.0</ele><time>2026-04-25T07:54:14.309Z</time></trkpt><trkpt lat="45.8153312" lon="13.4316463"><ele>9.0</ele><time>2026-04-25T07:54:16.331Z</time></trkpt><trkpt lat="45.8154444" lon="13.4316141"><ele>9.0</ele><time>2026-04-25T07:54:18.323Z</time></trkpt><trkpt lat="45.8155568" lon="13.4315829"><ele>9.0</ele><time>2026-04-25T07:54:20.324Z</time></trkpt><trkpt lat="45.8156684" lon="13.4315485"><ele>9.0</ele><time>2026-04-25T07:54:22.32Z</time></trkpt><trkpt lat="45.8157801" lon="13.4315193"><ele>9.0</ele><time>2026-04-25T07:54:24.334Z</time></trkpt><trkpt lat="45.8158898" lon="13.4314891"><ele>9.0</ele><time>2026-04-25T07:54:26.318Z</time></trkpt><trkpt lat="45.816001" lon="13.4314687"><ele>9.0</ele><time>2026-04-25T07:54:28.316Z</time></trkpt><trkpt lat="45.8161101" lon="13.4314607"><ele>9.0</ele><time>2026-04-25T07:54:30.32Z</time></trkpt><trkpt lat="45.8162195" lon="13.4314605"><ele>9.0</ele><time>2026-04-25T07:54:32.311Z</time></trkpt><trkpt lat="45.8163237" lon="13.43146"><ele>9.0</ele><time>2026-04-25T07:54:34.318Z</time></trkpt><trkpt lat="45.8164282" lon="13.4314442"><ele>9.0</ele><time>2026-04-25T07:54:36.318Z</time></trkpt><trkpt lat="45.81654" lon="13.43145"><ele>9.0</ele><time>2026-04-25T07:54:38.32Z</time></trkpt><trkpt lat="45.8166542" lon="13.4314753"><ele>9.0</ele><time>2026-04-25T07:54:40.32Z</time></trkpt><trkpt lat="45.8167656" lon="13.4314943"><ele>9.0</ele><time>2026-04-25T07:54:42.309Z</time></trkpt><trkpt lat="45.8168708" lon="13.431495"><ele>9.0</ele><time>2026-04-25T07:54:44.313Z</time></trkpt><trkpt lat="45.8169803" lon="13.431484"><ele>9.0</ele><time>2026-04-25T07:54:46.315Z</time></trkpt><trkpt lat="45.8170938" lon="13.4314806"><ele>9.0</ele><time>2026-04-25T07:54:48.323Z</time></trkpt><trkpt lat="45.8172038" lon="13.431481"><ele>9.0</ele><time>2026-04-25T07:54:50.319Z</time></trkpt><trkpt lat="45.8173165" lon="13.4314878"><ele>9.0</ele><time>2026-04-25T07:54:52.313Z</time></trkpt><trkpt lat="45.8174267" lon="13.4314858"><ele>9.0</ele><time>2026-04-25T07:54:54.315Z</time></trkpt><trkpt lat="45.8175371" lon="13.4314725"><ele>9.0</ele><time>2026-04-25T07:54:56.323Z</time></trkpt><trkpt lat="45.8176525" lon="13.4314449"><ele>9.0</ele><time>2026-04-25T07:54:58.316Z</time></trkpt><trkpt lat="45.8177593" lon="13.4314159"><ele>9.0</ele><time>2026-04-25T07:55:00.323Z</time></trkpt><trkpt lat="45.8178721" lon="13.4313871"><ele>8.4</ele><time>2026-04-25T07:55:02.349Z</time></trkpt><trkpt lat="45.8179829" lon="13.4313614"><ele>7.800000000000001</ele><time>2026-04-25T07:55:04.322Z</time></trkpt><trkpt lat="45.8180916" lon="13.4313349"><ele>7.199999999999999</ele><time>2026-04-25T07:55:06.32Z</time></trkpt><trkpt lat="45.8182008" lon="13.431328"><ele>6.6</ele><time>2026-04-25T07:55:08.316Z</time></trkpt><trkpt lat="45.8183094" lon="13.4313283"><ele>6.0</ele><time>2026-04-25T07:55:10.309Z</time></trkpt><trkpt lat="45.8184195" lon="13.4313314"><ele>6.0</ele><time>2026-04-25T07:55:12.325Z</time></trkpt><trkpt lat="45.8185226" lon="13.4313362"><ele>6.0</ele><time>2026-04-25T07:55:14.32Z</time></trkpt><trkpt lat="45.8186326" lon="13.4313368"><ele>6.0</ele><time>2026-04-25T07:55:16.325Z</time></trkpt><trkpt lat="45.8187393" lon="13.4313436"><ele>6.0</ele><time>2026-04-25T07:55:18.324Z</time></trkpt><trkpt lat="45.8188485" lon="13.4313499"><ele>6.0</ele><time>2026-04-25T07:55:20.316Z</time></trkpt><trkpt lat="45.8189552" lon="13.4313574"><ele>6.0</ele><time>2026-04-25T07:55:22.316Z</time></trkpt><trkpt lat="45.8190645" lon="13.4313664"><ele>6.0</ele><time>2026-04-25T07:55:24.312Z</time></trkpt><trkpt lat="45.8191302" lon="13.4313718"><ele>6.0</ele><time>2026-04-25T07:55:25.323Z</time></trkpt><trkpt lat="45.8192493" lon="13.4313863"><ele>6.0</ele><time>2026-04-25T07:55:27.324Z</time></trkpt><trkpt lat="45.8193624" lon="13.431401"><ele>6.0</ele><time>2026-04-25T07:55:29.317Z</time></trkpt><trkpt lat="45.8194724" lon="13.4314079"><ele>7.0</ele><time>2026-04-25T07:55:31.311Z</time></trkpt><trkpt lat="45.8195922" lon="13.4314093"><ele>8.0</ele><time>2026-04-25T07:55:33.316Z</time></trkpt><trkpt lat="45.819698" lon="13.4314061"><ele>9.0</ele><time>2026-04-25T07:55:35.318Z</time></trkpt><trkpt lat="45.8198081" lon="13.4314047"><ele>10.0</ele><time>2026-04-25T07:55:37.319Z</time></trkpt><trkpt lat="45.8199162" lon="13.4314033"><ele>11.0</ele><time>2026-04-25T07:55:39.315Z</time></trkpt><trkpt lat="45.8200311" lon="13.4313926"><ele>11.0</ele><time>2026-04-25T07:55:41.316Z</time></trkpt><trkpt lat="45.8200939" lon="13.4313725"><ele>11.0</ele><time>2026-04-25T07:55:42.315Z</time></trkpt><trkpt lat="45.8202041" lon="13.4313591"><ele>11.0</ele><time>2026-04-25T07:55:44.318Z</time></trkpt><trkpt lat="45.8203167" lon="13.4313472"><ele>11.0</ele><time>2026-04-25T07:55:46.319Z</time></trkpt><trkpt lat="45.820422" lon="13.4313369"><ele>11.0</ele><time>2026-04-25T07:55:48.32Z</time></trkpt><trkpt lat="45.8205374" lon="13.4313169"><ele>10.8</ele><time>2026-04-25T07:55:50.315Z</time></trkpt><trkpt lat="45.820646" lon="13.4313"><ele>10.600000000000001</ele><time>2026-04-25T07:55:52.314Z</time></trkpt><trkpt lat="45.820746" lon="13.4312809"><ele>10.4</ele><time>2026-04-25T07:55:54.324Z</time></trkpt><trkpt lat="45.8208415" lon="13.4312628"><ele>10.2</ele><time>2026-04-25T07:55:56.319Z</time></trkpt><trkpt lat="45.8209405" lon="13.4312487"><ele>10.0</ele><time>2026-04-25T07:55:58.32Z</time></trkpt><trkpt lat="45.8210551" lon="13.4312287"><ele>9.8</ele><time>2026-04-25T07:56:00.321Z</time></trkpt><trkpt lat="45.8211589" lon="13.431189"><ele>9.6</ele><time>2026-04-25T07:56:02.328Z</time></trkpt><trkpt lat="45.8212749" lon="13.4311568"><ele>9.4</ele><time>2026-04-25T07:56:04.325Z</time></trkpt><trkpt lat="45.82138" lon="13.4311281"><ele>9.2</ele><time>2026-04-25T07:56:06.317Z</time></trkpt><trkpt lat="45.821494" lon="13.4311151"><ele>9.0</ele><time>2026-04-25T07:56:08.314Z</time></trkpt><trkpt lat="45.8216014" lon="13.4311116"><ele>9.0</ele><time>2026-04-25T07:56:10.322Z</time></trkpt><trkpt lat="45.8217129" lon="13.4311178"><ele>9.0</ele><time>2026-04-25T07:56:12.318Z</time></trkpt><trkpt lat="45.821829" lon="13.4311382"><ele>9.0</ele><time>2026-04-25T07:56:14.322Z</time></trkpt><trkpt lat="45.821944" lon="13.4311842"><ele>9.0</ele><time>2026-04-25T07:56:16.326Z</time></trkpt><trkpt lat="45.8220453" lon="13.4311494"><ele>8.6</ele><time>2026-04-25T07:56:18.323Z</time></trkpt><trkpt lat="45.822154" lon="13.431093"><ele>8.2</ele><time>2026-04-25T07:56:20.327Z</time></trkpt><trkpt lat="45.8222606" lon="13.4310796"><ele>7.799999999999999</ele><time>2026-04-25T07:56:22.318Z</time></trkpt><trkpt lat="45.8223676" lon="13.4310539"><ele>7.3999999999999995</ele><time>2026-04-25T07:56:24.317Z</time></trkpt><trkpt lat="45.822477" lon="13.431056"><ele>7.0</ele><time>2026-04-25T07:56:26.317Z</time></trkpt><trkpt lat="45.8225914" lon="13.4310589"><ele>7.5</ele><time>2026-04-25T07:56:28.313Z</time></trkpt><trkpt lat="45.8227055" lon="13.4310455"><ele>8.0</ele><time>2026-04-25T07:56:30.324Z</time></trkpt><trkpt lat="45.8228175" lon="13.4310341"><ele>8.5</ele><time>2026-04-25T07:56:32.321Z</time></trkpt><trkpt lat="45.8229316" lon="13.4310201"><ele>9.0</ele><time>2026-04-25T07:56:34.324Z</time></trkpt><trkpt lat="45.8230515" lon="13.4309861"><ele>9.0</ele><time>2026-04-25T07:56:36.367Z</time></trkpt><trkpt lat="45.8231557" lon="13.4309497"><ele>9.0</ele><time>2026-04-25T07:56:38.314Z</time></trkpt><trkpt lat="45.8232675" lon="13.4309071"><ele>9.0</ele><time>2026-04-25T07:56:40.32Z</time></trkpt><trkpt lat="45.8233812" lon="13.4308607"><ele>9.0</ele><time>2026-04-25T07:56:42.328Z</time></trkpt><trkpt lat="45.8234951" lon="13.4308624"><ele>8.75</ele><time>2026-04-25T07:56:44.318Z</time></trkpt><trkpt lat="45.823615" lon="13.430882"><ele>8.5</ele><time>2026-04-25T07:56:46.323Z</time></trkpt><trkpt lat="45.8237328" lon="13.4308975"><ele>8.25</ele><time>2026-04-25T07:56:48.336Z</time></trkpt><trkpt lat="45.8238481" lon="13.4309199"><ele>8.0</ele><time>2026-04-25T07:56:50.326Z</time></trkpt><trkpt lat="45.8239619" lon="13.4309397"><ele>8.0</ele><time>2026-04-25T07:56:52.319Z</time></trkpt><trkpt lat="45.8240742" lon="13.4309568"><ele>8.0</ele><time>2026-04-25T07:56:54.329Z</time></trkpt><trkpt lat="45.8241853" lon="13.4309652"><ele>8.0</ele><time>2026-04-25T07:56:56.309Z</time></trkpt><trkpt lat="45.8242997" lon="13.4309635"><ele>8.0</ele><time>2026-04-25T07:56:58.321Z</time></trkpt><trkpt lat="45.8244106" lon="13.4309563"><ele>7.800000000000001</ele><time>2026-04-25T07:57:00.318Z</time></trkpt><trkpt lat="45.8245214" lon="13.4309434"><ele>7.6000000000000005</ele><time>2026-04-25T07:57:02.314Z</time></trkpt><trkpt lat="45.8246309" lon="13.4309315"><ele>7.3999999999999995</ele><time>2026-04-25T07:57:04.324Z</time></trkpt><trkpt lat="45.8247404" lon="13.4309244"><ele>7.199999999999999</ele><time>2026-04-25T07:57:06.334Z</time></trkpt><trkpt lat="45.8248495" lon="13.4309134"><ele>7.0</ele><time>2026-04-25T07:57:08.325Z</time></trkpt><trkpt lat="45.8249581" lon="13.4308952"><ele>7.0</ele><time>2026-04-25T07:57:10.316Z</time></trkpt><trkpt lat="45.8250643" lon="13.4308795"><ele>6.999999999999999</ele><time>2026-04-25T07:57:12.319Z</time></trkpt><trkpt lat="45.8251698" lon="13.4308658"><ele>6.999999999999999</ele><time>2026-04-25T07:57:14.322Z</time></trkpt><trkpt lat="45.8252744" lon="13.4308507"><ele>7.0</ele><time>2026-04-25T07:57:16.328Z</time></trkpt><trkpt lat="45.8253739" lon="13.430832"><ele>7.0</ele><time>2026-04-25T07:57:18.322Z</time></trkpt><trkpt lat="45.8254665" lon="13.4308162"><ele>7.0</ele><time>2026-04-25T07:57:20.316Z</time></trkpt><trkpt lat="45.8255502" lon="13.4307998"><ele>6.999999999999999</ele><time>2026-04-25T07:57:22.351Z</time></trkpt><trkpt lat="45.8256399" lon="13.4307967"><ele>6.999999999999999</ele><time>2026-04-25T07:57:24.319Z</time></trkpt><trkpt lat="45.825744" lon="13.430797"><ele>7.0</ele><time>2026-04-25T07:57:26.323Z</time></trkpt><trkpt lat="45.8258533" lon="13.4307865"><ele>7.0</ele><time>2026-04-25T07:57:28.315Z</time></trkpt><trkpt lat="45.8259639" lon="13.4307741"><ele>7.8</ele><time>2026-04-25T07:57:30.316Z</time></trkpt><trkpt lat="45.8260734" lon="13.4307655"><ele>8.6</ele><time>2026-04-25T07:57:32.325Z</time></trkpt><trkpt lat="45.8261829" lon="13.4307558"><ele>9.4</ele><time>2026-04-25T07:57:34.324Z</time></trkpt><trkpt lat="45.8262922" lon="13.430747"><ele>10.200000000000001</ele><time>2026-04-25T07:57:36.315Z</time></trkpt><trkpt lat="45.8263999" lon="13.4307322"><ele>11.0</ele><time>2026-04-25T07:57:38.316Z</time></trkpt><trkpt lat="45.8265112" lon="13.4307181"><ele>11.0</ele><time>2026-04-25T07:57:40.332Z</time></trkpt><trkpt lat="45.8266217" lon="13.4307079"><ele>11.0</ele><time>2026-04-25T07:57:42.326Z</time></trkpt><trkpt lat="45.8267364" lon="13.430701"><ele>11.0</ele><time>2026-04-25T07:57:44.319Z</time></trkpt><trkpt lat="45.8268465" lon="13.4306943"><ele>11.0</ele><time>2026-04-25T07:57:46.343Z</time></trkpt><trkpt lat="45.8269604" lon="13.4306831"><ele>10.5</ele><time>2026-04-25T07:57:48.319Z</time></trkpt><trkpt lat="45.827074" lon="13.4306656"><ele>10.0</ele><time>2026-04-25T07:57:50.33Z</time></trkpt><trkpt lat="45.827188" lon="13.4306484"><ele>9.5</ele><time>2026-04-25T07:57:52.326Z</time></trkpt><trkpt lat="45.8273019" lon="13.4306242"><ele>9.0</ele><time>2026-04-25T07:57:54.319Z</time></trkpt><trkpt lat="45.827415" lon="13.4305957"><ele>9.0</ele><time>2026-04-25T07:57:56.31Z</time></trkpt><trkpt lat="45.8275302" lon="13.4305646"><ele>9.0</ele><time>2026-04-25T07:57:58.319Z</time></trkpt><trkpt lat="45.8276432" lon="13.4305745"><ele>9.0</ele><time>2026-04-25T07:58:00.324Z</time></trkpt><trkpt lat="45.8277528" lon="13.4306331"><ele>9.0</ele><time>2026-04-25T07:58:02.328Z</time></trkpt><trkpt lat="45.8278653" lon="13.4306587"><ele>8.6</ele><time>2026-04-25T07:58:04.315Z</time></trkpt><trkpt lat="45.8279766" lon="13.4306671"><ele>8.2</ele><time>2026-04-25T07:58:06.335Z</time></trkpt><trkpt lat="45.8280934" lon="13.4306718"><ele>7.799999999999999</ele><time>2026-04-25T07:58:08.327Z</time></trkpt><trkpt lat="45.8282048" lon="13.4306748"><ele>7.3999999999999995</ele><time>2026-04-25T07:58:10.32Z</time></trkpt><trkpt lat="45.828307" lon="13.4306885"><ele>7.0</ele><time>2026-04-25T07:58:12.325Z</time></trkpt><trkpt lat="45.8284018" lon="13.4306713"><ele>7.0</ele><time>2026-04-25T07:58:14.322Z</time></trkpt><trkpt lat="45.8284711" lon="13.4306038"><ele>6.999999999999999</ele><time>2026-04-25T07:58:16.317Z</time></trkpt><trkpt lat="45.828545" lon="13.4305287"><ele>6.999999999999999</ele><time>2026-04-25T07:58:18.331Z</time></trkpt><trkpt lat="45.8286366" lon="13.4304976"><ele>7.0</ele><time>2026-04-25T07:58:20.325Z</time></trkpt><trkpt lat="45.8287348" lon="13.4304593"><ele>7.0</ele><time>2026-04-25T07:58:22.326Z</time></trkpt><trkpt lat="45.8288474" lon="13.4304117"><ele>6.25</ele><time>2026-04-25T07:58:24.322Z</time></trkpt><trkpt lat="45.8289598" lon="13.4303751"><ele>5.5</ele><time>2026-04-25T07:58:26.319Z</time></trkpt><trkpt lat="45.8290789" lon="13.4303893"><ele>4.75</ele><time>2026-04-25T07:58:28.322Z</time></trkpt><trkpt lat="45.829195" lon="13.4304063"><ele>4.0</ele><time>2026-04-25T07:58:30.362Z</time></trkpt><trkpt lat="45.8293013" lon="13.4304354"><ele>4.25</ele><time>2026-04-25T07:58:32.324Z</time></trkpt><trkpt lat="45.829418" lon="13.4304642"><ele>4.5</ele><time>2026-04-25T07:58:34.321Z</time></trkpt><trkpt lat="45.8295259" lon="13.4305022"><ele>4.75</ele><time>2026-04-25T07:58:36.327Z</time></trkpt><trkpt lat="45.8296344" lon="13.4305419"><ele>5.0</ele><time>2026-04-25T07:58:38.317Z</time></trkpt><trkpt lat="45.8297472" lon="13.4305826"><ele>5.6</ele><time>2026-04-25T07:58:40.322Z</time></trkpt><trkpt lat="45.829855" lon="13.4306017"><ele>6.2</ele><time>2026-04-25T07:58:42.319Z</time></trkpt><trkpt lat="45.8299637" lon="13.4306288"><ele>6.800000000000001</ele><time>2026-04-25T07:58:44.317Z</time></trkpt><trkpt lat="45.8300713" lon="13.4306638"><ele>7.4</ele><time>2026-04-25T07:58:46.327Z</time></trkpt><trkpt lat="45.8301754" lon="13.4307024"><ele>8.0</ele><time>2026-04-25T07:58:48.318Z</time></trkpt><trkpt lat="45.8302856" lon="13.4307492"><ele>8.0</ele><time>2026-04-25T07:58:50.312Z</time></trkpt><trkpt lat="45.8303951" lon="13.4307948"><ele>8.0</ele><time>2026-04-25T07:58:52.318Z</time></trkpt><trkpt lat="45.8305023" lon="13.430834"><ele>8.0</ele><time>2026-04-25T07:58:54.329Z</time></trkpt><trkpt lat="45.8306109" lon="13.430878"><ele>8.0</ele><time>2026-04-25T07:58:56.329Z</time></trkpt><trkpt lat="45.8307182" lon="13.4309251"><ele>8.0</ele><time>2026-04-25T07:58:58.33Z</time></trkpt><trkpt lat="45.8308256" lon="13.4309692"><ele>8.0</ele><time>2026-04-25T07:59:00.315Z</time></trkpt><trkpt lat="45.8309355" lon="13.4310165"><ele>8.0</ele><time>2026-04-25T07:59:02.327Z</time></trkpt><trkpt lat="45.8310409" lon="13.431064"><ele>8.0</ele><time>2026-04-25T07:59:04.316Z</time></trkpt><trkpt lat="45.8311018" lon="13.4310953"><ele>8.0</ele><time>2026-04-25T07:59:05.324Z</time></trkpt><trkpt lat="45.8312102" lon="13.4311555"><ele>7.800000000000001</ele><time>2026-04-25T07:59:07.323Z</time></trkpt><trkpt lat="45.8313127" lon="13.431221"><ele>7.6000000000000005</ele><time>2026-04-25T07:59:09.336Z</time></trkpt><trkpt lat="45.8314067" lon="13.4312935"><ele>7.3999999999999995</ele><time>2026-04-25T07:59:11.316Z</time></trkpt><trkpt lat="45.8314962" lon="13.4313816"><ele>7.199999999999999</ele><time>2026-04-25T07:59:13.333Z</time></trkpt><trkpt lat="45.8315706" lon="13.4314456"><ele>7.0</ele><time>2026-04-25T07:59:15.33Z</time></trkpt><trkpt lat="45.831658" lon="13.4314973"><ele>7.6</ele><time>2026-04-25T07:59:17.35Z</time></trkpt><trkpt lat="45.831748" lon="13.4315569"><ele>8.2</ele><time>2026-04-25T07:59:19.329Z</time></trkpt><trkpt lat="45.8318161" lon="13.4315879"><ele>8.8</ele><time>2026-04-25T07:59:20.317Z</time></trkpt><trkpt lat="45.8319312" lon="13.4316324"><ele>9.4</ele><time>2026-04-25T07:59:22.319Z</time></trkpt><trkpt lat="45.8320443" lon="13.4316792"><ele>10.0</ele><time>2026-04-25T07:59:24.323Z</time></trkpt><trkpt lat="45.8321503" lon="13.4317279"><ele>10.0</ele><time>2026-04-25T07:59:26.323Z</time></trkpt><trkpt lat="45.8322099" lon="13.4317603"><ele>10.0</ele><time>2026-04-25T07:59:27.314Z</time></trkpt><trkpt lat="45.8323156" lon="13.4318329"><ele>10.0</ele><time>2026-04-25T07:59:29.323Z</time></trkpt><trkpt lat="45.832421" lon="13.4318979"><ele>10.0</ele><time>2026-04-25T07:59:31.325Z</time></trkpt><trkpt lat="45.8325308" lon="13.4319534"><ele>10.0</ele><time>2026-04-25T07:59:33.33Z</time></trkpt><trkpt lat="45.8326397" lon="13.431994"><ele>9.25</ele><time>2026-04-25T07:59:35.313Z</time></trkpt><trkpt lat="45.832748" lon="13.4320237"><ele>8.5</ele><time>2026-04-25T07:59:37.335Z</time></trkpt><trkpt lat="45.8328568" lon="13.4320492"><ele>7.75</ele><time>2026-04-25T07:59:39.325Z</time></trkpt><trkpt lat="45.8329754" lon="13.4320839"><ele>7.0</ele><time>2026-04-25T07:59:41.32Z</time></trkpt><trkpt lat="45.8330881" lon="13.4321181"><ele>7.3999999999999995</ele><time>2026-04-25T07:59:43.329Z</time></trkpt><trkpt lat="45.8331982" lon="13.4321507"><ele>7.799999999999999</ele><time>2026-04-25T07:59:45.335Z</time></trkpt><trkpt lat="45.8332984" lon="13.4321779"><ele>8.2</ele><time>2026-04-25T07:59:47.313Z</time></trkpt><trkpt lat="45.8334056" lon="13.43224"><ele>8.6</ele><time>2026-04-25T07:59:49.328Z</time></trkpt><trkpt lat="45.8335163" lon="13.4322816"><ele>9.0</ele><time>2026-04-25T07:59:51.329Z</time></trkpt><trkpt lat="45.8336271" lon="13.4323076"><ele>9.0</ele><time>2026-04-25T07:59:53.329Z</time></trkpt><trkpt lat="45.8337377" lon="13.4323355"><ele>9.0</ele><time>2026-04-25T07:59:55.319Z</time></trkpt><trkpt lat="45.8338474" lon="13.4323691"><ele>9.0</ele><time>2026-04-25T07:59:57.331Z</time></trkpt><trkpt lat="45.8339592" lon="13.4324082"><ele>9.0</ele><time>2026-04-25T07:59:59.324Z</time></trkpt><trkpt lat="45.8340721" lon="13.4324438"><ele>9.0</ele><time>2026-04-25T08:00:01.328Z</time></trkpt><trkpt lat="45.8341852" lon="13.4324796"><ele>9.0</ele><time>2026-04-25T08:00:03.327Z</time></trkpt><trkpt lat="45.8342973" lon="13.4325182"><ele>9.0</ele><time>2026-04-25T08:00:05.324Z</time></trkpt><trkpt lat="45.8344079" lon="13.4325568"><ele>9.0</ele><time>2026-04-25T08:00:07.327Z</time></trkpt><trkpt lat="45.8345149" lon="13.4325954"><ele>9.0</ele><time>2026-04-25T08:00:09.328Z</time></trkpt><trkpt lat="45.8346258" lon="13.4326356"><ele>9.0</ele><time>2026-04-25T08:00:11.324Z</time></trkpt><trkpt lat="45.8347325" lon="13.4326858"><ele>9.0</ele><time>2026-04-25T08:00:13.328Z</time></trkpt><trkpt lat="45.83484" lon="13.432734"><ele>9.0</ele><time>2026-04-25T08:00:15.319Z</time></trkpt><trkpt lat="45.8349477" lon="13.432777"><ele>9.0</ele><time>2026-04-25T08:00:17.326Z</time></trkpt><trkpt lat="45.8350547" lon="13.4328183"><ele>9.0</ele><time>2026-04-25T08:00:19.332Z</time></trkpt><trkpt lat="45.8351657" lon="13.4328563"><ele>9.0</ele><time>2026-04-25T08:00:21.331Z</time></trkpt><trkpt lat="45.835279" lon="13.4328914"><ele>9.0</ele><time>2026-04-25T08:00:23.327Z</time></trkpt><trkpt lat="45.8353922" lon="13.432922"><ele>9.0</ele><time>2026-04-25T08:00:25.337Z</time></trkpt><trkpt lat="45.8355065" lon="13.4329489"><ele>9.0</ele><time>2026-04-25T08:00:27.329Z</time></trkpt><trkpt lat="45.8356202" lon="13.4329768"><ele>9.0</ele><time>2026-04-25T08:00:29.332Z</time></trkpt><trkpt lat="45.8357341" lon="13.4330164"><ele>9.0</ele><time>2026-04-25T08:00:31.311Z</time></trkpt><trkpt lat="45.8358469" lon="13.4330579"><ele>9.0</ele><time>2026-04-25T08:00:33.323Z</time></trkpt><trkpt lat="45.8359609" lon="13.4330988"><ele>9.0</ele><time>2026-04-25T08:00:35.32Z</time></trkpt><trkpt lat="45.8360723" lon="13.4331416"><ele>9.0</ele><time>2026-04-25T08:00:37.325Z</time></trkpt><trkpt lat="45.8361836" lon="13.4331825"><ele>9.0</ele><time>2026-04-25T08:00:39.33Z</time></trkpt><trkpt lat="45.836294" lon="13.4332248"><ele>8.75</ele><time>2026-04-25T08:00:41.312Z</time></trkpt><trkpt lat="45.8364047" lon="13.4332663"><ele>8.5</ele><time>2026-04-25T08:00:43.311Z</time></trkpt><trkpt lat="45.8365154" lon="13.4333058"><ele>8.25</ele><time>2026-04-25T08:00:45.331Z</time></trkpt><trkpt lat="45.8366283" lon="13.4333388"><ele>8.0</ele><time>2026-04-25T08:00:47.318Z</time></trkpt><trkpt lat="45.8367422" lon="13.4333419"><ele>7.833333333333333</ele><time>2026-04-25T08:00:49.333Z</time></trkpt><trkpt lat="45.8368512" lon="13.4333142"><ele>7.666666666666666</ele><time>2026-04-25T08:00:51.348Z</time></trkpt><trkpt lat="45.8369463" lon="13.4333684"><ele>7.5</ele><time>2026-04-25T08:00:53.342Z</time></trkpt><trkpt lat="45.8369671" lon="13.433486"><ele>7.333333333333334</ele><time>2026-04-25T08:00:55.313Z</time></trkpt><trkpt lat="45.8369736" lon="13.4335794"><ele>7.166666666666667</ele><time>2026-04-25T08:00:57.335Z</time></trkpt><trkpt lat="45.8370388" lon="13.4336469"><ele>7.0</ele><time>2026-04-25T08:00:59.312Z</time></trkpt><trkpt lat="45.8371346" lon="13.4337066"><ele>7.0</ele><time>2026-04-25T08:01:01.33Z</time></trkpt><trkpt lat="45.8372427" lon="13.4337565"><ele>7.0</ele><time>2026-04-25T08:01:03.321Z</time></trkpt><trkpt lat="45.8373549" lon="13.4337958"><ele>7.0</ele><time>2026-04-25T08:01:05.33Z</time></trkpt><trkpt lat="45.8374638" lon="13.4338432"><ele>7.0</ele><time>2026-04-25T08:01:07.323Z</time></trkpt><trkpt lat="45.8375674" lon="13.4339084"><ele>7.0</ele><time>2026-04-25T08:01:09.318Z</time></trkpt><trkpt lat="45.8376696" lon="13.4339744"><ele>6.999999999999999</ele><time>2026-04-25T08:01:11.326Z</time></trkpt><trkpt lat="45.837771" lon="13.4340431"><ele>6.999999999999999</ele><time>2026-04-25T08:01:13.321Z</time></trkpt><trkpt lat="45.8378732" lon="13.434106"><ele>7.0</ele><time>2026-04-25T08:01:15.323Z</time></trkpt><trkpt lat="45.8379728" lon="13.4341759"><ele>7.0</ele><time>2026-04-25T08:01:17.328Z</time></trkpt><trkpt lat="45.8380733" lon="13.4342423"><ele>7.0</ele><time>2026-04-25T08:01:19.319Z</time></trkpt><trkpt lat="45.8381724" lon="13.434316"><ele>6.999999999999999</ele><time>2026-04-25T08:01:21.343Z</time></trkpt><trkpt lat="45.8382725" lon="13.4343914"><ele>6.999999999999999</ele><time>2026-04-25T08:01:23.322Z</time></trkpt><trkpt lat="45.8383709" lon="13.4344658"><ele>7.0</ele><time>2026-04-25T08:01:25.328Z</time></trkpt><trkpt lat="45.8384711" lon="13.4345383"><ele>7.0</ele><time>2026-04-25T08:01:27.321Z</time></trkpt><trkpt lat="45.8385705" lon="13.4346151"><ele>7.6</ele><time>2026-04-25T08:01:29.33Z</time></trkpt><trkpt lat="45.8386701" lon="13.4346932"><ele>8.2</ele><time>2026-04-25T08:01:31.334Z</time></trkpt><trkpt lat="45.8387679" lon="13.4347703"><ele>8.8</ele><time>2026-04-25T08:01:33.329Z</time></trkpt><trkpt lat="45.8388663" lon="13.4348486"><ele>9.4</ele><time>2026-04-25T08:01:35.323Z</time></trkpt><trkpt lat="45.8389641" lon="13.4349228"><ele>10.0</ele><time>2026-04-25T08:01:37.331Z</time></trkpt><trkpt lat="45.8390626" lon="13.4350025"><ele>10.0</ele><time>2026-04-25T08:01:39.325Z</time></trkpt><trkpt lat="45.8391602" lon="13.4350801"><ele>10.0</ele><time>2026-04-25T08:01:41.32Z</time></trkpt><trkpt lat="45.8392579" lon="13.4351595"><ele>10.0</ele><time>2026-04-25T08:01:43.331Z</time></trkpt><trkpt lat="45.8393541" lon="13.4352408"><ele>10.0</ele><time>2026-04-25T08:01:45.328Z</time></trkpt><trkpt lat="45.8394515" lon="13.4353207"><ele>10.0</ele><time>2026-04-25T08:01:47.321Z</time></trkpt><trkpt lat="45.8395492" lon="13.4354041"><ele>10.0</ele><time>2026-04-25T08:01:49.33Z</time></trkpt><trkpt lat="45.8396458" lon="13.4354881"><ele>10.0</ele><time>2026-04-25T08:01:51.318Z</time></trkpt><trkpt lat="45.8397423" lon="13.4355673"><ele>10.0</ele><time>2026-04-25T08:01:53.33Z</time></trkpt><trkpt lat="45.839828" lon="13.4356667"><ele>10.0</ele><time>2026-04-25T08:01:55.326Z</time></trkpt><trkpt lat="45.839904" lon="13.4357828"><ele>10.0</ele><time>2026-04-25T08:01:57.32Z</time></trkpt><trkpt lat="45.8399776" lon="13.4359031"><ele>10.0</ele><time>2026-04-25T08:01:59.319Z</time></trkpt><trkpt lat="45.8400511" lon="13.4360228"><ele>10.0</ele><time>2026-04-25T08:02:01.328Z</time></trkpt><trkpt lat="45.8401255" lon="13.4361411"><ele>10.0</ele><time>2026-04-25T08:02:03.332Z</time></trkpt><trkpt lat="45.8401989" lon="13.4362618"><ele>10.0</ele><time>2026-04-25T08:02:05.326Z</time></trkpt><trkpt lat="45.8402711" lon="13.436384"><ele>10.0</ele><time>2026-04-25T08:02:07.333Z</time></trkpt><trkpt lat="45.8403437" lon="13.436506"><ele>10.0</ele><time>2026-04-25T08:02:09.323Z</time></trkpt><trkpt lat="45.8404167" lon="13.4366299"><ele>10.0</ele><time>2026-04-25T08:02:11.319Z</time></trkpt><trkpt lat="45.840489" lon="13.4367578"><ele>10.0</ele><time>2026-04-25T08:02:13.309Z</time></trkpt><trkpt lat="45.8405604" lon="13.4368881"><ele>10.0</ele><time>2026-04-25T08:02:15.32Z</time></trkpt><trkpt lat="45.8406329" lon="13.4370189"><ele>10.75</ele><time>2026-04-25T08:02:17.319Z</time></trkpt><trkpt lat="45.8407026" lon="13.4371519"><ele>11.5</ele><time>2026-04-25T08:02:19.321Z</time></trkpt><trkpt lat="45.8407716" lon="13.4372844"><ele>12.25</ele><time>2026-04-25T08:02:21.326Z</time></trkpt><trkpt lat="45.8408414" lon="13.4374125"><ele>13.0</ele><time>2026-04-25T08:02:23.305Z</time></trkpt><trkpt lat="45.8409113" lon="13.4375365"><ele>12.8</ele><time>2026-04-25T08:02:25.32Z</time></trkpt><trkpt lat="45.8409784" lon="13.4376516"><ele>12.600000000000001</ele><time>2026-04-25T08:02:27.324Z</time></trkpt><trkpt lat="45.8410443" lon="13.4377506"><ele>12.399999999999999</ele><time>2026-04-25T08:02:29.334Z</time></trkpt><trkpt lat="45.8411169" lon="13.4377985"><ele>12.2</ele><time>2026-04-25T08:02:31.322Z</time></trkpt><trkpt lat="45.8412094" lon="13.4377941"><ele>12.0</ele><time>2026-04-25T08:02:33.306Z</time></trkpt><trkpt lat="45.8413132" lon="13.4378015"><ele>12.0</ele><time>2026-04-25T08:02:35.322Z</time></trkpt><trkpt lat="45.8414247" lon="13.4378352"><ele>12.0</ele><time>2026-04-25T08:02:37.328Z</time></trkpt><trkpt lat="45.8415304" lon="13.4378891"><ele>12.0</ele><time>2026-04-25T08:02:39.315Z</time></trkpt><trkpt lat="45.8416289" lon="13.437964"><ele>12.0</ele><time>2026-04-25T08:02:41.318Z</time></trkpt><trkpt lat="45.8417211" lon="13.4380406"><ele>12.0</ele><time>2026-04-25T08:02:43.323Z</time></trkpt><trkpt lat="45.8418104" lon="13.4381138"><ele>11.8</ele><time>2026-04-25T08:02:45.319Z</time></trkpt><trkpt lat="45.8419056" lon="13.4381931"><ele>11.6</ele><time>2026-04-25T08:02:47.313Z</time></trkpt><trkpt lat="45.8419958" lon="13.4382712"><ele>11.4</ele><time>2026-04-25T08:02:49.328Z</time></trkpt><trkpt lat="45.8420812" lon="13.4383516"><ele>11.200000000000001</ele><time>2026-04-25T08:02:51.312Z</time></trkpt><trkpt lat="45.8421598" lon="13.4384392"><ele>11.0</ele><time>2026-04-25T08:02:53.323Z</time></trkpt><trkpt lat="45.84224" lon="13.4385764"><ele>11.0</ele><time>2026-04-25T08:02:55.321Z</time></trkpt><trkpt lat="45.8423079" lon="13.4387101"><ele>11.0</ele><time>2026-04-25T08:02:57.319Z</time></trkpt><trkpt lat="45.8423456" lon="13.4387862"><ele>11.0</ele><time>2026-04-25T08:02:58.315Z</time></trkpt><trkpt lat="45.8424049" lon="13.438927"><ele>11.0</ele><time>2026-04-25T08:03:00.323Z</time></trkpt><trkpt lat="45.8424557" lon="13.4390755"><ele>11.0</ele><time>2026-04-25T08:03:02.329Z</time></trkpt><trkpt lat="45.8425039" lon="13.4392294"><ele>11.4</ele><time>2026-04-25T08:03:04.322Z</time></trkpt><trkpt lat="45.8425538" lon="13.4393765"><ele>11.8</ele><time>2026-04-25T08:03:06.318Z</time></trkpt><trkpt lat="45.8426135" lon="13.4395025"><ele>12.200000000000001</ele><time>2026-04-25T08:03:08.319Z</time></trkpt><trkpt lat="45.8426749" lon="13.4396255"><ele>12.600000000000001</ele><time>2026-04-25T08:03:10.316Z</time></trkpt><trkpt lat="45.8427279" lon="13.4397514"><ele>13.0</ele><time>2026-04-25T08:03:12.317Z</time></trkpt><trkpt lat="45.8427757" lon="13.4398959"><ele>13.0</ele><time>2026-04-25T08:03:14.318Z</time></trkpt><trkpt lat="45.8428227" lon="13.4400348"><ele>13.0</ele><time>2026-04-25T08:03:16.329Z</time></trkpt><trkpt lat="45.842862" lon="13.4401897"><ele>13.0</ele><time>2026-04-25T08:03:18.323Z</time></trkpt><trkpt lat="45.8428955" lon="13.4403477"><ele>13.0</ele><time>2026-04-25T08:03:20.332Z</time></trkpt><trkpt lat="45.8429506" lon="13.4404878"><ele>13.2</ele><time>2026-04-25T08:03:22.327Z</time></trkpt><trkpt lat="45.8430146" lon="13.4406181"><ele>13.4</ele><time>2026-04-25T08:03:24.325Z</time></trkpt><trkpt lat="45.843079" lon="13.4407424"><ele>13.599999999999998</ele><time>2026-04-25T08:03:26.318Z</time></trkpt><trkpt lat="45.843138" lon="13.4408739"><ele>13.799999999999999</ele><time>2026-04-25T08:03:28.325Z</time></trkpt><trkpt lat="45.8431881" lon="13.4410083"><ele>14.0</ele><time>2026-04-25T08:03:30.317Z</time></trkpt><trkpt lat="45.8432299" lon="13.4411413"><ele>14.0</ele><time>2026-04-25T08:03:32.331Z</time></trkpt><trkpt lat="45.843269" lon="13.4412654"><ele>13.999999999999998</ele><time>2026-04-25T08:03:34.312Z</time></trkpt><trkpt lat="45.8433218" lon="13.4413961"><ele>13.999999999999998</ele><time>2026-04-25T08:03:36.322Z</time></trkpt><trkpt lat="45.8433861" lon="13.4415384"><ele>14.0</ele><time>2026-04-25T08:03:38.316Z</time></trkpt><trkpt lat="45.8434513" lon="13.4416721"><ele>14.0</ele><time>2026-04-25T08:03:40.323Z</time></trkpt><trkpt lat="45.8435304" lon="13.4417938"><ele>13.799999999999999</ele><time>2026-04-25T08:03:42.316Z</time></trkpt><trkpt lat="45.8436152" lon="13.4418812"><ele>13.599999999999998</ele><time>2026-04-25T08:03:44.328Z</time></trkpt><trkpt lat="45.8437038" lon="13.4419692"><ele>13.4</ele><time>2026-04-25T08:03:46.322Z</time></trkpt><trkpt lat="45.8437873" lon="13.4420773"><ele>13.2</ele><time>2026-04-25T08:03:48.318Z</time></trkpt><trkpt lat="45.8438653" lon="13.4421858"><ele>13.0</ele><time>2026-04-25T08:03:50.347Z</time></trkpt><trkpt lat="45.8439477" lon="13.4422871"><ele>13.0</ele><time>2026-04-25T08:03:52.318Z</time></trkpt><trkpt lat="45.8439912" lon="13.4424354"><ele>13.0</ele><time>2026-04-25T08:03:54.321Z</time></trkpt><trkpt lat="45.8440137" lon="13.4425838"><ele>13.0</ele><time>2026-04-25T08:03:56.32Z</time></trkpt><trkpt lat="45.8440444" lon="13.4427256"><ele>13.0</ele><time>2026-04-25T08:03:58.325Z</time></trkpt><trkpt lat="45.8441035" lon="13.4428593"><ele>13.0</ele><time>2026-04-25T08:04:00.341Z</time></trkpt><trkpt lat="45.8441892" lon="13.4429207"><ele>12.4</ele><time>2026-04-25T08:04:02.319Z</time></trkpt><trkpt lat="45.8443077" lon="13.4429548"><ele>11.8</ele><time>2026-04-25T08:04:04.303Z</time></trkpt><trkpt lat="45.844416" lon="13.4430131"><ele>11.2</ele><time>2026-04-25T08:04:06.32Z</time></trkpt><trkpt lat="45.8445097" lon="13.443122"><ele>10.6</ele><time>2026-04-25T08:04:08.319Z</time></trkpt><trkpt lat="45.8445327" lon="13.4432116"><ele>10.0</ele><time>2026-04-25T08:04:09.313Z</time></trkpt><trkpt lat="45.8445772" lon="13.443355"><ele>10.0</ele><time>2026-04-25T08:04:11.32Z</time></trkpt><trkpt lat="45.8446666" lon="13.4434281"><ele>10.0</ele><time>2026-04-25T08:04:13.308Z</time></trkpt><trkpt lat="45.8447205" lon="13.4435722"><ele>10.0</ele><time>2026-04-25T08:04:15.34Z</time></trkpt><trkpt lat="45.8447902" lon="13.4436955"><ele>10.0</ele><time>2026-04-25T08:04:17.311Z</time></trkpt><trkpt lat="45.8448622" lon="13.4438323"><ele>10.0</ele><time>2026-04-25T08:04:19.318Z</time></trkpt><trkpt lat="45.8449346" lon="13.4439774"><ele>10.4</ele><time>2026-04-25T08:04:21.332Z</time></trkpt><trkpt lat="45.8449751" lon="13.4440497"><ele>10.8</ele><time>2026-04-25T08:04:22.33Z</time></trkpt><trkpt lat="45.8450542" lon="13.4441806"><ele>11.2</ele><time>2026-04-25T08:04:24.316Z</time></trkpt><trkpt lat="45.8451405" lon="13.4442937"><ele>11.6</ele><time>2026-04-25T08:04:26.335Z</time></trkpt><trkpt lat="45.8452262" lon="13.4444015"><ele>12.0</ele><time>2026-04-25T08:04:28.317Z</time></trkpt><trkpt lat="45.8453198" lon="13.4444929"><ele>11.6</ele><time>2026-04-25T08:04:30.32Z</time></trkpt><trkpt lat="45.845403" lon="13.4445911"><ele>11.2</ele><time>2026-04-25T08:04:32.33Z</time></trkpt><trkpt lat="45.8454538" lon="13.4447318"><ele>10.8</ele><time>2026-04-25T08:04:34.322Z</time></trkpt><trkpt lat="45.8454641" lon="13.4448924"><ele>10.4</ele><time>2026-04-25T08:04:36.32Z</time></trkpt><trkpt lat="45.8454972" lon="13.4450461"><ele>10.0</ele><time>2026-04-25T08:04:38.335Z</time></trkpt><trkpt lat="45.8455584" lon="13.4451792"><ele>10.0</ele><time>2026-04-25T08:04:40.326Z</time></trkpt><trkpt lat="45.845628" lon="13.4453033"><ele>10.0</ele><time>2026-04-25T08:04:42.317Z</time></trkpt><trkpt lat="45.8456974" lon="13.4454222"><ele>10.0</ele><time>2026-04-25T08:04:44.349Z</time></trkpt><trkpt lat="45.8457617" lon="13.4455542"><ele>10.0</ele><time>2026-04-25T08:04:46.324Z</time></trkpt><trkpt lat="45.8458265" lon="13.445697"><ele>10.0</ele><time>2026-04-25T08:04:48.327Z</time></trkpt><trkpt lat="45.8458906" lon="13.4458317"><ele>10.0</ele><time>2026-04-25T08:04:50.316Z</time></trkpt><trkpt lat="45.8459563" lon="13.4459553"><ele>10.0</ele><time>2026-04-25T08:04:52.325Z</time></trkpt><trkpt lat="45.8460297" lon="13.4460872"><ele>10.0</ele><time>2026-04-25T08:04:54.331Z</time></trkpt><trkpt lat="45.8460977" lon="13.4462193"><ele>10.0</ele><time>2026-04-25T08:04:56.319Z</time></trkpt><trkpt lat="45.8461616" lon="13.4463549"><ele>10.0</ele><time>2026-04-25T08:04:58.317Z</time></trkpt><trkpt lat="45.8462324" lon="13.4464879"><ele>10.0</ele><time>2026-04-25T08:05:00.324Z</time></trkpt><trkpt lat="45.8462996" lon="13.4466229"><ele>10.0</ele><time>2026-04-25T08:05:02.311Z</time></trkpt><trkpt lat="45.8463639" lon="13.4467571"><ele>10.0</ele><time>2026-04-25T08:05:04.317Z</time></trkpt><trkpt lat="45.8464314" lon="13.4468942"><ele>10.0</ele><time>2026-04-25T08:05:06.322Z</time></trkpt><trkpt lat="45.8465003" lon="13.4470316"><ele>10.0</ele><time>2026-04-25T08:05:08.32Z</time></trkpt><trkpt lat="45.8465675" lon="13.4471702"><ele>10.0</ele><time>2026-04-25T08:05:10.32Z</time></trkpt><trkpt lat="45.8466341" lon="13.447306"><ele>10.25</ele><time>2026-04-25T08:05:12.322Z</time></trkpt><trkpt lat="45.8467002" lon="13.4474428"><ele>10.5</ele><time>2026-04-25T08:05:14.312Z</time></trkpt><trkpt lat="45.8467684" lon="13.4475745"><ele>10.75</ele><time>2026-04-25T08:05:16.314Z</time></trkpt><trkpt lat="45.8468398" lon="13.4477091"><ele>11.0</ele><time>2026-04-25T08:05:18.317Z</time></trkpt><trkpt lat="45.8469088" lon="13.4478429"><ele>10.75</ele><time>2026-04-25T08:05:20.318Z</time></trkpt><trkpt lat="45.8469838" lon="13.4479721"><ele>10.5</ele><time>2026-04-25T08:05:22.315Z</time></trkpt><trkpt lat="45.8470577" lon="13.4480992"><ele>10.25</ele><time>2026-04-25T08:05:24.321Z</time></trkpt><trkpt lat="45.8471316" lon="13.4482317"><ele>10.0</ele><time>2026-04-25T08:05:26.321Z</time></trkpt><trkpt lat="45.8472026" lon="13.4483644"><ele>10.0</ele><time>2026-04-25T08:05:28.323Z</time></trkpt><trkpt lat="45.847268" lon="13.4484987"><ele>10.0</ele><time>2026-04-25T08:05:30.322Z</time></trkpt><trkpt lat="45.8473387" lon="13.4486233"><ele>10.0</ele><time>2026-04-25T08:05:32.32Z</time></trkpt><trkpt lat="45.8474093" lon="13.4487251"><ele>10.0</ele><time>2026-04-25T08:05:34.32Z</time></trkpt><trkpt lat="45.8474922" lon="13.4488466"><ele>10.0</ele><time>2026-04-25T08:05:36.317Z</time></trkpt><trkpt lat="45.8475695" lon="13.4489717"><ele>10.0</ele><time>2026-04-25T08:05:38.32Z</time></trkpt><trkpt lat="45.8476351" lon="13.449105"><ele>10.0</ele><time>2026-04-25T08:05:40.318Z</time></trkpt><trkpt lat="45.8476961" lon="13.4492472"><ele>10.0</ele><time>2026-04-25T08:05:42.328Z</time></trkpt><trkpt lat="45.8477509" lon="13.4493681"><ele>10.0</ele><time>2026-04-25T08:05:44.33Z</time></trkpt><trkpt lat="45.8478516" lon="13.4494608"><ele>10.0</ele><time>2026-04-25T08:05:46.34Z</time></trkpt><trkpt lat="45.8479242" lon="13.4495718"><ele>10.0</ele><time>2026-04-25T08:05:48.32Z</time></trkpt><trkpt lat="45.8480056" lon="13.4496705"><ele>10.0</ele><time>2026-04-25T08:05:50.331Z</time></trkpt><trkpt lat="45.8480915" lon="13.4497676"><ele>10.0</ele><time>2026-04-25T08:05:52.322Z</time></trkpt><trkpt lat="45.8481709" lon="13.4498833"><ele>10.0</ele><time>2026-04-25T08:05:54.324Z</time></trkpt><trkpt lat="45.8482534" lon="13.4499959"><ele>10.25</ele><time>2026-04-25T08:05:56.317Z</time></trkpt><trkpt lat="45.8483374" lon="13.4501119"><ele>10.5</ele><time>2026-04-25T08:05:58.318Z</time></trkpt><trkpt lat="45.8484268" lon="13.4502195"><ele>10.75</ele><time>2026-04-25T08:06:00.331Z</time></trkpt><trkpt lat="45.8485174" lon="13.4503201"><ele>11.0</ele><time>2026-04-25T08:06:02.322Z</time></trkpt><trkpt lat="45.8486054" lon="13.4504265"><ele>11.200000000000001</ele><time>2026-04-25T08:06:04.325Z</time></trkpt><trkpt lat="45.8486812" lon="13.4505189"><ele>11.4</ele><time>2026-04-25T08:06:06.309Z</time></trkpt><trkpt lat="45.8487706" lon="13.4506004"><ele>11.6</ele><time>2026-04-25T08:06:08.328Z</time></trkpt><trkpt lat="45.8488262" lon="13.450644"><ele>11.8</ele><time>2026-04-25T08:06:09.339Z</time></trkpt><trkpt lat="45.8489245" lon="13.4507147"><ele>12.0</ele><time>2026-04-25T08:06:11.329Z</time></trkpt><trkpt lat="45.8490179" lon="13.4507739"><ele>12.0</ele><time>2026-04-25T08:06:13.325Z</time></trkpt><trkpt lat="45.8491125" lon="13.4508743"><ele>12.0</ele><time>2026-04-25T08:06:15.327Z</time></trkpt><trkpt lat="45.8492059" lon="13.450965"><ele>12.0</ele><time>2026-04-25T08:06:17.334Z</time></trkpt><trkpt lat="45.8493024" lon="13.4510448"><ele>12.0</ele><time>2026-04-25T08:06:19.323Z</time></trkpt><trkpt lat="45.849394" lon="13.4511596"><ele>12.0</ele><time>2026-04-25T08:06:21.324Z</time></trkpt><trkpt lat="45.8494774" lon="13.4512822"><ele>12.0</ele><time>2026-04-25T08:06:23.32Z</time></trkpt><trkpt lat="45.8495246" lon="13.4513539"><ele>12.0</ele><time>2026-04-25T08:06:24.329Z</time></trkpt><trkpt lat="45.8496056" lon="13.4514819"><ele>12.0</ele><time>2026-04-25T08:06:26.328Z</time></trkpt><trkpt lat="45.8496481" lon="13.4515499"><ele>12.0</ele><time>2026-04-25T08:06:27.327Z</time></trkpt><trkpt lat="45.8497194" lon="13.4516863"><ele>12.0</ele><time>2026-04-25T08:06:29.336Z</time></trkpt><trkpt lat="45.8498004" lon="13.4518093"><ele>12.0</ele><time>2026-04-25T08:06:31.323Z</time></trkpt><trkpt lat="45.8498763" lon="13.4519316"><ele>12.0</ele><time>2026-04-25T08:06:33.319Z</time></trkpt><trkpt lat="45.8499383" lon="13.4520614"><ele>12.0</ele><time>2026-04-25T08:06:35.321Z</time></trkpt><trkpt lat="45.8499728" lon="13.4522121"><ele>12.0</ele><time>2026-04-25T08:06:37.326Z</time></trkpt><trkpt lat="45.8500112" lon="13.4523533"><ele>12.0</ele><time>2026-04-25T08:06:39.32Z</time></trkpt><trkpt lat="45.8500518" lon="13.4524951"><ele>12.0</ele><time>2026-04-25T08:06:41.317Z</time></trkpt><trkpt lat="45.8501037" lon="13.4526468"><ele>12.0</ele><time>2026-04-25T08:06:43.321Z</time></trkpt><trkpt lat="45.8501521" lon="13.4527833"><ele>12.0</ele><time>2026-04-25T08:06:45.334Z</time></trkpt><trkpt lat="45.8502033" lon="13.4529145"><ele>12.25</ele><time>2026-04-25T08:06:47.319Z</time></trkpt><trkpt lat="45.8502545" lon="13.4530827"><ele>12.5</ele><time>2026-04-25T08:06:49.322Z</time></trkpt><trkpt lat="45.8503082" lon="13.4532378"><ele>12.75</ele><time>2026-04-25T08:06:51.314Z</time></trkpt><trkpt lat="45.8503684" lon="13.4533875"><ele>13.0</ele><time>2026-04-25T08:06:53.306Z</time></trkpt><trkpt lat="45.8504368" lon="13.4535079"><ele>13.0</ele><time>2026-04-25T08:06:55.317Z</time></trkpt><trkpt lat="45.8505091" lon="13.4535995"><ele>13.0</ele><time>2026-04-25T08:06:57.319Z</time></trkpt><trkpt lat="45.8505885" lon="13.4536954"><ele>13.0</ele><time>2026-04-25T08:06:59.329Z</time></trkpt><trkpt lat="45.8506803" lon="13.4537762"><ele>13.0</ele><time>2026-04-25T08:07:01.314Z</time></trkpt><trkpt lat="45.850781" lon="13.4538559"><ele>13.0</ele><time>2026-04-25T08:07:03.319Z</time></trkpt><trkpt lat="45.8508777" lon="13.4539667"><ele>13.0</ele><time>2026-04-25T08:07:05.319Z</time></trkpt><trkpt lat="45.8509705" lon="13.4540538"><ele>13.0</ele><time>2026-04-25T08:07:07.322Z</time></trkpt><trkpt lat="45.8510662" lon="13.4541399"><ele>13.0</ele><time>2026-04-25T08:07:09.335Z</time></trkpt><trkpt lat="45.8511241" lon="13.4541863"><ele>13.0</ele><time>2026-04-25T08:07:10.312Z</time></trkpt><trkpt lat="45.85118" lon="13.4542303"><ele>13.0</ele><time>2026-04-25T08:07:11.329Z</time></trkpt><trkpt lat="45.8512756" lon="13.4543101"><ele>13.0</ele><time>2026-04-25T08:07:13.318Z</time></trkpt><trkpt lat="45.8513689" lon="13.4544013"><ele>13.0</ele><time>2026-04-25T08:07:15.32Z</time></trkpt><trkpt lat="45.85146" lon="13.4544898"><ele>13.0</ele><time>2026-04-25T08:07:17.317Z</time></trkpt><trkpt lat="45.8515473" lon="13.4545827"><ele>13.0</ele><time>2026-04-25T08:07:19.327Z</time></trkpt><trkpt lat="45.8516387" lon="13.4546856"><ele>13.0</ele><time>2026-04-25T08:07:21.325Z</time></trkpt><trkpt lat="45.8517329" lon="13.4547671"><ele>13.4</ele><time>2026-04-25T08:07:23.314Z</time></trkpt><trkpt lat="45.8518359" lon="13.4548272"><ele>13.8</ele><time>2026-04-25T08:07:25.316Z</time></trkpt><trkpt lat="45.8519411" lon="13.4548739"><ele>14.2</ele><time>2026-04-25T08:07:27.303Z</time></trkpt><trkpt lat="45.8520406" lon="13.4549562"><ele>14.6</ele><time>2026-04-25T08:07:29.331Z</time></trkpt><trkpt lat="45.8521077" lon="13.4550052"><ele>15.0</ele><time>2026-04-25T08:07:31.335Z</time></trkpt><trkpt lat="45.8520539" lon="13.4551031"><ele>15.0</ele><time>2026-04-25T08:07:36.316Z</time></trkpt><trkpt lat="45.8519951" lon="13.4551773"><ele>15.0</ele><time>2026-04-25T08:07:38.32Z</time></trkpt><trkpt lat="45.8519235" lon="13.4552565"><ele>15.0</ele><time>2026-04-25T08:07:40.309Z</time></trkpt><trkpt lat="45.8518504" lon="13.4553351"><ele>15.0</ele><time>2026-04-25T08:07:42.32Z</time></trkpt><trkpt lat="45.8517696" lon="13.4554283"><ele>15.0</ele><time>2026-04-25T08:07:44.324Z</time></trkpt><trkpt lat="45.8516852" lon="13.455522"><ele>15.0</ele><time>2026-04-25T08:07:46.326Z</time></trkpt><trkpt lat="45.8515991" lon="13.4556197"><ele>15.0</ele><time>2026-04-25T08:07:48.326Z</time></trkpt><trkpt lat="45.8515087" lon="13.455706"><ele>15.0</ele><time>2026-04-25T08:07:50.324Z</time></trkpt><trkpt lat="45.8514193" lon="13.4557823"><ele>15.0</ele><time>2026-04-25T08:07:52.312Z</time></trkpt><trkpt lat="45.8513375" lon="13.455886"><ele>15.0</ele><time>2026-04-25T08:07:54.327Z</time></trkpt><trkpt lat="45.851257" lon="13.455989"><ele>15.0</ele><time>2026-04-25T08:07:56.314Z</time></trkpt><trkpt lat="45.8511714" lon="13.4560835"><ele>15.0</ele><time>2026-04-25T08:07:58.328Z</time></trkpt><trkpt lat="45.8510791" lon="13.456175"><ele>15.0</ele><time>2026-04-25T08:08:00.314Z</time></trkpt><trkpt lat="45.850992" lon="13.4562638"><ele>15.0</ele><time>2026-04-25T08:08:02.322Z</time></trkpt><trkpt lat="45.8509287" lon="13.4563828"><ele>15.0</ele><time>2026-04-25T08:08:04.331Z</time></trkpt><trkpt lat="45.8509052" lon="13.4565084"><ele>15.2</ele><time>2026-04-25T08:08:06.316Z</time></trkpt><trkpt lat="45.8509016" lon="13.4566405"><ele>15.4</ele><time>2026-04-25T08:08:08.314Z</time></trkpt><trkpt lat="45.8508975" lon="13.4567708"><ele>15.600000000000001</ele><time>2026-04-25T08:08:10.335Z</time></trkpt><trkpt lat="45.8509015" lon="13.4568825"><ele>15.8</ele><time>2026-04-25T08:08:12.318Z</time></trkpt><trkpt lat="45.8509166" lon="13.4570174"><ele>16.0</ele><time>2026-04-25T08:08:14.32Z</time></trkpt><trkpt lat="45.8509438" lon="13.4571741"><ele>16.2</ele><time>2026-04-25T08:08:16.331Z</time></trkpt><trkpt lat="45.8509727" lon="13.4573349"><ele>16.400000000000002</ele><time>2026-04-25T08:08:18.327Z</time></trkpt><trkpt lat="45.8509907" lon="13.4574971"><ele>16.6</ele><time>2026-04-25T08:08:20.321Z</time></trkpt><trkpt lat="45.8510107" lon="13.4576441"><ele>16.8</ele><time>2026-04-25T08:08:22.318Z</time></trkpt><trkpt lat="45.8510295" lon="13.45779"><ele>17.0</ele><time>2026-04-25T08:08:24.326Z</time></trkpt><trkpt lat="45.8510478" lon="13.4579274"><ele>17.0</ele><time>2026-04-25T08:08:26.322Z</time></trkpt><trkpt lat="45.851067" lon="13.45807"><ele>17.0</ele><time>2026-04-25T08:08:28.316Z</time></trkpt><trkpt lat="45.8510887" lon="13.4582333"><ele>17.0</ele><time>2026-04-25T08:08:30.33Z</time></trkpt><trkpt lat="45.8511013" lon="13.4583992"><ele>17.0</ele><time>2026-04-25T08:08:32.33Z</time></trkpt><trkpt lat="45.8511067" lon="13.4585628"><ele>17.0</ele><time>2026-04-25T08:08:34.336Z</time></trkpt><trkpt lat="45.8511284" lon="13.4587198"><ele>17.2</ele><time>2026-04-25T08:08:36.329Z</time></trkpt><trkpt lat="45.8511694" lon="13.4588564"><ele>17.4</ele><time>2026-04-25T08:08:38.313Z</time></trkpt><trkpt lat="45.8512594" lon="13.4588964"><ele>17.6</ele><time>2026-04-25T08:08:40.322Z</time></trkpt><trkpt lat="45.8513617" lon="13.4588658"><ele>17.8</ele><time>2026-04-25T08:08:42.34Z</time></trkpt><trkpt lat="45.8514643" lon="13.4588417"><ele>18.0</ele><time>2026-04-25T08:08:44.323Z</time></trkpt><trkpt lat="45.8515629" lon="13.4588399"><ele>18.0</ele><time>2026-04-25T08:08:46.321Z</time></trkpt><trkpt lat="45.8516606" lon="13.4588403"><ele>18.0</ele><time>2026-04-25T08:08:48.314Z</time></trkpt><trkpt lat="45.8517601" lon="13.4588932"><ele>18.0</ele><time>2026-04-25T08:08:50.326Z</time></trkpt><trkpt lat="45.851862" lon="13.4589829"><ele>18.0</ele><time>2026-04-25T08:08:52.345Z</time></trkpt><trkpt lat="45.8519574" lon="13.4590813"><ele>18.0</ele><time>2026-04-25T08:08:54.313Z</time></trkpt><trkpt lat="45.8520618" lon="13.4591855"><ele>18.0</ele><time>2026-04-25T08:08:56.317Z</time></trkpt><trkpt lat="45.8521578" lon="13.4592784"><ele>18.0</ele><time>2026-04-25T08:08:58.32Z</time></trkpt><trkpt lat="45.8522452" lon="13.4594055"><ele>18.0</ele><time>2026-04-25T08:09:00.319Z</time></trkpt><trkpt lat="45.8523169" lon="13.4595452"><ele>18.0</ele><time>2026-04-25T08:09:02.327Z</time></trkpt><trkpt lat="45.8522852" lon="13.4596762"><ele>18.0</ele><time>2026-04-25T08:09:04.322Z</time></trkpt><trkpt lat="45.8522422" lon="13.459809"><ele>18.0</ele><time>2026-04-25T08:09:06.324Z</time></trkpt><trkpt lat="45.8522069" lon="13.4599428"><ele>18.0</ele><time>2026-04-25T08:09:08.316Z</time></trkpt><trkpt lat="45.8521743" lon="13.4600793"><ele>18.0</ele><time>2026-04-25T08:09:10.325Z</time></trkpt><trkpt lat="45.852143" lon="13.4602196"><ele>18.0</ele><time>2026-04-25T08:09:12.32Z</time></trkpt><trkpt lat="45.8521057" lon="13.4603633"><ele>17.6</ele><time>2026-04-25T08:09:14.329Z</time></trkpt><trkpt lat="45.8520663" lon="13.4605061"><ele>17.200000000000003</ele><time>2026-04-25T08:09:16.33Z</time></trkpt><trkpt lat="45.8520306" lon="13.4606592"><ele>16.8</ele><time>2026-04-25T08:09:18.323Z</time></trkpt><trkpt lat="45.85199" lon="13.4608063"><ele>16.400000000000002</ele><time>2026-04-25T08:09:20.324Z</time></trkpt><trkpt lat="45.8519459" lon="13.460949"><ele>16.0</ele><time>2026-04-25T08:09:22.34Z</time></trkpt><trkpt lat="45.8519049" lon="13.4610939"><ele>16.0</ele><time>2026-04-25T08:09:24.333Z</time></trkpt><trkpt lat="45.8518601" lon="13.4612388"><ele>16.0</ele><time>2026-04-25T08:09:26.317Z</time></trkpt><trkpt lat="45.8518111" lon="13.4613774"><ele>16.0</ele><time>2026-04-25T08:09:28.318Z</time></trkpt><trkpt lat="45.8517606" lon="13.4615194"><ele>16.0</ele><time>2026-04-25T08:09:30.336Z</time></trkpt><trkpt lat="45.8517106" lon="13.4616607"><ele>16.0</ele><time>2026-04-25T08:09:32.338Z</time></trkpt><trkpt lat="45.851662" lon="13.4618035"><ele>16.2</ele><time>2026-04-25T08:09:34.331Z</time></trkpt><trkpt lat="45.8516145" lon="13.4619539"><ele>16.400000000000002</ele><time>2026-04-25T08:09:36.327Z</time></trkpt><trkpt lat="45.8515639" lon="13.4621002"><ele>16.6</ele><time>2026-04-25T08:09:38.331Z</time></trkpt><trkpt lat="45.8515142" lon="13.4622425"><ele>16.8</ele><time>2026-04-25T08:09:40.323Z</time></trkpt><trkpt lat="45.8514666" lon="13.462381"><ele>17.0</ele><time>2026-04-25T08:09:42.327Z</time></trkpt><trkpt lat="45.8514343" lon="13.4625246"><ele>16.8</ele><time>2026-04-25T08:09:44.335Z</time></trkpt><trkpt lat="45.8514232" lon="13.4626737"><ele>16.6</ele><time>2026-04-25T08:09:46.339Z</time></trkpt><trkpt lat="45.8514414" lon="13.4628233"><ele>16.400000000000002</ele><time>2026-04-25T08:09:48.327Z</time></trkpt><trkpt lat="45.8514999" lon="13.4629545"><ele>16.2</ele><time>2026-04-25T08:09:50.323Z</time></trkpt><trkpt lat="45.8515675" lon="13.4630782"><ele>16.0</ele><time>2026-04-25T08:09:52.319Z</time></trkpt><trkpt lat="45.8516368" lon="13.4632022"><ele>16.0</ele><time>2026-04-25T08:09:54.327Z</time></trkpt><trkpt lat="45.8517038" lon="13.4633275"><ele>16.0</ele><time>2026-04-25T08:09:56.319Z</time></trkpt><trkpt lat="45.85177" lon="13.4634521"><ele>16.0</ele><time>2026-04-25T08:09:58.314Z</time></trkpt><trkpt lat="45.8518316" lon="13.4635791"><ele>16.0</ele><time>2026-04-25T08:10:00.329Z</time></trkpt><trkpt lat="45.8518925" lon="13.4637079"><ele>16.0</ele><time>2026-04-25T08:10:02.33Z</time></trkpt><trkpt lat="45.8519517" lon="13.4638376"><ele>16.0</ele><time>2026-04-25T08:10:04.319Z</time></trkpt><trkpt lat="45.8520103" lon="13.4639675"><ele>16.0</ele><time>2026-04-25T08:10:06.326Z</time></trkpt><trkpt lat="45.8520699" lon="13.4640936"><ele>16.0</ele><time>2026-04-25T08:10:08.319Z</time></trkpt><trkpt lat="45.8521263" lon="13.464224"><ele>16.0</ele><time>2026-04-25T08:10:10.331Z</time></trkpt><trkpt lat="45.8521825" lon="13.4643563"><ele>16.0</ele><time>2026-04-25T08:10:12.328Z</time></trkpt><trkpt lat="45.8522422" lon="13.4644867"><ele>16.0</ele><time>2026-04-25T08:10:14.329Z</time></trkpt><trkpt lat="45.852306" lon="13.4646125"><ele>16.0</ele><time>2026-04-25T08:10:16.315Z</time></trkpt><trkpt lat="45.8523738" lon="13.4647344"><ele>16.0</ele><time>2026-04-25T08:10:18.331Z</time></trkpt><trkpt lat="45.8524443" lon="13.4648544"><ele>16.0</ele><time>2026-04-25T08:10:20.339Z</time></trkpt><trkpt lat="45.8525183" lon="13.4649714"><ele>16.0</ele><time>2026-04-25T08:10:22.331Z</time></trkpt><trkpt lat="45.8525923" lon="13.4650882"><ele>16.0</ele><time>2026-04-25T08:10:24.324Z</time></trkpt><trkpt lat="45.852665" lon="13.4652055"><ele>16.0</ele><time>2026-04-25T08:10:26.32Z</time></trkpt><trkpt lat="45.8527376" lon="13.4653221"><ele>16.0</ele><time>2026-04-25T08:10:28.319Z</time></trkpt><trkpt lat="45.8528105" lon="13.465436"><ele>16.0</ele><time>2026-04-25T08:10:30.336Z</time></trkpt><trkpt lat="45.8528844" lon="13.4655486"><ele>16.0</ele><time>2026-04-25T08:10:32.322Z</time></trkpt><trkpt lat="45.8529607" lon="13.4656583"><ele>16.0</ele><time>2026-04-25T08:10:34.315Z</time></trkpt><trkpt lat="45.8530378" lon="13.4657668"><ele>16.0</ele><time>2026-04-25T08:10:36.316Z</time></trkpt><trkpt lat="45.8531172" lon="13.4658733"><ele>16.0</ele><time>2026-04-25T08:10:38.335Z</time></trkpt><trkpt lat="45.8531989" lon="13.4659755"><ele>16.0</ele><time>2026-04-25T08:10:40.327Z</time></trkpt><trkpt lat="45.853281" lon="13.4660758"><ele>16.0</ele><time>2026-04-25T08:10:42.32Z</time></trkpt><trkpt lat="45.8533644" lon="13.4661749"><ele>16.0</ele><time>2026-04-25T08:10:44.316Z</time></trkpt><trkpt lat="45.8534488" lon="13.4662699"><ele>16.0</ele><time>2026-04-25T08:10:46.316Z</time></trkpt><trkpt lat="45.8535344" lon="13.4663634"><ele>16.0</ele><time>2026-04-25T08:10:48.322Z</time></trkpt><trkpt lat="45.8536178" lon="13.4664609"><ele>16.0</ele><time>2026-04-25T08:10:50.334Z</time></trkpt><trkpt lat="45.8537035" lon="13.4665504"><ele>16.0</ele><time>2026-04-25T08:10:52.322Z</time></trkpt><trkpt lat="45.8537899" lon="13.4666405"><ele>16.2</ele><time>2026-04-25T08:10:54.324Z</time></trkpt><trkpt lat="45.8538759" lon="13.4667352"><ele>16.400000000000002</ele><time>2026-04-25T08:10:56.316Z</time></trkpt><trkpt lat="45.85396" lon="13.4668366"><ele>16.6</ele><time>2026-04-25T08:10:58.315Z</time></trkpt><trkpt lat="45.8540458" lon="13.4669351"><ele>16.8</ele><time>2026-04-25T08:11:00.328Z</time></trkpt><trkpt lat="45.8541334" lon="13.4670346"><ele>17.0</ele><time>2026-04-25T08:11:02.322Z</time></trkpt><trkpt lat="45.8542213" lon="13.467133"><ele>17.0</ele><time>2026-04-25T08:11:04.322Z</time></trkpt><trkpt lat="45.8543093" lon="13.4672299"><ele>17.0</ele><time>2026-04-25T08:11:06.337Z</time></trkpt><trkpt lat="45.8543965" lon="13.4673282"><ele>17.0</ele><time>2026-04-25T08:11:08.323Z</time></trkpt><trkpt lat="45.8544845" lon="13.4674267"><ele>17.0</ele><time>2026-04-25T08:11:10.329Z</time></trkpt><trkpt lat="45.8545741" lon="13.4675231"><ele>17.0</ele><time>2026-04-25T08:11:12.329Z</time></trkpt><trkpt lat="45.854661" lon="13.4676254"><ele>17.0</ele><time>2026-04-25T08:11:14.334Z</time></trkpt><trkpt lat="45.8547474" lon="13.4677266"><ele>17.0</ele><time>2026-04-25T08:11:16.304Z</time></trkpt><trkpt lat="45.8548334" lon="13.4678297"><ele>17.0</ele><time>2026-04-25T08:11:18.317Z</time></trkpt><trkpt lat="45.8549206" lon="13.4679326"><ele>17.0</ele><time>2026-04-25T08:11:20.327Z</time></trkpt><trkpt lat="45.8550053" lon="13.4680411"><ele>17.25</ele><time>2026-04-25T08:11:22.319Z</time></trkpt><trkpt lat="45.8550918" lon="13.4681453"><ele>17.5</ele><time>2026-04-25T08:11:24.329Z</time></trkpt><trkpt lat="45.8551802" lon="13.4682485"><ele>17.75</ele><time>2026-04-25T08:11:26.325Z</time></trkpt><trkpt lat="45.8552696" lon="13.4683506"><ele>18.0</ele><time>2026-04-25T08:11:28.336Z</time></trkpt><trkpt lat="45.8553581" lon="13.4684533"><ele>18.0</ele><time>2026-04-25T08:11:30.315Z</time></trkpt><trkpt lat="45.855448" lon="13.4685542"><ele>18.0</ele><time>2026-04-25T08:11:32.313Z</time></trkpt><trkpt lat="45.8555362" lon="13.4686547"><ele>18.0</ele><time>2026-04-25T08:11:34.326Z</time></trkpt><trkpt lat="45.8556289" lon="13.4687523"><ele>18.0</ele><time>2026-04-25T08:11:36.333Z</time></trkpt><trkpt lat="45.8557194" lon="13.4688481"><ele>18.2</ele><time>2026-04-25T08:11:38.334Z</time></trkpt><trkpt lat="45.8558079" lon="13.4689454"><ele>18.4</ele><time>2026-04-25T08:11:40.315Z</time></trkpt><trkpt lat="45.8558981" lon="13.4690428"><ele>18.599999999999998</ele><time>2026-04-25T08:11:42.323Z</time></trkpt><trkpt lat="45.8559865" lon="13.4691408"><ele>18.8</ele><time>2026-04-25T08:11:44.317Z</time></trkpt><trkpt lat="45.8560756" lon="13.4692387"><ele>19.0</ele><time>2026-04-25T08:11:46.323Z</time></trkpt><trkpt lat="45.8561644" lon="13.4693326"><ele>19.0</ele><time>2026-04-25T08:11:48.315Z</time></trkpt><trkpt lat="45.8562506" lon="13.4694303"><ele>19.0</ele><time>2026-04-25T08:11:50.32Z</time></trkpt><trkpt lat="45.8563365" lon="13.4695275"><ele>19.0</ele><time>2026-04-25T08:11:52.324Z</time></trkpt><trkpt lat="45.8564234" lon="13.469624"><ele>19.0</ele><time>2026-04-25T08:11:54.313Z</time></trkpt><trkpt lat="45.8565123" lon="13.4697215"><ele>19.0</ele><time>2026-04-25T08:11:56.314Z</time></trkpt><trkpt lat="45.856601" lon="13.4698174"><ele>19.0</ele><time>2026-04-25T08:11:58.315Z</time></trkpt><trkpt lat="45.8566892" lon="13.4699132"><ele>19.0</ele><time>2026-04-25T08:12:00.312Z</time></trkpt><trkpt lat="45.8567777" lon="13.4700058"><ele>19.0</ele><time>2026-04-25T08:12:02.316Z</time></trkpt><trkpt lat="45.8568668" lon="13.4700994"><ele>19.0</ele><time>2026-04-25T08:12:04.312Z</time></trkpt><trkpt lat="45.8569572" lon="13.4701921"><ele>19.0</ele><time>2026-04-25T08:12:06.309Z</time></trkpt><trkpt lat="45.8570503" lon="13.4702808"><ele>18.8</ele><time>2026-04-25T08:12:08.315Z</time></trkpt><trkpt lat="45.8571421" lon="13.4703704"><ele>18.599999999999998</ele><time>2026-04-25T08:12:10.326Z</time></trkpt><trkpt lat="45.8572335" lon="13.4704609"><ele>18.4</ele><time>2026-04-25T08:12:12.311Z</time></trkpt><trkpt lat="45.8573252" lon="13.4705535"><ele>18.2</ele><time>2026-04-25T08:12:14.316Z</time></trkpt><trkpt lat="45.8574167" lon="13.4706469"><ele>18.0</ele><time>2026-04-25T08:12:16.324Z</time></trkpt><trkpt lat="45.8575107" lon="13.4707354"><ele>17.6</ele><time>2026-04-25T08:12:18.326Z</time></trkpt><trkpt lat="45.8576039" lon="13.4708246"><ele>17.200000000000003</ele><time>2026-04-25T08:12:20.321Z</time></trkpt><trkpt lat="45.8576949" lon="13.4709148"><ele>16.8</ele><time>2026-04-25T08:12:22.326Z</time></trkpt><trkpt lat="45.8577875" lon="13.4710069"><ele>16.400000000000002</ele><time>2026-04-25T08:12:24.349Z</time></trkpt><trkpt lat="45.857881" lon="13.4710989"><ele>16.0</ele><time>2026-04-25T08:12:26.319Z</time></trkpt><trkpt lat="45.8579729" lon="13.4711926"><ele>15.600000000000001</ele><time>2026-04-25T08:12:28.327Z</time></trkpt><trkpt lat="45.8580627" lon="13.4712859"><ele>15.200000000000001</ele><time>2026-04-25T08:12:30.318Z</time></trkpt><trkpt lat="45.8581541" lon="13.471377"><ele>14.799999999999999</ele><time>2026-04-25T08:12:32.331Z</time></trkpt><trkpt lat="45.8582447" lon="13.4714689"><ele>14.399999999999999</ele><time>2026-04-25T08:12:34.319Z</time></trkpt><trkpt lat="45.8583364" lon="13.4715614"><ele>14.0</ele><time>2026-04-25T08:12:36.315Z</time></trkpt><trkpt lat="45.8584282" lon="13.4716556"><ele>14.2</ele><time>2026-04-25T08:12:38.316Z</time></trkpt><trkpt lat="45.858521" lon="13.471748"><ele>14.399999999999999</ele><time>2026-04-25T08:12:40.327Z</time></trkpt><trkpt lat="45.8586098" lon="13.4718447"><ele>14.6</ele><time>2026-04-25T08:12:42.318Z</time></trkpt><trkpt lat="45.858699" lon="13.4719391"><ele>14.8</ele><time>2026-04-25T08:12:44.327Z</time></trkpt><trkpt lat="45.858791" lon="13.4720331"><ele>15.0</ele><time>2026-04-25T08:12:46.328Z</time></trkpt><trkpt lat="45.8588842" lon="13.472128"><ele>15.25</ele><time>2026-04-25T08:12:48.327Z</time></trkpt><trkpt lat="45.8589794" lon="13.4722184"><ele>15.5</ele><time>2026-04-25T08:12:50.323Z</time></trkpt><trkpt lat="45.8590753" lon="13.4723112"><ele>15.75</ele><time>2026-04-25T08:12:52.326Z</time></trkpt><trkpt lat="45.8591681" lon="13.4724082"><ele>16.0</ele><time>2026-04-25T08:12:54.327Z</time></trkpt><trkpt lat="45.8592602" lon="13.4725012"><ele>16.0</ele><time>2026-04-25T08:12:56.312Z</time></trkpt><trkpt lat="45.8593538" lon="13.4725903"><ele>16.0</ele><time>2026-04-25T08:12:58.324Z</time></trkpt><trkpt lat="45.8594496" lon="13.472676"><ele>16.0</ele><time>2026-04-25T08:13:00.332Z</time></trkpt><trkpt lat="45.8595386" lon="13.4727784"><ele>16.0</ele><time>2026-04-25T08:13:02.319Z</time></trkpt><trkpt lat="45.8596234" lon="13.4728887"><ele>15.75</ele><time>2026-04-25T08:13:04.313Z</time></trkpt><trkpt lat="45.8597037" lon="13.4730087"><ele>15.5</ele><time>2026-04-25T08:13:06.325Z</time></trkpt><trkpt lat="45.8597819" lon="13.4731327"><ele>15.25</ele><time>2026-04-25T08:13:08.325Z</time></trkpt><trkpt lat="45.8598583" lon="13.4732557"><ele>15.0</ele><time>2026-04-25T08:13:10.33Z</time></trkpt><trkpt lat="45.8599341" lon="13.4733781"><ele>15.0</ele><time>2026-04-25T08:13:12.316Z</time></trkpt><trkpt lat="45.8600134" lon="13.4734972"><ele>15.0</ele><time>2026-04-25T08:13:14.313Z</time></trkpt><trkpt lat="45.8600923" lon="13.4736159"><ele>15.0</ele><time>2026-04-25T08:13:16.318Z</time></trkpt><trkpt lat="45.8601695" lon="13.4737355"><ele>15.0</ele><time>2026-04-25T08:13:18.328Z</time></trkpt><trkpt lat="45.8602468" lon="13.4738542"><ele>15.0</ele><time>2026-04-25T08:13:20.33Z</time></trkpt><trkpt lat="45.860322" lon="13.4739733"><ele>15.0</ele><time>2026-04-25T08:13:22.313Z</time></trkpt><trkpt lat="45.8603922" lon="13.4740918"><ele>15.0</ele><time>2026-04-25T08:13:24.311Z</time></trkpt><trkpt lat="45.860464" lon="13.4742065"><ele>15.0</ele><time>2026-04-25T08:13:26.317Z</time></trkpt><trkpt lat="45.8605375" lon="13.4743198"><ele>15.0</ele><time>2026-04-25T08:13:28.33Z</time></trkpt><trkpt lat="45.8606104" lon="13.4744359"><ele>15.0</ele><time>2026-04-25T08:13:30.336Z</time></trkpt><trkpt lat="45.8606853" lon="13.4745512"><ele>15.0</ele><time>2026-04-25T08:13:32.318Z</time></trkpt><trkpt lat="45.8607596" lon="13.4746647"><ele>15.0</ele><time>2026-04-25T08:13:34.315Z</time></trkpt><trkpt lat="45.8608333" lon="13.4747819"><ele>15.0</ele><time>2026-04-25T08:13:36.313Z</time></trkpt><trkpt lat="45.8609078" lon="13.4748982"><ele>15.0</ele><time>2026-04-25T08:13:38.318Z</time></trkpt><trkpt lat="45.8609834" lon="13.4750122"><ele>15.4</ele><time>2026-04-25T08:13:40.33Z</time></trkpt><trkpt lat="45.8610587" lon="13.4751266"><ele>15.8</ele><time>2026-04-25T08:13:42.34Z</time></trkpt><trkpt lat="45.8611331" lon="13.4752403"><ele>16.2</ele><time>2026-04-25T08:13:44.316Z</time></trkpt><trkpt lat="45.8612065" lon="13.4753574"><ele>16.6</ele><time>2026-04-25T08:13:46.314Z</time></trkpt><trkpt lat="45.8612814" lon="13.4754743"><ele>17.0</ele><time>2026-04-25T08:13:48.341Z</time></trkpt><trkpt lat="45.8613575" lon="13.475589"><ele>17.25</ele><time>2026-04-25T08:13:50.322Z</time></trkpt><trkpt lat="45.8614348" lon="13.4757057"><ele>17.5</ele><time>2026-04-25T08:13:52.334Z</time></trkpt><trkpt lat="45.8615102" lon="13.4758232"><ele>17.75</ele><time>2026-04-25T08:13:54.323Z</time></trkpt><trkpt lat="45.8615869" lon="13.4759412"><ele>18.0</ele><time>2026-04-25T08:13:56.316Z</time></trkpt><trkpt lat="45.8616656" lon="13.4760591"><ele>18.0</ele><time>2026-04-25T08:13:58.345Z</time></trkpt><trkpt lat="45.8617451" lon="13.4761774"><ele>18.0</ele><time>2026-04-25T08:14:00.324Z</time></trkpt><trkpt lat="45.8618238" lon="13.4762962"><ele>18.0</ele><time>2026-04-25T08:14:02.336Z</time></trkpt><trkpt lat="45.861902" lon="13.4764129"><ele>18.0</ele><time>2026-04-25T08:14:04.335Z</time></trkpt><trkpt lat="45.8619804" lon="13.4765299"><ele>17.75</ele><time>2026-04-25T08:14:06.336Z</time></trkpt><trkpt lat="45.8620576" lon="13.4766424"><ele>17.5</ele><time>2026-04-25T08:14:08.316Z</time></trkpt><trkpt lat="45.8621354" lon="13.4767636"><ele>17.25</ele><time>2026-04-25T08:14:10.323Z</time></trkpt><trkpt lat="45.8622134" lon="13.4768822"><ele>17.0</ele><time>2026-04-25T08:14:12.327Z</time></trkpt><trkpt lat="45.8622962" lon="13.4769978"><ele>17.75</ele><time>2026-04-25T08:14:14.325Z</time></trkpt><trkpt lat="45.8623788" lon="13.4771114"><ele>18.5</ele><time>2026-04-25T08:14:16.323Z</time></trkpt><trkpt lat="45.8624585" lon="13.4772246"><ele>19.25</ele><time>2026-04-25T08:14:18.324Z</time></trkpt><trkpt lat="45.8625354" lon="13.4773412"><ele>20.0</ele><time>2026-04-25T08:14:20.329Z</time></trkpt><trkpt lat="45.8626127" lon="13.4774578"><ele>19.25</ele><time>2026-04-25T08:14:22.32Z</time></trkpt><trkpt lat="45.8626909" lon="13.477576"><ele>18.5</ele><time>2026-04-25T08:14:24.33Z</time></trkpt><trkpt lat="45.8627707" lon="13.4776949"><ele>17.75</ele><time>2026-04-25T08:14:26.343Z</time></trkpt><trkpt lat="45.8628507" lon="13.4778131"><ele>17.0</ele><time>2026-04-25T08:14:28.346Z</time></trkpt><trkpt lat="45.862931" lon="13.4779323"><ele>17.25</ele><time>2026-04-25T08:14:30.33Z</time></trkpt><trkpt lat="45.8630141" lon="13.4780483"><ele>17.5</ele><time>2026-04-25T08:14:32.328Z</time></trkpt><trkpt lat="45.8630967" lon="13.4781645"><ele>17.75</ele><time>2026-04-25T08:14:34.325Z</time></trkpt><trkpt lat="45.8631757" lon="13.4782808"><ele>18.0</ele><time>2026-04-25T08:14:36.325Z</time></trkpt><trkpt lat="45.863255" lon="13.4784005"><ele>18.0</ele><time>2026-04-25T08:14:38.328Z</time></trkpt><trkpt lat="45.8633334" lon="13.4785138"><ele>18.0</ele><time>2026-04-25T08:14:40.337Z</time></trkpt><trkpt lat="45.863422" lon="13.4786088"><ele>18.0</ele><time>2026-04-25T08:14:42.331Z</time></trkpt><trkpt lat="45.8634914" lon="13.4787257"><ele>18.0</ele><time>2026-04-25T08:14:44.332Z</time></trkpt><trkpt lat="45.8635599" lon="13.4788373"><ele>18.0</ele><time>2026-04-25T08:14:46.325Z</time></trkpt><trkpt lat="45.8636321" lon="13.4789414"><ele>18.4</ele><time>2026-04-25T08:14:48.329Z</time></trkpt><trkpt lat="45.8637065" lon="13.4790478"><ele>18.8</ele><time>2026-04-25T08:14:50.338Z</time></trkpt><trkpt lat="45.8637872" lon="13.4791481"><ele>19.2</ele><time>2026-04-25T08:14:52.329Z</time></trkpt><trkpt lat="45.8638731" lon="13.4792442"><ele>19.6</ele><time>2026-04-25T08:14:54.33Z</time></trkpt><trkpt lat="45.8639601" lon="13.479338"><ele>20.0</ele><time>2026-04-25T08:14:56.332Z</time></trkpt><trkpt lat="45.8640448" lon="13.4794354"><ele>20.0</ele><time>2026-04-25T08:14:58.321Z</time></trkpt><trkpt lat="45.8641229" lon="13.4795447"><ele>20.0</ele><time>2026-04-25T08:15:00.332Z</time></trkpt><trkpt lat="45.864205" lon="13.4796537"><ele>20.0</ele><time>2026-04-25T08:15:02.316Z</time></trkpt><trkpt lat="45.8642917" lon="13.4797546"><ele>20.0</ele><time>2026-04-25T08:15:04.324Z</time></trkpt><trkpt lat="45.8643789" lon="13.4798552"><ele>20.0</ele><time>2026-04-25T08:15:06.326Z</time></trkpt><trkpt lat="45.8644644" lon="13.4799583"><ele>20.2</ele><time>2026-04-25T08:15:08.327Z</time></trkpt><trkpt lat="45.8645465" lon="13.4800673"><ele>20.4</ele><time>2026-04-25T08:15:10.327Z</time></trkpt><trkpt lat="45.8646402" lon="13.4801519"><ele>20.6</ele><time>2026-04-25T08:15:12.322Z</time></trkpt><trkpt lat="45.8647499" lon="13.4801356"><ele>20.8</ele><time>2026-04-25T08:15:14.312Z</time></trkpt><trkpt lat="45.8648452" lon="13.4800396"><ele>21.0</ele><time>2026-04-25T08:15:16.321Z</time></trkpt><trkpt lat="45.8649379" lon="13.4799352"><ele>21.0</ele><time>2026-04-25T08:15:18.319Z</time></trkpt><trkpt lat="45.8650294" lon="13.4798364"><ele>21.0</ele><time>2026-04-25T08:15:20.331Z</time></trkpt><trkpt lat="45.8651306" lon="13.4797557"><ele>21.0</ele><time>2026-04-25T08:15:22.325Z</time></trkpt><trkpt lat="45.865241" lon="13.4797141"><ele>21.0</ele><time>2026-04-25T08:15:24.324Z</time></trkpt><trkpt lat="45.8653531" lon="13.4796955"><ele>20.8</ele><time>2026-04-25T08:15:26.315Z</time></trkpt><trkpt lat="45.8654636" lon="13.4796872"><ele>20.6</ele><time>2026-04-25T08:15:28.316Z</time></trkpt><trkpt lat="45.8655752" lon="13.479689"><ele>20.4</ele><time>2026-04-25T08:15:30.33Z</time></trkpt><trkpt lat="45.865688" lon="13.4797007"><ele>20.2</ele><time>2026-04-25T08:15:32.331Z</time></trkpt><trkpt lat="45.8658019" lon="13.4797119"><ele>20.0</ele><time>2026-04-25T08:15:34.333Z</time></trkpt><trkpt lat="45.8659143" lon="13.4797298"><ele>20.0</ele><time>2026-04-25T08:15:36.327Z</time></trkpt><trkpt lat="45.8660228" lon="13.4797738"><ele>20.0</ele><time>2026-04-25T08:15:38.32Z</time></trkpt><trkpt lat="45.866131" lon="13.4798146"><ele>20.0</ele><time>2026-04-25T08:15:40.328Z</time></trkpt><trkpt lat="45.8662401" lon="13.4798556"><ele>20.0</ele><time>2026-04-25T08:15:42.317Z</time></trkpt><trkpt lat="45.8663487" lon="13.4798833"><ele>20.0</ele><time>2026-04-25T08:15:44.334Z</time></trkpt><trkpt lat="45.8664549" lon="13.4798609"><ele>20.0</ele><time>2026-04-25T08:15:46.318Z</time></trkpt><trkpt lat="45.8665525" lon="13.4797928"><ele>20.0</ele><time>2026-04-25T08:15:48.317Z</time></trkpt><trkpt lat="45.8666417" lon="13.4797038"><ele>20.0</ele><time>2026-04-25T08:15:50.328Z</time></trkpt><trkpt lat="45.8667425" lon="13.4796537"><ele>20.0</ele><time>2026-04-25T08:15:52.33Z</time></trkpt><trkpt lat="45.8668281" lon="13.4797365"><ele>20.0</ele><time>2026-04-25T08:15:54.32Z</time></trkpt><trkpt lat="45.8668479" lon="13.4798888"><ele>20.0</ele><time>2026-04-25T08:15:56.329Z</time></trkpt><trkpt lat="45.8668515" lon="13.4800411"><ele>20.0</ele><time>2026-04-25T08:15:58.319Z</time></trkpt><trkpt lat="45.8668426" lon="13.4802043"><ele>20.0</ele><time>2026-04-25T08:16:00.335Z</time></trkpt><trkpt lat="45.8668314" lon="13.4803701"><ele>20.0</ele><time>2026-04-25T08:16:02.327Z</time></trkpt><trkpt lat="45.8668224" lon="13.4805356"><ele>20.0</ele><time>2026-04-25T08:16:04.334Z</time></trkpt><trkpt lat="45.866807" lon="13.4806927"><ele>20.0</ele><time>2026-04-25T08:16:06.33Z</time></trkpt><trkpt lat="45.8667933" lon="13.4808449"><ele>20.0</ele><time>2026-04-25T08:16:08.319Z</time></trkpt><trkpt lat="45.8667797" lon="13.4809905"><ele>20.0</ele><time>2026-04-25T08:16:10.326Z</time></trkpt><trkpt lat="45.8667675" lon="13.4811149"><ele>20.0</ele><time>2026-04-25T08:16:12.33Z</time></trkpt><trkpt lat="45.8667627" lon="13.4812341"><ele>20.0</ele><time>2026-04-25T08:16:14.357Z</time></trkpt><trkpt lat="45.8667441" lon="13.4813496"><ele>20.0</ele><time>2026-04-25T08:16:16.32Z</time></trkpt><trkpt lat="45.866697" lon="13.4814844"><ele>20.0</ele><time>2026-04-25T08:16:18.322Z</time></trkpt><trkpt lat="45.8666858" lon="13.4816414"><ele>20.0</ele><time>2026-04-25T08:16:20.345Z</time></trkpt><trkpt lat="45.8667501" lon="13.4817764"><ele>20.0</ele><time>2026-04-25T08:16:22.319Z</time></trkpt><trkpt lat="45.86682" lon="13.4819071"><ele>20.0</ele><time>2026-04-25T08:16:24.328Z</time></trkpt><trkpt lat="45.8668433" lon="13.482006"><ele>20.0</ele><time>2026-04-25T08:16:26.315Z</time></trkpt><trkpt lat="45.8668695" lon="13.4821114"><ele>20.0</ele><time>2026-04-25T08:16:32.324Z</time></trkpt><trkpt lat="45.8668966" lon="13.4822049"><ele>20.0</ele><time>2026-04-25T08:16:34.311Z</time></trkpt><trkpt lat="45.8669232" lon="13.4823406"><ele>20.0</ele><time>2026-04-25T08:16:36.32Z</time></trkpt><trkpt lat="45.8669568" lon="13.4824781"><ele>20.0</ele><time>2026-04-25T08:16:38.33Z</time></trkpt><trkpt lat="45.8670051" lon="13.4826125"><ele>20.2</ele><time>2026-04-25T08:16:40.327Z</time></trkpt><trkpt lat="45.8670469" lon="13.4827537"><ele>20.4</ele><time>2026-04-25T08:16:42.326Z</time></trkpt><trkpt lat="45.8670789" lon="13.4829001"><ele>20.6</ele><time>2026-04-25T08:16:44.32Z</time></trkpt><trkpt lat="45.8671009" lon="13.483051"><ele>20.8</ele><time>2026-04-25T08:16:46.313Z</time></trkpt><trkpt lat="45.867084" lon="13.4831982"><ele>21.0</ele><time>2026-04-25T08:16:48.317Z</time></trkpt><trkpt lat="45.8670406" lon="13.4833333"><ele>21.6</ele><time>2026-04-25T08:16:50.323Z</time></trkpt><trkpt lat="45.8669901" lon="13.4834648"><ele>22.200000000000003</ele><time>2026-04-25T08:16:52.323Z</time></trkpt><trkpt lat="45.8669418" lon="13.4835989"><ele>22.799999999999997</ele><time>2026-04-25T08:16:54.321Z</time></trkpt><trkpt lat="45.8668843" lon="13.4837269"><ele>23.4</ele><time>2026-04-25T08:16:56.329Z</time></trkpt><trkpt lat="45.8668245" lon="13.4838541"><ele>24.0</ele><time>2026-04-25T08:16:58.313Z</time></trkpt><trkpt lat="45.8667691" lon="13.4839828"><ele>24.0</ele><time>2026-04-25T08:17:00.328Z</time></trkpt><trkpt lat="45.8667097" lon="13.4841072"><ele>24.0</ele><time>2026-04-25T08:17:02.325Z</time></trkpt><trkpt lat="45.8666491" lon="13.484231"><ele>24.0</ele><time>2026-04-25T08:17:04.316Z</time></trkpt><trkpt lat="45.8665846" lon="13.4843497"><ele>24.0</ele><time>2026-04-25T08:17:06.325Z</time></trkpt><trkpt lat="45.866523" lon="13.4844685"><ele>24.0</ele><time>2026-04-25T08:17:08.333Z</time></trkpt><trkpt lat="45.8664574" lon="13.484587"><ele>25.0</ele><time>2026-04-25T08:17:10.327Z</time></trkpt><trkpt lat="45.8663941" lon="13.4847133"><ele>26.0</ele><time>2026-04-25T08:17:12.329Z</time></trkpt><trkpt lat="45.8663435" lon="13.4848467"><ele>27.0</ele><time>2026-04-25T08:17:14.335Z</time></trkpt><trkpt lat="45.8663007" lon="13.4849633"><ele>28.0</ele><time>2026-04-25T08:17:16.33Z</time></trkpt><trkpt lat="45.8662725" lon="13.4850459"><ele>29.0</ele><time>2026-04-25T08:17:18.321Z</time></trkpt><trkpt lat="45.8662388" lon="13.4851483"><ele>30.0</ele><time>2026-04-25T08:17:22.316Z</time></trkpt><trkpt lat="45.8662056" lon="13.4852377"><ele>30.0</ele><time>2026-04-25T08:17:26.317Z</time></trkpt><trkpt lat="45.8661783" lon="13.4853276"><ele>30.0</ele><time>2026-04-25T08:17:30.321Z</time></trkpt><trkpt lat="45.8661571" lon="13.4854386"><ele>30.0</ele><time>2026-04-25T08:17:35.325Z</time></trkpt><trkpt lat="45.8661415" lon="13.4855333"><ele>30.0</ele><time>2026-04-25T08:17:39.338Z</time></trkpt><trkpt lat="45.8661184" lon="13.4856253"><ele>30.0</ele><time>2026-04-25T08:17:43.327Z</time></trkpt><trkpt lat="45.8661069" lon="13.4857162"><ele>30.0</ele><time>2026-04-25T08:17:47.314Z</time></trkpt><trkpt lat="45.8660948" lon="13.4858073"><ele>30.0</ele><time>2026-04-25T08:17:51.334Z</time></trkpt><trkpt lat="45.86608" lon="13.485896"><ele>30.42857142857143</ele><time>2026-04-25T08:17:55.312Z</time></trkpt><trkpt lat="45.866064" lon="13.4859856"><ele>30.857142857142854</ele><time>2026-04-25T08:17:59.322Z</time></trkpt><trkpt lat="45.8660327" lon="13.4860906"><ele>31.285714285714285</ele><time>2026-04-25T08:18:04.338Z</time></trkpt><trkpt lat="45.8660157" lon="13.4861846"><ele>31.714285714285715</ele><time>2026-04-25T08:18:08.312Z</time></trkpt><trkpt lat="45.8660008" lon="13.486282"><ele>32.142857142857146</ele><time>2026-04-25T08:18:12.318Z</time></trkpt><trkpt lat="45.8659712" lon="13.4863673"><ele>32.57142857142857</ele><time>2026-04-25T08:18:16.316Z</time></trkpt><trkpt lat="45.8659391" lon="13.4864518"><ele>33.0</ele><time>2026-04-25T08:18:20.335Z</time></trkpt><trkpt lat="45.8659179" lon="13.486542"><ele>33.0</ele><time>2026-04-25T08:18:24.326Z</time></trkpt><trkpt lat="45.8658961" lon="13.4866333"><ele>33.0</ele><time>2026-04-25T08:18:28.329Z</time></trkpt><trkpt lat="45.8658831" lon="13.4867277"><ele>33.0</ele><time>2026-04-25T08:18:32.329Z</time></trkpt><trkpt lat="45.8658795" lon="13.4868401"><ele>33.0</ele><time>2026-04-25T08:18:37.32Z</time></trkpt><trkpt lat="45.8658876" lon="13.4869402"><ele>33.0</ele><time>2026-04-25T08:18:41.344Z</time></trkpt><trkpt lat="45.8659022" lon="13.4870339"><ele>33.0</ele><time>2026-04-25T08:18:45.317Z</time></trkpt><trkpt lat="45.8659081" lon="13.4871315"><ele>33.0</ele><time>2026-04-25T08:18:49.321Z</time></trkpt><trkpt lat="45.8659109" lon="13.4872274"><ele>33.857142857142854</ele><time>2026-04-25T08:18:53.323Z</time></trkpt><trkpt lat="45.8659217" lon="13.4873222"><ele>34.714285714285715</ele><time>2026-04-25T08:18:57.315Z</time></trkpt><trkpt lat="45.8659303" lon="13.4874181"><ele>35.57142857142857</ele><time>2026-04-25T08:19:01.355Z</time></trkpt><trkpt lat="45.8659318" lon="13.4875169"><ele>36.42857142857143</ele><time>2026-04-25T08:19:05.335Z</time></trkpt><trkpt lat="45.8659382" lon="13.4876138"><ele>37.285714285714285</ele><time>2026-04-25T08:19:09.317Z</time></trkpt><trkpt lat="45.8659444" lon="13.4877094"><ele>38.142857142857146</ele><time>2026-04-25T08:19:13.345Z</time></trkpt><trkpt lat="45.865949" lon="13.4878061"><ele>39.0</ele><time>2026-04-25T08:19:17.317Z</time></trkpt><trkpt lat="45.8659545" lon="13.4879024"><ele>42.142857142857146</ele><time>2026-04-25T08:19:21.322Z</time></trkpt><trkpt lat="45.8659679" lon="13.4879971"><ele>45.28571428571428</ele><time>2026-04-25T08:19:25.346Z</time></trkpt><trkpt lat="45.8659764" lon="13.4880933"><ele>48.42857142857142</ele><time>2026-04-25T08:19:29.325Z</time></trkpt><trkpt lat="45.8659857" lon="13.4881905"><ele>51.57142857142857</ele><time>2026-04-25T08:19:33.333Z</time></trkpt><trkpt lat="45.8659981" lon="13.488287"><ele>54.71428571428571</ele><time>2026-04-25T08:19:37.317Z</time></trkpt><trkpt lat="45.8660124" lon="13.4883821"><ele>57.85714285714285</ele><time>2026-04-25T08:19:41.327Z</time></trkpt><trkpt lat="45.8660211" lon="13.4884802"><ele>60.99999999999999</ele><time>2026-04-25T08:19:45.321Z</time></trkpt><trkpt lat="45.8660345" lon="13.4885767"><ele>60.99999999999999</ele><time>2026-04-25T08:19:49.329Z</time></trkpt><trkpt lat="45.8660505" lon="13.4886729"><ele>61.0</ele><time>2026-04-25T08:19:53.312Z</time></trkpt><trkpt lat="45.8660664" lon="13.4887694"><ele>60.99999999999999</ele><time>2026-04-25T08:19:57.326Z</time></trkpt><trkpt lat="45.8660847" lon="13.4888643"><ele>60.99999999999999</ele><time>2026-04-25T08:20:01.33Z</time></trkpt><trkpt lat="45.8660972" lon="13.4889607"><ele>61.0</ele><time>2026-04-25T08:20:05.322Z</time></trkpt><trkpt lat="45.8661286" lon="13.4890493"><ele>60.99999999999999</ele><time>2026-04-25T08:20:09.338Z</time></trkpt><trkpt lat="45.8661412" lon="13.4891489"><ele>60.99999999999999</ele><time>2026-04-25T08:20:13.316Z</time></trkpt><trkpt lat="45.8661526" lon="13.4892479"><ele>61.166666666666664</ele><time>2026-04-25T08:20:17.324Z</time></trkpt><trkpt lat="45.8661602" lon="13.4893492"><ele>61.33333333333333</ele><time>2026-04-25T08:20:21.323Z</time></trkpt><trkpt lat="45.8661718" lon="13.4894512"><ele>61.5</ele><time>2026-04-25T08:20:25.332Z</time></trkpt><trkpt lat="45.8661751" lon="13.4895548"><ele>61.66666666666667</ele><time>2026-04-25T08:20:29.333Z</time></trkpt><trkpt lat="45.8661784" lon="13.4896724"><ele>61.833333333333336</ele><time>2026-04-25T08:20:33.336Z</time></trkpt><trkpt lat="45.8661758" lon="13.4897902"><ele>62.0</ele><time>2026-04-25T08:20:37.318Z</time></trkpt><trkpt lat="45.8661725" lon="13.4899083"><ele>62.833333333333336</ele><time>2026-04-25T08:20:41.332Z</time></trkpt><trkpt lat="45.8661688" lon="13.4900222"><ele>63.66666666666667</ele><time>2026-04-25T08:20:45.341Z</time></trkpt><trkpt lat="45.8661702" lon="13.4901375"><ele>64.5</ele><time>2026-04-25T08:20:49.327Z</time></trkpt><trkpt lat="45.8661638" lon="13.4902516"><ele>65.33333333333333</ele><time>2026-04-25T08:20:53.332Z</time></trkpt><trkpt lat="45.8661664" lon="13.4903659"><ele>66.16666666666666</ele><time>2026-04-25T08:20:57.328Z</time></trkpt><trkpt lat="45.8661703" lon="13.4904781"><ele>67.0</ele><time>2026-04-25T08:21:01.337Z</time></trkpt><trkpt lat="45.8661675" lon="13.4905937"><ele>67.5</ele><time>2026-04-25T08:21:05.335Z</time></trkpt><trkpt lat="45.8661607" lon="13.4907085"><ele>68.0</ele><time>2026-04-25T08:21:09.326Z</time></trkpt><trkpt lat="45.8661634" lon="13.4908217"><ele>68.5</ele><time>2026-04-25T08:21:13.313Z</time></trkpt><trkpt lat="45.8661638" lon="13.4909345"><ele>69.0</ele><time>2026-04-25T08:21:17.413Z</time></trkpt><trkpt lat="45.8661532" lon="13.4910392"><ele>69.5</ele><time>2026-04-25T08:21:21.336Z</time></trkpt><trkpt lat="45.8661473" lon="13.491154"><ele>70.0</ele><time>2026-04-25T08:21:25.334Z</time></trkpt><trkpt lat="45.8661436" lon="13.4912655"><ele>70.33333333333333</ele><time>2026-04-25T08:21:29.323Z</time></trkpt><trkpt lat="45.8661344" lon="13.4913781"><ele>70.66666666666666</ele><time>2026-04-25T08:21:33.324Z</time></trkpt><trkpt lat="45.8661185" lon="13.4914891"><ele>71.0</ele><time>2026-04-25T08:21:37.332Z</time></trkpt><trkpt lat="45.8660861" lon="13.4915893"><ele>71.33333333333333</ele><time>2026-04-25T08:21:41.334Z</time></trkpt><trkpt lat="45.8660484" lon="13.4916888"><ele>71.66666666666667</ele><time>2026-04-25T08:21:45.323Z</time></trkpt><trkpt lat="45.8660025" lon="13.4917841"><ele>72.0</ele><time>2026-04-25T08:21:49.317Z</time></trkpt><trkpt lat="45.8659633" lon="13.4918852"><ele>71.66666666666667</ele><time>2026-04-25T08:21:53.323Z</time></trkpt><trkpt lat="45.8659204" lon="13.4919803"><ele>71.33333333333333</ele><time>2026-04-25T08:21:57.333Z</time></trkpt><trkpt lat="45.8658745" lon="13.4920722"><ele>71.0</ele><time>2026-04-25T08:22:01.335Z</time></trkpt><trkpt lat="45.8658288" lon="13.4921711"><ele>70.66666666666666</ele><time>2026-04-25T08:22:05.319Z</time></trkpt><trkpt lat="45.8657826" lon="13.4922671"><ele>70.33333333333333</ele><time>2026-04-25T08:22:09.337Z</time></trkpt><trkpt lat="45.8657391" lon="13.4923688"><ele>70.0</ele><time>2026-04-25T08:22:13.334Z</time></trkpt><trkpt lat="45.8656919" lon="13.4924672"><ele>71.0</ele><time>2026-04-25T08:22:17.331Z</time></trkpt><trkpt lat="45.8656487" lon="13.4925674"><ele>72.0</ele><time>2026-04-25T08:22:21.331Z</time></trkpt><trkpt lat="45.8656031" lon="13.4926664"><ele>73.0</ele><time>2026-04-25T08:22:25.327Z</time></trkpt><trkpt lat="45.8655593" lon="13.4927646"><ele>74.0</ele><time>2026-04-25T08:22:29.324Z</time></trkpt><trkpt lat="45.8655198" lon="13.4928666"><ele>75.0</ele><time>2026-04-25T08:22:33.323Z</time></trkpt><trkpt lat="45.8654846" lon="13.4929737"><ele>76.0</ele><time>2026-04-25T08:22:37.342Z</time></trkpt><trkpt lat="45.8654656" lon="13.4930624"><ele>76.42857142857143</ele><time>2026-04-25T08:22:40.323Z</time></trkpt><trkpt lat="45.8654578" lon="13.4931533"><ele>76.85714285714286</ele><time>2026-04-25T08:22:43.315Z</time></trkpt><trkpt lat="45.8654564" lon="13.4932473"><ele>77.28571428571429</ele><time>2026-04-25T08:22:46.32Z</time></trkpt><trkpt lat="45.8654591" lon="13.4933412"><ele>77.71428571428572</ele><time>2026-04-25T08:22:49.346Z</time></trkpt><trkpt lat="45.8654637" lon="13.4934385"><ele>78.14285714285714</ele><time>2026-04-25T08:22:52.323Z</time></trkpt><trkpt lat="45.8654695" lon="13.4935368"><ele>78.57142857142858</ele><time>2026-04-25T08:22:55.326Z</time></trkpt><trkpt lat="45.8654732" lon="13.4936362"><ele>79.0</ele><time>2026-04-25T08:22:58.315Z</time></trkpt><trkpt lat="45.8654839" lon="13.4937565"><ele>79.5</ele><time>2026-04-25T08:23:01.323Z</time></trkpt><trkpt lat="45.8654908" lon="13.4938695"><ele>80.0</ele><time>2026-04-25T08:23:04.316Z</time></trkpt><trkpt lat="45.8655011" lon="13.4939842"><ele>80.5</ele><time>2026-04-25T08:23:07.315Z</time></trkpt><trkpt lat="45.8655111" lon="13.4941034"><ele>81.0</ele><time>2026-04-25T08:23:10.319Z</time></trkpt><trkpt lat="45.8655164" lon="13.4942243"><ele>81.5</ele><time>2026-04-25T08:23:13.321Z</time></trkpt><trkpt lat="45.865519" lon="13.4943506"><ele>82.0</ele><time>2026-04-25T08:23:16.318Z</time></trkpt><trkpt lat="45.8655167" lon="13.4944731"><ele>82.33333333333333</ele><time>2026-04-25T08:23:19.331Z</time></trkpt><trkpt lat="45.8655142" lon="13.4946033"><ele>82.66666666666666</ele><time>2026-04-25T08:23:22.325Z</time></trkpt><trkpt lat="45.8655086" lon="13.4946984"><ele>83.0</ele><time>2026-04-25T08:23:24.316Z</time></trkpt><trkpt lat="45.8654922" lon="13.4947967"><ele>83.33333333333333</ele><time>2026-04-25T08:23:26.328Z</time></trkpt><trkpt lat="45.8654722" lon="13.4948966"><ele>83.66666666666667</ele><time>2026-04-25T08:23:28.324Z</time></trkpt><trkpt lat="45.8654469" lon="13.4950044"><ele>84.0</ele><time>2026-04-25T08:23:30.322Z</time></trkpt><trkpt lat="45.8654263" lon="13.495116"><ele>84.0</ele><time>2026-04-25T08:23:32.319Z</time></trkpt><trkpt lat="45.865423" lon="13.4952308"><ele>84.0</ele><time>2026-04-25T08:23:34.311Z</time></trkpt><trkpt lat="45.8654427" lon="13.4953378"><ele>84.0</ele><time>2026-04-25T08:23:36.332Z</time></trkpt><trkpt lat="45.8654737" lon="13.4954295"><ele>84.0</ele><time>2026-04-25T08:23:38.32Z</time></trkpt><trkpt lat="45.8655053" lon="13.4955152"><ele>84.0</ele><time>2026-04-25T08:23:40.336Z</time></trkpt><trkpt lat="45.8655383" lon="13.4956048"><ele>84.0</ele><time>2026-04-25T08:23:42.322Z</time></trkpt><trkpt lat="45.8655742" lon="13.4956905"><ele>84.0</ele><time>2026-04-25T08:23:44.335Z</time></trkpt><trkpt lat="45.8656044" lon="13.4957715"><ele>84.33333333333333</ele><time>2026-04-25T08:23:46.323Z</time></trkpt><trkpt lat="45.8656347" lon="13.4958805"><ele>84.66666666666667</ele><time>2026-04-25T08:23:49.315Z</time></trkpt><trkpt lat="45.8656459" lon="13.4959845"><ele>85.0</ele><time>2026-04-25T08:23:52.321Z</time></trkpt><trkpt lat="45.8656463" lon="13.4960946"><ele>85.33333333333334</ele><time>2026-04-25T08:23:55.319Z</time></trkpt><trkpt lat="45.8656054" lon="13.4961926"><ele>85.66666666666667</ele><time>2026-04-25T08:23:58.318Z</time></trkpt><trkpt lat="45.8655455" lon="13.4962744"><ele>86.0</ele><time>2026-04-25T08:24:01.302Z</time></trkpt><trkpt lat="45.8654788" lon="13.4963371"><ele>86.71428571428572</ele><time>2026-04-25T08:24:04.32Z</time></trkpt><trkpt lat="45.8654067" lon="13.4963867"><ele>87.42857142857143</ele><time>2026-04-25T08:24:07.322Z</time></trkpt><trkpt lat="45.8653396" lon="13.4964289"><ele>88.14285714285714</ele><time>2026-04-25T08:24:10.32Z</time></trkpt><trkpt lat="45.8652698" lon="13.4964627"><ele>88.85714285714286</ele><time>2026-04-25T08:24:14.327Z</time></trkpt><trkpt lat="45.8652066" lon="13.496498"><ele>89.57142857142857</ele><time>2026-04-25T08:24:17.32Z</time></trkpt><trkpt lat="45.8651504" lon="13.496568"><ele>90.28571428571429</ele><time>2026-04-25T08:24:20.322Z</time></trkpt><trkpt lat="45.8651071" lon="13.4966544"><ele>91.0</ele><time>2026-04-25T08:24:23.318Z</time></trkpt><trkpt lat="45.8650899" lon="13.4967582"><ele>91.0</ele><time>2026-04-25T08:24:26.327Z</time></trkpt><trkpt lat="45.8650896" lon="13.496863"><ele>91.0</ele><time>2026-04-25T08:24:29.359Z</time></trkpt><trkpt lat="45.8651219" lon="13.4969634"><ele>91.0</ele><time>2026-04-25T08:24:32.319Z</time></trkpt><trkpt lat="45.8651594" lon="13.4970624"><ele>91.0</ele><time>2026-04-25T08:24:35.315Z</time></trkpt><trkpt lat="45.8651995" lon="13.4971561"><ele>91.0</ele><time>2026-04-25T08:24:38.323Z</time></trkpt><trkpt lat="45.8652475" lon="13.4972436"><ele>91.0</ele><time>2026-04-25T08:24:41.331Z</time></trkpt><trkpt lat="45.865286" lon="13.4973338"><ele>92.0</ele><time>2026-04-25T08:24:44.317Z</time></trkpt><trkpt lat="45.8653037" lon="13.4974352"><ele>93.0</ele><time>2026-04-25T08:24:47.337Z</time></trkpt><trkpt lat="45.8652973" lon="13.4975407"><ele>94.0</ele><time>2026-04-25T08:24:50.318Z</time></trkpt><trkpt lat="45.8652481" lon="13.4976292"><ele>95.0</ele><time>2026-04-25T08:24:53.325Z</time></trkpt><trkpt lat="45.8651732" lon="13.4976896"><ele>96.00000000000001</ele><time>2026-04-25T08:24:56.311Z</time></trkpt><trkpt lat="45.86509" lon="13.4977372"><ele>97.0</ele><time>2026-04-25T08:24:59.325Z</time></trkpt><trkpt lat="45.8650236" lon="13.4977643"><ele>97.00000000000001</ele><time>2026-04-25T08:25:02.318Z</time></trkpt><trkpt lat="45.8649445" lon="13.4977609"><ele>97.0</ele><time>2026-04-25T08:25:05.33Z</time></trkpt><trkpt lat="45.86486" lon="13.4977361"><ele>97.0</ele><time>2026-04-25T08:25:08.324Z</time></trkpt><trkpt lat="45.8647822" lon="13.4977271"><ele>97.0</ele><time>2026-04-25T08:25:10.32Z</time></trkpt><trkpt lat="45.8647043" lon="13.4977472"><ele>97.00000000000001</ele><time>2026-04-25T08:25:12.321Z</time></trkpt><trkpt lat="45.8646415" lon="13.4978006"><ele>97.0</ele><time>2026-04-25T08:25:14.32Z</time></trkpt><trkpt lat="45.8645914" lon="13.4978753"><ele>98.14285714285714</ele><time>2026-04-25T08:25:16.32Z</time></trkpt><trkpt lat="45.8645483" lon="13.4979495"><ele>99.28571428571429</ele><time>2026-04-25T08:25:18.318Z</time></trkpt><trkpt lat="45.8645132" lon="13.4980266"><ele>100.42857142857143</ele><time>2026-04-25T08:25:20.324Z</time></trkpt><trkpt lat="45.8644677" lon="13.4981292"><ele>101.57142857142857</ele><time>2026-04-25T08:25:23.322Z</time></trkpt><trkpt lat="45.8644289" lon="13.4982162"><ele>102.71428571428572</ele><time>2026-04-25T08:25:26.32Z</time></trkpt><trkpt lat="45.8643838" lon="13.4982795"><ele>103.85714285714286</ele><time>2026-04-25T08:25:28.334Z</time></trkpt><trkpt lat="45.8643407" lon="13.498361"><ele>105.0</ele><time>2026-04-25T08:25:30.319Z</time></trkpt><trkpt lat="45.8643228" lon="13.4984561"><ele>105.0</ele><time>2026-04-25T08:25:32.318Z</time></trkpt><trkpt lat="45.8643237" lon="13.4985465"><ele>105.0</ele><time>2026-04-25T08:25:34.331Z</time></trkpt><trkpt lat="45.8643322" lon="13.4986382"><ele>105.0</ele><time>2026-04-25T08:25:36.331Z</time></trkpt><trkpt lat="45.8643257" lon="13.4987286"><ele>105.0</ele><time>2026-04-25T08:25:38.364Z</time></trkpt><trkpt lat="45.8643079" lon="13.4988162"><ele>105.0</ele><time>2026-04-25T08:25:40.333Z</time></trkpt><trkpt lat="45.86428" lon="13.498941"><ele>105.0</ele><time>2026-04-25T08:25:43.323Z</time></trkpt><trkpt lat="45.8642662" lon="13.4990697"><ele>105.0</ele><time>2026-04-25T08:25:46.309Z</time></trkpt><trkpt lat="45.8642679" lon="13.4991674"><ele>105.0</ele><time>2026-04-25T08:25:48.32Z</time></trkpt><trkpt lat="45.8642685" lon="13.4992583"><ele>105.0</ele><time>2026-04-25T08:25:50.327Z</time></trkpt><trkpt lat="45.8642639" lon="13.4993503"><ele>105.0</ele><time>2026-04-25T08:25:52.321Z</time></trkpt><trkpt lat="45.8642459" lon="13.4994384"><ele>105.0</ele><time>2026-04-25T08:25:54.319Z</time></trkpt><trkpt lat="45.864206" lon="13.4995147"><ele>105.0</ele><time>2026-04-25T08:25:56.32Z</time></trkpt><trkpt lat="45.8641625" lon="13.499585"><ele>105.0</ele><time>2026-04-25T08:25:58.319Z</time></trkpt><trkpt lat="45.8641206" lon="13.4996632"><ele>105.0</ele><time>2026-04-25T08:26:00.327Z</time></trkpt><trkpt lat="45.8640721" lon="13.4997335"><ele>105.5</ele><time>2026-04-25T08:26:02.336Z</time></trkpt><trkpt lat="45.8640202" lon="13.4997966"><ele>106.0</ele><time>2026-04-25T08:26:04.33Z</time></trkpt><trkpt lat="45.8639702" lon="13.4998598"><ele>106.5</ele><time>2026-04-25T08:26:06.328Z</time></trkpt><trkpt lat="45.8639227" lon="13.4999234"><ele>107.0</ele><time>2026-04-25T08:26:08.325Z</time></trkpt><trkpt lat="45.863849" lon="13.500004"><ele>107.5</ele><time>2026-04-25T08:26:11.317Z</time></trkpt><trkpt lat="45.8637621" lon="13.5000454"><ele>108.0</ele><time>2026-04-25T08:26:14.327Z</time></trkpt><trkpt lat="45.8636961" lon="13.5000368"><ele>108.0</ele><time>2026-04-25T08:26:16.314Z</time></trkpt><trkpt lat="45.8636191" lon="13.5000298"><ele>108.0</ele><time>2026-04-25T08:26:18.318Z</time></trkpt><trkpt lat="45.8635475" lon="13.5000709"><ele>108.0</ele><time>2026-04-25T08:26:20.329Z</time></trkpt><trkpt lat="45.8635014" lon="13.5001533"><ele>108.0</ele><time>2026-04-25T08:26:22.339Z</time></trkpt><trkpt lat="45.8634851" lon="13.5002496"><ele>108.0</ele><time>2026-04-25T08:26:24.322Z</time></trkpt><trkpt lat="45.8634872" lon="13.5003428"><ele>108.0</ele><time>2026-04-25T08:26:26.313Z</time></trkpt><trkpt lat="45.8634921" lon="13.5004708"><ele>108.0</ele><time>2026-04-25T08:26:29.316Z</time></trkpt><trkpt lat="45.8634752" lon="13.5005962"><ele>108.0</ele><time>2026-04-25T08:26:32.317Z</time></trkpt><trkpt lat="45.8634244" lon="13.5006964"><ele>108.0</ele><time>2026-04-25T08:26:35.313Z</time></trkpt><trkpt lat="45.8633401" lon="13.5007401"><ele>108.0</ele><time>2026-04-25T08:26:38.325Z</time></trkpt><trkpt lat="45.8632724" lon="13.5007382"><ele>108.0</ele><time>2026-04-25T08:26:40.324Z</time></trkpt><trkpt lat="45.8632084" lon="13.5007392"><ele>108.0</ele><time>2026-04-25T08:26:42.325Z</time></trkpt><trkpt lat="45.8631252" lon="13.5007675"><ele>108.0</ele><time>2026-04-25T08:26:45.325Z</time></trkpt><trkpt lat="45.8630614" lon="13.5008024"><ele>108.0</ele><time>2026-04-25T08:26:48.328Z</time></trkpt><trkpt lat="45.8629833" lon="13.5008022"><ele>108.0</ele><time>2026-04-25T08:26:52.331Z</time></trkpt><trkpt lat="45.8629196" lon="13.500813"><ele>108.0</ele><time>2026-04-25T08:26:58.314Z</time></trkpt><trkpt lat="45.8628326" lon="13.5008465"><ele>108.0</ele><time>2026-04-25T08:27:04.321Z</time></trkpt><trkpt lat="45.8627775" lon="13.5008918"><ele>108.0</ele><time>2026-04-25T08:27:06.32Z</time></trkpt><trkpt lat="45.8627207" lon="13.5009429"><ele>108.0</ele><time>2026-04-25T08:27:08.314Z</time></trkpt><trkpt lat="45.8626455" lon="13.5010066"><ele>107.66666666666667</ele><time>2026-04-25T08:27:11.316Z</time></trkpt><trkpt lat="45.8625836" lon="13.5010553"><ele>107.33333333333334</ele><time>2026-04-25T08:27:14.314Z</time></trkpt><trkpt lat="45.8625192" lon="13.5011035"><ele>107.0</ele><time>2026-04-25T08:27:17.341Z</time></trkpt><trkpt lat="45.8624472" lon="13.5011451"><ele>106.66666666666667</ele><time>2026-04-25T08:27:20.322Z</time></trkpt><trkpt lat="45.8623631" lon="13.5011683"><ele>106.33333333333334</ele><time>2026-04-25T08:27:23.324Z</time></trkpt><trkpt lat="45.8623015" lon="13.5012182"><ele>106.0</ele><time>2026-04-25T08:27:26.318Z</time></trkpt><trkpt lat="45.8622521" lon="13.5013129"><ele>106.00000000000001</ele><time>2026-04-25T08:27:29.325Z</time></trkpt><trkpt lat="45.8622353" lon="13.5014038"><ele>106.0</ele><time>2026-04-25T08:27:31.314Z</time></trkpt><trkpt lat="45.862217" lon="13.5014931"><ele>106.0</ele><time>2026-04-25T08:27:33.326Z</time></trkpt><trkpt lat="45.8621922" lon="13.5016187"><ele>106.0</ele><time>2026-04-25T08:27:36.336Z</time></trkpt><trkpt lat="45.8621673" lon="13.5017313"><ele>106.00000000000001</ele><time>2026-04-25T08:27:39.319Z</time></trkpt><trkpt lat="45.8621444" lon="13.5018482"><ele>106.0</ele><time>2026-04-25T08:27:42.326Z</time></trkpt><trkpt lat="45.8621159" lon="13.5019755"><ele>106.50000000000001</ele><time>2026-04-25T08:27:45.322Z</time></trkpt><trkpt lat="45.8620952" lon="13.5020901"><ele>107.0</ele><time>2026-04-25T08:27:48.327Z</time></trkpt><trkpt lat="45.8620723" lon="13.5022163"><ele>107.5</ele><time>2026-04-25T08:27:51.324Z</time></trkpt><trkpt lat="45.8620466" lon="13.5023422"><ele>108.0</ele><time>2026-04-25T08:27:54.329Z</time></trkpt><trkpt lat="45.8621051" lon="13.502439"><ele>108.50000000000001</ele><time>2026-04-25T08:27:57.334Z</time></trkpt><trkpt lat="45.8621916" lon="13.5024905"><ele>109.0</ele><time>2026-04-25T08:28:00.319Z</time></trkpt><trkpt lat="45.8622732" lon="13.5025558"><ele>109.00000000000001</ele><time>2026-04-25T08:28:03.334Z</time></trkpt><trkpt lat="45.8623294" lon="13.5026077"><ele>109.0</ele><time>2026-04-25T08:28:05.33Z</time></trkpt><trkpt lat="45.8623889" lon="13.5026495"><ele>109.0</ele><time>2026-04-25T08:28:07.326Z</time></trkpt><trkpt lat="45.862481" lon="13.5026608"><ele>109.0</ele><time>2026-04-25T08:28:10.317Z</time></trkpt><trkpt lat="45.862568" lon="13.5026792"><ele>109.00000000000001</ele><time>2026-04-25T08:28:13.313Z</time></trkpt><trkpt lat="45.8626529" lon="13.5027027"><ele>109.0</ele><time>2026-04-25T08:28:16.329Z</time></trkpt><trkpt lat="45.862736" lon="13.5027316"><ele>109.33333333333334</ele><time>2026-04-25T08:28:19.316Z</time></trkpt><trkpt lat="45.8628174" lon="13.5027578"><ele>109.66666666666667</ele><time>2026-04-25T08:28:22.321Z</time></trkpt><trkpt lat="45.8628999" lon="13.5027908"><ele>110.0</ele><time>2026-04-25T08:28:25.308Z</time></trkpt><trkpt lat="45.8629849" lon="13.5028248"><ele>110.33333333333334</ele><time>2026-04-25T08:28:28.32Z</time></trkpt><trkpt lat="45.8630693" lon="13.5028409"><ele>110.66666666666667</ele><time>2026-04-25T08:28:31.335Z</time></trkpt><trkpt lat="45.8631559" lon="13.5028495"><ele>111.0</ele><time>2026-04-25T08:28:34.314Z</time></trkpt><trkpt lat="45.8632392" lon="13.502862"><ele>111.0</ele><time>2026-04-25T08:28:37.318Z</time></trkpt><trkpt lat="45.8633243" lon="13.5028748"><ele>111.0</ele><time>2026-04-25T08:28:40.324Z</time></trkpt><trkpt lat="45.8634066" lon="13.5028894"><ele>111.0</ele><time>2026-04-25T08:28:43.319Z</time></trkpt><trkpt lat="45.8634854" lon="13.5028973"><ele>111.0</ele><time>2026-04-25T08:28:46.334Z</time></trkpt><trkpt lat="45.8635642" lon="13.5028988"><ele>111.0</ele><time>2026-04-25T08:28:49.322Z</time></trkpt><trkpt lat="45.8636358" lon="13.5029321"><ele>111.0</ele><time>2026-04-25T08:28:52.321Z</time></trkpt><trkpt lat="45.8636903" lon="13.5030117"><ele>112.16666666666667</ele><time>2026-04-25T08:28:55.312Z</time></trkpt><trkpt lat="45.8637096" lon="13.5031232"><ele>113.33333333333334</ele><time>2026-04-25T08:28:58.322Z</time></trkpt><trkpt lat="45.863699" lon="13.5032446"><ele>114.5</ele><time>2026-04-25T08:29:01.311Z</time></trkpt><trkpt lat="45.8636889" lon="13.5033648"><ele>115.66666666666667</ele><time>2026-04-25T08:29:04.32Z</time></trkpt><trkpt lat="45.86368" lon="13.5034842"><ele>116.83333333333334</ele><time>2026-04-25T08:29:07.341Z</time></trkpt><trkpt lat="45.8636706" lon="13.503606"><ele>118.0</ele><time>2026-04-25T08:29:10.312Z</time></trkpt><trkpt lat="45.8636643" lon="13.5037247"><ele>118.00000000000001</ele><time>2026-04-25T08:29:13.316Z</time></trkpt><trkpt lat="45.8636534" lon="13.5038477"><ele>118.0</ele><time>2026-04-25T08:29:16.309Z</time></trkpt><trkpt lat="45.8636641" lon="13.5039738"><ele>118.0</ele><time>2026-04-25T08:29:19.315Z</time></trkpt><trkpt lat="45.8636984" lon="13.5040542"><ele>118.0</ele><time>2026-04-25T08:29:21.322Z</time></trkpt><trkpt lat="45.8637554" lon="13.5041033"><ele>118.00000000000001</ele><time>2026-04-25T08:29:23.311Z</time></trkpt><trkpt lat="45.863828" lon="13.5041243"><ele>118.0</ele><time>2026-04-25T08:29:25.304Z</time></trkpt><trkpt lat="45.863904" lon="13.5041251"><ele>118.0</ele><time>2026-04-25T08:29:27.32Z</time></trkpt><trkpt lat="45.8639722" lon="13.5041291"><ele>118.0</ele><time>2026-04-25T08:29:29.342Z</time></trkpt><trkpt lat="45.8640364" lon="13.5041319"><ele>118.0</ele><time>2026-04-25T08:29:31.333Z</time></trkpt><trkpt lat="45.8641011" lon="13.504141"><ele>118.0</ele><time>2026-04-25T08:29:33.329Z</time></trkpt><trkpt lat="45.8641643" lon="13.5041528"><ele>118.0</ele><time>2026-04-25T08:29:35.329Z</time></trkpt><trkpt lat="45.864229" lon="13.5041624"><ele>118.0</ele><time>2026-04-25T08:29:37.315Z</time></trkpt><trkpt lat="45.864323" lon="13.5041613"><ele>118.0</ele><time>2026-04-25T08:29:40.334Z</time></trkpt><trkpt lat="45.86441" lon="13.5041278"><ele>119.00000000000001</ele><time>2026-04-25T08:29:43.362Z</time></trkpt><trkpt lat="45.8644995" lon="13.5041365"><ele>120.0</ele><time>2026-04-25T08:29:46.312Z</time></trkpt><trkpt lat="45.8645781" lon="13.504164"><ele>121.0</ele><time>2026-04-25T08:29:49.313Z</time></trkpt><trkpt lat="45.8646441" lon="13.504208"><ele>122.0</ele><time>2026-04-25T08:29:52.312Z</time></trkpt><trkpt lat="45.8646985" lon="13.5042536"><ele>123.00000000000001</ele><time>2026-04-25T08:29:54.34Z</time></trkpt><trkpt lat="45.8647736" lon="13.5043246"><ele>124.0</ele><time>2026-04-25T08:29:57.327Z</time></trkpt><trkpt lat="45.8648357" lon="13.5043905"><ele>124.00000000000001</ele><time>2026-04-25T08:30:00.322Z</time></trkpt><trkpt lat="45.8648972" lon="13.5044774"><ele>124.0</ele><time>2026-04-25T08:30:03.328Z</time></trkpt><trkpt lat="45.8649506" lon="13.5045841"><ele>124.0</ele><time>2026-04-25T08:30:06.328Z</time></trkpt><trkpt lat="45.8649976" lon="13.5046999"><ele>124.0</ele><time>2026-04-25T08:30:09.318Z</time></trkpt><trkpt lat="45.8650213" lon="13.5047865"><ele>124.00000000000001</ele><time>2026-04-25T08:30:11.33Z</time></trkpt><trkpt lat="45.8650507" lon="13.5048669"><ele>124.0</ele><time>2026-04-25T08:30:13.316Z</time></trkpt><trkpt lat="45.8650985" lon="13.5049792"><ele>125.33333333333334</ele><time>2026-04-25T08:30:16.327Z</time></trkpt><trkpt lat="45.865131" lon="13.5050568"><ele>126.66666666666667</ele><time>2026-04-25T08:30:18.323Z</time></trkpt><trkpt lat="45.8651636" lon="13.5051703"><ele>128.0</ele><time>2026-04-25T08:30:21.321Z</time></trkpt><trkpt lat="45.8651754" lon="13.5052913"><ele>129.33333333333334</ele><time>2026-04-25T08:30:24.318Z</time></trkpt><trkpt lat="45.8651765" lon="13.50539"><ele>130.66666666666666</ele><time>2026-04-25T08:30:26.314Z</time></trkpt><trkpt lat="45.8651804" lon="13.5055039"><ele>132.0</ele><time>2026-04-25T08:30:29.311Z</time></trkpt><trkpt lat="45.8652003" lon="13.5056374"><ele>132.0</ele><time>2026-04-25T08:30:32.32Z</time></trkpt><trkpt lat="45.8652191" lon="13.5057626"><ele>132.0</ele><time>2026-04-25T08:30:35.303Z</time></trkpt><trkpt lat="45.8652248" lon="13.5058905"><ele>132.0</ele><time>2026-04-25T08:30:38.327Z</time></trkpt><trkpt lat="45.8652274" lon="13.5060176"><ele>132.0</ele><time>2026-04-25T08:30:41.323Z</time></trkpt><trkpt lat="45.8652159" lon="13.5061084"><ele>132.0</ele><time>2026-04-25T08:30:43.32Z</time></trkpt><trkpt lat="45.8652263" lon="13.5062054"><ele>132.0</ele><time>2026-04-25T08:30:45.317Z</time></trkpt><trkpt lat="45.8652309" lon="13.5063154"><ele>131.57142857142856</ele><time>2026-04-25T08:30:47.322Z</time></trkpt><trkpt lat="45.8652347" lon="13.5064112"><ele>131.14285714285714</ele><time>2026-04-25T08:30:49.318Z</time></trkpt><trkpt lat="45.8652406" lon="13.506508"><ele>130.71428571428572</ele><time>2026-04-25T08:30:51.318Z</time></trkpt><trkpt lat="45.8652621" lon="13.5066426"><ele>130.28571428571428</ele><time>2026-04-25T08:30:54.31Z</time></trkpt><trkpt lat="45.8652953" lon="13.506738"><ele>129.85714285714286</ele><time>2026-04-25T08:30:56.332Z</time></trkpt><trkpt lat="45.8653237" lon="13.5068297"><ele>129.42857142857142</ele><time>2026-04-25T08:30:58.324Z</time></trkpt><trkpt lat="45.8653492" lon="13.5069287"><ele>129.0</ele><time>2026-04-25T08:31:00.33Z</time></trkpt><trkpt lat="45.8653759" lon="13.5070336"><ele>128.99999999999997</ele><time>2026-04-25T08:31:02.31Z</time></trkpt><trkpt lat="45.8654086" lon="13.5071358"><ele>129.0</ele><time>2026-04-25T08:31:04.319Z</time></trkpt><trkpt lat="45.8654356" lon="13.5072367"><ele>129.0</ele><time>2026-04-25T08:31:06.311Z</time></trkpt><trkpt lat="45.8654587" lon="13.5073411"><ele>129.0</ele><time>2026-04-25T08:31:08.314Z</time></trkpt><trkpt lat="45.8654789" lon="13.5074453"><ele>129.0</ele><time>2026-04-25T08:31:10.324Z</time></trkpt><trkpt lat="45.8654973" lon="13.5075463"><ele>128.99999999999997</ele><time>2026-04-25T08:31:12.315Z</time></trkpt><trkpt lat="45.8655161" lon="13.5076451"><ele>129.0</ele><time>2026-04-25T08:31:14.305Z</time></trkpt><trkpt lat="45.8655335" lon="13.5077386"><ele>128.99999999999997</ele><time>2026-04-25T08:31:16.305Z</time></trkpt><trkpt lat="45.8655562" lon="13.5078384"><ele>129.0</ele><time>2026-04-25T08:31:18.317Z</time></trkpt><trkpt lat="45.8655874" lon="13.5079324"><ele>129.0</ele><time>2026-04-25T08:31:20.308Z</time></trkpt><trkpt lat="45.8656307" lon="13.5080064"><ele>129.0</ele><time>2026-04-25T08:31:22.319Z</time></trkpt><trkpt lat="45.865678" lon="13.5080722"><ele>129.0</ele><time>2026-04-25T08:31:24.324Z</time></trkpt><trkpt lat="45.8657266" lon="13.5081371"><ele>128.99999999999997</ele><time>2026-04-25T08:31:26.322Z</time></trkpt><trkpt lat="45.8657784" lon="13.5081981"><ele>129.0</ele><time>2026-04-25T08:31:28.314Z</time></trkpt><trkpt lat="45.8658209" lon="13.508273"><ele>128.83333333333334</ele><time>2026-04-25T08:31:30.326Z</time></trkpt><trkpt lat="45.8658555" lon="13.5083589"><ele>128.66666666666666</ele><time>2026-04-25T08:31:32.317Z</time></trkpt><trkpt lat="45.8658787" lon="13.5084692"><ele>128.5</ele><time>2026-04-25T08:31:34.319Z</time></trkpt><trkpt lat="45.8658974" lon="13.5085883"><ele>128.33333333333331</ele><time>2026-04-25T08:31:36.322Z</time></trkpt><trkpt lat="45.8659173" lon="13.5087107"><ele>128.16666666666666</ele><time>2026-04-25T08:31:38.316Z</time></trkpt><trkpt lat="45.8659368" lon="13.5088303"><ele>128.0</ele><time>2026-04-25T08:31:40.318Z</time></trkpt><trkpt lat="45.8659553" lon="13.5089201"><ele>127.85714285714285</ele><time>2026-04-25T08:31:42.316Z</time></trkpt><trkpt lat="45.8659793" lon="13.5090042"><ele>127.7142857142857</ele><time>2026-04-25T08:33:03.317Z</time></trkpt><trkpt lat="45.8659206" lon="13.5090635"><ele>127.57142857142857</ele><time>2026-04-25T08:33:59.314Z</time></trkpt><trkpt lat="45.8658555" lon="13.5090717"><ele>127.42857142857142</ele><time>2026-04-25T08:34:01.31Z</time></trkpt><trkpt lat="45.8657826" lon="13.5090771"><ele>127.28571428571428</ele><time>2026-04-25T08:34:03.317Z</time></trkpt><trkpt lat="45.8656997" lon="13.5090858"><ele>127.14285714285714</ele><time>2026-04-25T08:34:05.309Z</time></trkpt><trkpt lat="45.8656075" lon="13.5091012"><ele>127.0</ele><time>2026-04-25T08:34:07.319Z</time></trkpt><trkpt lat="45.8655066" lon="13.5091159"><ele>127.0</ele><time>2026-04-25T08:34:09.309Z</time></trkpt><trkpt lat="45.8653982" lon="13.5091388"><ele>126.99999999999999</ele><time>2026-04-25T08:34:11.309Z</time></trkpt><trkpt lat="45.8652808" lon="13.5091684"><ele>126.99999999999999</ele><time>2026-04-25T08:34:13.311Z</time></trkpt><trkpt lat="45.8651649" lon="13.5092342"><ele>127.0</ele><time>2026-04-25T08:34:15.312Z</time></trkpt><trkpt lat="45.865108" lon="13.5092831"><ele>127.0</ele><time>2026-04-25T08:34:16.311Z</time></trkpt><trkpt lat="45.8650528" lon="13.5093447"><ele>126.42857142857143</ele><time>2026-04-25T08:34:17.311Z</time></trkpt><trkpt lat="45.8649996" lon="13.5094143"><ele>125.85714285714286</ele><time>2026-04-25T08:34:18.314Z</time></trkpt><trkpt lat="45.8649491" lon="13.5094903"><ele>125.28571428571429</ele><time>2026-04-25T08:34:19.324Z</time></trkpt><trkpt lat="45.8649017" lon="13.5095707"><ele>124.71428571428572</ele><time>2026-04-25T08:34:20.316Z</time></trkpt><trkpt lat="45.8648565" lon="13.5096549"><ele>124.14285714285714</ele><time>2026-04-25T08:34:21.32Z</time></trkpt><trkpt lat="45.8648112" lon="13.5097406"><ele>123.57142857142858</ele><time>2026-04-25T08:34:22.32Z</time></trkpt><trkpt lat="45.8647695" lon="13.5098312"><ele>123.00000000000001</ele><time>2026-04-25T08:34:23.323Z</time></trkpt><trkpt lat="45.8647319" lon="13.5099272"><ele>123.0</ele><time>2026-04-25T08:34:24.319Z</time></trkpt><trkpt lat="45.8646975" lon="13.5100277"><ele>123.0</ele><time>2026-04-25T08:34:25.324Z</time></trkpt><trkpt lat="45.8646657" lon="13.5101302"><ele>123.0</ele><time>2026-04-25T08:34:26.322Z</time></trkpt><trkpt lat="45.8646328" lon="13.5102313"><ele>123.0</ele><time>2026-04-25T08:34:27.318Z</time></trkpt><trkpt lat="45.8646043" lon="13.5103321"><ele>123.0</ele><time>2026-04-25T08:34:28.323Z</time></trkpt><trkpt lat="45.8645816" lon="13.5104328"><ele>123.0</ele><time>2026-04-25T08:34:29.32Z</time></trkpt><trkpt lat="45.8645678" lon="13.5105331"><ele>123.16666666666667</ele><time>2026-04-25T08:34:30.327Z</time></trkpt><trkpt lat="45.8645548" lon="13.5106312"><ele>123.33333333333334</ele><time>2026-04-25T08:34:31.322Z</time></trkpt><trkpt lat="45.8645329" lon="13.5107235"><ele>123.5</ele><time>2026-04-25T08:34:32.316Z</time></trkpt><trkpt lat="45.8644867" lon="13.5108796"><ele>123.66666666666667</ele><time>2026-04-25T08:34:34.326Z</time></trkpt><trkpt lat="45.8644737" lon="13.511001"><ele>123.83333333333334</ele><time>2026-04-25T08:34:36.324Z</time></trkpt><trkpt lat="45.8645182" lon="13.5110892"><ele>124.0</ele><time>2026-04-25T08:34:38.328Z</time></trkpt><trkpt lat="45.8645722" lon="13.5111444"><ele>124.0</ele><time>2026-04-25T08:34:40.341Z</time></trkpt><trkpt lat="45.864637" lon="13.511196"><ele>124.00000000000001</ele><time>2026-04-25T08:34:42.321Z</time></trkpt><trkpt lat="45.8646913" lon="13.5112451"><ele>124.0</ele><time>2026-04-25T08:34:44.315Z</time></trkpt><trkpt lat="45.8647538" lon="13.5113012"><ele>124.0</ele><time>2026-04-25T08:34:46.319Z</time></trkpt><trkpt lat="45.8648147" lon="13.5113486"><ele>124.00000000000001</ele><time>2026-04-25T08:34:48.319Z</time></trkpt><trkpt lat="45.8648797" lon="13.5113995"><ele>124.0</ele><time>2026-04-25T08:34:50.317Z</time></trkpt><trkpt lat="45.8649502" lon="13.5114553"><ele>124.0</ele><time>2026-04-25T08:34:52.33Z</time></trkpt><trkpt lat="45.8650153" lon="13.5115335"><ele>124.33333333333334</ele><time>2026-04-25T08:34:54.328Z</time></trkpt><trkpt lat="45.8650834" lon="13.5116003"><ele>124.66666666666667</ele><time>2026-04-25T08:34:56.321Z</time></trkpt><trkpt lat="45.8651517" lon="13.511669"><ele>125.0</ele><time>2026-04-25T08:34:58.32Z</time></trkpt><trkpt lat="45.8652187" lon="13.5117318"><ele>125.33333333333334</ele><time>2026-04-25T08:35:00.314Z</time></trkpt><trkpt lat="45.8652573" lon="13.5118033"><ele>125.66666666666667</ele><time>2026-04-25T08:35:02.326Z</time></trkpt><trkpt lat="45.8653141" lon="13.5118601"><ele>126.0</ele><time>2026-04-25T08:35:04.316Z</time></trkpt><trkpt lat="45.8653845" lon="13.5119048"><ele>126.0</ele><time>2026-04-25T08:35:06.326Z</time></trkpt><trkpt lat="45.8654597" lon="13.5119532"><ele>126.0</ele><time>2026-04-25T08:35:08.328Z</time></trkpt><trkpt lat="45.8655378" lon="13.5119803"><ele>126.0</ele><time>2026-04-25T08:35:10.306Z</time></trkpt><trkpt lat="45.8656158" lon="13.5119995"><ele>126.0</ele><time>2026-04-25T08:35:12.322Z</time></trkpt><trkpt lat="45.8656865" lon="13.512018"><ele>126.0</ele><time>2026-04-25T08:35:14.316Z</time></trkpt><trkpt lat="45.8657533" lon="13.5120568"><ele>126.0</ele><time>2026-04-25T08:35:16.324Z</time></trkpt><trkpt lat="45.865812" lon="13.5121118"><ele>125.57142857142857</ele><time>2026-04-25T08:35:18.319Z</time></trkpt><trkpt lat="45.8658663" lon="13.5121644"><ele>125.14285714285714</ele><time>2026-04-25T08:35:20.313Z</time></trkpt><trkpt lat="45.8659266" lon="13.512205"><ele>124.71428571428572</ele><time>2026-04-25T08:35:22.316Z</time></trkpt><trkpt lat="45.865985" lon="13.5122437"><ele>124.28571428571429</ele><time>2026-04-25T08:35:24.319Z</time></trkpt><trkpt lat="45.8660429" lon="13.5122827"><ele>123.85714285714286</ele><time>2026-04-25T08:35:26.319Z</time></trkpt><trkpt lat="45.8661026" lon="13.5123256"><ele>123.42857142857144</ele><time>2026-04-25T08:35:28.324Z</time></trkpt><trkpt lat="45.8661594" lon="13.5123745"><ele>123.00000000000001</ele><time>2026-04-25T08:35:30.326Z</time></trkpt><trkpt lat="45.8662123" lon="13.5124255"><ele>124.00000000000001</ele><time>2026-04-25T08:35:32.311Z</time></trkpt><trkpt lat="45.8662532" lon="13.5124966"><ele>125.0</ele><time>2026-04-25T08:35:35.333Z</time></trkpt><trkpt lat="45.8663143" lon="13.5125507"><ele>126.00000000000001</ele><time>2026-04-25T08:35:37.318Z</time></trkpt><trkpt lat="45.8663667" lon="13.5126048"><ele>127.00000000000001</ele><time>2026-04-25T08:35:39.318Z</time></trkpt><trkpt lat="45.8664122" lon="13.5126841"><ele>128.0</ele><time>2026-04-25T08:35:42.318Z</time></trkpt><trkpt lat="45.8664536" lon="13.5127736"><ele>129.00000000000003</ele><time>2026-04-25T08:35:56.315Z</time></trkpt><trkpt lat="45.8664624" lon="13.5128722"><ele>130.0</ele><time>2026-04-25T08:36:04.313Z</time></trkpt><trkpt lat="45.8664635" lon="13.5129811"><ele>130.14285714285717</ele><time>2026-04-25T08:36:09.313Z</time></trkpt><trkpt lat="45.8664474" lon="13.5130693"><ele>130.28571428571428</ele><time>2026-04-25T08:36:12.327Z</time></trkpt><trkpt lat="45.866439" lon="13.5131785"><ele>130.42857142857144</ele><time>2026-04-25T08:36:15.317Z</time></trkpt><trkpt lat="45.8664308" lon="13.513286"><ele>130.57142857142858</ele><time>2026-04-25T08:36:18.316Z</time></trkpt><trkpt lat="45.8664225" lon="13.513391"><ele>130.71428571428572</ele><time>2026-04-25T08:36:21.33Z</time></trkpt><trkpt lat="45.8664141" lon="13.5134905"><ele>130.85714285714286</ele><time>2026-04-25T08:36:24.31Z</time></trkpt><trkpt lat="45.8664063" lon="13.5135879"><ele>131.0</ele><time>2026-04-25T08:36:27.309Z</time></trkpt><trkpt lat="45.8663977" lon="13.5136794"><ele>131.0</ele><time>2026-04-25T08:36:30.319Z</time></trkpt><trkpt lat="45.8663915" lon="13.5137734"><ele>131.0</ele><time>2026-04-25T08:36:33.325Z</time></trkpt><trkpt lat="45.8663799" lon="13.513863"><ele>131.0</ele><time>2026-04-25T08:36:36.361Z</time></trkpt><trkpt lat="45.8663706" lon="13.5139611"><ele>131.0</ele><time>2026-04-25T08:36:39.329Z</time></trkpt><trkpt lat="45.8663612" lon="13.5140828"><ele>131.0</ele><time>2026-04-25T08:36:42.32Z</time></trkpt><trkpt lat="45.8663526" lon="13.5141749"><ele>131.0</ele><time>2026-04-25T08:36:44.325Z</time></trkpt><trkpt lat="45.8663374" lon="13.5142644"><ele>131.0</ele><time>2026-04-25T08:36:46.325Z</time></trkpt><trkpt lat="45.8663124" lon="13.5143479"><ele>131.0</ele><time>2026-04-25T08:36:48.32Z</time></trkpt><trkpt lat="45.8662843" lon="13.5144393"><ele>131.0</ele><time>2026-04-25T08:36:50.314Z</time></trkpt><trkpt lat="45.866256" lon="13.514542"><ele>131.0</ele><time>2026-04-25T08:36:52.313Z</time></trkpt><trkpt lat="45.8662274" lon="13.514649"><ele>131.0</ele><time>2026-04-25T08:36:54.331Z</time></trkpt><trkpt lat="45.866203" lon="13.5147568"><ele>131.0</ele><time>2026-04-25T08:36:56.327Z</time></trkpt><trkpt lat="45.8661872" lon="13.5148603"><ele>131.0</ele><time>2026-04-25T08:36:58.314Z</time></trkpt><trkpt lat="45.8661765" lon="13.5149576"><ele>131.0</ele><time>2026-04-25T08:37:00.315Z</time></trkpt><trkpt lat="45.8661662" lon="13.5150908"><ele>130.57142857142858</ele><time>2026-04-25T08:37:03.33Z</time></trkpt><trkpt lat="45.8661577" lon="13.5151874"><ele>130.14285714285717</ele><time>2026-04-25T08:37:05.323Z</time></trkpt><trkpt lat="45.8661429" lon="13.5152848"><ele>129.71428571428572</ele><time>2026-04-25T08:37:07.314Z</time></trkpt><trkpt lat="45.8661248" lon="13.5153808"><ele>129.28571428571428</ele><time>2026-04-25T08:37:09.316Z</time></trkpt><trkpt lat="45.8661063" lon="13.5154776"><ele>128.85714285714283</ele><time>2026-04-25T08:37:11.327Z</time></trkpt><trkpt lat="45.8660918" lon="13.5155738"><ele>128.42857142857142</ele><time>2026-04-25T08:37:13.322Z</time></trkpt><trkpt lat="45.86609" lon="13.5156721"><ele>128.0</ele><time>2026-04-25T08:37:15.324Z</time></trkpt><trkpt lat="45.8661085" lon="13.5157662"><ele>127.66666666666666</ele><time>2026-04-25T08:37:17.32Z</time></trkpt><trkpt lat="45.8661399" lon="13.5158528"><ele>127.33333333333333</ele><time>2026-04-25T08:37:19.318Z</time></trkpt><trkpt lat="45.8661559" lon="13.5159484"><ele>127.0</ele><time>2026-04-25T08:37:21.321Z</time></trkpt><trkpt lat="45.8661635" lon="13.5160435"><ele>126.66666666666666</ele><time>2026-04-25T08:37:23.331Z</time></trkpt><trkpt lat="45.8661713" lon="13.5161744"><ele>126.33333333333333</ele><time>2026-04-25T08:37:26.311Z</time></trkpt><trkpt lat="45.8661872" lon="13.5162891"><ele>126.0</ele><time>2026-04-25T08:37:29.313Z</time></trkpt><trkpt lat="45.8662064" lon="13.5164006"><ele>126.83333333333333</ele><time>2026-04-25T08:37:32.328Z</time></trkpt><trkpt lat="45.8662151" lon="13.5165079"><ele>127.66666666666666</ele><time>2026-04-25T08:37:35.329Z</time></trkpt><trkpt lat="45.866207" lon="13.5166198"><ele>128.5</ele><time>2026-04-25T08:37:38.328Z</time></trkpt><trkpt lat="45.8661843" lon="13.5167473"><ele>129.33333333333331</ele><time>2026-04-25T08:37:41.319Z</time></trkpt><trkpt lat="45.8661894" lon="13.516876"><ele>130.16666666666666</ele><time>2026-04-25T08:37:44.34Z</time></trkpt><trkpt lat="45.8662468" lon="13.5169729"><ele>131.0</ele><time>2026-04-25T08:37:47.326Z</time></trkpt><trkpt lat="45.8662937" lon="13.5170772"><ele>132.0</ele><time>2026-04-25T08:37:50.328Z</time></trkpt><trkpt lat="45.86632" lon="13.5172035"><ele>133.0</ele><time>2026-04-25T08:37:53.319Z</time></trkpt><trkpt lat="45.8663244" lon="13.5173242"><ele>134.0</ele><time>2026-04-25T08:37:56.313Z</time></trkpt><trkpt lat="45.8663234" lon="13.5174497"><ele>135.0</ele><time>2026-04-25T08:37:59.305Z</time></trkpt><trkpt lat="45.8663202" lon="13.5175816"><ele>136.0</ele><time>2026-04-25T08:38:02.318Z</time></trkpt><trkpt lat="45.8663253" lon="13.5177135"><ele>137.0</ele><time>2026-04-25T08:38:05.326Z</time></trkpt><trkpt lat="45.8663456" lon="13.5178347"><ele>137.5</ele><time>2026-04-25T08:38:08.322Z</time></trkpt><trkpt lat="45.866355" lon="13.5179603"><ele>138.0</ele><time>2026-04-25T08:38:11.335Z</time></trkpt><trkpt lat="45.8663317" lon="13.518093"><ele>138.5</ele><time>2026-04-25T08:38:14.315Z</time></trkpt><trkpt lat="45.8663084" lon="13.5181891"><ele>139.0</ele><time>2026-04-25T08:38:16.318Z</time></trkpt><trkpt lat="45.8662916" lon="13.5182895"><ele>139.5</ele><time>2026-04-25T08:38:18.326Z</time></trkpt><trkpt lat="45.8662841" lon="13.5183849"><ele>140.0</ele><time>2026-04-25T08:38:20.319Z</time></trkpt><trkpt lat="45.8662838" lon="13.5184835"><ele>140.0</ele><time>2026-04-25T08:38:22.319Z</time></trkpt><trkpt lat="45.8662887" lon="13.5185844"><ele>140.0</ele><time>2026-04-25T08:38:24.345Z</time></trkpt><trkpt lat="45.8662867" lon="13.5186878"><ele>140.0</ele><time>2026-04-25T08:38:26.331Z</time></trkpt><trkpt lat="45.8662731" lon="13.5187936"><ele>140.0</ele><time>2026-04-25T08:38:28.32Z</time></trkpt><trkpt lat="45.8662509" lon="13.518901"><ele>140.0</ele><time>2026-04-25T08:38:30.322Z</time></trkpt><trkpt lat="45.8662303" lon="13.5190157"><ele>140.0</ele><time>2026-04-25T08:38:32.311Z</time></trkpt><trkpt lat="45.8662151" lon="13.5191364"><ele>139.6</ele><time>2026-04-25T08:38:34.334Z</time></trkpt><trkpt lat="45.8662139" lon="13.5192534"><ele>139.2</ele><time>2026-04-25T08:38:36.329Z</time></trkpt><trkpt lat="45.8661987" lon="13.5193682"><ele>138.8</ele><time>2026-04-25T08:38:38.329Z</time></trkpt><trkpt lat="45.8662007" lon="13.5194928"><ele>138.4</ele><time>2026-04-25T08:38:40.3Z</time></trkpt><trkpt lat="45.8662105" lon="13.5196307"><ele>138.0</ele><time>2026-04-25T08:38:42.322Z</time></trkpt><trkpt lat="45.8662316" lon="13.5197794"><ele>137.83333333333334</ele><time>2026-04-25T08:38:44.309Z</time></trkpt><trkpt lat="45.8662457" lon="13.5199153"><ele>137.66666666666666</ele><time>2026-04-25T08:38:46.312Z</time></trkpt><trkpt lat="45.866259" lon="13.5200435"><ele>137.5</ele><time>2026-04-25T08:38:48.319Z</time></trkpt><trkpt lat="45.8662719" lon="13.5201355"><ele>137.33333333333331</ele><time>2026-04-25T08:38:50.317Z</time></trkpt><trkpt lat="45.8663102" lon="13.520228"><ele>137.16666666666666</ele><time>2026-04-25T08:38:52.327Z</time></trkpt><trkpt lat="45.8663506" lon="13.5203374"><ele>137.0</ele><time>2026-04-25T08:38:54.342Z</time></trkpt><trkpt lat="45.8664011" lon="13.5204728"><ele>137.0</ele><time>2026-04-25T08:38:56.313Z</time></trkpt><trkpt lat="45.8664384" lon="13.5205916"><ele>137.0</ele><time>2026-04-25T08:38:58.312Z</time></trkpt><trkpt lat="45.8664554" lon="13.5207096"><ele>137.0</ele><time>2026-04-25T08:39:00.326Z</time></trkpt><trkpt lat="45.8664519" lon="13.5208222"><ele>137.0</ele><time>2026-04-25T08:39:02.328Z</time></trkpt><trkpt lat="45.8664468" lon="13.5209258"><ele>137.0</ele><time>2026-04-25T08:39:04.326Z</time></trkpt><trkpt lat="45.866448" lon="13.5210238"><ele>137.0</ele><time>2026-04-25T08:39:06.342Z</time></trkpt><trkpt lat="45.8664414" lon="13.5211239"><ele>137.00000000000003</ele><time>2026-04-25T08:39:08.317Z</time></trkpt><trkpt lat="45.8664287" lon="13.5212585"><ele>137.0</ele><time>2026-04-25T08:39:11.319Z</time></trkpt><trkpt lat="45.8664104" lon="13.5213867"><ele>137.0</ele><time>2026-04-25T08:39:14.326Z</time></trkpt><trkpt lat="45.8664219" lon="13.5214761"><ele>137.0</ele><time>2026-04-25T08:39:16.325Z</time></trkpt><trkpt lat="45.8664446" lon="13.5215639"><ele>137.0</ele><time>2026-04-25T08:39:18.318Z</time></trkpt><trkpt lat="45.8664539" lon="13.5216587"><ele>137.00000000000003</ele><time>2026-04-25T08:39:20.306Z</time></trkpt><trkpt lat="45.8664726" lon="13.5217464"><ele>137.0</ele><time>2026-04-25T08:39:22.321Z</time></trkpt><trkpt lat="45.8665044" lon="13.5218303"><ele>137.00000000000003</ele><time>2026-04-25T08:39:24.318Z</time></trkpt><trkpt lat="45.8665232" lon="13.5219257"><ele>137.0</ele><time>2026-04-25T08:39:26.325Z</time></trkpt><trkpt lat="45.8665078" lon="13.5220229"><ele>137.0</ele><time>2026-04-25T08:39:28.309Z</time></trkpt><trkpt lat="45.8664491" lon="13.522086"><ele>137.0</ele><time>2026-04-25T08:39:30.314Z</time></trkpt><trkpt lat="45.8663818" lon="13.5221255"><ele>137.0</ele><time>2026-04-25T08:39:32.316Z</time></trkpt><trkpt lat="45.8663182" lon="13.5221669"><ele>137.00000000000003</ele><time>2026-04-25T08:39:34.322Z</time></trkpt><trkpt lat="45.8662498" lon="13.5222226"><ele>137.0</ele><time>2026-04-25T08:39:36.34Z</time></trkpt><trkpt lat="45.8661867" lon="13.5223158"><ele>136.66666666666666</ele><time>2026-04-25T08:39:38.327Z</time></trkpt><trkpt lat="45.8661599" lon="13.5224433"><ele>136.33333333333331</ele><time>2026-04-25T08:39:40.311Z</time></trkpt><trkpt lat="45.8661527" lon="13.5225566"><ele>136.0</ele><time>2026-04-25T08:39:42.311Z</time></trkpt><trkpt lat="45.8661773" lon="13.5226715"><ele>135.66666666666666</ele><time>2026-04-25T08:39:44.315Z</time></trkpt><trkpt lat="45.866228" lon="13.5227734"><ele>135.33333333333334</ele><time>2026-04-25T08:39:46.32Z</time></trkpt><trkpt lat="45.8662887" lon="13.5228499"><ele>135.0</ele><time>2026-04-25T08:39:48.329Z</time></trkpt><trkpt lat="45.8663248" lon="13.5229519"><ele>134.6</ele><time>2026-04-25T08:39:50.323Z</time></trkpt><trkpt lat="45.8663426" lon="13.5230828"><ele>134.2</ele><time>2026-04-25T08:39:52.313Z</time></trkpt><trkpt lat="45.8663727" lon="13.523223"><ele>133.8</ele><time>2026-04-25T08:39:54.316Z</time></trkpt><trkpt lat="45.8663964" lon="13.523396"><ele>133.4</ele><time>2026-04-25T08:39:56.321Z</time></trkpt><trkpt lat="45.8664142" lon="13.5235506"><ele>133.0</ele><time>2026-04-25T08:39:58.333Z</time></trkpt><trkpt lat="45.8664157" lon="13.5236883"><ele>133.20000000000002</ele><time>2026-04-25T08:40:00.359Z</time></trkpt><trkpt lat="45.866412" lon="13.5238285"><ele>133.4</ele><time>2026-04-25T08:40:02.317Z</time></trkpt><trkpt lat="45.8663862" lon="13.5239754"><ele>133.60000000000002</ele><time>2026-04-25T08:40:04.319Z</time></trkpt><trkpt lat="45.8663673" lon="13.5241163"><ele>133.8</ele><time>2026-04-25T08:40:06.325Z</time></trkpt><trkpt lat="45.86637" lon="13.5242491"><ele>134.0</ele><time>2026-04-25T08:40:08.319Z</time></trkpt><trkpt lat="45.8663921" lon="13.5243698"><ele>134.0</ele><time>2026-04-25T08:40:10.308Z</time></trkpt><trkpt lat="45.866422" lon="13.5244882"><ele>134.0</ele><time>2026-04-25T08:40:12.336Z</time></trkpt><trkpt lat="45.8664551" lon="13.5245989"><ele>134.0</ele><time>2026-04-25T08:40:14.331Z</time></trkpt><trkpt lat="45.8664751" lon="13.5246987"><ele>134.0</ele><time>2026-04-25T08:40:16.327Z</time></trkpt><trkpt lat="45.8664706" lon="13.5248101"><ele>134.0</ele><time>2026-04-25T08:40:18.331Z</time></trkpt><trkpt lat="45.8664659" lon="13.5249244"><ele>134.0</ele><time>2026-04-25T08:40:20.313Z</time></trkpt><trkpt lat="45.8664691" lon="13.5250337"><ele>133.5</ele><time>2026-04-25T08:40:22.326Z</time></trkpt><trkpt lat="45.8664831" lon="13.5251351"><ele>133.0</ele><time>2026-04-25T08:40:24.324Z</time></trkpt><trkpt lat="45.8664837" lon="13.5252287"><ele>132.5</ele><time>2026-04-25T08:40:26.328Z</time></trkpt><trkpt lat="45.866474" lon="13.5253367"><ele>132.0</ele><time>2026-04-25T08:40:28.348Z</time></trkpt><trkpt lat="45.8664421" lon="13.525458"><ele>131.5</ele><time>2026-04-25T08:40:30.322Z</time></trkpt><trkpt lat="45.8664137" lon="13.5255981"><ele>131.0</ele><time>2026-04-25T08:40:32.33Z</time></trkpt><trkpt lat="45.8663947" lon="13.5257519"><ele>130.6</ele><time>2026-04-25T08:40:34.327Z</time></trkpt><trkpt lat="45.8663835" lon="13.5259212"><ele>130.2</ele><time>2026-04-25T08:40:36.351Z</time></trkpt><trkpt lat="45.8663703" lon="13.5260105"><ele>129.8</ele><time>2026-04-25T08:40:37.324Z</time></trkpt><trkpt lat="45.8663372" lon="13.5261846"><ele>129.4</ele><time>2026-04-25T08:40:39.321Z</time></trkpt><trkpt lat="45.8663168" lon="13.5263621"><ele>129.0</ele><time>2026-04-25T08:40:41.317Z</time></trkpt><trkpt lat="45.8663153" lon="13.526454"><ele>128.7142857142857</ele><time>2026-04-25T08:40:42.327Z</time></trkpt><trkpt lat="45.8663082" lon="13.5265471"><ele>128.42857142857142</ele><time>2026-04-25T08:40:43.32Z</time></trkpt><trkpt lat="45.8663017" lon="13.5266418"><ele>128.14285714285714</ele><time>2026-04-25T08:40:44.32Z</time></trkpt><trkpt lat="45.8662894" lon="13.526736"><ele>127.85714285714285</ele><time>2026-04-25T08:40:45.321Z</time></trkpt><trkpt lat="45.8662711" lon="13.5268271"><ele>127.57142857142856</ele><time>2026-04-25T08:40:46.342Z</time></trkpt><trkpt lat="45.8662518" lon="13.5269171"><ele>127.28571428571429</ele><time>2026-04-25T08:40:47.32Z</time></trkpt><trkpt lat="45.8662332" lon="13.5270044"><ele>127.0</ele><time>2026-04-25T08:40:48.329Z</time></trkpt><trkpt lat="45.8662053" lon="13.5271774"><ele>126.75</ele><time>2026-04-25T08:40:50.329Z</time></trkpt><trkpt lat="45.8661918" lon="13.5273454"><ele>126.5</ele><time>2026-04-25T08:40:52.317Z</time></trkpt><trkpt lat="45.866171" lon="13.5275058"><ele>126.25</ele><time>2026-04-25T08:40:54.345Z</time></trkpt><trkpt lat="45.8661362" lon="13.5276615"><ele>126.0</ele><time>2026-04-25T08:40:56.319Z</time></trkpt><trkpt lat="45.8661054" lon="13.5278208"><ele>126.0</ele><time>2026-04-25T08:40:58.328Z</time></trkpt><trkpt lat="45.8660829" lon="13.5279894"><ele>126.0</ele><time>2026-04-25T08:41:00.322Z</time></trkpt><trkpt lat="45.8660715" lon="13.5281627"><ele>126.0</ele><time>2026-04-25T08:41:02.33Z</time></trkpt><trkpt lat="45.8660598" lon="13.5283358"><ele>126.0</ele><time>2026-04-25T08:41:04.346Z</time></trkpt><trkpt lat="45.8660645" lon="13.5285073"><ele>126.0</ele><time>2026-04-25T08:41:06.338Z</time></trkpt><trkpt lat="45.8661037" lon="13.5286618"><ele>126.0</ele><time>2026-04-25T08:41:08.319Z</time></trkpt><trkpt lat="45.8661451" lon="13.5288014"><ele>126.0</ele><time>2026-04-25T08:41:10.339Z</time></trkpt><trkpt lat="45.8661883" lon="13.5289421"><ele>126.0</ele><time>2026-04-25T08:41:12.352Z</time></trkpt><trkpt lat="45.8662305" lon="13.5290835"><ele>126.0</ele><time>2026-04-25T08:41:14.347Z</time></trkpt><trkpt lat="45.8662747" lon="13.5292153"><ele>125.6</ele><time>2026-04-25T08:41:16.327Z</time></trkpt><trkpt lat="45.8663152" lon="13.5293429"><ele>125.19999999999999</ele><time>2026-04-25T08:41:18.333Z</time></trkpt><trkpt lat="45.866341" lon="13.5294828"><ele>124.80000000000001</ele><time>2026-04-25T08:41:20.331Z</time></trkpt><trkpt lat="45.8663846" lon="13.5296052"><ele>124.4</ele><time>2026-04-25T08:41:22.332Z</time></trkpt><trkpt lat="45.866448" lon="13.5297112"><ele>124.0</ele><time>2026-04-25T08:41:24.338Z</time></trkpt><trkpt lat="45.8665222" lon="13.5297879"><ele>124.00000000000001</ele><time>2026-04-25T08:41:26.323Z</time></trkpt><trkpt lat="45.8665873" lon="13.5298536"><ele>124.0</ele><time>2026-04-25T08:41:28.315Z</time></trkpt><trkpt lat="45.8666504" lon="13.5299057"><ele>124.0</ele><time>2026-04-25T08:41:30.326Z</time></trkpt><trkpt lat="45.8667396" lon="13.5299575"><ele>124.0</ele><time>2026-04-25T08:41:33.343Z</time></trkpt><trkpt lat="45.8668001" lon="13.5300288"><ele>124.00000000000001</ele><time>2026-04-25T08:41:35.313Z</time></trkpt><trkpt lat="45.8668621" lon="13.5301253"><ele>124.0</ele><time>2026-04-25T08:41:37.331Z</time></trkpt><trkpt lat="45.8669151" lon="13.5302309"><ele>124.33333333333334</ele><time>2026-04-25T08:41:39.329Z</time></trkpt><trkpt lat="45.866962" lon="13.5303342"><ele>124.66666666666667</ele><time>2026-04-25T08:41:41.318Z</time></trkpt><trkpt lat="45.867012" lon="13.5304382"><ele>125.0</ele><time>2026-04-25T08:41:43.32Z</time></trkpt><trkpt lat="45.8670746" lon="13.5305383"><ele>125.33333333333334</ele><time>2026-04-25T08:41:45.329Z</time></trkpt><trkpt lat="45.8671401" lon="13.5306349"><ele>125.66666666666667</ele><time>2026-04-25T08:41:47.323Z</time></trkpt><trkpt lat="45.8671998" lon="13.5307166"><ele>126.0</ele><time>2026-04-25T08:41:49.328Z</time></trkpt><trkpt lat="45.8672677" lon="13.5308152"><ele>126.0</ele><time>2026-04-25T08:41:51.347Z</time></trkpt><trkpt lat="45.8673223" lon="13.5309247"><ele>126.0</ele><time>2026-04-25T08:41:53.32Z</time></trkpt><trkpt lat="45.8673735" lon="13.5310386"><ele>126.0</ele><time>2026-04-25T08:41:55.321Z</time></trkpt><trkpt lat="45.8674287" lon="13.5311483"><ele>126.0</ele><time>2026-04-25T08:41:57.343Z</time></trkpt><trkpt lat="45.8674813" lon="13.5312465"><ele>126.0</ele><time>2026-04-25T08:41:59.318Z</time></trkpt><trkpt lat="45.8675329" lon="13.5313374"><ele>125.66666666666667</ele><time>2026-04-25T08:42:01.348Z</time></trkpt><trkpt lat="45.8675833" lon="13.531426"><ele>125.33333333333334</ele><time>2026-04-25T08:42:03.335Z</time></trkpt><trkpt lat="45.8676412" lon="13.5315056"><ele>125.0</ele><time>2026-04-25T08:42:05.335Z</time></trkpt><trkpt lat="45.8676914" lon="13.5315863"><ele>124.66666666666667</ele><time>2026-04-25T08:42:07.327Z</time></trkpt><trkpt lat="45.8677342" lon="13.5316783"><ele>124.33333333333334</ele><time>2026-04-25T08:42:09.312Z</time></trkpt><trkpt lat="45.8677756" lon="13.5317632"><ele>124.0</ele><time>2026-04-25T08:42:11.328Z</time></trkpt><trkpt lat="45.8678227" lon="13.5318594"><ele>124.71428571428572</ele><time>2026-04-25T08:42:13.326Z</time></trkpt><trkpt lat="45.8678802" lon="13.5319458"><ele>125.42857142857144</ele><time>2026-04-25T08:42:15.33Z</time></trkpt><trkpt lat="45.8679256" lon="13.5320142"><ele>126.14285714285714</ele><time>2026-04-25T08:42:17.325Z</time></trkpt><trkpt lat="45.8679945" lon="13.5320826"><ele>126.85714285714286</ele><time>2026-04-25T08:42:19.34Z</time></trkpt><trkpt lat="45.8680499" lon="13.5321282"><ele>127.57142857142857</ele><time>2026-04-25T08:42:21.326Z</time></trkpt><trkpt lat="45.8681108" lon="13.5321787"><ele>128.28571428571428</ele><time>2026-04-25T08:42:23.326Z</time></trkpt><trkpt lat="45.868167" lon="13.5322341"><ele>129.0</ele><time>2026-04-25T08:42:25.314Z</time></trkpt><trkpt lat="45.8682508" lon="13.5322765"><ele>129.0</ele><time>2026-04-25T08:42:27.323Z</time></trkpt><trkpt lat="45.8683213" lon="13.5323087"><ele>129.0</ele><time>2026-04-25T08:42:29.328Z</time></trkpt><trkpt lat="45.8683943" lon="13.532341"><ele>129.0</ele><time>2026-04-25T08:42:31.339Z</time></trkpt><trkpt lat="45.8684626" lon="13.5323698"><ele>129.0</ele><time>2026-04-25T08:42:33.357Z</time></trkpt><trkpt lat="45.8685536" lon="13.5324029"><ele>129.0</ele><time>2026-04-25T08:42:36.337Z</time></trkpt><trkpt lat="45.8686309" lon="13.5324131"><ele>129.0</ele><time>2026-04-25T08:42:38.337Z</time></trkpt><trkpt lat="45.8687093" lon="13.532455"><ele>129.7142857142857</ele><time>2026-04-25T08:42:40.333Z</time></trkpt><trkpt lat="45.8687799" lon="13.5325056"><ele>130.42857142857142</ele><time>2026-04-25T08:42:42.321Z</time></trkpt><trkpt lat="45.8688386" lon="13.5325639"><ele>131.14285714285714</ele><time>2026-04-25T08:42:44.348Z</time></trkpt><trkpt lat="45.8689004" lon="13.5325994"><ele>131.85714285714283</ele><time>2026-04-25T08:42:46.342Z</time></trkpt><trkpt lat="45.8689598" lon="13.5326306"><ele>132.57142857142856</ele><time>2026-04-25T08:42:48.353Z</time></trkpt><trkpt lat="45.8690545" lon="13.5326592"><ele>133.28571428571428</ele><time>2026-04-25T08:42:51.337Z</time></trkpt><trkpt lat="45.8691243" lon="13.5326798"><ele>134.0</ele><time>2026-04-25T08:42:53.333Z</time></trkpt><trkpt lat="45.869189" lon="13.5326908"><ele>134.0</ele><time>2026-04-25T08:42:55.329Z</time></trkpt><trkpt lat="45.8692574" lon="13.532716"><ele>134.0</ele><time>2026-04-25T08:42:57.318Z</time></trkpt><trkpt lat="45.8693216" lon="13.5327433"><ele>134.0</ele><time>2026-04-25T08:42:59.323Z</time></trkpt><trkpt lat="45.8694103" lon="13.5327815"><ele>134.0</ele><time>2026-04-25T08:43:02.324Z</time></trkpt><trkpt lat="45.8694765" lon="13.5328405"><ele>134.0</ele><time>2026-04-25T08:43:05.324Z</time></trkpt><trkpt lat="45.8694376" lon="13.5329476"><ele>134.0</ele><time>2026-04-25T08:43:08.326Z</time></trkpt><trkpt lat="45.8693432" lon="13.5330277"><ele>133.4</ele><time>2026-04-25T08:43:10.332Z</time></trkpt><trkpt lat="45.8692491" lon="13.5331073"><ele>132.8</ele><time>2026-04-25T08:43:12.324Z</time></trkpt><trkpt lat="45.8691608" lon="13.5331875"><ele>132.2</ele><time>2026-04-25T08:43:14.326Z</time></trkpt><trkpt lat="45.8690866" lon="13.5332824"><ele>131.6</ele><time>2026-04-25T08:43:16.322Z</time></trkpt><trkpt lat="45.8690199" lon="13.5333927"><ele>131.0</ele><time>2026-04-25T08:43:18.323Z</time></trkpt><trkpt lat="45.8689534" lon="13.5335109"><ele>131.0</ele><time>2026-04-25T08:43:20.327Z</time></trkpt><trkpt lat="45.8688756" lon="13.5336217"><ele>131.0</ele><time>2026-04-25T08:43:22.334Z</time></trkpt><trkpt lat="45.8688068" lon="13.5337524"><ele>131.0</ele><time>2026-04-25T08:43:24.322Z</time></trkpt><trkpt lat="45.8687313" lon="13.5338628"><ele>131.0</ele><time>2026-04-25T08:43:26.338Z</time></trkpt><trkpt lat="45.8686633" lon="13.5339706"><ele>131.0</ele><time>2026-04-25T08:43:28.324Z</time></trkpt><trkpt lat="45.8685886" lon="13.5340562"><ele>130.83333333333331</ele><time>2026-04-25T08:43:30.328Z</time></trkpt><trkpt lat="45.8685181" lon="13.5341398"><ele>130.66666666666666</ele><time>2026-04-25T08:43:32.333Z</time></trkpt><trkpt lat="45.868457" lon="13.5341933"><ele>130.5</ele><time>2026-04-25T08:43:34.345Z</time></trkpt><trkpt lat="45.8683855" lon="13.5342879"><ele>130.33333333333334</ele><time>2026-04-25T08:43:37.336Z</time></trkpt><trkpt lat="45.8683318" lon="13.5343515"><ele>130.16666666666669</ele><time>2026-04-25T08:43:39.325Z</time></trkpt><trkpt lat="45.8682452" lon="13.5343783"><ele>130.0</ele><time>2026-04-25T08:43:41.343Z</time></trkpt><trkpt lat="45.8681557" lon="13.534447"><ele>129.0</ele><time>2026-04-25T08:43:43.324Z</time></trkpt><trkpt lat="45.8680683" lon="13.5344998"><ele>128.0</ele><time>2026-04-25T08:43:45.317Z</time></trkpt><trkpt lat="45.8679751" lon="13.5345577"><ele>127.0</ele><time>2026-04-25T08:43:47.327Z</time></trkpt><trkpt lat="45.8678908" lon="13.5346119"><ele>126.0</ele><time>2026-04-25T08:43:49.348Z</time></trkpt><trkpt lat="45.8678146" lon="13.5346655"><ele>125.0</ele><time>2026-04-25T08:43:51.339Z</time></trkpt><trkpt lat="45.8677383" lon="13.5347147"><ele>124.49999999999999</ele><time>2026-04-25T08:43:53.329Z</time></trkpt><trkpt lat="45.8676722" lon="13.5347613"><ele>124.0</ele><time>2026-04-25T08:43:55.34Z</time></trkpt><trkpt lat="45.867607" lon="13.5348077"><ele>123.5</ele><time>2026-04-25T08:43:57.347Z</time></trkpt><trkpt lat="45.8675235" lon="13.5348223"><ele>123.0</ele><time>2026-04-25T08:43:59.33Z</time></trkpt><trkpt lat="45.8674376" lon="13.5348402"><ele>122.49999999999999</ele><time>2026-04-25T08:44:01.329Z</time></trkpt><trkpt lat="45.8673603" lon="13.5348552"><ele>122.0</ele><time>2026-04-25T08:44:03.319Z</time></trkpt><trkpt lat="45.8672823" lon="13.5348783"><ele>120.99999999999999</ele><time>2026-04-25T08:44:05.328Z</time></trkpt><trkpt lat="45.8671982" lon="13.5349032"><ele>120.0</ele><time>2026-04-25T08:44:07.336Z</time></trkpt><trkpt lat="45.8671155" lon="13.53493"><ele>119.0</ele><time>2026-04-25T08:44:09.304Z</time></trkpt><trkpt lat="45.8670508" lon="13.5349827"><ele>118.0</ele><time>2026-04-25T08:44:11.318Z</time></trkpt><trkpt lat="45.866995" lon="13.5350388"><ele>116.99999999999999</ele><time>2026-04-25T08:44:13.32Z</time></trkpt><trkpt lat="45.8669147" lon="13.5351196"><ele>116.0</ele><time>2026-04-25T08:44:16.318Z</time></trkpt><trkpt lat="45.8668517" lon="13.535169"><ele>114.83333333333333</ele><time>2026-04-25T08:44:18.316Z</time></trkpt><trkpt lat="45.8667751" lon="13.5352158"><ele>113.66666666666666</ele><time>2026-04-25T08:44:20.323Z</time></trkpt><trkpt lat="45.8666902" lon="13.5352924"><ele>112.5</ele><time>2026-04-25T08:44:22.331Z</time></trkpt><trkpt lat="45.8666022" lon="13.5353419"><ele>111.33333333333334</ele><time>2026-04-25T08:44:24.317Z</time></trkpt><trkpt lat="45.8665282" lon="13.5353746"><ele>110.16666666666667</ele><time>2026-04-25T08:44:26.323Z</time></trkpt><trkpt lat="45.8664395" lon="13.5354011"><ele>109.0</ele><time>2026-04-25T08:44:29.329Z</time></trkpt><trkpt lat="45.8663711" lon="13.535441"><ele>109.0</ele><time>2026-04-25T08:44:32.31Z</time></trkpt><trkpt lat="45.8663491" lon="13.5355544"><ele>109.0</ele><time>2026-04-25T08:44:35.335Z</time></trkpt><trkpt lat="45.8663522" lon="13.5356466"><ele>109.0</ele><time>2026-04-25T08:44:37.321Z</time></trkpt><trkpt lat="45.866352" lon="13.53574"><ele>109.0</ele><time>2026-04-25T08:44:39.327Z</time></trkpt><trkpt lat="45.8663494" lon="13.5358344"><ele>109.0</ele><time>2026-04-25T08:44:41.321Z</time></trkpt><trkpt lat="45.8663526" lon="13.5359275"><ele>109.0</ele><time>2026-04-25T08:44:43.339Z</time></trkpt><trkpt lat="45.8663559" lon="13.5360575"><ele>109.0</ele><time>2026-04-25T08:44:46.325Z</time></trkpt><trkpt lat="45.8663459" lon="13.536188"><ele>109.14285714285714</ele><time>2026-04-25T08:44:49.324Z</time></trkpt><trkpt lat="45.866351" lon="13.5362857"><ele>109.28571428571429</ele><time>2026-04-25T08:44:51.313Z</time></trkpt><trkpt lat="45.8663578" lon="13.5363838"><ele>109.42857142857142</ele><time>2026-04-25T08:44:53.318Z</time></trkpt><trkpt lat="45.8663586" lon="13.5364837"><ele>109.57142857142857</ele><time>2026-04-25T08:44:55.318Z</time></trkpt><trkpt lat="45.866368" lon="13.5365896"><ele>109.71428571428571</ele><time>2026-04-25T08:44:57.344Z</time></trkpt><trkpt lat="45.8663753" lon="13.5367014"><ele>109.85714285714285</ele><time>2026-04-25T08:44:59.315Z</time></trkpt><trkpt lat="45.8663682" lon="13.5368135"><ele>110.0</ele><time>2026-04-25T08:45:01.317Z</time></trkpt><trkpt lat="45.8663606" lon="13.5369236"><ele>109.99999999999999</ele><time>2026-04-25T08:45:03.339Z</time></trkpt><trkpt lat="45.8663483" lon="13.5370142"><ele>110.0</ele><time>2026-04-25T08:45:05.319Z</time></trkpt><trkpt lat="45.8663469" lon="13.5371419"><ele>110.0</ele><time>2026-04-25T08:45:08.325Z</time></trkpt><trkpt lat="45.8663451" lon="13.5372462"><ele>110.0</ele><time>2026-04-25T08:45:10.337Z</time></trkpt><trkpt lat="45.8663475" lon="13.5373539"><ele>110.0</ele><time>2026-04-25T08:45:12.314Z</time></trkpt><trkpt lat="45.8663542" lon="13.5374565"><ele>109.99999999999999</ele><time>2026-04-25T08:45:14.319Z</time></trkpt><trkpt lat="45.8663621" lon="13.5375548"><ele>110.0</ele><time>2026-04-25T08:45:16.33Z</time></trkpt><trkpt lat="45.8663809" lon="13.5376767"><ele>109.6</ele><time>2026-04-25T08:45:18.321Z</time></trkpt><trkpt lat="45.8664002" lon="13.537803"><ele>109.2</ele><time>2026-04-25T08:45:20.327Z</time></trkpt><trkpt lat="45.866408" lon="13.5379393"><ele>108.80000000000001</ele><time>2026-04-25T08:45:22.328Z</time></trkpt><trkpt lat="45.8664389" lon="13.5380594"><ele>108.4</ele><time>2026-04-25T08:45:24.32Z</time></trkpt><trkpt lat="45.8664558" lon="13.5381884"><ele>108.0</ele><time>2026-04-25T08:45:26.352Z</time></trkpt><trkpt lat="45.8664566" lon="13.5383205"><ele>107.80000000000001</ele><time>2026-04-25T08:45:28.326Z</time></trkpt><trkpt lat="45.8664584" lon="13.5384509"><ele>107.60000000000001</ele><time>2026-04-25T08:45:30.327Z</time></trkpt><trkpt lat="45.8664565" lon="13.5385889"><ele>107.39999999999999</ele><time>2026-04-25T08:45:32.315Z</time></trkpt><trkpt lat="45.8664608" lon="13.5387355"><ele>107.19999999999999</ele><time>2026-04-25T08:45:34.348Z</time></trkpt><trkpt lat="45.8664503" lon="13.5388698"><ele>107.0</ele><time>2026-04-25T08:45:36.331Z</time></trkpt><trkpt lat="45.8664312" lon="13.5389956"><ele>106.99999999999999</ele><time>2026-04-25T08:45:38.32Z</time></trkpt><trkpt lat="45.8664339" lon="13.5390876"><ele>107.0</ele><time>2026-04-25T08:45:41.335Z</time></trkpt><trkpt lat="45.8664542" lon="13.539191"><ele>107.0</ele><time>2026-04-25T08:45:44.322Z</time></trkpt><trkpt lat="45.8664715" lon="13.5393229"><ele>107.0</ele><time>2026-04-25T08:45:47.331Z</time></trkpt><trkpt lat="45.8664738" lon="13.5394256"><ele>106.99999999999999</ele><time>2026-04-25T08:45:49.324Z</time></trkpt><trkpt lat="45.8664815" lon="13.5395326"><ele>107.0</ele><time>2026-04-25T08:45:51.328Z</time></trkpt><trkpt lat="45.866474" lon="13.5396367"><ele>106.83333333333333</ele><time>2026-04-25T08:45:53.321Z</time></trkpt><trkpt lat="45.8664777" lon="13.5397529"><ele>106.66666666666666</ele><time>2026-04-25T08:45:56.328Z</time></trkpt><trkpt lat="45.8664613" lon="13.5398736"><ele>106.5</ele><time>2026-04-25T08:45:59.319Z</time></trkpt><trkpt lat="45.8664454" lon="13.5399622"><ele>106.33333333333334</ele><time>2026-04-25T08:46:01.324Z</time></trkpt><trkpt lat="45.8664347" lon="13.5400581"><ele>106.16666666666667</ele><time>2026-04-25T08:46:03.32Z</time></trkpt><trkpt lat="45.8664297" lon="13.5401492"><ele>106.0</ele><time>2026-04-25T08:46:05.31Z</time></trkpt><trkpt lat="45.8664304" lon="13.5402788"><ele>106.00000000000001</ele><time>2026-04-25T08:46:08.326Z</time></trkpt><trkpt lat="45.866426" lon="13.5403794"><ele>106.0</ele><time>2026-04-25T08:46:10.319Z</time></trkpt><trkpt lat="45.8664219" lon="13.5405045"><ele>106.0</ele><time>2026-04-25T08:46:13.32Z</time></trkpt><trkpt lat="45.8664005" lon="13.5405994"><ele>106.0</ele><time>2026-04-25T08:46:16.319Z</time></trkpt><trkpt lat="45.8663626" lon="13.5406897"><ele>106.00000000000001</ele><time>2026-04-25T08:46:20.325Z</time></trkpt><trkpt lat="45.8662983" lon="13.540791"><ele>106.0</ele><time>2026-04-25T08:46:24.32Z</time></trkpt><trkpt lat="45.8662529" lon="13.5408759"><ele>106.16666666666667</ele><time>2026-04-25T08:46:27.322Z</time></trkpt><trkpt lat="45.8662031" lon="13.5409669"><ele>106.33333333333334</ele><time>2026-04-25T08:46:30.317Z</time></trkpt><trkpt lat="45.8661516" lon="13.541046"><ele>106.5</ele><time>2026-04-25T08:46:32.32Z</time></trkpt><trkpt lat="45.8661016" lon="13.5411233"><ele>106.66666666666666</ele><time>2026-04-25T08:46:34.315Z</time></trkpt><trkpt lat="45.8660549" lon="13.5412011"><ele>106.83333333333333</ele><time>2026-04-25T08:46:36.32Z</time></trkpt><trkpt lat="45.8660065" lon="13.5412821"><ele>107.0</ele><time>2026-04-25T08:46:38.322Z</time></trkpt><trkpt lat="45.8659608" lon="13.5413749"><ele>106.49999999999999</ele><time>2026-04-25T08:46:40.324Z</time></trkpt><trkpt lat="45.8659201" lon="13.5414858"><ele>106.0</ele><time>2026-04-25T08:46:42.326Z</time></trkpt><trkpt lat="45.8658894" lon="13.5415959"><ele>105.5</ele><time>2026-04-25T08:46:44.315Z</time></trkpt><trkpt lat="45.86591" lon="13.5417035"><ele>105.0</ele><time>2026-04-25T08:46:46.335Z</time></trkpt><trkpt lat="45.8659682" lon="13.5418097"><ele>104.49999999999999</ele><time>2026-04-25T08:46:48.327Z</time></trkpt><trkpt lat="45.8660289" lon="13.5419071"><ele>104.0</ele><time>2026-04-25T08:46:50.32Z</time></trkpt><trkpt lat="45.8660701" lon="13.5420116"><ele>104.28571428571428</ele><time>2026-04-25T08:46:52.337Z</time></trkpt><trkpt lat="45.8661019" lon="13.5421162"><ele>104.57142857142858</ele><time>2026-04-25T08:46:54.323Z</time></trkpt><trkpt lat="45.8661339" lon="13.5422125"><ele>104.85714285714286</ele><time>2026-04-25T08:46:56.317Z</time></trkpt><trkpt lat="45.8661656" lon="13.5423035"><ele>105.14285714285714</ele><time>2026-04-25T08:46:58.337Z</time></trkpt><trkpt lat="45.866194" lon="13.5423869"><ele>105.42857142857142</ele><time>2026-04-25T08:47:00.327Z</time></trkpt><trkpt lat="45.866242" lon="13.5424873"><ele>105.71428571428572</ele><time>2026-04-25T08:47:03.319Z</time></trkpt><trkpt lat="45.8662869" lon="13.5425726"><ele>106.0</ele><time>2026-04-25T08:47:07.337Z</time></trkpt><trkpt lat="45.86631" lon="13.5426643"><ele>106.00000000000001</ele><time>2026-04-25T08:47:11.338Z</time></trkpt><trkpt lat="45.8663401" lon="13.5427807"><ele>106.0</ele><time>2026-04-25T08:47:14.334Z</time></trkpt><trkpt lat="45.8663932" lon="13.5428734"><ele>106.0</ele><time>2026-04-25T08:47:16.311Z</time></trkpt><trkpt lat="45.8664542" lon="13.5429604"><ele>106.0</ele><time>2026-04-25T08:47:18.321Z</time></trkpt><trkpt lat="45.8664883" lon="13.5430773"><ele>106.00000000000001</ele><time>2026-04-25T08:47:20.325Z</time></trkpt><trkpt lat="45.8665078" lon="13.5432014"><ele>106.0</ele><time>2026-04-25T08:47:22.315Z</time></trkpt><trkpt lat="45.8665263" lon="13.5433258"><ele>106.0</ele><time>2026-04-25T08:47:24.333Z</time></trkpt><trkpt lat="45.8665422" lon="13.5434641"><ele>106.0</ele><time>2026-04-25T08:47:26.319Z</time></trkpt><trkpt lat="45.8665504" lon="13.5436127"><ele>106.0</ele><time>2026-04-25T08:47:28.313Z</time></trkpt><trkpt lat="45.8665397" lon="13.5437776"><ele>106.0</ele><time>2026-04-25T08:47:30.33Z</time></trkpt><trkpt lat="45.8664886" lon="13.5438848"><ele>106.0</ele><time>2026-04-25T08:47:32.324Z</time></trkpt><trkpt lat="45.8663957" lon="13.543942"><ele>105.25</ele><time>2026-04-25T08:47:34.332Z</time></trkpt><trkpt lat="45.8662879" lon="13.5440009"><ele>104.5</ele><time>2026-04-25T08:47:36.338Z</time></trkpt><trkpt lat="45.866176" lon="13.5440479"><ele>103.75</ele><time>2026-04-25T08:47:38.329Z</time></trkpt><trkpt lat="45.8660683" lon="13.5440958"><ele>103.0</ele><time>2026-04-25T08:47:40.318Z</time></trkpt><trkpt lat="45.8659682" lon="13.5441466"><ele>103.0</ele><time>2026-04-25T08:47:42.319Z</time></trkpt><trkpt lat="45.8658732" lon="13.5441945"><ele>103.0</ele><time>2026-04-25T08:47:44.339Z</time></trkpt><trkpt lat="45.8657821" lon="13.5442364"><ele>103.0</ele><time>2026-04-25T08:47:46.32Z</time></trkpt><trkpt lat="45.8656974" lon="13.5442891"><ele>103.0</ele><time>2026-04-25T08:47:48.321Z</time></trkpt><trkpt lat="45.8656194" lon="13.5443515"><ele>103.0</ele><time>2026-04-25T08:47:50.364Z</time></trkpt><trkpt lat="45.8655447" lon="13.5444244"><ele>103.0</ele><time>2026-04-25T08:47:52.327Z</time></trkpt><trkpt lat="45.8654781" lon="13.544517"><ele>103.0</ele><time>2026-04-25T08:47:54.315Z</time></trkpt><trkpt lat="45.8654206" lon="13.544631"><ele>103.0</ele><time>2026-04-25T08:47:56.313Z</time></trkpt><trkpt lat="45.8653847" lon="13.5447419"><ele>103.0</ele><time>2026-04-25T08:47:58.337Z</time></trkpt><trkpt lat="45.8653465" lon="13.5448729"><ele>103.0</ele><time>2026-04-25T08:48:00.32Z</time></trkpt><trkpt lat="45.8652985" lon="13.5450009"><ele>103.0</ele><time>2026-04-25T08:48:02.325Z</time></trkpt><trkpt lat="45.8652435" lon="13.5451283"><ele>103.0</ele><time>2026-04-25T08:48:04.331Z</time></trkpt><trkpt lat="45.8651791" lon="13.5452695"><ele>103.0</ele><time>2026-04-25T08:48:06.314Z</time></trkpt><trkpt lat="45.8651192" lon="13.545423"><ele>103.0</ele><time>2026-04-25T08:48:08.316Z</time></trkpt><trkpt lat="45.8650726" lon="13.5455494"><ele>103.0</ele><time>2026-04-25T08:48:10.324Z</time></trkpt><trkpt lat="45.8650206" lon="13.5456663"><ele>102.60000000000001</ele><time>2026-04-25T08:48:12.322Z</time></trkpt><trkpt lat="45.8649536" lon="13.5457655"><ele>102.2</ele><time>2026-04-25T08:48:14.346Z</time></trkpt><trkpt lat="45.8648743" lon="13.5458422"><ele>101.8</ele><time>2026-04-25T08:48:16.326Z</time></trkpt><trkpt lat="45.8647967" lon="13.5459175"><ele>101.4</ele><time>2026-04-25T08:48:18.335Z</time></trkpt><trkpt lat="45.8647131" lon="13.5459791"><ele>101.0</ele><time>2026-04-25T08:48:20.318Z</time></trkpt><trkpt lat="45.8646177" lon="13.5460104"><ele>101.0</ele><time>2026-04-25T08:48:22.354Z</time></trkpt><trkpt lat="45.8645238" lon="13.5460315"><ele>101.0</ele><time>2026-04-25T08:48:24.329Z</time></trkpt><trkpt lat="45.8644321" lon="13.5460569"><ele>101.0</ele><time>2026-04-25T08:48:26.328Z</time></trkpt><trkpt lat="45.8643488" lon="13.5461116"><ele>101.0</ele><time>2026-04-25T08:48:28.336Z</time></trkpt><trkpt lat="45.8642988" lon="13.5462189"><ele>101.0</ele><time>2026-04-25T08:48:30.345Z</time></trkpt><trkpt lat="45.8642444" lon="13.5463358"><ele>100.6</ele><time>2026-04-25T08:48:32.315Z</time></trkpt><trkpt lat="45.8641567" lon="13.5463986"><ele>100.19999999999999</ele><time>2026-04-25T08:48:34.334Z</time></trkpt><trkpt lat="45.8640642" lon="13.5464504"><ele>99.80000000000001</ele><time>2026-04-25T08:48:36.343Z</time></trkpt><trkpt lat="45.8639689" lon="13.5465122"><ele>99.4</ele><time>2026-04-25T08:48:38.325Z</time></trkpt><trkpt lat="45.8638787" lon="13.5466021"><ele>99.0</ele><time>2026-04-25T08:48:40.317Z</time></trkpt><trkpt lat="45.8637878" lon="13.5466855"><ele>99.0</ele><time>2026-04-25T08:48:42.334Z</time></trkpt><trkpt lat="45.8636974" lon="13.5467691"><ele>99.0</ele><time>2026-04-25T08:48:44.338Z</time></trkpt><trkpt lat="45.8636177" lon="13.5468468"><ele>99.0</ele><time>2026-04-25T08:48:46.326Z</time></trkpt><trkpt lat="45.8635472" lon="13.5469241"><ele>99.0</ele><time>2026-04-25T08:48:48.326Z</time></trkpt><trkpt lat="45.8634838" lon="13.5470026"><ele>99.0</ele><time>2026-04-25T08:48:50.345Z</time></trkpt><trkpt lat="45.8634275" lon="13.5470891"><ele>99.33333333333333</ele><time>2026-04-25T08:48:52.33Z</time></trkpt><trkpt lat="45.863378" lon="13.5471757"><ele>99.66666666666666</ele><time>2026-04-25T08:48:54.338Z</time></trkpt><trkpt lat="45.8633361" lon="13.5472652"><ele>100.0</ele><time>2026-04-25T08:48:56.307Z</time></trkpt><trkpt lat="45.8633066" lon="13.5473673"><ele>100.33333333333333</ele><time>2026-04-25T08:48:58.311Z</time></trkpt><trkpt lat="45.8632751" lon="13.5474642"><ele>100.66666666666666</ele><time>2026-04-25T08:49:00.311Z</time></trkpt><trkpt lat="45.8632238" lon="13.5475517"><ele>101.0</ele><time>2026-04-25T08:49:02.3Z</time></trkpt><trkpt lat="45.8631621" lon="13.5476279"><ele>100.99999999999999</ele><time>2026-04-25T08:49:04.323Z</time></trkpt><trkpt lat="45.8631001" lon="13.5477013"><ele>101.0</ele><time>2026-04-25T08:49:06.331Z</time></trkpt><trkpt lat="45.8630439" lon="13.5477765"><ele>101.0</ele><time>2026-04-25T08:49:08.319Z</time></trkpt><trkpt lat="45.8629802" lon="13.5478343"><ele>101.0</ele><time>2026-04-25T08:49:10.321Z</time></trkpt><trkpt lat="45.8629047" lon="13.5478433"><ele>100.99999999999999</ele><time>2026-04-25T08:49:12.318Z</time></trkpt><trkpt lat="45.8628242" lon="13.547853"><ele>101.0</ele><time>2026-04-25T08:49:14.332Z</time></trkpt><trkpt lat="45.8627438" lon="13.5478617"><ele>100.99999999999999</ele><time>2026-04-25T08:49:16.319Z</time></trkpt><trkpt lat="45.8626599" lon="13.5478723"><ele>101.0</ele><time>2026-04-25T08:49:18.322Z</time></trkpt><trkpt lat="45.8625795" lon="13.547886"><ele>101.0</ele><time>2026-04-25T08:49:20.317Z</time></trkpt><trkpt lat="45.8624964" lon="13.5478981"><ele>101.0</ele><time>2026-04-25T08:49:22.324Z</time></trkpt><trkpt lat="45.8624056" lon="13.5479068"><ele>100.99999999999999</ele><time>2026-04-25T08:49:24.341Z</time></trkpt><trkpt lat="45.8623201" lon="13.5479076"><ele>101.0</ele><time>2026-04-25T08:49:26.331Z</time></trkpt><trkpt lat="45.8622372" lon="13.5479111"><ele>101.8</ele><time>2026-04-25T08:49:28.318Z</time></trkpt><trkpt lat="45.8621427" lon="13.5479112"><ele>102.6</ele><time>2026-04-25T08:49:30.323Z</time></trkpt><trkpt lat="45.8620262" lon="13.5479365"><ele>103.4</ele><time>2026-04-25T08:49:32.31Z</time></trkpt><trkpt lat="45.8619187" lon="13.5479766"><ele>104.2</ele><time>2026-04-25T08:49:34.332Z</time></trkpt><trkpt lat="45.861819" lon="13.5480072"><ele>105.0</ele><time>2026-04-25T08:49:36.312Z</time></trkpt><trkpt lat="45.8617189" lon="13.5480389"><ele>105.0</ele><time>2026-04-25T08:49:38.341Z</time></trkpt><trkpt lat="45.8616149" lon="13.5480813"><ele>105.0</ele><time>2026-04-25T08:49:40.328Z</time></trkpt><trkpt lat="45.8615133" lon="13.5481395"><ele>105.0</ele><time>2026-04-25T08:49:42.317Z</time></trkpt><trkpt lat="45.8614112" lon="13.5481942"><ele>105.0</ele><time>2026-04-25T08:49:44.318Z</time></trkpt><trkpt lat="45.8613114" lon="13.5482627"><ele>105.0</ele><time>2026-04-25T08:49:46.344Z</time></trkpt><trkpt lat="45.8612192" lon="13.5483421"><ele>105.0</ele><time>2026-04-25T08:49:48.324Z</time></trkpt><trkpt lat="45.8611376" lon="13.5484243"><ele>105.0</ele><time>2026-04-25T08:49:50.324Z</time></trkpt><trkpt lat="45.8610613" lon="13.5484998"><ele>105.0</ele><time>2026-04-25T08:49:52.322Z</time></trkpt><trkpt lat="45.8609924" lon="13.5485702"><ele>105.0</ele><time>2026-04-25T08:49:54.322Z</time></trkpt><trkpt lat="45.8609194" lon="13.548604"><ele>105.0</ele><time>2026-04-25T08:49:57.315Z</time></trkpt><trkpt lat="45.8608481" lon="13.548541"><ele>105.0</ele><time>2026-04-25T08:50:00.329Z</time></trkpt><trkpt lat="45.8607848" lon="13.5485678"><ele>104.8</ele><time>2026-04-25T08:50:02.336Z</time></trkpt><trkpt lat="45.8607144" lon="13.5486185"><ele>104.6</ele><time>2026-04-25T08:50:04.318Z</time></trkpt><trkpt lat="45.8606395" lon="13.5486808"><ele>104.4</ele><time>2026-04-25T08:50:06.323Z</time></trkpt><trkpt lat="45.8605633" lon="13.5487507"><ele>104.2</ele><time>2026-04-25T08:50:08.31Z</time></trkpt><trkpt lat="45.8604734" lon="13.5487892"><ele>104.0</ele><time>2026-04-25T08:50:10.323Z</time></trkpt><trkpt lat="45.8603662" lon="13.5487825"><ele>104.0</ele><time>2026-04-25T08:50:12.327Z</time></trkpt><trkpt lat="45.8602557" lon="13.5487968"><ele>104.0</ele><time>2026-04-25T08:50:14.327Z</time></trkpt><trkpt lat="45.860148" lon="13.5488569"><ele>104.0</ele><time>2026-04-25T08:50:16.309Z</time></trkpt><trkpt lat="45.8600478" lon="13.5489307"><ele>104.0</ele><time>2026-04-25T08:50:18.329Z</time></trkpt><trkpt lat="45.8599378" lon="13.5489819"><ele>104.0</ele><time>2026-04-25T08:50:20.326Z</time></trkpt><trkpt lat="45.8598354" lon="13.5490216"><ele>104.0</ele><time>2026-04-25T08:50:22.342Z</time></trkpt><trkpt lat="45.8597413" lon="13.5490657"><ele>104.0</ele><time>2026-04-25T08:50:24.328Z</time></trkpt><trkpt lat="45.8596479" lon="13.5491134"><ele>104.0</ele><time>2026-04-25T08:50:26.341Z</time></trkpt><trkpt lat="45.8595545" lon="13.5491638"><ele>104.0</ele><time>2026-04-25T08:50:28.322Z</time></trkpt><trkpt lat="45.8594615" lon="13.5492116"><ele>104.0</ele><time>2026-04-25T08:50:30.32Z</time></trkpt><trkpt lat="45.8593666" lon="13.5492537"><ele>104.0</ele><time>2026-04-25T08:50:32.332Z</time></trkpt><trkpt lat="45.8592745" lon="13.5492921"><ele>104.0</ele><time>2026-04-25T08:50:34.326Z</time></trkpt><trkpt lat="45.8591832" lon="13.5493307"><ele>104.0</ele><time>2026-04-25T08:50:36.355Z</time></trkpt><trkpt lat="45.859089" lon="13.5493675"><ele>104.0</ele><time>2026-04-25T08:50:38.318Z</time></trkpt><trkpt lat="45.8589991" lon="13.5494057"><ele>104.0</ele><time>2026-04-25T08:50:40.312Z</time></trkpt><trkpt lat="45.8589073" lon="13.5494386"><ele>104.0</ele><time>2026-04-25T08:50:42.326Z</time></trkpt><trkpt lat="45.8588211" lon="13.5494727"><ele>104.0</ele><time>2026-04-25T08:50:44.328Z</time></trkpt><trkpt lat="45.8587326" lon="13.5495029"><ele>104.0</ele><time>2026-04-25T08:50:46.346Z</time></trkpt><trkpt lat="45.8586443" lon="13.5495301"><ele>104.0</ele><time>2026-04-25T08:50:48.318Z</time></trkpt><trkpt lat="45.8585611" lon="13.549555"><ele>103.99999999999999</ele><time>2026-04-25T08:50:50.321Z</time></trkpt><trkpt lat="45.8584816" lon="13.5495753"><ele>104.0</ele><time>2026-04-25T08:50:52.327Z</time></trkpt><trkpt lat="45.8583827" lon="13.5496012"><ele>104.0</ele><time>2026-04-25T08:50:54.317Z</time></trkpt><trkpt lat="45.858293" lon="13.5496172"><ele>104.0</ele><time>2026-04-25T08:50:56.313Z</time></trkpt><trkpt lat="45.8582163" lon="13.5496199"><ele>103.99999999999999</ele><time>2026-04-25T08:50:58.324Z</time></trkpt><trkpt lat="45.8581389" lon="13.5496157"><ele>104.0</ele><time>2026-04-25T08:51:00.308Z</time></trkpt><trkpt lat="45.8580663" lon="13.5496038"><ele>103.83333333333333</ele><time>2026-04-25T08:51:02.325Z</time></trkpt><trkpt lat="45.8580009" lon="13.5495994"><ele>103.66666666666666</ele><time>2026-04-25T08:51:04.319Z</time></trkpt><trkpt lat="45.8579264" lon="13.5495893"><ele>103.5</ele><time>2026-04-25T08:51:07.32Z</time></trkpt><trkpt lat="45.8578727" lon="13.5495187"><ele>103.33333333333334</ele><time>2026-04-25T08:51:12.314Z</time></trkpt><trkpt lat="45.8577868" lon="13.5495427"><ele>103.16666666666667</ele><time>2026-04-25T08:51:21.337Z</time></trkpt><trkpt lat="45.8577337" lon="13.5496401"><ele>103.0</ele><time>2026-04-25T08:51:24.325Z</time></trkpt><trkpt lat="45.8576808" lon="13.5497393"><ele>103.00000000000001</ele><time>2026-04-25T08:51:27.33Z</time></trkpt><trkpt lat="45.8576456" lon="13.5498382"><ele>103.0</ele><time>2026-04-25T08:51:29.324Z</time></trkpt><trkpt lat="45.8576093" lon="13.5499376"><ele>103.0</ele><time>2026-04-25T08:51:31.322Z</time></trkpt><trkpt lat="45.857574" lon="13.5500307"><ele>103.0</ele><time>2026-04-25T08:51:33.315Z</time></trkpt><trkpt lat="45.8575494" lon="13.550135"><ele>103.00000000000001</ele><time>2026-04-25T08:51:35.334Z</time></trkpt><trkpt lat="45.8575329" lon="13.5502547"><ele>103.0</ele><time>2026-04-25T08:51:37.334Z</time></trkpt><trkpt lat="45.8575213" lon="13.5503671"><ele>103.66666666666667</ele><time>2026-04-25T08:51:39.32Z</time></trkpt><trkpt lat="45.8575001" lon="13.5504832"><ele>104.33333333333334</ele><time>2026-04-25T08:51:41.338Z</time></trkpt><trkpt lat="45.8574776" lon="13.5506008"><ele>105.0</ele><time>2026-04-25T08:51:43.328Z</time></trkpt><trkpt lat="45.8574547" lon="13.550711"><ele>105.66666666666666</ele><time>2026-04-25T08:51:45.308Z</time></trkpt><trkpt lat="45.8574365" lon="13.5508219"><ele>106.33333333333333</ele><time>2026-04-25T08:51:47.306Z</time></trkpt><trkpt lat="45.8574237" lon="13.5509122"><ele>107.0</ele><time>2026-04-25T08:51:49.327Z</time></trkpt><trkpt lat="45.8574028" lon="13.5510067"><ele>106.99999999999999</ele><time>2026-04-25T08:51:51.324Z</time></trkpt><trkpt lat="45.8573833" lon="13.551131"><ele>107.0</ele><time>2026-04-25T08:51:53.324Z</time></trkpt><trkpt lat="45.8573528" lon="13.551243"><ele>107.0</ele><time>2026-04-25T08:51:55.33Z</time></trkpt><trkpt lat="45.8573193" lon="13.5513445"><ele>107.0</ele><time>2026-04-25T08:51:57.334Z</time></trkpt><trkpt lat="45.8572943" lon="13.5514523"><ele>106.99999999999999</ele><time>2026-04-25T08:51:59.317Z</time></trkpt><trkpt lat="45.8572673" lon="13.5515627"><ele>107.0</ele><time>2026-04-25T08:52:01.332Z</time></trkpt><trkpt lat="45.8572495" lon="13.551672"><ele>107.33333333333333</ele><time>2026-04-25T08:52:03.324Z</time></trkpt><trkpt lat="45.8572313" lon="13.5517849"><ele>107.66666666666666</ele><time>2026-04-25T08:52:05.336Z</time></trkpt><trkpt lat="45.8572164" lon="13.5519001"><ele>108.0</ele><time>2026-04-25T08:52:07.327Z</time></trkpt><trkpt lat="45.8571989" lon="13.5520127"><ele>108.33333333333334</ele><time>2026-04-25T08:52:09.308Z</time></trkpt><trkpt lat="45.8571805" lon="13.5521207"><ele>108.66666666666667</ele><time>2026-04-25T08:52:11.323Z</time></trkpt><trkpt lat="45.857155" lon="13.5522203"><ele>109.0</ele><time>2026-04-25T08:52:13.338Z</time></trkpt><trkpt lat="45.85713" lon="13.5523284"><ele>109.33333333333334</ele><time>2026-04-25T08:52:15.339Z</time></trkpt><trkpt lat="45.8571091" lon="13.5524378"><ele>109.66666666666667</ele><time>2026-04-25T08:52:17.332Z</time></trkpt><trkpt lat="45.8570961" lon="13.5525481"><ele>110.0</ele><time>2026-04-25T08:52:19.321Z</time></trkpt><trkpt lat="45.857094" lon="13.5526627"><ele>110.33333333333334</ele><time>2026-04-25T08:52:21.34Z</time></trkpt><trkpt lat="45.8570978" lon="13.5527754"><ele>110.66666666666667</ele><time>2026-04-25T08:52:23.32Z</time></trkpt><trkpt lat="45.857105" lon="13.5528905"><ele>111.0</ele><time>2026-04-25T08:52:25.339Z</time></trkpt><trkpt lat="45.8571098" lon="13.5530073"><ele>111.0</ele><time>2026-04-25T08:52:27.334Z</time></trkpt><trkpt lat="45.857107" lon="13.5531204"><ele>111.0</ele><time>2026-04-25T08:52:29.33Z</time></trkpt><trkpt lat="45.8570985" lon="13.553223"><ele>111.0</ele><time>2026-04-25T08:52:31.323Z</time></trkpt><trkpt lat="45.8570816" lon="13.553332"><ele>111.0</ele><time>2026-04-25T08:52:33.326Z</time></trkpt><trkpt lat="45.8570522" lon="13.5534455"><ele>111.0</ele><time>2026-04-25T08:52:35.326Z</time></trkpt><trkpt lat="45.8570172" lon="13.5535595"><ele>111.0</ele><time>2026-04-25T08:52:37.327Z</time></trkpt><trkpt lat="45.8569795" lon="13.5536686"><ele>110.83333333333333</ele><time>2026-04-25T08:52:39.321Z</time></trkpt><trkpt lat="45.8569454" lon="13.5537814"><ele>110.66666666666666</ele><time>2026-04-25T08:52:41.341Z</time></trkpt><trkpt lat="45.8569112" lon="13.5538942"><ele>110.5</ele><time>2026-04-25T08:52:43.318Z</time></trkpt><trkpt lat="45.8568754" lon="13.5540129"><ele>110.33333333333333</ele><time>2026-04-25T08:52:45.328Z</time></trkpt><trkpt lat="45.8568419" lon="13.5541294"><ele>110.16666666666666</ele><time>2026-04-25T08:52:47.328Z</time></trkpt><trkpt lat="45.8568078" lon="13.5542341"><ele>110.0</ele><time>2026-04-25T08:52:49.32Z</time></trkpt><trkpt lat="45.8567715" lon="13.554346"><ele>110.6</ele><time>2026-04-25T08:52:51.345Z</time></trkpt><trkpt lat="45.8567378" lon="13.554458"><ele>111.2</ele><time>2026-04-25T08:52:53.344Z</time></trkpt><trkpt lat="45.8567029" lon="13.5545735"><ele>111.80000000000001</ele><time>2026-04-25T08:52:55.315Z</time></trkpt><trkpt lat="45.856669" lon="13.5546938"><ele>112.4</ele><time>2026-04-25T08:52:57.345Z</time></trkpt><trkpt lat="45.8566379" lon="13.5548213"><ele>113.0</ele><time>2026-04-25T08:52:59.332Z</time></trkpt><trkpt lat="45.8566079" lon="13.5549503"><ele>113.0</ele><time>2026-04-25T08:53:01.325Z</time></trkpt><trkpt lat="45.8565731" lon="13.5550847"><ele>113.00000000000001</ele><time>2026-04-25T08:53:03.324Z</time></trkpt><trkpt lat="45.8565293" lon="13.5552171"><ele>113.00000000000001</ele><time>2026-04-25T08:53:05.339Z</time></trkpt><trkpt lat="45.8564792" lon="13.5553487"><ele>113.0</ele><time>2026-04-25T08:53:07.326Z</time></trkpt><trkpt lat="45.8564292" lon="13.5554736"><ele>113.0</ele><time>2026-04-25T08:53:09.343Z</time></trkpt><trkpt lat="45.8563816" lon="13.5555942"><ele>112.60000000000001</ele><time>2026-04-25T08:53:11.325Z</time></trkpt><trkpt lat="45.856335" lon="13.5557166"><ele>112.20000000000002</ele><time>2026-04-25T08:53:13.332Z</time></trkpt><trkpt lat="45.8562969" lon="13.555843"><ele>111.8</ele><time>2026-04-25T08:53:15.324Z</time></trkpt><trkpt lat="45.8562592" lon="13.5559611"><ele>111.4</ele><time>2026-04-25T08:53:17.314Z</time></trkpt><trkpt lat="45.8562232" lon="13.5560694"><ele>111.0</ele><time>2026-04-25T08:53:19.32Z</time></trkpt><trkpt lat="45.8561832" lon="13.5561751"><ele>110.8</ele><time>2026-04-25T08:53:21.32Z</time></trkpt><trkpt lat="45.8561343" lon="13.5562793"><ele>110.6</ele><time>2026-04-25T08:53:23.308Z</time></trkpt><trkpt lat="45.8560845" lon="13.5563873"><ele>110.4</ele><time>2026-04-25T08:53:25.317Z</time></trkpt><trkpt lat="45.8560286" lon="13.556492"><ele>110.2</ele><time>2026-04-25T08:53:27.325Z</time></trkpt><trkpt lat="45.855962" lon="13.5565834"><ele>110.0</ele><time>2026-04-25T08:53:29.342Z</time></trkpt><trkpt lat="45.8558841" lon="13.5566735"><ele>110.0</ele><time>2026-04-25T08:53:31.323Z</time></trkpt><trkpt lat="45.8557937" lon="13.5567671"><ele>110.0</ele><time>2026-04-25T08:53:33.329Z</time></trkpt><trkpt lat="45.8557029" lon="13.5568647"><ele>110.0</ele><time>2026-04-25T08:53:35.319Z</time></trkpt><trkpt lat="45.855618" lon="13.5569591"><ele>110.0</ele><time>2026-04-25T08:53:37.319Z</time></trkpt><trkpt lat="45.8555384" lon="13.5570571"><ele>110.0</ele><time>2026-04-25T08:53:39.334Z</time></trkpt><trkpt lat="45.8554714" lon="13.557164"><ele>110.0</ele><time>2026-04-25T08:53:41.316Z</time></trkpt><trkpt lat="45.855409" lon="13.5572753"><ele>110.0</ele><time>2026-04-25T08:53:43.321Z</time></trkpt><trkpt lat="45.8553461" lon="13.5573873"><ele>110.0</ele><time>2026-04-25T08:53:45.313Z</time></trkpt><trkpt lat="45.855282" lon="13.5575004"><ele>110.0</ele><time>2026-04-25T08:53:47.323Z</time></trkpt><trkpt lat="45.8552206" lon="13.5576202"><ele>110.0</ele><time>2026-04-25T08:53:49.324Z</time></trkpt><trkpt lat="45.8551579" lon="13.5577441"><ele>109.8</ele><time>2026-04-25T08:53:51.322Z</time></trkpt><trkpt lat="45.855092" lon="13.5578604"><ele>109.6</ele><time>2026-04-25T08:53:53.322Z</time></trkpt><trkpt lat="45.8550179" lon="13.5579667"><ele>109.4</ele><time>2026-04-25T08:53:55.324Z</time></trkpt><trkpt lat="45.8549378" lon="13.5580608"><ele>109.2</ele><time>2026-04-25T08:53:57.329Z</time></trkpt><trkpt lat="45.8548481" lon="13.5581245"><ele>109.0</ele><time>2026-04-25T08:53:59.326Z</time></trkpt><trkpt lat="45.8547563" lon="13.5581736"><ele>109.0</ele><time>2026-04-25T08:54:01.324Z</time></trkpt><trkpt lat="45.8546577" lon="13.5582036"><ele>109.0</ele><time>2026-04-25T08:54:03.317Z</time></trkpt><trkpt lat="45.8545514" lon="13.5582258"><ele>109.0</ele><time>2026-04-25T08:54:05.319Z</time></trkpt><trkpt lat="45.8544439" lon="13.5582385"><ele>109.0</ele><time>2026-04-25T08:54:07.318Z</time></trkpt><trkpt lat="45.8543422" lon="13.5582646"><ele>109.0</ele><time>2026-04-25T08:54:09.327Z</time></trkpt><trkpt lat="45.8542432" lon="13.5583019"><ele>108.5</ele><time>2026-04-25T08:54:11.329Z</time></trkpt><trkpt lat="45.8541498" lon="13.5583662"><ele>108.0</ele><time>2026-04-25T08:54:13.332Z</time></trkpt><trkpt lat="45.8540611" lon="13.55846"><ele>107.5</ele><time>2026-04-25T08:54:15.327Z</time></trkpt><trkpt lat="45.8539749" lon="13.5585674"><ele>107.0</ele><time>2026-04-25T08:54:17.327Z</time></trkpt><trkpt lat="45.8538726" lon="13.5586688"><ele>106.33333333333333</ele><time>2026-04-25T08:54:19.308Z</time></trkpt><trkpt lat="45.8537527" lon="13.5587213"><ele>105.66666666666666</ele><time>2026-04-25T08:54:21.318Z</time></trkpt><trkpt lat="45.8536886" lon="13.5587281"><ele>105.0</ele><time>2026-04-25T08:54:22.329Z</time></trkpt><trkpt lat="45.8536248" lon="13.5587505"><ele>104.33333333333334</ele><time>2026-04-25T08:54:23.321Z</time></trkpt><trkpt lat="45.853565" lon="13.558789"><ele>103.66666666666667</ele><time>2026-04-25T08:54:24.327Z</time></trkpt><trkpt lat="45.8534683" lon="13.5588851"><ele>103.0</ele><time>2026-04-25T08:54:26.324Z</time></trkpt><trkpt lat="45.853385" lon="13.5589868"><ele>103.60000000000001</ele><time>2026-04-25T08:54:28.317Z</time></trkpt><trkpt lat="45.8532897" lon="13.5590031"><ele>104.2</ele><time>2026-04-25T08:54:30.324Z</time></trkpt><trkpt lat="45.8532064" lon="13.5589318"><ele>104.8</ele><time>2026-04-25T08:54:32.331Z</time></trkpt><trkpt lat="45.8531272" lon="13.5588489"><ele>105.4</ele><time>2026-04-25T08:54:34.324Z</time></trkpt><trkpt lat="45.8530559" lon="13.5587583"><ele>106.0</ele><time>2026-04-25T08:54:36.318Z</time></trkpt><trkpt lat="45.8529992" lon="13.5586636"><ele>106.00000000000001</ele><time>2026-04-25T08:54:38.321Z</time></trkpt><trkpt lat="45.8529594" lon="13.5585627"><ele>106.0</ele><time>2026-04-25T08:54:40.329Z</time></trkpt><trkpt lat="45.8529567" lon="13.558461"><ele>106.0</ele><time>2026-04-25T08:54:42.318Z</time></trkpt><trkpt lat="45.8529682" lon="13.5583227"><ele>106.0</ele><time>2026-04-25T08:54:45.326Z</time></trkpt><trkpt lat="45.8529637" lon="13.5582049"><ele>106.00000000000001</ele><time>2026-04-25T08:54:48.331Z</time></trkpt><trkpt lat="45.8528885" lon="13.558148"><ele>106.0</ele><time>2026-04-25T08:54:51.319Z</time></trkpt><trkpt lat="45.8528113" lon="13.5581285"><ele>106.0</ele><time>2026-04-25T08:54:54.32Z</time></trkpt><trkpt lat="45.8527424" lon="13.5581664"><ele>106.0</ele><time>2026-04-25T08:54:56.319Z</time></trkpt><trkpt lat="45.8526846" lon="13.558208"><ele>106.0</ele><time>2026-04-25T08:54:58.389Z</time></trkpt><trkpt lat="45.8526099" lon="13.5582725"><ele>106.0</ele><time>2026-04-25T08:55:00.331Z</time></trkpt><trkpt lat="45.8525408" lon="13.5583034"><ele>106.0</ele><time>2026-04-25T08:55:02.318Z</time></trkpt><trkpt lat="45.8524703" lon="13.5582986"><ele>106.0</ele><time>2026-04-25T08:55:04.329Z</time></trkpt><trkpt lat="45.8524023" lon="13.5582948"><ele>106.0</ele><time>2026-04-25T08:55:06.314Z</time></trkpt><trkpt lat="45.8523327" lon="13.5582954"><ele>106.57142857142857</ele><time>2026-04-25T08:55:08.318Z</time></trkpt><trkpt lat="45.8522607" lon="13.5582942"><ele>107.14285714285714</ele><time>2026-04-25T08:55:10.326Z</time></trkpt><trkpt lat="45.8521893" lon="13.5582987"><ele>107.71428571428571</ele><time>2026-04-25T08:55:12.322Z</time></trkpt><trkpt lat="45.8521114" lon="13.5583094"><ele>108.28571428571428</ele><time>2026-04-25T08:55:14.314Z</time></trkpt><trkpt lat="45.8520403" lon="13.5583228"><ele>108.85714285714286</ele><time>2026-04-25T08:55:16.316Z</time></trkpt><trkpt lat="45.8519714" lon="13.5583405"><ele>109.42857142857142</ele><time>2026-04-25T08:55:18.321Z</time></trkpt><trkpt lat="45.8519094" lon="13.5583653"><ele>110.0</ele><time>2026-04-25T08:55:20.321Z</time></trkpt><trkpt lat="45.8518332" lon="13.5583925"><ele>111.0</ele><time>2026-04-25T08:55:22.343Z</time></trkpt><trkpt lat="45.8517659" lon="13.5584195"><ele>112.0</ele><time>2026-04-25T08:55:24.312Z</time></trkpt><trkpt lat="45.8516941" lon="13.5584164"><ele>113.0</ele><time>2026-04-25T08:55:26.316Z</time></trkpt><trkpt lat="45.8516285" lon="13.5583784"><ele>114.0</ele><time>2026-04-25T08:55:28.32Z</time></trkpt><trkpt lat="45.8515719" lon="13.5583282"><ele>115.00000000000001</ele><time>2026-04-25T08:55:30.318Z</time></trkpt><trkpt lat="45.8515166" lon="13.5582807"><ele>116.0</ele><time>2026-04-25T08:55:32.317Z</time></trkpt><trkpt lat="45.8514556" lon="13.5582505"><ele>117.0</ele><time>2026-04-25T08:55:34.315Z</time></trkpt><trkpt lat="45.8513889" lon="13.5582425"><ele>117.0</ele><time>2026-04-25T08:55:36.325Z</time></trkpt><trkpt lat="45.8513208" lon="13.5582398"><ele>117.0</ele><time>2026-04-25T08:55:38.334Z</time></trkpt><trkpt lat="45.8512563" lon="13.5582134"><ele>117.0</ele><time>2026-04-25T08:55:40.326Z</time></trkpt><trkpt lat="45.8511966" lon="13.5581363"><ele>117.0</ele><time>2026-04-25T08:55:43.333Z</time></trkpt><trkpt lat="45.8511636" lon="13.5580479"><ele>117.0</ele><time>2026-04-25T08:55:46.323Z</time></trkpt><trkpt lat="45.8511334" lon="13.5579293"><ele>117.0</ele><time>2026-04-25T08:55:49.333Z</time></trkpt><trkpt lat="45.8511027" lon="13.5578122"><ele>117.83333333333333</ele><time>2026-04-25T08:55:52.324Z</time></trkpt><trkpt lat="45.8510698" lon="13.5576888"><ele>118.66666666666666</ele><time>2026-04-25T08:55:55.325Z</time></trkpt><trkpt lat="45.8510351" lon="13.5575754"><ele>119.5</ele><time>2026-04-25T08:55:58.324Z</time></trkpt><trkpt lat="45.8509991" lon="13.5574915"><ele>120.33333333333333</ele><time>2026-04-25T08:56:00.322Z</time></trkpt><trkpt lat="45.8509393" lon="13.557386"><ele>121.16666666666666</ele><time>2026-04-25T08:56:03.313Z</time></trkpt><trkpt lat="45.8508967" lon="13.5573167"><ele>122.0</ele><time>2026-04-25T08:56:05.336Z</time></trkpt><trkpt lat="45.8508227" lon="13.5572479"><ele>123.66666666666666</ele><time>2026-04-25T08:56:08.338Z</time></trkpt><trkpt lat="45.8507309" lon="13.5572425"><ele>125.33333333333333</ele><time>2026-04-25T08:56:11.331Z</time></trkpt><trkpt lat="45.8506456" lon="13.5572944"><ele>127.0</ele><time>2026-04-25T08:56:14.328Z</time></trkpt><trkpt lat="45.8505923" lon="13.5573465"><ele>128.66666666666666</ele><time>2026-04-25T08:56:16.328Z</time></trkpt><trkpt lat="45.8505412" lon="13.5574026"><ele>130.33333333333334</ele><time>2026-04-25T08:56:18.321Z</time></trkpt><trkpt lat="45.8504929" lon="13.5574617"><ele>132.0</ele><time>2026-04-25T08:56:20.323Z</time></trkpt><trkpt lat="45.8504292" lon="13.5575349"><ele>132.0</ele><time>2026-04-25T08:56:23.347Z</time></trkpt><trkpt lat="45.8503679" lon="13.5576301"><ele>132.0</ele><time>2026-04-25T08:56:26.319Z</time></trkpt><trkpt lat="45.8503275" lon="13.557731"><ele>132.0</ele><time>2026-04-25T08:56:28.322Z</time></trkpt><trkpt lat="45.8502871" lon="13.5578336"><ele>132.0</ele><time>2026-04-25T08:56:30.324Z</time></trkpt><trkpt lat="45.8502485" lon="13.557933"><ele>132.0</ele><time>2026-04-25T08:56:32.317Z</time></trkpt><trkpt lat="45.8502114" lon="13.5580179"><ele>132.0</ele><time>2026-04-25T08:56:34.324Z</time></trkpt><trkpt lat="45.8501654" lon="13.5581226"><ele>132.83333333333334</ele><time>2026-04-25T08:56:36.326Z</time></trkpt><trkpt lat="45.8501132" lon="13.5582258"><ele>133.66666666666666</ele><time>2026-04-25T08:56:38.326Z</time></trkpt><trkpt lat="45.8500603" lon="13.5583194"><ele>134.5</ele><time>2026-04-25T08:56:40.347Z</time></trkpt><trkpt lat="45.850002" lon="13.5584005"><ele>135.33333333333331</ele><time>2026-04-25T08:56:42.317Z</time></trkpt><trkpt lat="45.8499445" lon="13.5583307"><ele>136.16666666666666</ele><time>2026-04-25T08:56:44.321Z</time></trkpt><trkpt lat="45.8499086" lon="13.5582215"><ele>137.0</ele><time>2026-04-25T08:56:46.345Z</time></trkpt><trkpt lat="45.8498836" lon="13.5581015"><ele>137.0</ele><time>2026-04-25T08:56:48.333Z</time></trkpt><trkpt lat="45.8498573" lon="13.5579937"><ele>137.0</ele><time>2026-04-25T08:56:50.326Z</time></trkpt><trkpt lat="45.8498324" lon="13.5579034"><ele>137.0</ele><time>2026-04-25T08:56:52.322Z</time></trkpt><trkpt lat="45.8497993" lon="13.5577852"><ele>137.0</ele><time>2026-04-25T08:56:55.323Z</time></trkpt><trkpt lat="45.849766" lon="13.5576736"><ele>137.0</ele><time>2026-04-25T08:56:58.329Z</time></trkpt><trkpt lat="45.8497304" lon="13.557576"><ele>137.0</ele><time>2026-04-25T08:57:01.318Z</time></trkpt><trkpt lat="45.8496793" lon="13.5575056"><ele>138.0</ele><time>2026-04-25T08:57:05.317Z</time></trkpt><trkpt lat="45.8496248" lon="13.5574583"><ele>139.0</ele><time>2026-04-25T08:57:10.353Z</time></trkpt><trkpt lat="45.8495607" lon="13.5574194"><ele>140.0</ele><time>2026-04-25T08:57:17.323Z</time></trkpt><trkpt lat="45.8494705" lon="13.557388"><ele>141.0</ele><time>2026-04-25T08:57:20.331Z</time></trkpt><trkpt lat="45.8494061" lon="13.5573557"><ele>142.0</ele><time>2026-04-25T08:57:22.324Z</time></trkpt><trkpt lat="45.8493332" lon="13.5572983"><ele>143.0</ele><time>2026-04-25T08:57:24.321Z</time></trkpt><trkpt lat="45.8492636" lon="13.557237"><ele>143.0</ele><time>2026-04-25T08:57:26.313Z</time></trkpt><trkpt lat="45.8491947" lon="13.5571743"><ele>143.0</ele><time>2026-04-25T08:57:28.316Z</time></trkpt><trkpt lat="45.8491312" lon="13.5571031"><ele>143.0</ele><time>2026-04-25T08:57:30.341Z</time></trkpt><trkpt lat="45.8490621" lon="13.5570369"><ele>143.0</ele><time>2026-04-25T08:57:32.314Z</time></trkpt><trkpt lat="45.8489891" lon="13.5569747"><ele>143.0</ele><time>2026-04-25T08:57:34.33Z</time></trkpt><trkpt lat="45.8489261" lon="13.5568963"><ele>143.0</ele><time>2026-04-25T08:57:36.324Z</time></trkpt><trkpt lat="45.848867" lon="13.5568215"><ele>144.0</ele><time>2026-04-25T08:57:38.332Z</time></trkpt><trkpt lat="45.8488044" lon="13.5567583"><ele>145.0</ele><time>2026-04-25T08:57:40.333Z</time></trkpt><trkpt lat="45.8487377" lon="13.556689"><ele>146.0</ele><time>2026-04-25T08:57:42.34Z</time></trkpt><trkpt lat="45.8486718" lon="13.5566147"><ele>147.0</ele><time>2026-04-25T08:57:44.333Z</time></trkpt><trkpt lat="45.8486054" lon="13.5565368"><ele>148.0</ele><time>2026-04-25T08:57:46.324Z</time></trkpt><trkpt lat="45.8485428" lon="13.5564612"><ele>149.0</ele><time>2026-04-25T08:57:48.315Z</time></trkpt><trkpt lat="45.8484925" lon="13.5563689"><ele>149.16666666666666</ele><time>2026-04-25T08:57:50.314Z</time></trkpt><trkpt lat="45.8484556" lon="13.5562633"><ele>149.33333333333331</ele><time>2026-04-25T08:57:52.316Z</time></trkpt><trkpt lat="45.8484367" lon="13.5561521"><ele>149.5</ele><time>2026-04-25T08:57:54.332Z</time></trkpt><trkpt lat="45.8484401" lon="13.5560264"><ele>149.66666666666666</ele><time>2026-04-25T08:57:56.339Z</time></trkpt><trkpt lat="45.8484458" lon="13.5559052"><ele>149.83333333333334</ele><time>2026-04-25T08:57:58.321Z</time></trkpt><trkpt lat="45.8484529" lon="13.5557884"><ele>150.0</ele><time>2026-04-25T08:58:00.314Z</time></trkpt><trkpt lat="45.8484533" lon="13.5556632"><ele>150.0</ele><time>2026-04-25T08:58:02.316Z</time></trkpt><trkpt lat="45.8484602" lon="13.5555417"><ele>150.0</ele><time>2026-04-25T08:58:04.324Z</time></trkpt><trkpt lat="45.8484676" lon="13.555415"><ele>150.0</ele><time>2026-04-25T08:58:06.346Z</time></trkpt><trkpt lat="45.8484732" lon="13.5552879"><ele>150.0</ele><time>2026-04-25T08:58:08.322Z</time></trkpt><trkpt lat="45.8484784" lon="13.5551689"><ele>150.0</ele><time>2026-04-25T08:58:10.317Z</time></trkpt><trkpt lat="45.8484767" lon="13.5550401"><ele>150.0</ele><time>2026-04-25T08:58:12.319Z</time></trkpt><trkpt lat="45.8484585" lon="13.5549175"><ele>150.0</ele><time>2026-04-25T08:58:14.312Z</time></trkpt><trkpt lat="45.8484342" lon="13.5547857"><ele>150.0</ele><time>2026-04-25T08:58:16.318Z</time></trkpt><trkpt lat="45.8484155" lon="13.5546611"><ele>150.0</ele><time>2026-04-25T08:58:18.316Z</time></trkpt><trkpt lat="45.8483802" lon="13.5545611"><ele>150.0</ele><time>2026-04-25T08:58:20.312Z</time></trkpt><trkpt lat="45.8483193" lon="13.5544887"><ele>150.0</ele><time>2026-04-25T08:58:22.325Z</time></trkpt><trkpt lat="45.8482469" lon="13.5544363"><ele>150.0</ele><time>2026-04-25T08:58:24.323Z</time></trkpt><trkpt lat="45.8481719" lon="13.5544025"><ele>150.33333333333334</ele><time>2026-04-25T08:58:26.317Z</time></trkpt><trkpt lat="45.8481143" lon="13.5543255"><ele>150.66666666666666</ele><time>2026-04-25T08:58:28.311Z</time></trkpt><trkpt lat="45.848102" lon="13.5542184"><ele>151.0</ele><time>2026-04-25T08:58:30.324Z</time></trkpt><trkpt lat="45.8481022" lon="13.5540942"><ele>151.33333333333331</ele><time>2026-04-25T08:58:32.32Z</time></trkpt><trkpt lat="45.8481051" lon="13.5539648"><ele>151.66666666666666</ele><time>2026-04-25T08:58:34.335Z</time></trkpt><trkpt lat="45.8481074" lon="13.5538398"><ele>152.0</ele><time>2026-04-25T08:58:36.322Z</time></trkpt><trkpt lat="45.8481026" lon="13.5537314"><ele>152.0</ele><time>2026-04-25T08:58:38.325Z</time></trkpt><trkpt lat="45.8480978" lon="13.553634"><ele>152.0</ele><time>2026-04-25T08:58:40.321Z</time></trkpt><trkpt lat="45.8480979" lon="13.5535019"><ele>152.0</ele><time>2026-04-25T08:58:43.322Z</time></trkpt><trkpt lat="45.8480971" lon="13.553402"><ele>152.0</ele><time>2026-04-25T08:58:45.333Z</time></trkpt><trkpt lat="45.848093" lon="13.5532962"><ele>152.0</ele><time>2026-04-25T08:58:47.325Z</time></trkpt><trkpt lat="45.8480893" lon="13.5531807"><ele>152.0</ele><time>2026-04-25T08:58:49.313Z</time></trkpt><trkpt lat="45.8480841" lon="13.5530586"><ele>152.0</ele><time>2026-04-25T08:58:51.317Z</time></trkpt><trkpt lat="45.8480674" lon="13.5529357"><ele>152.0</ele><time>2026-04-25T08:58:53.318Z</time></trkpt><trkpt lat="45.8480119" lon="13.5528397"><ele>152.0</ele><time>2026-04-25T08:58:55.315Z</time></trkpt><trkpt lat="45.8479415" lon="13.5527582"><ele>152.0</ele><time>2026-04-25T08:58:57.374Z</time></trkpt><trkpt lat="45.8478836" lon="13.5526643"><ele>152.0</ele><time>2026-04-25T08:58:59.314Z</time></trkpt><trkpt lat="45.8478736" lon="13.5525402"><ele>152.0</ele><time>2026-04-25T08:59:01.323Z</time></trkpt><trkpt lat="45.8478996" lon="13.5524159"><ele>151.83333333333331</ele><time>2026-04-25T08:59:03.317Z</time></trkpt><trkpt lat="45.8479213" lon="13.5522977"><ele>151.66666666666666</ele><time>2026-04-25T08:59:05.316Z</time></trkpt><trkpt lat="45.8479208" lon="13.5521663"><ele>151.5</ele><time>2026-04-25T08:59:07.308Z</time></trkpt><trkpt lat="45.8479145" lon="13.5520412"><ele>151.33333333333334</ele><time>2026-04-25T08:59:09.321Z</time></trkpt><trkpt lat="45.8479241" lon="13.5519198"><ele>151.16666666666669</ele><time>2026-04-25T08:59:11.312Z</time></trkpt><trkpt lat="45.8479493" lon="13.5518057"><ele>151.0</ele><time>2026-04-25T08:59:13.311Z</time></trkpt><trkpt lat="45.8479779" lon="13.5516986"><ele>151.0</ele><time>2026-04-25T08:59:15.319Z</time></trkpt><trkpt lat="45.8480396" lon="13.5515977"><ele>151.0</ele><time>2026-04-25T08:59:17.315Z</time></trkpt><trkpt lat="45.8480823" lon="13.5515064"><ele>151.0</ele><time>2026-04-25T08:59:19.321Z</time></trkpt><trkpt lat="45.8481194" lon="13.5513765"><ele>151.0</ele><time>2026-04-25T08:59:22.322Z</time></trkpt><trkpt lat="45.8481408" lon="13.5512739"><ele>151.0</ele><time>2026-04-25T08:59:24.316Z</time></trkpt><trkpt lat="45.8481719" lon="13.5511704"><ele>151.0</ele><time>2026-04-25T08:59:26.321Z</time></trkpt><trkpt lat="45.8481993" lon="13.5510639"><ele>150.8</ele><time>2026-04-25T08:59:28.324Z</time></trkpt><trkpt lat="45.8482315" lon="13.5509588"><ele>150.6</ele><time>2026-04-25T08:59:30.331Z</time></trkpt><trkpt lat="45.8482662" lon="13.5508145"><ele>150.4</ele><time>2026-04-25T08:59:32.313Z</time></trkpt><trkpt lat="45.8482933" lon="13.550692"><ele>150.2</ele><time>2026-04-25T08:59:34.32Z</time></trkpt><trkpt lat="45.8483171" lon="13.5505493"><ele>150.0</ele><time>2026-04-25T08:59:36.317Z</time></trkpt><trkpt lat="45.8483771" lon="13.5504647"><ele>150.0</ele><time>2026-04-25T08:59:38.311Z</time></trkpt><trkpt lat="45.8484477" lon="13.5503749"><ele>150.0</ele><time>2026-04-25T08:59:40.315Z</time></trkpt><trkpt lat="45.8485089" lon="13.5502449"><ele>150.0</ele><time>2026-04-25T08:59:42.312Z</time></trkpt><trkpt lat="45.8485472" lon="13.5501205"><ele>150.0</ele><time>2026-04-25T08:59:44.31Z</time></trkpt><trkpt lat="45.8486023" lon="13.5499562"><ele>150.0</ele><time>2026-04-25T08:59:46.315Z</time></trkpt><trkpt lat="45.8486334" lon="13.5498645"><ele>149.2</ele><time>2026-04-25T08:59:47.319Z</time></trkpt><trkpt lat="45.8486691" lon="13.5497799"><ele>148.4</ele><time>2026-04-25T08:59:48.308Z</time></trkpt><trkpt lat="45.8487348" lon="13.5496284"><ele>147.6</ele><time>2026-04-25T08:59:50.318Z</time></trkpt><trkpt lat="45.8487999" lon="13.5494719"><ele>146.8</ele><time>2026-04-25T08:59:52.316Z</time></trkpt><trkpt lat="45.8488369" lon="13.5493205"><ele>146.0</ele><time>2026-04-25T08:59:54.32Z</time></trkpt><trkpt lat="45.8488701" lon="13.5491724"><ele>145.6</ele><time>2026-04-25T08:59:56.313Z</time></trkpt><trkpt lat="45.8488939" lon="13.5490301"><ele>145.2</ele><time>2026-04-25T08:59:58.315Z</time></trkpt><trkpt lat="45.8489083" lon="13.5489022"><ele>144.8</ele><time>2026-04-25T09:00:00.309Z</time></trkpt><trkpt lat="45.8488921" lon="13.548761"><ele>144.4</ele><time>2026-04-25T09:00:02.32Z</time></trkpt><trkpt lat="45.8488617" lon="13.5486335"><ele>144.0</ele><time>2026-04-25T09:00:04.314Z</time></trkpt><trkpt lat="45.8488075" lon="13.5485064"><ele>143.2</ele><time>2026-04-25T09:00:06.321Z</time></trkpt><trkpt lat="45.8487531" lon="13.5483697"><ele>142.4</ele><time>2026-04-25T09:00:08.32Z</time></trkpt><trkpt lat="45.8486913" lon="13.5482488"><ele>141.6</ele><time>2026-04-25T09:00:10.314Z</time></trkpt><trkpt lat="45.8486132" lon="13.5481502"><ele>140.8</ele><time>2026-04-25T09:00:12.311Z</time></trkpt><trkpt lat="45.8485327" lon="13.5480733"><ele>140.0</ele><time>2026-04-25T09:00:14.313Z</time></trkpt><trkpt lat="45.8484495" lon="13.5480042"><ele>139.8</ele><time>2026-04-25T09:00:16.316Z</time></trkpt><trkpt lat="45.8483498" lon="13.5479351"><ele>139.6</ele><time>2026-04-25T09:00:18.312Z</time></trkpt><trkpt lat="45.8482559" lon="13.5478603"><ele>139.4</ele><time>2026-04-25T09:00:20.321Z</time></trkpt><trkpt lat="45.8481776" lon="13.547783"><ele>139.2</ele><time>2026-04-25T09:00:22.314Z</time></trkpt><trkpt lat="45.8481034" lon="13.5477044"><ele>139.0</ele><time>2026-04-25T09:00:24.321Z</time></trkpt><trkpt lat="45.8480289" lon="13.5476338"><ele>139.0</ele><time>2026-04-25T09:00:26.318Z</time></trkpt><trkpt lat="45.8479434" lon="13.5475937"><ele>139.0</ele><time>2026-04-25T09:00:28.316Z</time></trkpt><trkpt lat="45.847856" lon="13.5475897"><ele>139.0</ele><time>2026-04-25T09:00:30.308Z</time></trkpt><trkpt lat="45.847771" lon="13.5475672"><ele>139.0</ele><time>2026-04-25T09:00:32.313Z</time></trkpt><trkpt lat="45.8477021" lon="13.5474976"><ele>139.0</ele><time>2026-04-25T09:00:34.324Z</time></trkpt><trkpt lat="45.8476528" lon="13.5474225"><ele>139.0</ele><time>2026-04-25T09:00:36.333Z</time></trkpt><trkpt lat="45.8475725" lon="13.5473786"><ele>139.83333333333334</ele><time>2026-04-25T09:00:39.321Z</time></trkpt><trkpt lat="45.8475449" lon="13.5474789"><ele>140.66666666666669</ele><time>2026-04-25T09:00:41.312Z</time></trkpt><trkpt lat="45.8475073" lon="13.5475785"><ele>141.5</ele><time>2026-04-25T09:00:43.318Z</time></trkpt><trkpt lat="45.8474648" lon="13.5476829"><ele>142.33333333333334</ele><time>2026-04-25T09:00:45.319Z</time></trkpt><trkpt lat="45.8474254" lon="13.5477782"><ele>143.16666666666666</ele><time>2026-04-25T09:00:47.313Z</time></trkpt><trkpt lat="45.8473825" lon="13.5478651"><ele>144.0</ele><time>2026-04-25T09:00:49.316Z</time></trkpt><trkpt lat="45.8473463" lon="13.5479536"><ele>144.16666666666666</ele><time>2026-04-25T09:00:51.313Z</time></trkpt><trkpt lat="45.8472998" lon="13.5480615"><ele>144.33333333333334</ele><time>2026-04-25T09:00:54.318Z</time></trkpt><trkpt lat="45.84726" lon="13.5481513"><ele>144.5</ele><time>2026-04-25T09:00:56.313Z</time></trkpt><trkpt lat="45.847223" lon="13.5482368"><ele>144.66666666666669</ele><time>2026-04-25T09:00:58.314Z</time></trkpt><trkpt lat="45.8471673" lon="13.5483469"><ele>144.83333333333334</ele><time>2026-04-25T09:01:01.257Z</time></trkpt><trkpt lat="45.8471337" lon="13.5484313"><ele>145.0</ele><time>2026-04-25T09:01:03.238Z</time></trkpt><trkpt lat="45.8470994" lon="13.5485159"><ele>145.0</ele><time>2026-04-25T09:01:05.318Z</time></trkpt><trkpt lat="45.8470517" lon="13.548627"><ele>145.0</ele><time>2026-04-25T09:01:08.323Z</time></trkpt><trkpt lat="45.8470141" lon="13.5487004"><ele>145.0</ele><time>2026-04-25T09:01:10.331Z</time></trkpt><trkpt lat="45.8469624" lon="13.5488111"><ele>145.0</ele><time>2026-04-25T09:01:13.338Z</time></trkpt><trkpt lat="45.8469098" lon="13.5489109"><ele>145.0</ele><time>2026-04-25T09:01:16.327Z</time></trkpt><trkpt lat="45.8468682" lon="13.5489947"><ele>145.0</ele><time>2026-04-25T09:01:19.326Z</time></trkpt><trkpt lat="45.8468312" lon="13.5490682"><ele>146.5</ele><time>2026-04-25T09:01:21.332Z</time></trkpt><trkpt lat="45.8467879" lon="13.5491901"><ele>148.0</ele><time>2026-04-25T09:01:24.334Z</time></trkpt><trkpt lat="45.8467688" lon="13.549284"><ele>149.5</ele><time>2026-04-25T09:01:26.317Z</time></trkpt><trkpt lat="45.8467569" lon="13.5493798"><ele>151.0</ele><time>2026-04-25T09:01:28.329Z</time></trkpt><trkpt lat="45.8467218" lon="13.5494731"><ele>152.5</ele><time>2026-04-25T09:01:30.326Z</time></trkpt><trkpt lat="45.8466777" lon="13.5495571"><ele>154.0</ele><time>2026-04-25T09:01:32.325Z</time></trkpt><trkpt lat="45.8466348" lon="13.5496416"><ele>154.16666666666669</ele><time>2026-04-25T09:01:34.319Z</time></trkpt><trkpt lat="45.8465856" lon="13.5497535"><ele>154.33333333333334</ele><time>2026-04-25T09:01:37.322Z</time></trkpt><trkpt lat="45.8465627" lon="13.5498435"><ele>154.5</ele><time>2026-04-25T09:01:39.338Z</time></trkpt><trkpt lat="45.8465474" lon="13.5499425"><ele>154.66666666666666</ele><time>2026-04-25T09:01:41.33Z</time></trkpt><trkpt lat="45.8465325" lon="13.550048"><ele>154.83333333333331</ele><time>2026-04-25T09:01:43.323Z</time></trkpt><trkpt lat="45.8465207" lon="13.5501391"><ele>155.0</ele><time>2026-04-25T09:01:45.314Z</time></trkpt><trkpt lat="45.8465047" lon="13.5502561"><ele>155.0</ele><time>2026-04-25T09:01:47.319Z</time></trkpt><trkpt lat="45.8464945" lon="13.5503599"><ele>155.0</ele><time>2026-04-25T09:01:49.323Z</time></trkpt><trkpt lat="45.8464784" lon="13.5504649"><ele>155.0</ele><time>2026-04-25T09:01:51.316Z</time></trkpt><trkpt lat="45.8464607" lon="13.5505931"><ele>155.0</ele><time>2026-04-25T09:01:54.321Z</time></trkpt><trkpt lat="45.8464411" lon="13.550719"><ele>155.0</ele><time>2026-04-25T09:01:57.317Z</time></trkpt><trkpt lat="45.8464292" lon="13.5508307"><ele>155.0</ele><time>2026-04-25T09:01:59.323Z</time></trkpt><trkpt lat="45.8464158" lon="13.5509419"><ele>154.83333333333331</ele><time>2026-04-25T09:02:01.318Z</time></trkpt><trkpt lat="45.8464034" lon="13.5510351"><ele>154.66666666666666</ele><time>2026-04-25T09:02:03.326Z</time></trkpt><trkpt lat="45.8463892" lon="13.551153"><ele>154.5</ele><time>2026-04-25T09:02:06.315Z</time></trkpt><trkpt lat="45.8463672" lon="13.5512685"><ele>154.33333333333334</ele><time>2026-04-25T09:02:09.323Z</time></trkpt><trkpt lat="45.8463432" lon="13.5513888"><ele>154.16666666666669</ele><time>2026-04-25T09:02:11.323Z</time></trkpt><trkpt lat="45.8463182" lon="13.5515166"><ele>154.0</ele><time>2026-04-25T09:02:13.329Z</time></trkpt><trkpt lat="45.8463039" lon="13.5516406"><ele>154.0</ele><time>2026-04-25T09:02:15.313Z</time></trkpt><trkpt lat="45.8463021" lon="13.5517569"><ele>154.0</ele><time>2026-04-25T09:02:17.316Z</time></trkpt><trkpt lat="45.8463005" lon="13.5518547"><ele>154.0</ele><time>2026-04-25T09:02:19.325Z</time></trkpt><trkpt lat="45.8462779" lon="13.5519845"><ele>154.0</ele><time>2026-04-25T09:02:22.33Z</time></trkpt><trkpt lat="45.8462414" lon="13.55209"><ele>154.0</ele><time>2026-04-25T09:02:25.316Z</time></trkpt><trkpt lat="45.8461936" lon="13.5522124"><ele>154.0</ele><time>2026-04-25T09:02:28.317Z</time></trkpt><trkpt lat="45.8461408" lon="13.5523123"><ele>154.16666666666669</ele><time>2026-04-25T09:02:30.341Z</time></trkpt><trkpt lat="45.8460907" lon="13.5523933"><ele>154.33333333333334</ele><time>2026-04-25T09:02:32.337Z</time></trkpt><trkpt lat="45.8460673" lon="13.5524939"><ele>154.5</ele><time>2026-04-25T09:02:34.317Z</time></trkpt><trkpt lat="45.846058" lon="13.5526078"><ele>154.66666666666666</ele><time>2026-04-25T09:02:37.327Z</time></trkpt><trkpt lat="45.8460766" lon="13.5527137"><ele>154.83333333333331</ele><time>2026-04-25T09:02:39.323Z</time></trkpt><trkpt lat="45.8461184" lon="13.5528154"><ele>155.0</ele><time>2026-04-25T09:02:41.308Z</time></trkpt><trkpt lat="45.8461369" lon="13.5529117"><ele>155.0</ele><time>2026-04-25T09:02:43.322Z</time></trkpt><trkpt lat="45.8461398" lon="13.5530306"><ele>155.0</ele><time>2026-04-25T09:02:45.316Z</time></trkpt><trkpt lat="45.8461276" lon="13.5531533"><ele>155.0</ele><time>2026-04-25T09:02:47.318Z</time></trkpt><trkpt lat="45.8460889" lon="13.553233"><ele>155.0</ele><time>2026-04-25T09:02:49.315Z</time></trkpt><trkpt lat="45.8460543" lon="13.553353"><ele>155.0</ele><time>2026-04-25T09:02:52.314Z</time></trkpt><trkpt lat="45.8460242" lon="13.5534918"><ele>155.0</ele><time>2026-04-25T09:02:54.319Z</time></trkpt><trkpt lat="45.8459743" lon="13.5535614"><ele>155.5</ele><time>2026-04-25T09:02:56.322Z</time></trkpt><trkpt lat="45.8459102" lon="13.5536347"><ele>156.0</ele><time>2026-04-25T09:02:58.322Z</time></trkpt><trkpt lat="45.8458531" lon="13.5537082"><ele>156.5</ele><time>2026-04-25T09:03:00.324Z</time></trkpt><trkpt lat="45.8458017" lon="13.5537824"><ele>157.0</ele><time>2026-04-25T09:03:02.336Z</time></trkpt><trkpt lat="45.8457505" lon="13.5538628"><ele>157.5</ele><time>2026-04-25T09:03:04.316Z</time></trkpt><trkpt lat="45.8456931" lon="13.5539502"><ele>158.0</ele><time>2026-04-25T09:03:06.325Z</time></trkpt><trkpt lat="45.845644" lon="13.5540259"><ele>158.0</ele><time>2026-04-25T09:03:08.318Z</time></trkpt><trkpt lat="45.8455974" lon="13.5541151"><ele>158.0</ele><time>2026-04-25T09:03:10.321Z</time></trkpt><trkpt lat="45.8455273" lon="13.5542291"><ele>158.0</ele><time>2026-04-25T09:03:12.323Z</time></trkpt><trkpt lat="45.8454553" lon="13.5543274"><ele>158.0</ele><time>2026-04-25T09:03:14.319Z</time></trkpt><trkpt lat="45.8453759" lon="13.5544205"><ele>158.0</ele><time>2026-04-25T09:03:16.325Z</time></trkpt><trkpt lat="45.8452808" lon="13.554521"><ele>157.8</ele><time>2026-04-25T09:03:18.325Z</time></trkpt><trkpt lat="45.8451765" lon="13.5545513"><ele>157.60000000000002</ele><time>2026-04-25T09:03:20.329Z</time></trkpt><trkpt lat="45.845078" lon="13.5545148"><ele>157.39999999999998</ele><time>2026-04-25T09:03:22.317Z</time></trkpt><trkpt lat="45.8449768" lon="13.5544628"><ele>157.2</ele><time>2026-04-25T09:03:24.322Z</time></trkpt><trkpt lat="45.8448752" lon="13.5544142"><ele>157.0</ele><time>2026-04-25T09:03:26.319Z</time></trkpt><trkpt lat="45.8447757" lon="13.5543813"><ele>156.83333333333334</ele><time>2026-04-25T09:03:28.328Z</time></trkpt><trkpt lat="45.8446787" lon="13.5543645"><ele>156.66666666666669</ele><time>2026-04-25T09:03:30.319Z</time></trkpt><trkpt lat="45.8445821" lon="13.5543391"><ele>156.5</ele><time>2026-04-25T09:03:32.325Z</time></trkpt><trkpt lat="45.8445042" lon="13.5543161"><ele>156.33333333333334</ele><time>2026-04-25T09:03:34.328Z</time></trkpt><trkpt lat="45.8444356" lon="13.5543042"><ele>156.16666666666666</ele><time>2026-04-25T09:03:36.326Z</time></trkpt><trkpt lat="45.844344" lon="13.5542931"><ele>156.0</ele><time>2026-04-25T09:03:39.316Z</time></trkpt><trkpt lat="45.8442554" lon="13.5543015"><ele>156.0</ele><time>2026-04-25T09:03:41.321Z</time></trkpt><trkpt lat="45.8441744" lon="13.5543373"><ele>156.0</ele><time>2026-04-25T09:03:43.349Z</time></trkpt><trkpt lat="45.8441113" lon="13.5543701"><ele>156.0</ele><time>2026-04-25T09:03:45.335Z</time></trkpt><trkpt lat="45.8440453" lon="13.5544349"><ele>156.0</ele><time>2026-04-25T09:03:47.326Z</time></trkpt><trkpt lat="45.8439704" lon="13.5544981"><ele>156.0</ele><time>2026-04-25T09:03:49.332Z</time></trkpt><trkpt lat="45.8439068" lon="13.55457"><ele>156.0</ele><time>2026-04-25T09:03:51.319Z</time></trkpt><trkpt lat="45.8438721" lon="13.5546878"><ele>155.8</ele><time>2026-04-25T09:03:53.316Z</time></trkpt><trkpt lat="45.8438484" lon="13.5548207"><ele>155.6</ele><time>2026-04-25T09:03:55.323Z</time></trkpt><trkpt lat="45.843822" lon="13.5549591"><ele>155.4</ele><time>2026-04-25T09:03:57.326Z</time></trkpt><trkpt lat="45.8437949" lon="13.5550956"><ele>155.2</ele><time>2026-04-25T09:03:59.327Z</time></trkpt><trkpt lat="45.8437649" lon="13.5552489"><ele>155.0</ele><time>2026-04-25T09:04:01.323Z</time></trkpt><trkpt lat="45.8437347" lon="13.5554056"><ele>154.5</ele><time>2026-04-25T09:04:03.323Z</time></trkpt><trkpt lat="45.8437054" lon="13.5555641"><ele>154.0</ele><time>2026-04-25T09:04:05.323Z</time></trkpt><trkpt lat="45.8436727" lon="13.5557231"><ele>153.5</ele><time>2026-04-25T09:04:07.319Z</time></trkpt><trkpt lat="45.843641" lon="13.5558864"><ele>153.0</ele><time>2026-04-25T09:04:09.332Z</time></trkpt><trkpt lat="45.843608" lon="13.5560496"><ele>153.0</ele><time>2026-04-25T09:04:11.32Z</time></trkpt><trkpt lat="45.8435568" lon="13.5562024"><ele>153.0</ele><time>2026-04-25T09:04:13.319Z</time></trkpt><trkpt lat="45.8435116" lon="13.5562674"><ele>153.0</ele><time>2026-04-25T09:04:14.318Z</time></trkpt><trkpt lat="45.8434065" lon="13.5563533"><ele>153.0</ele><time>2026-04-25T09:04:16.323Z</time></trkpt><trkpt lat="45.8433007" lon="13.5564082"><ele>153.0</ele><time>2026-04-25T09:04:18.324Z</time></trkpt><trkpt lat="45.8431973" lon="13.5564495"><ele>152.20000000000002</ele><time>2026-04-25T09:04:20.306Z</time></trkpt><trkpt lat="45.8430958" lon="13.5564886"><ele>151.4</ele><time>2026-04-25T09:04:22.323Z</time></trkpt><trkpt lat="45.8429979" lon="13.5565306"><ele>150.60000000000002</ele><time>2026-04-25T09:04:24.32Z</time></trkpt><trkpt lat="45.8429026" lon="13.5565779"><ele>149.8</ele><time>2026-04-25T09:04:26.328Z</time></trkpt><trkpt lat="45.8428048" lon="13.5566339"><ele>149.0</ele><time>2026-04-25T09:04:28.329Z</time></trkpt><trkpt lat="45.8427031" lon="13.5566909"><ele>149.2</ele><time>2026-04-25T09:04:30.322Z</time></trkpt><trkpt lat="45.8426006" lon="13.5567542"><ele>149.4</ele><time>2026-04-25T09:04:32.328Z</time></trkpt><trkpt lat="45.8425061" lon="13.5568305"><ele>149.6</ele><time>2026-04-25T09:04:34.306Z</time></trkpt><trkpt lat="45.8424301" lon="13.5569041"><ele>149.8</ele><time>2026-04-25T09:04:36.326Z</time></trkpt><trkpt lat="45.8423697" lon="13.5569752"><ele>150.0</ele><time>2026-04-25T09:04:38.326Z</time></trkpt><trkpt lat="45.8423231" lon="13.5570478"><ele>149.2</ele><time>2026-04-25T09:04:40.321Z</time></trkpt><trkpt lat="45.8422608" lon="13.5571509"><ele>148.4</ele><time>2026-04-25T09:04:43.316Z</time></trkpt><trkpt lat="45.8422082" lon="13.5572367"><ele>147.6</ele><time>2026-04-25T09:04:45.312Z</time></trkpt><trkpt lat="45.8421424" lon="13.5573332"><ele>146.8</ele><time>2026-04-25T09:04:47.323Z</time></trkpt><trkpt lat="45.8420722" lon="13.5574353"><ele>146.0</ele><time>2026-04-25T09:04:49.322Z</time></trkpt><trkpt lat="45.8419916" lon="13.5575391"><ele>146.0</ele><time>2026-04-25T09:04:51.317Z</time></trkpt><trkpt lat="45.8419111" lon="13.5576471"><ele>146.0</ele><time>2026-04-25T09:04:53.311Z</time></trkpt><trkpt lat="45.8418303" lon="13.5577583"><ele>146.0</ele><time>2026-04-25T09:04:55.31Z</time></trkpt><trkpt lat="45.8417409" lon="13.5578829"><ele>146.0</ele><time>2026-04-25T09:04:57.32Z</time></trkpt><trkpt lat="45.8416944" lon="13.5579453"><ele>146.0</ele><time>2026-04-25T09:04:58.321Z</time></trkpt><trkpt lat="45.8416485" lon="13.5580123"><ele>144.5</ele><time>2026-04-25T09:04:59.318Z</time></trkpt><trkpt lat="45.8415697" lon="13.5581269"><ele>143.0</ele><time>2026-04-25T09:05:01.317Z</time></trkpt><trkpt lat="45.8414656" lon="13.5582044"><ele>141.5</ele><time>2026-04-25T09:05:03.303Z</time></trkpt><trkpt lat="45.8413461" lon="13.5582429"><ele>140.0</ele><time>2026-04-25T09:05:05.314Z</time></trkpt><trkpt lat="45.8412238" lon="13.5582635"><ele>140.0</ele><time>2026-04-25T09:05:07.323Z</time></trkpt><trkpt lat="45.841129" lon="13.5583111"><ele>140.0</ele><time>2026-04-25T09:05:09.342Z</time></trkpt><trkpt lat="45.8410914" lon="13.5584071"><ele>140.0</ele><time>2026-04-25T09:05:11.322Z</time></trkpt><trkpt lat="45.8411428" lon="13.5585291"><ele>140.0</ele><time>2026-04-25T09:05:13.321Z</time></trkpt><trkpt lat="45.8412405" lon="13.5586048"><ele>140.0</ele><time>2026-04-25T09:05:15.321Z</time></trkpt><trkpt lat="45.8413545" lon="13.5586554"><ele>140.0</ele><time>2026-04-25T09:05:17.318Z</time></trkpt><trkpt lat="45.841474" lon="13.5586972"><ele>140.0</ele><time>2026-04-25T09:05:19.323Z</time></trkpt><trkpt lat="45.8415984" lon="13.5587263"><ele>140.0</ele><time>2026-04-25T09:05:21.317Z</time></trkpt><trkpt lat="45.8416627" lon="13.5587377"><ele>140.0</ele><time>2026-04-25T09:05:22.322Z</time></trkpt><trkpt lat="45.8417277" lon="13.5587416"><ele>140.0</ele><time>2026-04-25T09:05:23.319Z</time></trkpt><trkpt lat="45.8417949" lon="13.5587412"><ele>140.0</ele><time>2026-04-25T09:05:24.315Z</time></trkpt><trkpt lat="45.841864" lon="13.5587339"><ele>139.42857142857142</ele><time>2026-04-25T09:05:25.322Z</time></trkpt><trkpt lat="45.8419331" lon="13.5587266"><ele>138.85714285714286</ele><time>2026-04-25T09:05:26.316Z</time></trkpt><trkpt lat="45.8420042" lon="13.5587181"><ele>138.28571428571428</ele><time>2026-04-25T09:05:27.313Z</time></trkpt><trkpt lat="45.8420767" lon="13.5587054"><ele>137.71428571428572</ele><time>2026-04-25T09:05:28.318Z</time></trkpt><trkpt lat="45.8421503" lon="13.5586896"><ele>137.14285714285714</ele><time>2026-04-25T09:05:29.316Z</time></trkpt><trkpt lat="45.8422242" lon="13.5586656"><ele>136.57142857142856</ele><time>2026-04-25T09:05:30.315Z</time></trkpt><trkpt lat="45.8423006" lon="13.5586354"><ele>136.0</ele><time>2026-04-25T09:05:31.317Z</time></trkpt><trkpt lat="45.842378" lon="13.558604"><ele>136.0</ele><time>2026-04-25T09:05:32.311Z</time></trkpt><trkpt lat="45.8424593" lon="13.5585682"><ele>136.0</ele><time>2026-04-25T09:05:33.333Z</time></trkpt><trkpt lat="45.8425382" lon="13.5585367"><ele>136.0</ele><time>2026-04-25T09:05:34.319Z</time></trkpt><trkpt lat="45.8426113" lon="13.5585137"><ele>136.0</ele><time>2026-04-25T09:05:35.327Z</time></trkpt><trkpt lat="45.8426817" lon="13.5584954"><ele>136.0</ele><time>2026-04-25T09:05:36.326Z</time></trkpt><trkpt lat="45.8427522" lon="13.5584813"><ele>136.0</ele><time>2026-04-25T09:05:37.333Z</time></trkpt><trkpt lat="45.8428229" lon="13.5584797"><ele>135.83333333333334</ele><time>2026-04-25T09:05:38.324Z</time></trkpt><trkpt lat="45.8428866" lon="13.5584946"><ele>135.66666666666669</ele><time>2026-04-25T09:05:39.32Z</time></trkpt><trkpt lat="45.8429943" lon="13.5585822"><ele>135.5</ele><time>2026-04-25T09:05:41.317Z</time></trkpt><trkpt lat="45.8430395" lon="13.5586504"><ele>135.33333333333334</ele><time>2026-04-25T09:05:42.317Z</time></trkpt><trkpt lat="45.8430878" lon="13.5587183"><ele>135.16666666666666</ele><time>2026-04-25T09:05:43.315Z</time></trkpt><trkpt lat="45.843136" lon="13.5587908"><ele>135.0</ele><time>2026-04-25T09:05:44.318Z</time></trkpt><trkpt lat="45.8431836" lon="13.5588631"><ele>133.42857142857142</ele><time>2026-04-25T09:05:45.315Z</time></trkpt><trkpt lat="45.8432324" lon="13.5589328"><ele>131.85714285714283</ele><time>2026-04-25T09:05:46.318Z</time></trkpt><trkpt lat="45.8432833" lon="13.5589952"><ele>130.28571428571428</ele><time>2026-04-25T09:05:47.315Z</time></trkpt><trkpt lat="45.8433358" lon="13.5590504"><ele>128.71428571428572</ele><time>2026-04-25T09:05:48.323Z</time></trkpt><trkpt lat="45.8433921" lon="13.5590981"><ele>127.14285714285715</ele><time>2026-04-25T09:05:49.324Z</time></trkpt><trkpt lat="45.8434513" lon="13.5591487"><ele>125.57142857142858</ele><time>2026-04-25T09:05:50.319Z</time></trkpt><trkpt lat="45.8435132" lon="13.5592012"><ele>124.0</ele><time>2026-04-25T09:05:51.322Z</time></trkpt><trkpt lat="45.8435791" lon="13.5592487"><ele>124.00000000000001</ele><time>2026-04-25T09:05:52.323Z</time></trkpt><trkpt lat="45.8436426" lon="13.559283"><ele>124.0</ele><time>2026-04-25T09:05:53.318Z</time></trkpt><trkpt lat="45.8437046" lon="13.5593058"><ele>124.0</ele><time>2026-04-25T09:05:54.32Z</time></trkpt><trkpt lat="45.8438183" lon="13.5593307"><ele>124.0</ele><time>2026-04-25T09:05:56.303Z</time></trkpt><trkpt lat="45.8439125" lon="13.5593307"><ele>124.00000000000001</ele><time>2026-04-25T09:05:58.317Z</time></trkpt><trkpt lat="45.8439516" lon="13.5594119"><ele>124.0</ele><time>2026-04-25T09:06:00.314Z</time></trkpt><trkpt lat="45.8439031" lon="13.5594963"><ele>124.0</ele><time>2026-04-25T09:06:02.316Z</time></trkpt><trkpt lat="45.8438178" lon="13.5595062"><ele>124.0</ele><time>2026-04-25T09:06:04.31Z</time></trkpt><trkpt lat="45.8437212" lon="13.5595059"><ele>124.0</ele><time>2026-04-25T09:06:06.315Z</time></trkpt><trkpt lat="45.8436178" lon="13.5595012"><ele>124.0</ele><time>2026-04-25T09:06:08.317Z</time></trkpt><trkpt lat="45.8435093" lon="13.5594972"><ele>124.0</ele><time>2026-04-25T09:06:10.314Z</time></trkpt><trkpt lat="45.8433934" lon="13.5594866"><ele>123.66666666666667</ele><time>2026-04-25T09:06:12.315Z</time></trkpt><trkpt lat="45.84327" lon="13.5594643"><ele>123.33333333333334</ele><time>2026-04-25T09:06:14.312Z</time></trkpt><trkpt lat="45.8432078" lon="13.5594487"><ele>123.0</ele><time>2026-04-25T09:06:15.318Z</time></trkpt><trkpt lat="45.8430884" lon="13.5594044"><ele>122.66666666666666</ele><time>2026-04-25T09:06:17.31Z</time></trkpt><trkpt lat="45.843029" lon="13.5593737"><ele>122.33333333333333</ele><time>2026-04-25T09:06:18.31Z</time></trkpt><trkpt lat="45.8429676" lon="13.5593464"><ele>122.0</ele><time>2026-04-25T09:06:19.317Z</time></trkpt><trkpt lat="45.8429049" lon="13.5593216"><ele>121.99999999999999</ele><time>2026-04-25T09:06:20.318Z</time></trkpt><trkpt lat="45.8428417" lon="13.5592982"><ele>122.0</ele><time>2026-04-25T09:06:21.319Z</time></trkpt><trkpt lat="45.8427277" lon="13.5592857"><ele>122.0</ele><time>2026-04-25T09:06:23.323Z</time></trkpt><trkpt lat="45.8426591" lon="13.5593488"><ele>122.0</ele><time>2026-04-25T09:06:25.314Z</time></trkpt><trkpt lat="45.8426633" lon="13.5594498"><ele>121.99999999999999</ele><time>2026-04-25T09:06:27.315Z</time></trkpt><trkpt lat="45.8427178" lon="13.5595046"><ele>122.0</ele><time>2026-04-25T09:06:29.315Z</time></trkpt><trkpt lat="45.842817" lon="13.5595216"><ele>118.8</ele><time>2026-04-25T09:06:31.319Z</time></trkpt><trkpt lat="45.8429187" lon="13.5595975"><ele>115.6</ele><time>2026-04-25T09:06:33.312Z</time></trkpt><trkpt lat="45.8429715" lon="13.5596476"><ele>112.39999999999999</ele><time>2026-04-25T09:06:34.316Z</time></trkpt><trkpt lat="45.8430562" lon="13.559761"><ele>109.19999999999999</ele><time>2026-04-25T09:06:36.316Z</time></trkpt><trkpt lat="45.8431478" lon="13.559886"><ele>106.0</ele><time>2026-04-25T09:06:38.318Z</time></trkpt><trkpt lat="45.8432038" lon="13.5599472"><ele>106.0</ele><time>2026-04-25T09:06:39.316Z</time></trkpt><trkpt lat="45.8432592" lon="13.5600036"><ele>106.0</ele><time>2026-04-25T09:06:40.314Z</time></trkpt><trkpt lat="45.8433158" lon="13.5600547"><ele>106.0</ele><time>2026-04-25T09:06:41.313Z</time></trkpt><trkpt lat="45.8433779" lon="13.5601017"><ele>106.0</ele><time>2026-04-25T09:06:42.317Z</time></trkpt><trkpt lat="45.8434416" lon="13.5601495"><ele>106.0</ele><time>2026-04-25T09:06:43.317Z</time></trkpt><trkpt lat="45.8435019" lon="13.5601993"><ele>106.0</ele><time>2026-04-25T09:06:44.316Z</time></trkpt><trkpt lat="45.8435594" lon="13.5602446"><ele>106.0</ele><time>2026-04-25T09:06:45.306Z</time></trkpt><trkpt lat="45.8436806" lon="13.5603065"><ele>106.16666666666667</ele><time>2026-04-25T09:06:47.324Z</time></trkpt><trkpt lat="45.8437395" lon="13.5603453"><ele>106.33333333333334</ele><time>2026-04-25T09:06:48.313Z</time></trkpt><trkpt lat="45.8438573" lon="13.5604004"><ele>106.5</ele><time>2026-04-25T09:06:50.313Z</time></trkpt><trkpt lat="45.8439237" lon="13.560415"><ele>106.66666666666666</ele><time>2026-04-25T09:06:51.323Z</time></trkpt><trkpt lat="45.8439866" lon="13.5604286"><ele>106.83333333333333</ele><time>2026-04-25T09:06:52.317Z</time></trkpt><trkpt lat="45.8441049" lon="13.5604394"><ele>107.0</ele><time>2026-04-25T09:06:54.315Z</time></trkpt><trkpt lat="45.8442279" lon="13.5604428"><ele>105.8</ele><time>2026-04-25T09:06:56.314Z</time></trkpt><trkpt lat="45.8442911" lon="13.5604451"><ele>104.6</ele><time>2026-04-25T09:06:57.313Z</time></trkpt><trkpt lat="45.8444034" lon="13.560485"><ele>103.39999999999999</ele><time>2026-04-25T09:06:59.319Z</time></trkpt><trkpt lat="45.8444854" lon="13.5605751"><ele>102.19999999999999</ele><time>2026-04-25T09:07:01.316Z</time></trkpt><trkpt lat="45.8445466" lon="13.5607102"><ele>101.0</ele><time>2026-04-25T09:07:03.318Z</time></trkpt><trkpt lat="45.8445935" lon="13.5608189"><ele>101.0</ele><time>2026-04-25T09:07:05.314Z</time></trkpt><trkpt lat="45.8446053" lon="13.560926"><ele>101.0</ele><time>2026-04-25T09:07:07.349Z</time></trkpt><trkpt lat="45.8445358" lon="13.5609868"><ele>101.0</ele><time>2026-04-25T09:07:09.314Z</time></trkpt><trkpt lat="45.8444231" lon="13.5609834"><ele>101.0</ele><time>2026-04-25T09:07:11.312Z</time></trkpt><trkpt lat="45.8443138" lon="13.5609155"><ele>101.0</ele><time>2026-04-25T09:07:13.314Z</time></trkpt><trkpt lat="45.8442521" lon="13.5608835"><ele>99.83333333333333</ele><time>2026-04-25T09:07:14.312Z</time></trkpt><trkpt lat="45.844189" lon="13.5608647"><ele>98.66666666666666</ele><time>2026-04-25T09:07:15.319Z</time></trkpt><trkpt lat="45.8440617" lon="13.5608648"><ele>97.5</ele><time>2026-04-25T09:07:17.311Z</time></trkpt><trkpt lat="45.8439985" lon="13.5608782"><ele>96.33333333333333</ele><time>2026-04-25T09:07:18.314Z</time></trkpt><trkpt lat="45.8439337" lon="13.5608957"><ele>95.16666666666666</ele><time>2026-04-25T09:07:19.314Z</time></trkpt><trkpt lat="45.8438679" lon="13.5609143"><ele>94.0</ele><time>2026-04-25T09:07:20.317Z</time></trkpt><trkpt lat="45.8438027" lon="13.5609315"><ele>94.0</ele><time>2026-04-25T09:07:21.31Z</time></trkpt><trkpt lat="45.8437386" lon="13.5609402"><ele>94.0</ele><time>2026-04-25T09:07:22.314Z</time></trkpt><trkpt lat="45.8436291" lon="13.5609413"><ele>94.0</ele><time>2026-04-25T09:07:24.315Z</time></trkpt><trkpt lat="45.843555" lon="13.5609764"><ele>94.0</ele><time>2026-04-25T09:07:26.319Z</time></trkpt><trkpt lat="45.8435414" lon="13.5610781"><ele>94.0</ele><time>2026-04-25T09:07:28.329Z</time></trkpt><trkpt lat="45.8436143" lon="13.5611427"><ele>94.0</ele><time>2026-04-25T09:07:30.313Z</time></trkpt><trkpt lat="45.8437219" lon="13.5611756"><ele>90.8</ele><time>2026-04-25T09:07:32.313Z</time></trkpt><trkpt lat="45.8438271" lon="13.5612465"><ele>87.60000000000001</ele><time>2026-04-25T09:07:34.316Z</time></trkpt><trkpt lat="45.8439336" lon="13.5613319"><ele>84.4</ele><time>2026-04-25T09:07:36.325Z</time></trkpt><trkpt lat="45.8439858" lon="13.5613899"><ele>81.2</ele><time>2026-04-25T09:07:37.317Z</time></trkpt><trkpt lat="45.8440695" lon="13.5615166"><ele>78.0</ele><time>2026-04-25T09:07:39.315Z</time></trkpt><trkpt lat="45.8441379" lon="13.5616535"><ele>78.0</ele><time>2026-04-25T09:07:41.313Z</time></trkpt><trkpt lat="45.844202" lon="13.5617725"><ele>78.0</ele><time>2026-04-25T09:07:43.318Z</time></trkpt><trkpt lat="45.8442829" lon="13.5618732"><ele>78.0</ele><time>2026-04-25T09:07:45.321Z</time></trkpt><trkpt lat="45.8443841" lon="13.561942"><ele>78.0</ele><time>2026-04-25T09:07:47.32Z</time></trkpt><trkpt lat="45.8444742" lon="13.5619973"><ele>78.0</ele><time>2026-04-25T09:07:49.321Z</time></trkpt><trkpt lat="45.8445455" lon="13.5620384"><ele>77.0</ele><time>2026-04-25T09:07:51.31Z</time></trkpt><trkpt lat="45.8445945" lon="13.5621144"><ele>76.0</ele><time>2026-04-25T09:07:58.319Z</time></trkpt><trkpt lat="45.8446277" lon="13.5622179"><ele>75.0</ele><time>2026-04-25T09:08:02.314Z</time></trkpt><trkpt lat="45.8445966" lon="13.5623034"><ele>74.0</ele><time>2026-04-25T09:08:04.319Z</time></trkpt><trkpt lat="45.8444906" lon="13.5623641"><ele>73.0</ele><time>2026-04-25T09:08:06.314Z</time></trkpt><trkpt lat="45.8444304" lon="13.5624006"><ele>72.0</ele><time>2026-04-25T09:08:07.311Z</time></trkpt><trkpt lat="45.8443676" lon="13.5624437"><ele>72.0</ele><time>2026-04-25T09:08:08.319Z</time></trkpt><trkpt lat="45.8443033" lon="13.5624935"><ele>72.0</ele><time>2026-04-25T09:08:09.322Z</time></trkpt><trkpt lat="45.8442384" lon="13.562547"><ele>72.0</ele><time>2026-04-25T09:08:10.323Z</time></trkpt><trkpt lat="45.8441712" lon="13.562604"><ele>72.0</ele><time>2026-04-25T09:08:11.321Z</time></trkpt><trkpt lat="45.8441001" lon="13.5626607"><ele>72.0</ele><time>2026-04-25T09:08:12.32Z</time></trkpt><trkpt lat="45.8440271" lon="13.5627192"><ele>72.0</ele><time>2026-04-25T09:08:13.321Z</time></trkpt><trkpt lat="45.8439507" lon="13.5627765"><ele>72.0</ele><time>2026-04-25T09:08:14.321Z</time></trkpt><trkpt lat="45.8438709" lon="13.56283"><ele>72.0</ele><time>2026-04-25T09:08:15.322Z</time></trkpt><trkpt lat="45.8437838" lon="13.5628697"><ele>72.0</ele><time>2026-04-25T09:08:16.318Z</time></trkpt><trkpt lat="45.8436934" lon="13.5629044"><ele>72.0</ele><time>2026-04-25T09:08:17.321Z</time></trkpt><trkpt lat="45.8435976" lon="13.5629282"><ele>72.0</ele><time>2026-04-25T09:08:18.326Z</time></trkpt><trkpt lat="45.8434975" lon="13.5629248"><ele>70.6</ele><time>2026-04-25T09:08:19.326Z</time></trkpt><trkpt lat="45.8433978" lon="13.5628991"><ele>69.2</ele><time>2026-04-25T09:08:20.324Z</time></trkpt><trkpt lat="45.8432988" lon="13.5628702"><ele>67.8</ele><time>2026-04-25T09:08:21.32Z</time></trkpt><trkpt lat="45.8432017" lon="13.5628503"><ele>66.4</ele><time>2026-04-25T09:08:22.32Z</time></trkpt><trkpt lat="45.8431077" lon="13.5628416"><ele>65.0</ele><time>2026-04-25T09:08:23.323Z</time></trkpt><trkpt lat="45.8430177" lon="13.562844"><ele>65.0</ele><time>2026-04-25T09:08:24.327Z</time></trkpt><trkpt lat="45.8429321" lon="13.5628603"><ele>65.0</ele><time>2026-04-25T09:08:25.32Z</time></trkpt><trkpt lat="45.842855" lon="13.5628929"><ele>65.0</ele><time>2026-04-25T09:08:26.323Z</time></trkpt><trkpt lat="45.8427905" lon="13.5629436"><ele>65.0</ele><time>2026-04-25T09:08:27.333Z</time></trkpt><trkpt lat="45.842742" lon="13.5630095"><ele>65.0</ele><time>2026-04-25T09:08:28.319Z</time></trkpt><trkpt lat="45.8426928" lon="13.5631554"><ele>65.0</ele><time>2026-04-25T09:08:30.325Z</time></trkpt><trkpt lat="45.8426963" lon="13.5632749"><ele>65.0</ele><time>2026-04-25T09:08:32.327Z</time></trkpt><trkpt lat="45.8427193" lon="13.5633644"><ele>65.0</ele><time>2026-04-25T09:08:34.345Z</time></trkpt><trkpt lat="45.8427546" lon="13.5634784"><ele>65.0</ele><time>2026-04-25T09:08:37.321Z</time></trkpt><trkpt lat="45.8428068" lon="13.5635818"><ele>65.0</ele><time>2026-04-25T09:08:40.315Z</time></trkpt><trkpt lat="45.8428726" lon="13.5636643"><ele>65.0</ele><time>2026-04-25T09:08:43.32Z</time></trkpt><trkpt lat="45.8429452" lon="13.5637379"><ele>65.0</ele><time>2026-04-25T09:08:46.322Z</time></trkpt><trkpt lat="45.8430204" lon="13.5637919"><ele>67.33333333333334</ele><time>2026-04-25T09:08:49.319Z</time></trkpt><trkpt lat="45.8430939" lon="13.5638354"><ele>69.66666666666667</ele><time>2026-04-25T09:08:52.317Z</time></trkpt><trkpt lat="45.8431728" lon="13.5638798"><ele>72.0</ele><time>2026-04-25T09:08:55.323Z</time></trkpt><trkpt lat="45.8432418" lon="13.5639398"><ele>74.33333333333333</ele><time>2026-04-25T09:08:59.315Z</time></trkpt><trkpt lat="45.8433016" lon="13.5639791"><ele>76.66666666666666</ele><time>2026-04-25T09:09:02.317Z</time></trkpt><trkpt lat="45.8433707" lon="13.5640191"><ele>79.0</ele><time>2026-04-25T09:09:05.323Z</time></trkpt><trkpt lat="45.8434288" lon="13.5640626"><ele>77.14285714285715</ele><time>2026-04-25T09:09:08.315Z</time></trkpt><trkpt lat="45.843493" lon="13.5641037"><ele>75.28571428571429</ele><time>2026-04-25T09:09:11.316Z</time></trkpt><trkpt lat="45.8435502" lon="13.5641443"><ele>73.42857142857143</ele><time>2026-04-25T09:09:14.33Z</time></trkpt><trkpt lat="45.8436107" lon="13.5641855"><ele>71.57142857142858</ele><time>2026-04-25T09:09:17.313Z</time></trkpt><trkpt lat="45.8436708" lon="13.564226"><ele>69.71428571428572</ele><time>2026-04-25T09:09:20.316Z</time></trkpt><trkpt lat="45.8437413" lon="13.564281"><ele>67.85714285714286</ele><time>2026-04-25T09:09:24.313Z</time></trkpt><trkpt lat="45.843808" lon="13.5643478"><ele>66.0</ele><time>2026-04-25T09:09:28.324Z</time></trkpt><trkpt lat="45.843865" lon="13.5644286"><ele>66.0</ele><time>2026-04-25T09:09:32.315Z</time></trkpt><trkpt lat="45.8439073" lon="13.5645145"><ele>66.0</ele><time>2026-04-25T09:09:36.318Z</time></trkpt><trkpt lat="45.8439361" lon="13.5646119"><ele>66.0</ele><time>2026-04-25T09:09:40.32Z</time></trkpt><trkpt lat="45.8439585" lon="13.5647229"><ele>66.0</ele><time>2026-04-25T09:09:44.308Z</time></trkpt><trkpt lat="45.8439764" lon="13.5648325"><ele>66.0</ele><time>2026-04-25T09:09:48.315Z</time></trkpt><trkpt lat="45.8440069" lon="13.564934"><ele>66.0</ele><time>2026-04-25T09:09:52.316Z</time></trkpt><trkpt lat="45.8440447" lon="13.5650085"><ele>66.0</ele><time>2026-04-25T09:09:55.317Z</time></trkpt><trkpt lat="45.8440992" lon="13.5650894"><ele>66.14285714285714</ele><time>2026-04-25T09:09:59.316Z</time></trkpt><trkpt lat="45.8441667" lon="13.5651474"><ele>66.28571428571429</ele><time>2026-04-25T09:10:04.313Z</time></trkpt><trkpt lat="45.8442331" lon="13.5651923"><ele>66.42857142857143</ele><time>2026-04-25T09:10:08.304Z</time></trkpt><trkpt lat="45.8442981" lon="13.5652504"><ele>66.57142857142857</ele><time>2026-04-25T09:10:11.313Z</time></trkpt><trkpt lat="45.8443635" lon="13.5653059"><ele>66.71428571428571</ele><time>2026-04-25T09:10:14.318Z</time></trkpt><trkpt lat="45.8444201" lon="13.5653638"><ele>66.85714285714286</ele><time>2026-04-25T09:10:17.322Z</time></trkpt><trkpt lat="45.8444748" lon="13.5654167"><ele>67.0</ele><time>2026-04-25T09:10:20.315Z</time></trkpt><trkpt lat="45.844522" lon="13.565483"><ele>70.0</ele><time>2026-04-25T09:10:23.323Z</time></trkpt><trkpt lat="45.8445687" lon="13.5655479"><ele>73.0</ele><time>2026-04-25T09:10:26.322Z</time></trkpt><trkpt lat="45.8446131" lon="13.5656161"><ele>76.0</ele><time>2026-04-25T09:10:29.314Z</time></trkpt><trkpt lat="45.8446631" lon="13.565677"><ele>79.0</ele><time>2026-04-25T09:10:32.319Z</time></trkpt><trkpt lat="45.8447248" lon="13.5657576"><ele>82.0</ele><time>2026-04-25T09:10:36.326Z</time></trkpt><trkpt lat="45.8447811" lon="13.5658413"><ele>85.0</ele><time>2026-04-25T09:10:40.316Z</time></trkpt><trkpt lat="45.8448421" lon="13.565916"><ele>88.0</ele><time>2026-04-25T09:10:44.322Z</time></trkpt><trkpt lat="45.8448968" lon="13.5659968"><ele>88.0</ele><time>2026-04-25T09:10:48.328Z</time></trkpt><trkpt lat="45.8449564" lon="13.5660597"><ele>88.0</ele><time>2026-04-25T09:10:52.319Z</time></trkpt><trkpt lat="45.8450154" lon="13.566121"><ele>88.0</ele><time>2026-04-25T09:10:56.324Z</time></trkpt><trkpt lat="45.8450806" lon="13.5661837"><ele>88.0</ele><time>2026-04-25T09:11:00.327Z</time></trkpt><trkpt lat="45.8451457" lon="13.5662455"><ele>88.0</ele><time>2026-04-25T09:11:04.318Z</time></trkpt><trkpt lat="45.845215" lon="13.566313"><ele>88.0</ele><time>2026-04-25T09:11:08.336Z</time></trkpt><trkpt lat="45.8452688" lon="13.5663684"><ele>87.33333333333333</ele><time>2026-04-25T09:11:11.342Z</time></trkpt><trkpt lat="45.8453317" lon="13.5664462"><ele>86.66666666666666</ele><time>2026-04-25T09:11:15.334Z</time></trkpt><trkpt lat="45.8453793" lon="13.5665375"><ele>86.0</ele><time>2026-04-25T09:11:19.337Z</time></trkpt><trkpt lat="45.8454191" lon="13.5666321"><ele>85.33333333333333</ele><time>2026-04-25T09:11:23.334Z</time></trkpt><trkpt lat="45.8454581" lon="13.5667297"><ele>84.66666666666667</ele><time>2026-04-25T09:11:27.317Z</time></trkpt><trkpt lat="45.8454969" lon="13.5668194"><ele>84.0</ele><time>2026-04-25T09:11:31.33Z</time></trkpt><trkpt lat="45.8455285" lon="13.5669168"><ele>84.0</ele><time>2026-04-25T09:11:35.344Z</time></trkpt><trkpt lat="45.8455589" lon="13.5670036"><ele>84.0</ele><time>2026-04-25T09:11:39.361Z</time></trkpt><trkpt lat="45.8455931" lon="13.5671065"><ele>84.0</ele><time>2026-04-25T09:11:44.33Z</time></trkpt><trkpt lat="45.845623" lon="13.5671877"><ele>84.0</ele><time>2026-04-25T09:11:47.328Z</time></trkpt><trkpt lat="45.8456643" lon="13.5672859"><ele>84.0</ele><time>2026-04-25T09:11:51.335Z</time></trkpt><trkpt lat="45.8456922" lon="13.5673877"><ele>84.0</ele><time>2026-04-25T09:11:55.334Z</time></trkpt><trkpt lat="45.8457202" lon="13.5674755"><ele>84.0</ele><time>2026-04-25T09:11:59.323Z</time></trkpt><trkpt lat="45.8457522" lon="13.5675541"><ele>85.14285714285714</ele><time>2026-04-25T09:12:03.323Z</time></trkpt><trkpt lat="45.8457789" lon="13.5676372"><ele>86.28571428571428</ele><time>2026-04-25T09:12:07.313Z</time></trkpt><trkpt lat="45.8458091" lon="13.5677248"><ele>87.42857142857143</ele><time>2026-04-25T09:12:11.325Z</time></trkpt><trkpt lat="45.8458493" lon="13.5678061"><ele>88.57142857142857</ele><time>2026-04-25T09:12:15.334Z</time></trkpt><trkpt lat="45.8458858" lon="13.5678919"><ele>89.71428571428571</ele><time>2026-04-25T09:12:19.346Z</time></trkpt><trkpt lat="45.8459166" lon="13.56798"><ele>90.85714285714286</ele><time>2026-04-25T09:12:23.322Z</time></trkpt><trkpt lat="45.845947" lon="13.5680714"><ele>92.0</ele><time>2026-04-25T09:12:27.33Z</time></trkpt><trkpt lat="45.845969" lon="13.5681617"><ele>92.0</ele><time>2026-04-25T09:12:31.332Z</time></trkpt><trkpt lat="45.8459825" lon="13.5682617"><ele>92.0</ele><time>2026-04-25T09:12:35.333Z</time></trkpt><trkpt lat="45.8459911" lon="13.5683625"><ele>92.0</ele><time>2026-04-25T09:12:39.337Z</time></trkpt><trkpt lat="45.8459949" lon="13.5684618"><ele>92.0</ele><time>2026-04-25T09:12:43.33Z</time></trkpt><trkpt lat="45.8459961" lon="13.5685632"><ele>92.0</ele><time>2026-04-25T09:12:47.323Z</time></trkpt><trkpt lat="45.8459939" lon="13.5686617"><ele>92.0</ele><time>2026-04-25T09:12:51.337Z</time></trkpt><trkpt lat="45.8459898" lon="13.568772"><ele>92.0</ele><time>2026-04-25T09:12:56.328Z</time></trkpt><trkpt lat="45.8459827" lon="13.5688623"><ele>93.71428571428572</ele><time>2026-04-25T09:13:00.332Z</time></trkpt><trkpt lat="45.8459674" lon="13.5689686"><ele>95.42857142857142</ele><time>2026-04-25T09:13:04.319Z</time></trkpt><trkpt lat="45.8459325" lon="13.5690529"><ele>97.14285714285714</ele><time>2026-04-25T09:13:08.331Z</time></trkpt><trkpt lat="45.8458674" lon="13.5690324"><ele>98.85714285714286</ele><time>2026-04-25T09:13:12.327Z</time></trkpt><trkpt lat="45.8458426" lon="13.5689309"><ele>100.57142857142858</ele><time>2026-04-25T09:13:16.319Z</time></trkpt><trkpt lat="45.8458361" lon="13.568818"><ele>102.28571428571428</ele><time>2026-04-25T09:13:20.34Z</time></trkpt><trkpt lat="45.8458317" lon="13.5687122"><ele>104.0</ele><time>2026-04-25T09:13:23.336Z</time></trkpt><trkpt lat="45.8458215" lon="13.5686095"><ele>105.42857142857142</ele><time>2026-04-25T09:13:26.327Z</time></trkpt><trkpt lat="45.8458045" lon="13.5685155"><ele>106.85714285714286</ele><time>2026-04-25T09:13:29.324Z</time></trkpt><trkpt lat="45.8457389" lon="13.5684499"><ele>108.28571428571428</ele><time>2026-04-25T09:13:33.334Z</time></trkpt><trkpt lat="45.8457122" lon="13.5685545"><ele>109.71428571428571</ele><time>2026-04-25T09:13:37.327Z</time></trkpt><trkpt lat="45.8457308" lon="13.568662"><ele>111.14285714285714</ele><time>2026-04-25T09:13:40.31Z</time></trkpt><trkpt lat="45.8457385" lon="13.5687685"><ele>112.57142857142857</ele><time>2026-04-25T09:13:43.329Z</time></trkpt><trkpt lat="45.8457531" lon="13.5688638"><ele>114.0</ele><time>2026-04-25T09:13:46.24Z</time></trkpt><trkpt lat="45.8457555" lon="13.5689606"><ele>115.42857142857142</ele><time>2026-04-25T09:13:49.321Z</time></trkpt><trkpt lat="45.8457451" lon="13.5690551"><ele>116.85714285714285</ele><time>2026-04-25T09:13:52.336Z</time></trkpt><trkpt lat="45.8457343" lon="13.5691469"><ele>118.28571428571428</ele><time>2026-04-25T09:13:55.321Z</time></trkpt><trkpt lat="45.8456646" lon="13.5692076"><ele>119.71428571428572</ele><time>2026-04-25T09:13:59.323Z</time></trkpt><trkpt lat="45.8456281" lon="13.5691201"><ele>121.14285714285715</ele><time>2026-04-25T09:14:02.339Z</time></trkpt><trkpt lat="45.8456362" lon="13.5690102"><ele>122.57142857142858</ele><time>2026-04-25T09:14:05.322Z</time></trkpt><trkpt lat="45.8456265" lon="13.5689127"><ele>124.0</ele><time>2026-04-25T09:14:08.341Z</time></trkpt><trkpt lat="45.8455594" lon="13.5688973"><ele>124.0</ele><time>2026-04-25T09:14:12.334Z</time></trkpt><trkpt lat="45.8455538" lon="13.5689936"><ele>124.00000000000001</ele><time>2026-04-25T09:14:15.335Z</time></trkpt><trkpt lat="45.8455581" lon="13.5690917"><ele>124.0</ele><time>2026-04-25T09:14:18.329Z</time></trkpt><trkpt lat="45.8455619" lon="13.5691905"><ele>124.0</ele><time>2026-04-25T09:14:21.337Z</time></trkpt><trkpt lat="45.8455733" lon="13.569306"><ele>124.00000000000001</ele><time>2026-04-25T09:14:25.324Z</time></trkpt><trkpt lat="45.8455785" lon="13.5694026"><ele>124.0</ele><time>2026-04-25T09:14:28.316Z</time></trkpt><trkpt lat="45.8455791" lon="13.5694966"><ele>124.0</ele><time>2026-04-25T09:14:31.32Z</time></trkpt><trkpt lat="45.8455826" lon="13.5695923"><ele>125.0</ele><time>2026-04-25T09:14:34.317Z</time></trkpt><trkpt lat="45.8455818" lon="13.5696873"><ele>126.00000000000001</ele><time>2026-04-25T09:14:37.325Z</time></trkpt><trkpt lat="45.8455786" lon="13.5697834"><ele>127.0</ele><time>2026-04-25T09:14:40.316Z</time></trkpt><trkpt lat="45.8455721" lon="13.5698801"><ele>128.0</ele><time>2026-04-25T09:14:43.323Z</time></trkpt><trkpt lat="45.8455679" lon="13.5699768"><ele>129.0</ele><time>2026-04-25T09:14:46.325Z</time></trkpt><trkpt lat="45.845559" lon="13.5700721"><ele>130.0</ele><time>2026-04-25T09:14:49.332Z</time></trkpt><trkpt lat="45.8455483" lon="13.5701634"><ele>131.0</ele><time>2026-04-25T09:14:52.33Z</time></trkpt><trkpt lat="45.8455329" lon="13.570254"><ele>131.0</ele><time>2026-04-25T09:14:55.314Z</time></trkpt><trkpt lat="45.845513" lon="13.5703411"><ele>131.0</ele><time>2026-04-25T09:14:58.317Z</time></trkpt><trkpt lat="45.8454931" lon="13.5704305"><ele>131.0</ele><time>2026-04-25T09:15:01.334Z</time></trkpt><trkpt lat="45.8454751" lon="13.570521"><ele>131.0</ele><time>2026-04-25T09:15:04.339Z</time></trkpt><trkpt lat="45.8454563" lon="13.5706076"><ele>131.0</ele><time>2026-04-25T09:15:07.318Z</time></trkpt><trkpt lat="45.8453928" lon="13.570676"><ele>131.0</ele><time>2026-04-25T09:15:11.318Z</time></trkpt><trkpt lat="45.8453293" lon="13.5706564"><ele>131.0</ele><time>2026-04-25T09:15:14.334Z</time></trkpt><trkpt lat="45.845291" lon="13.5705768"><ele>131.0</ele><time>2026-04-25T09:15:17.321Z</time></trkpt><trkpt lat="45.8452767" lon="13.5704787"><ele>131.0</ele><time>2026-04-25T09:15:20.332Z</time></trkpt><trkpt lat="45.845251" lon="13.5703878"><ele>131.0</ele><time>2026-04-25T09:15:23.336Z</time></trkpt><trkpt lat="45.8452259" lon="13.5702995"><ele>131.0</ele><time>2026-04-25T09:15:26.326Z</time></trkpt><trkpt lat="45.8452024" lon="13.5702071"><ele>131.0</ele><time>2026-04-25T09:15:29.324Z</time></trkpt><trkpt lat="45.8451746" lon="13.5701197"><ele>131.0</ele><time>2026-04-25T09:15:32.34Z</time></trkpt><trkpt lat="45.8451516" lon="13.5700303"><ele>131.0</ele><time>2026-04-25T09:15:35.33Z</time></trkpt><trkpt lat="45.8451281" lon="13.5699388"><ele>133.57142857142858</ele><time>2026-04-25T09:15:38.355Z</time></trkpt><trkpt lat="45.845099" lon="13.5698531"><ele>136.14285714285717</ele><time>2026-04-25T09:15:41.329Z</time></trkpt><trkpt lat="45.845049" lon="13.5697947"><ele>138.71428571428572</ele><time>2026-04-25T09:15:44.323Z</time></trkpt><trkpt lat="45.8449733" lon="13.5698348"><ele>141.28571428571428</ele><time>2026-04-25T09:15:48.33Z</time></trkpt><trkpt lat="45.8449456" lon="13.5699172"><ele>143.85714285714283</ele><time>2026-04-25T09:15:51.328Z</time></trkpt><trkpt lat="45.8449187" lon="13.5700085"><ele>146.42857142857142</ele><time>2026-04-25T09:15:54.326Z</time></trkpt><trkpt lat="45.8448956" lon="13.5700961"><ele>149.0</ele><time>2026-04-25T09:15:57.322Z</time></trkpt><trkpt lat="45.8448764" lon="13.5701839"><ele>149.0</ele><time>2026-04-25T09:16:00.332Z</time></trkpt><trkpt lat="45.8448436" lon="13.5702636"><ele>149.0</ele><time>2026-04-25T09:16:03.324Z</time></trkpt><trkpt lat="45.8448258" lon="13.5703543"><ele>149.0</ele><time>2026-04-25T09:16:06.327Z</time></trkpt><trkpt lat="45.8447984" lon="13.5704363"><ele>149.0</ele><time>2026-04-25T09:16:09.348Z</time></trkpt><trkpt lat="45.8447781" lon="13.5705253"><ele>149.0</ele><time>2026-04-25T09:16:12.327Z</time></trkpt><trkpt lat="45.844754" lon="13.5706123"><ele>149.0</ele><time>2026-04-25T09:16:15.321Z</time></trkpt><trkpt lat="45.8447342" lon="13.5707025"><ele>149.0</ele><time>2026-04-25T09:16:18.318Z</time></trkpt><trkpt lat="45.844711" lon="13.5707895"><ele>149.42857142857142</ele><time>2026-04-25T09:16:21.317Z</time></trkpt><trkpt lat="45.8446908" lon="13.5708756"><ele>149.85714285714283</ele><time>2026-04-25T09:16:24.32Z</time></trkpt><trkpt lat="45.8446652" lon="13.5709911"><ele>150.28571428571428</ele><time>2026-04-25T09:16:28.324Z</time></trkpt><trkpt lat="45.8446389" lon="13.5710765"><ele>150.71428571428572</ele><time>2026-04-25T09:16:31.314Z</time></trkpt><trkpt lat="45.8446134" lon="13.5711606"><ele>151.14285714285717</ele><time>2026-04-25T09:16:34.33Z</time></trkpt><trkpt lat="45.8445864" lon="13.5712526"><ele>151.57142857142856</ele><time>2026-04-25T09:16:37.363Z</time></trkpt><trkpt lat="45.8445559" lon="13.5713425"><ele>152.0</ele><time>2026-04-25T09:16:40.335Z</time></trkpt><trkpt lat="45.8445223" lon="13.5714336"><ele>153.14285714285714</ele><time>2026-04-25T09:16:43.334Z</time></trkpt><trkpt lat="45.8444885" lon="13.5715236"><ele>154.2857142857143</ele><time>2026-04-25T09:16:46.334Z</time></trkpt><trkpt lat="45.8444573" lon="13.5716102"><ele>155.42857142857144</ele><time>2026-04-25T09:16:49.344Z</time></trkpt><trkpt lat="45.8444272" lon="13.5717029"><ele>156.57142857142856</ele><time>2026-04-25T09:16:52.331Z</time></trkpt><trkpt lat="45.8443972" lon="13.5717973"><ele>157.71428571428572</ele><time>2026-04-25T09:16:55.32Z</time></trkpt><trkpt lat="45.8443688" lon="13.5718939"><ele>158.85714285714286</ele><time>2026-04-25T09:16:58.331Z</time></trkpt><trkpt lat="45.8443368" lon="13.57199"><ele>160.0</ele><time>2026-04-25T09:17:01.319Z</time></trkpt><trkpt lat="45.8442995" lon="13.5720851"><ele>161.83333333333334</ele><time>2026-04-25T09:17:04.322Z</time></trkpt><trkpt lat="45.8442672" lon="13.5721833"><ele>163.66666666666669</ele><time>2026-04-25T09:17:07.319Z</time></trkpt><trkpt lat="45.8442304" lon="13.5722766"><ele>165.5</ele><time>2026-04-25T09:17:10.331Z</time></trkpt><trkpt lat="45.8441891" lon="13.5723655"><ele>167.33333333333334</ele><time>2026-04-25T09:17:13.336Z</time></trkpt><trkpt lat="45.8441502" lon="13.5724551"><ele>169.16666666666666</ele><time>2026-04-25T09:17:16.327Z</time></trkpt><trkpt lat="45.8441148" lon="13.5725512"><ele>171.0</ele><time>2026-04-25T09:17:19.326Z</time></trkpt><trkpt lat="45.8440825" lon="13.5726519"><ele>171.0</ele><time>2026-04-25T09:17:22.327Z</time></trkpt><trkpt lat="45.8440476" lon="13.5727478"><ele>171.0</ele><time>2026-04-25T09:17:25.334Z</time></trkpt><trkpt lat="45.8440092" lon="13.5728556"><ele>171.0</ele><time>2026-04-25T09:17:28.335Z</time></trkpt><trkpt lat="45.8439771" lon="13.5729573"><ele>171.0</ele><time>2026-04-25T09:17:31.326Z</time></trkpt><trkpt lat="45.843942" lon="13.5730614"><ele>171.0</ele><time>2026-04-25T09:17:34.329Z</time></trkpt><trkpt lat="45.8439161" lon="13.5731642"><ele>171.0</ele><time>2026-04-25T09:17:37.338Z</time></trkpt><trkpt lat="45.843893" lon="13.5732631"><ele>171.14285714285714</ele><time>2026-04-25T09:17:40.329Z</time></trkpt><trkpt lat="45.843876" lon="13.5733595"><ele>171.28571428571428</ele><time>2026-04-25T09:17:43.327Z</time></trkpt><trkpt lat="45.8438517" lon="13.5734528"><ele>171.42857142857144</ele><time>2026-04-25T09:17:46.309Z</time></trkpt><trkpt lat="45.8438217" lon="13.5735463"><ele>171.57142857142856</ele><time>2026-04-25T09:17:49.331Z</time></trkpt><trkpt lat="45.8437977" lon="13.5736362"><ele>171.71428571428572</ele><time>2026-04-25T09:17:52.315Z</time></trkpt><trkpt lat="45.8437743" lon="13.5737328"><ele>171.85714285714286</ele><time>2026-04-25T09:17:55.326Z</time></trkpt><trkpt lat="45.8437626" lon="13.5738347"><ele>172.0</ele><time>2026-04-25T09:17:58.317Z</time></trkpt><trkpt lat="45.8437432" lon="13.5739303"><ele>172.2857142857143</ele><time>2026-04-25T09:18:01.314Z</time></trkpt><trkpt lat="45.843682" lon="13.5739939"><ele>172.57142857142858</ele><time>2026-04-25T09:18:04.334Z</time></trkpt><trkpt lat="45.8436203" lon="13.5740613"><ele>172.85714285714286</ele><time>2026-04-25T09:18:07.316Z</time></trkpt><trkpt lat="45.8435575" lon="13.5741107"><ele>173.14285714285717</ele><time>2026-04-25T09:18:10.337Z</time></trkpt><trkpt lat="45.8434972" lon="13.5741706"><ele>173.42857142857144</ele><time>2026-04-25T09:18:13.321Z</time></trkpt><trkpt lat="45.8434369" lon="13.5742192"><ele>173.71428571428572</ele><time>2026-04-25T09:18:16.314Z</time></trkpt><trkpt lat="45.8433818" lon="13.5742717"><ele>174.0</ele><time>2026-04-25T09:18:19.329Z</time></trkpt><trkpt lat="45.8433037" lon="13.5742182"><ele>174.42857142857142</ele><time>2026-04-25T09:18:23.317Z</time></trkpt><trkpt lat="45.8432791" lon="13.5741331"><ele>174.85714285714286</ele><time>2026-04-25T09:18:25.338Z</time></trkpt><trkpt lat="45.8432691" lon="13.5740229"><ele>175.28571428571428</ele><time>2026-04-25T09:18:27.324Z</time></trkpt><trkpt lat="45.8432674" lon="13.573907"><ele>175.71428571428572</ele><time>2026-04-25T09:18:29.323Z</time></trkpt><trkpt lat="45.8432342" lon="13.573815"><ele>176.14285714285714</ele><time>2026-04-25T09:18:31.323Z</time></trkpt><trkpt lat="45.8431807" lon="13.5737365"><ele>176.57142857142858</ele><time>2026-04-25T09:18:33.318Z</time></trkpt><trkpt lat="45.8431345" lon="13.5736643"><ele>177.0</ele><time>2026-04-25T09:18:35.329Z</time></trkpt><trkpt lat="45.843078" lon="13.5736011"><ele>177.0</ele><time>2026-04-25T09:18:38.319Z</time></trkpt><trkpt lat="45.8430254" lon="13.5735272"><ele>177.0</ele><time>2026-04-25T09:18:41.329Z</time></trkpt><trkpt lat="45.8429755" lon="13.5734487"><ele>177.0</ele><time>2026-04-25T09:18:44.331Z</time></trkpt><trkpt lat="45.8429279" lon="13.5733704"><ele>177.0</ele><time>2026-04-25T09:18:47.319Z</time></trkpt><trkpt lat="45.8428792" lon="13.5732995"><ele>177.0</ele><time>2026-04-25T09:18:50.332Z</time></trkpt><trkpt lat="45.8428236" lon="13.5732421"><ele>177.0</ele><time>2026-04-25T09:18:53.324Z</time></trkpt><trkpt lat="45.8427558" lon="13.5731984"><ele>177.0</ele><time>2026-04-25T09:18:56.315Z</time></trkpt><trkpt lat="45.8426921" lon="13.5731502"><ele>177.0</ele><time>2026-04-25T09:18:59.326Z</time></trkpt><trkpt lat="45.8426362" lon="13.5730862"><ele>177.0</ele><time>2026-04-25T09:19:02.319Z</time></trkpt><trkpt lat="45.8425927" lon="13.5730097"><ele>177.0</ele><time>2026-04-25T09:19:05.329Z</time></trkpt><trkpt lat="45.8425554" lon="13.5729352"><ele>177.0</ele><time>2026-04-25T09:19:08.317Z</time></trkpt><trkpt lat="45.8425264" lon="13.5728389"><ele>177.0</ele><time>2026-04-25T09:19:11.328Z</time></trkpt><trkpt lat="45.8424878" lon="13.5727466"><ele>177.0</ele><time>2026-04-25T09:19:14.331Z</time></trkpt><trkpt lat="45.8424449" lon="13.5726794"><ele>177.0</ele><time>2026-04-25T09:19:17.334Z</time></trkpt><trkpt lat="45.8424121" lon="13.5725821"><ele>178.14285714285714</ele><time>2026-04-25T09:19:20.331Z</time></trkpt><trkpt lat="45.8423876" lon="13.5724852"><ele>179.28571428571428</ele><time>2026-04-25T09:19:23.317Z</time></trkpt><trkpt lat="45.8423435" lon="13.5723934"><ele>180.42857142857142</ele><time>2026-04-25T09:19:26.323Z</time></trkpt><trkpt lat="45.842279" lon="13.572339"><ele>181.57142857142856</ele><time>2026-04-25T09:19:29.316Z</time></trkpt><trkpt lat="45.8422063" lon="13.5723354"><ele>182.71428571428572</ele><time>2026-04-25T09:19:32.321Z</time></trkpt><trkpt lat="45.8421404" lon="13.572376"><ele>183.85714285714283</ele><time>2026-04-25T09:19:35.327Z</time></trkpt><trkpt lat="45.8420692" lon="13.5724113"><ele>185.0</ele><time>2026-04-25T09:19:38.32Z</time></trkpt><trkpt lat="45.8419952" lon="13.5724209"><ele>185.0</ele><time>2026-04-25T09:19:41.311Z</time></trkpt><trkpt lat="45.8419178" lon="13.5724256"><ele>185.0</ele><time>2026-04-25T09:19:44.309Z</time></trkpt><trkpt lat="45.8418309" lon="13.5724236"><ele>185.0</ele><time>2026-04-25T09:19:47.326Z</time></trkpt><trkpt lat="45.8417494" lon="13.5724285"><ele>185.0</ele><time>2026-04-25T09:19:50.328Z</time></trkpt><trkpt lat="45.8416777" lon="13.5724349"><ele>185.0</ele><time>2026-04-25T09:19:53.335Z</time></trkpt><trkpt lat="45.8416071" lon="13.5724337"><ele>185.0</ele><time>2026-04-25T09:19:55.325Z</time></trkpt><trkpt lat="45.841543" lon="13.5724355"><ele>186.0</ele><time>2026-04-25T09:19:57.324Z</time></trkpt><trkpt lat="45.8414739" lon="13.5724323"><ele>187.0</ele><time>2026-04-25T09:19:59.32Z</time></trkpt><trkpt lat="45.8413861" lon="13.5724621"><ele>188.0</ele><time>2026-04-25T09:20:02.332Z</time></trkpt><trkpt lat="45.8413074" lon="13.5725196"><ele>189.0</ele><time>2026-04-25T09:20:05.334Z</time></trkpt><trkpt lat="45.8412302" lon="13.5725677"><ele>190.0</ele><time>2026-04-25T09:20:08.314Z</time></trkpt><trkpt lat="45.8411539" lon="13.5726161"><ele>191.0</ele><time>2026-04-25T09:20:11.318Z</time></trkpt><trkpt lat="45.8410935" lon="13.5726549"><ele>191.0</ele><time>2026-04-25T09:20:13.338Z</time></trkpt><trkpt lat="45.8410131" lon="13.5727161"><ele>191.0</ele><time>2026-04-25T09:20:16.315Z</time></trkpt><trkpt lat="45.8409301" lon="13.5727739"><ele>191.0</ele><time>2026-04-25T09:20:19.309Z</time></trkpt><trkpt lat="45.8408638" lon="13.5728559"><ele>191.0</ele><time>2026-04-25T09:20:22.314Z</time></trkpt><trkpt lat="45.8408287" lon="13.5729672"><ele>191.0</ele><time>2026-04-25T09:20:25.332Z</time></trkpt><trkpt lat="45.840815" lon="13.5730855"><ele>191.0</ele><time>2026-04-25T09:20:28.316Z</time></trkpt><trkpt lat="45.8408063" lon="13.5732111"><ele>192.33333333333331</ele><time>2026-04-25T09:20:31.323Z</time></trkpt><trkpt lat="45.8407985" lon="13.5733331"><ele>193.66666666666666</ele><time>2026-04-25T09:20:34.304Z</time></trkpt><trkpt lat="45.8407777" lon="13.573456"><ele>195.0</ele><time>2026-04-25T09:20:37.332Z</time></trkpt><trkpt lat="45.84074" lon="13.5735707"><ele>196.33333333333331</ele><time>2026-04-25T09:20:40.324Z</time></trkpt><trkpt lat="45.8406965" lon="13.5736926"><ele>197.66666666666666</ele><time>2026-04-25T09:20:43.33Z</time></trkpt><trkpt lat="45.8406582" lon="13.5738119"><ele>199.0</ele><time>2026-04-25T09:20:46.325Z</time></trkpt><trkpt lat="45.8406242" lon="13.5739233"><ele>199.49999999999997</ele><time>2026-04-25T09:20:49.308Z</time></trkpt><trkpt lat="45.8406065" lon="13.5740325"><ele>200.0</ele><time>2026-04-25T09:20:52.318Z</time></trkpt><trkpt lat="45.840605" lon="13.5741524"><ele>200.5</ele><time>2026-04-25T09:20:55.322Z</time></trkpt><trkpt lat="45.840581" lon="13.5742476"><ele>201.0</ele><time>2026-04-25T09:20:58.324Z</time></trkpt><trkpt lat="45.8405035" lon="13.574221"><ele>201.49999999999997</ele><time>2026-04-25T09:21:01.327Z</time></trkpt><trkpt lat="45.8404308" lon="13.5741655"><ele>202.0</ele><time>2026-04-25T09:21:03.322Z</time></trkpt><trkpt lat="45.8403387" lon="13.5741508"><ele>202.0</ele><time>2026-04-25T09:21:05.307Z</time></trkpt><trkpt lat="45.8402393" lon="13.5741527"><ele>202.0</ele><time>2026-04-25T09:21:07.321Z</time></trkpt><trkpt lat="45.8401467" lon="13.5741455"><ele>202.0</ele><time>2026-04-25T09:21:09.323Z</time></trkpt><trkpt lat="45.8400523" lon="13.5741454"><ele>202.0</ele><time>2026-04-25T09:21:11.32Z</time></trkpt><trkpt lat="45.8399547" lon="13.5741415"><ele>202.0</ele><time>2026-04-25T09:21:13.32Z</time></trkpt><trkpt lat="45.8398513" lon="13.5741312"><ele>200.83333333333331</ele><time>2026-04-25T09:21:15.324Z</time></trkpt><trkpt lat="45.8397586" lon="13.5741034"><ele>199.66666666666666</ele><time>2026-04-25T09:21:17.324Z</time></trkpt><trkpt lat="45.8396654" lon="13.5740875"><ele>198.5</ele><time>2026-04-25T09:21:19.326Z</time></trkpt><trkpt lat="45.839591" lon="13.5740752"><ele>197.33333333333331</ele><time>2026-04-25T09:21:21.32Z</time></trkpt><trkpt lat="45.8395529" lon="13.5741511"><ele>196.16666666666666</ele><time>2026-04-25T09:21:24.318Z</time></trkpt><trkpt lat="45.8395754" lon="13.5742479"><ele>195.0</ele><time>2026-04-25T09:21:26.321Z</time></trkpt><trkpt lat="45.8395935" lon="13.5743379"><ele>195.0</ele><time>2026-04-25T09:21:28.316Z</time></trkpt><trkpt lat="45.8396134" lon="13.5744487"><ele>195.0</ele><time>2026-04-25T09:21:31.324Z</time></trkpt><trkpt lat="45.839634" lon="13.5745607"><ele>195.0</ele><time>2026-04-25T09:21:34.317Z</time></trkpt><trkpt lat="45.8396717" lon="13.5746749"><ele>195.0</ele><time>2026-04-25T09:21:37.319Z</time></trkpt><trkpt lat="45.8396932" lon="13.5747971"><ele>195.0</ele><time>2026-04-25T09:21:40.318Z</time></trkpt><trkpt lat="45.839709" lon="13.5749212"><ele>195.0</ele><time>2026-04-25T09:21:43.324Z</time></trkpt><trkpt lat="45.8397247" lon="13.5750442"><ele>195.33333333333334</ele><time>2026-04-25T09:21:46.323Z</time></trkpt><trkpt lat="45.8397667" lon="13.5751606"><ele>195.66666666666669</ele><time>2026-04-25T09:21:49.314Z</time></trkpt><trkpt lat="45.8398036" lon="13.5752739"><ele>196.0</ele><time>2026-04-25T09:21:52.322Z</time></trkpt><trkpt lat="45.8398551" lon="13.5753663"><ele>196.33333333333334</ele><time>2026-04-25T09:21:55.321Z</time></trkpt><trkpt lat="45.8398886" lon="13.5754755"><ele>196.66666666666669</ele><time>2026-04-25T09:21:58.323Z</time></trkpt><trkpt lat="45.8398989" lon="13.5755973"><ele>197.0</ele><time>2026-04-25T09:22:01.319Z</time></trkpt><trkpt lat="45.8398843" lon="13.5756924"><ele>197.00000000000003</ele><time>2026-04-25T09:22:03.324Z</time></trkpt><trkpt lat="45.8398667" lon="13.5757845"><ele>197.0</ele><time>2026-04-25T09:22:05.316Z</time></trkpt><trkpt lat="45.8398558" lon="13.5758807"><ele>197.0</ele><time>2026-04-25T09:22:07.33Z</time></trkpt><trkpt lat="45.8398417" lon="13.5760171"><ele>197.0</ele><time>2026-04-25T09:22:10.314Z</time></trkpt><trkpt lat="45.8398435" lon="13.5761133"><ele>197.00000000000003</ele><time>2026-04-25T09:22:12.316Z</time></trkpt><trkpt lat="45.8398595" lon="13.5762024"><ele>197.0</ele><time>2026-04-25T09:22:14.326Z</time></trkpt><trkpt lat="45.8398792" lon="13.576329"><ele>196.85714285714286</ele><time>2026-04-25T09:22:17.319Z</time></trkpt><trkpt lat="45.8398738" lon="13.5764192"><ele>196.71428571428572</ele><time>2026-04-25T09:22:19.313Z</time></trkpt><trkpt lat="45.8398748" lon="13.5765505"><ele>196.57142857142856</ele><time>2026-04-25T09:22:22.322Z</time></trkpt><trkpt lat="45.839879" lon="13.576646"><ele>196.42857142857144</ele><time>2026-04-25T09:22:24.325Z</time></trkpt><trkpt lat="45.8398784" lon="13.5767381"><ele>196.28571428571428</ele><time>2026-04-25T09:22:26.315Z</time></trkpt><trkpt lat="45.8398769" lon="13.5768334"><ele>196.14285714285714</ele><time>2026-04-25T09:22:28.315Z</time></trkpt><trkpt lat="45.8398823" lon="13.576963"><ele>196.0</ele><time>2026-04-25T09:22:31.318Z</time></trkpt><trkpt lat="45.8398915" lon="13.5770846"><ele>196.28571428571428</ele><time>2026-04-25T09:22:34.322Z</time></trkpt><trkpt lat="45.8398561" lon="13.577206"><ele>196.57142857142856</ele><time>2026-04-25T09:22:37.322Z</time></trkpt><trkpt lat="45.8398268" lon="13.5772881"><ele>196.85714285714286</ele><time>2026-04-25T09:22:39.332Z</time></trkpt><trkpt lat="45.8397817" lon="13.5773522"><ele>197.14285714285714</ele><time>2026-04-25T09:22:41.314Z</time></trkpt><trkpt lat="45.839739" lon="13.577423"><ele>197.42857142857142</ele><time>2026-04-25T09:22:43.32Z</time></trkpt><trkpt lat="45.8397049" lon="13.5775059"><ele>197.71428571428572</ele><time>2026-04-25T09:22:45.32Z</time></trkpt><trkpt lat="45.8396296" lon="13.5775511"><ele>198.0</ele><time>2026-04-25T09:22:48.322Z</time></trkpt><trkpt lat="45.8395625" lon="13.5775084"><ele>198.0</ele><time>2026-04-25T09:22:50.323Z</time></trkpt><trkpt lat="45.8394963" lon="13.5774594"><ele>198.0</ele><time>2026-04-25T09:22:52.313Z</time></trkpt><trkpt lat="45.8394318" lon="13.5774022"><ele>198.0</ele><time>2026-04-25T09:22:54.318Z</time></trkpt><trkpt lat="45.8393615" lon="13.5773207"><ele>198.0</ele><time>2026-04-25T09:22:56.323Z</time></trkpt><trkpt lat="45.8393043" lon="13.5772425"><ele>198.0</ele><time>2026-04-25T09:22:58.325Z</time></trkpt><trkpt lat="45.8392394" lon="13.5771781"><ele>198.0</ele><time>2026-04-25T09:23:00.321Z</time></trkpt><trkpt lat="45.839178" lon="13.5771137"><ele>197.83333333333334</ele><time>2026-04-25T09:23:02.32Z</time></trkpt><trkpt lat="45.8391217" lon="13.5770457"><ele>197.66666666666669</ele><time>2026-04-25T09:23:04.321Z</time></trkpt><trkpt lat="45.8390652" lon="13.5769696"><ele>197.5</ele><time>2026-04-25T09:23:06.323Z</time></trkpt><trkpt lat="45.8390055" lon="13.5768983"><ele>197.33333333333334</ele><time>2026-04-25T09:23:08.314Z</time></trkpt><trkpt lat="45.8389307" lon="13.5768498"><ele>197.16666666666669</ele><time>2026-04-25T09:23:10.321Z</time></trkpt><trkpt lat="45.8388471" lon="13.5768074"><ele>197.0</ele><time>2026-04-25T09:23:12.323Z</time></trkpt><trkpt lat="45.83876" lon="13.5767673"><ele>196.6</ele><time>2026-04-25T09:23:14.311Z</time></trkpt><trkpt lat="45.8386729" lon="13.576719"><ele>196.2</ele><time>2026-04-25T09:23:16.322Z</time></trkpt><trkpt lat="45.8385902" lon="13.5766743"><ele>195.8</ele><time>2026-04-25T09:23:18.327Z</time></trkpt><trkpt lat="45.8384962" lon="13.5766309"><ele>195.4</ele><time>2026-04-25T09:23:20.322Z</time></trkpt><trkpt lat="45.8384026" lon="13.5765952"><ele>195.0</ele><time>2026-04-25T09:23:22.311Z</time></trkpt><trkpt lat="45.8383205" lon="13.576564"><ele>194.66666666666666</ele><time>2026-04-25T09:23:24.313Z</time></trkpt><trkpt lat="45.8382398" lon="13.5765197"><ele>194.33333333333331</ele><time>2026-04-25T09:23:26.313Z</time></trkpt><trkpt lat="45.8381646" lon="13.5764707"><ele>194.0</ele><time>2026-04-25T09:23:28.328Z</time></trkpt><trkpt lat="45.8380948" lon="13.5764144"><ele>193.66666666666666</ele><time>2026-04-25T09:23:30.327Z</time></trkpt><trkpt lat="45.8380149" lon="13.5763449"><ele>193.33333333333331</ele><time>2026-04-25T09:23:32.316Z</time></trkpt><trkpt lat="45.8379437" lon="13.5762739"><ele>193.0</ele><time>2026-04-25T09:23:34.337Z</time></trkpt><trkpt lat="45.8378673" lon="13.5761664"><ele>192.49999999999997</ele><time>2026-04-25T09:23:36.321Z</time></trkpt><trkpt lat="45.837799" lon="13.5760776"><ele>192.0</ele><time>2026-04-25T09:23:38.326Z</time></trkpt><trkpt lat="45.8377308" lon="13.5759997"><ele>191.5</ele><time>2026-04-25T09:23:40.318Z</time></trkpt><trkpt lat="45.8376656" lon="13.5759328"><ele>191.0</ele><time>2026-04-25T09:23:42.328Z</time></trkpt><trkpt lat="45.8375939" lon="13.5758852"><ele>190.5</ele><time>2026-04-25T09:23:44.331Z</time></trkpt><trkpt lat="45.8375271" lon="13.5757881"><ele>190.0</ele><time>2026-04-25T09:23:47.321Z</time></trkpt><trkpt lat="45.8374854" lon="13.5756812"><ele>190.0</ele><time>2026-04-25T09:23:49.332Z</time></trkpt><trkpt lat="45.8374459" lon="13.575577"><ele>190.0</ele><time>2026-04-25T09:23:51.328Z</time></trkpt><trkpt lat="45.8373846" lon="13.5755269"><ele>190.0</ele><time>2026-04-25T09:23:54.321Z</time></trkpt><trkpt lat="45.8373755" lon="13.5756561"><ele>190.0</ele><time>2026-04-25T09:23:57.317Z</time></trkpt><trkpt lat="45.8373793" lon="13.5757565"><ele>190.0</ele><time>2026-04-25T09:23:59.323Z</time></trkpt><trkpt lat="45.8373837" lon="13.5758582"><ele>190.0</ele><time>2026-04-25T09:24:01.315Z</time></trkpt><trkpt lat="45.8373802" lon="13.5759563"><ele>190.0</ele><time>2026-04-25T09:24:03.315Z</time></trkpt><trkpt lat="45.8373822" lon="13.5760726"><ele>190.0</ele><time>2026-04-25T09:24:06.319Z</time></trkpt><trkpt lat="45.8373848" lon="13.5761771"><ele>190.0</ele><time>2026-04-25T09:26:35.333Z</time></trkpt><trkpt lat="45.8373839" lon="13.5762859"><ele>190.0</ele><time>2026-04-25T09:26:38.322Z</time></trkpt><trkpt lat="45.8373832" lon="13.5763957"><ele>190.0</ele><time>2026-04-25T09:26:40.308Z</time></trkpt><trkpt lat="45.8373728" lon="13.5765018"><ele>190.0</ele><time>2026-04-25T09:26:42.318Z</time></trkpt><trkpt lat="45.8373624" lon="13.5765981"><ele>190.0</ele><time>2026-04-25T09:26:44.319Z</time></trkpt><trkpt lat="45.8373552" lon="13.5766968"><ele>190.42857142857144</ele><time>2026-04-25T09:26:46.344Z</time></trkpt><trkpt lat="45.8373512" lon="13.5767981"><ele>190.85714285714286</ele><time>2026-04-25T09:26:48.316Z</time></trkpt><trkpt lat="45.8373453" lon="13.5768988"><ele>191.28571428571428</ele><time>2026-04-25T09:26:50.316Z</time></trkpt><trkpt lat="45.8373325" lon="13.5769973"><ele>191.71428571428572</ele><time>2026-04-25T09:26:52.321Z</time></trkpt><trkpt lat="45.8373234" lon="13.5770909"><ele>192.14285714285714</ele><time>2026-04-25T09:26:54.308Z</time></trkpt><trkpt lat="45.8373086" lon="13.5771849"><ele>192.57142857142858</ele><time>2026-04-25T09:26:56.308Z</time></trkpt><trkpt lat="45.8372843" lon="13.5772817"><ele>193.0</ele><time>2026-04-25T09:26:58.315Z</time></trkpt><trkpt lat="45.8372615" lon="13.5773766"><ele>193.33333333333331</ele><time>2026-04-25T09:27:00.323Z</time></trkpt><trkpt lat="45.8372365" lon="13.5774781"><ele>193.66666666666666</ele><time>2026-04-25T09:27:02.323Z</time></trkpt><trkpt lat="45.8372202" lon="13.5775868"><ele>194.0</ele><time>2026-04-25T09:27:04.32Z</time></trkpt><trkpt lat="45.8372011" lon="13.577697"><ele>194.33333333333331</ele><time>2026-04-25T09:27:06.321Z</time></trkpt><trkpt lat="45.8371709" lon="13.5778039"><ele>194.66666666666666</ele><time>2026-04-25T09:27:08.321Z</time></trkpt><trkpt lat="45.8371366" lon="13.5779072"><ele>195.0</ele><time>2026-04-25T09:27:10.328Z</time></trkpt><trkpt lat="45.8371049" lon="13.5780034"><ele>195.14285714285714</ele><time>2026-04-25T09:27:12.308Z</time></trkpt><trkpt lat="45.8370722" lon="13.5781021"><ele>195.28571428571428</ele><time>2026-04-25T09:27:14.321Z</time></trkpt><trkpt lat="45.8370476" lon="13.5782055"><ele>195.42857142857144</ele><time>2026-04-25T09:27:16.318Z</time></trkpt><trkpt lat="45.8370292" lon="13.5783069"><ele>195.57142857142856</ele><time>2026-04-25T09:27:18.321Z</time></trkpt><trkpt lat="45.8370164" lon="13.5784065"><ele>195.71428571428572</ele><time>2026-04-25T09:27:20.323Z</time></trkpt><trkpt lat="45.8370039" lon="13.5785116"><ele>195.85714285714286</ele><time>2026-04-25T09:27:22.329Z</time></trkpt><trkpt lat="45.8369963" lon="13.5786179"><ele>196.0</ele><time>2026-04-25T09:27:24.325Z</time></trkpt><trkpt lat="45.8369916" lon="13.5787182"><ele>196.42857142857142</ele><time>2026-04-25T09:27:26.307Z</time></trkpt><trkpt lat="45.8369881" lon="13.5788191"><ele>196.85714285714286</ele><time>2026-04-25T09:27:28.315Z</time></trkpt><trkpt lat="45.8369853" lon="13.5789261"><ele>197.28571428571428</ele><time>2026-04-25T09:27:30.321Z</time></trkpt><trkpt lat="45.836984" lon="13.5790293"><ele>197.71428571428572</ele><time>2026-04-25T09:27:32.319Z</time></trkpt><trkpt lat="45.8369794" lon="13.5791328"><ele>198.14285714285714</ele><time>2026-04-25T09:27:34.329Z</time></trkpt><trkpt lat="45.8369504" lon="13.5792248"><ele>198.57142857142856</ele><time>2026-04-25T09:27:36.33Z</time></trkpt><trkpt lat="45.8369141" lon="13.5793173"><ele>199.0</ele><time>2026-04-25T09:27:38.317Z</time></trkpt><trkpt lat="45.8368891" lon="13.5794253"><ele>199.49999999999997</ele><time>2026-04-25T09:27:40.322Z</time></trkpt><trkpt lat="45.8368745" lon="13.5795305"><ele>200.0</ele><time>2026-04-25T09:27:42.315Z</time></trkpt><trkpt lat="45.836863" lon="13.579641"><ele>200.5</ele><time>2026-04-25T09:27:44.321Z</time></trkpt><trkpt lat="45.8368518" lon="13.5797459"><ele>201.0</ele><time>2026-04-25T09:27:46.315Z</time></trkpt><trkpt lat="45.836841" lon="13.5798551"><ele>201.49999999999997</ele><time>2026-04-25T09:27:48.315Z</time></trkpt><trkpt lat="45.836827" lon="13.5799638"><ele>202.0</ele><time>2026-04-25T09:27:50.307Z</time></trkpt><trkpt lat="45.8368167" lon="13.5800626"><ele>201.99999999999997</ele><time>2026-04-25T09:27:52.315Z</time></trkpt><trkpt lat="45.8367973" lon="13.5802008"><ele>202.0</ele><time>2026-04-25T09:27:55.329Z</time></trkpt><trkpt lat="45.8367841" lon="13.5803037"><ele>202.0</ele><time>2026-04-25T09:27:57.322Z</time></trkpt><trkpt lat="45.8367568" lon="13.5804124"><ele>202.0</ele><time>2026-04-25T09:28:00.327Z</time></trkpt><trkpt lat="45.8367227" lon="13.5805382"><ele>201.99999999999997</ele><time>2026-04-25T09:28:03.316Z</time></trkpt><trkpt lat="45.8366893" lon="13.5806614"><ele>202.0</ele><time>2026-04-25T09:28:06.328Z</time></trkpt><trkpt lat="45.8366151" lon="13.580699"><ele>201.99999999999997</ele><time>2026-04-25T09:28:08.316Z</time></trkpt><trkpt lat="45.8365267" lon="13.5806848"><ele>202.0</ele><time>2026-04-25T09:28:10.319Z</time></trkpt><trkpt lat="45.8364423" lon="13.5806626"><ele>202.0</ele><time>2026-04-25T09:28:12.318Z</time></trkpt><trkpt lat="45.8363593" lon="13.5806275"><ele>202.0</ele><time>2026-04-25T09:28:14.328Z</time></trkpt><trkpt lat="45.8362726" lon="13.5805953"><ele>201.99999999999997</ele><time>2026-04-25T09:28:16.322Z</time></trkpt><trkpt lat="45.836184" lon="13.5805575"><ele>202.0</ele><time>2026-04-25T09:28:18.315Z</time></trkpt><trkpt lat="45.8361004" lon="13.5805113"><ele>202.0</ele><time>2026-04-25T09:28:20.329Z</time></trkpt><trkpt lat="45.8360174" lon="13.5804549"><ele>202.0</ele><time>2026-04-25T09:28:22.32Z</time></trkpt><trkpt lat="45.8359283" lon="13.580413"><ele>202.0</ele><time>2026-04-25T09:28:24.324Z</time></trkpt><trkpt lat="45.8358374" lon="13.5803698"><ele>202.0</ele><time>2026-04-25T09:28:26.32Z</time></trkpt><trkpt lat="45.8357485" lon="13.5803175"><ele>202.0</ele><time>2026-04-25T09:28:28.332Z</time></trkpt><trkpt lat="45.8356587" lon="13.580267"><ele>200.8</ele><time>2026-04-25T09:28:30.32Z</time></trkpt><trkpt lat="45.8355712" lon="13.5802092"><ele>199.6</ele><time>2026-04-25T09:28:32.312Z</time></trkpt><trkpt lat="45.8354846" lon="13.5801564"><ele>198.4</ele><time>2026-04-25T09:28:34.318Z</time></trkpt><trkpt lat="45.8353963" lon="13.5801044"><ele>197.20000000000002</ele><time>2026-04-25T09:28:36.315Z</time></trkpt><trkpt lat="45.8353117" lon="13.5800583"><ele>196.0</ele><time>2026-04-25T09:28:38.306Z</time></trkpt><trkpt lat="45.8352223" lon="13.5800063"><ele>195.60000000000002</ele><time>2026-04-25T09:28:40.317Z</time></trkpt><trkpt lat="45.8351294" lon="13.5799692"><ele>195.2</ele><time>2026-04-25T09:28:42.311Z</time></trkpt><trkpt lat="45.8350401" lon="13.5799253"><ele>194.8</ele><time>2026-04-25T09:28:44.315Z</time></trkpt><trkpt lat="45.8349511" lon="13.5798698"><ele>194.39999999999998</ele><time>2026-04-25T09:28:46.321Z</time></trkpt><trkpt lat="45.8348616" lon="13.5798157"><ele>194.0</ele><time>2026-04-25T09:28:48.328Z</time></trkpt><trkpt lat="45.8347724" lon="13.5797735"><ele>194.00000000000003</ele><time>2026-04-25T09:28:50.333Z</time></trkpt><trkpt lat="45.8346835" lon="13.5797458"><ele>194.0</ele><time>2026-04-25T09:28:52.321Z</time></trkpt><trkpt lat="45.8345964" lon="13.5797252"><ele>194.0</ele><time>2026-04-25T09:28:54.316Z</time></trkpt><trkpt lat="45.8345106" lon="13.5797088"><ele>194.0</ele><time>2026-04-25T09:28:56.319Z</time></trkpt><trkpt lat="45.8344202" lon="13.5797075"><ele>194.00000000000003</ele><time>2026-04-25T09:28:58.32Z</time></trkpt><trkpt lat="45.8343305" lon="13.5797009"><ele>194.0</ele><time>2026-04-25T09:29:00.313Z</time></trkpt><trkpt lat="45.8342359" lon="13.579701"><ele>193.39999999999998</ele><time>2026-04-25T09:29:02.332Z</time></trkpt><trkpt lat="45.8341394" lon="13.5797341"><ele>192.8</ele><time>2026-04-25T09:29:04.313Z</time></trkpt><trkpt lat="45.8340464" lon="13.5797742"><ele>192.2</ele><time>2026-04-25T09:29:06.329Z</time></trkpt><trkpt lat="45.8339527" lon="13.5798172"><ele>191.60000000000002</ele><time>2026-04-25T09:29:08.318Z</time></trkpt><trkpt lat="45.8338626" lon="13.5798615"><ele>191.0</ele><time>2026-04-25T09:29:10.319Z</time></trkpt><trkpt lat="45.8337726" lon="13.5799169"><ele>191.0</ele><time>2026-04-25T09:29:12.33Z</time></trkpt><trkpt lat="45.8336829" lon="13.5799679"><ele>191.0</ele><time>2026-04-25T09:29:14.324Z</time></trkpt><trkpt lat="45.8335887" lon="13.5800231"><ele>191.0</ele><time>2026-04-25T09:29:16.353Z</time></trkpt><trkpt lat="45.8334973" lon="13.5800837"><ele>191.0</ele><time>2026-04-25T09:29:18.307Z</time></trkpt><trkpt lat="45.833405" lon="13.5801488"><ele>191.0</ele><time>2026-04-25T09:29:20.321Z</time></trkpt><trkpt lat="45.8333076" lon="13.5802022"><ele>190.60000000000002</ele><time>2026-04-25T09:29:22.311Z</time></trkpt><trkpt lat="45.8332077" lon="13.5802559"><ele>190.2</ele><time>2026-04-25T09:29:24.317Z</time></trkpt><trkpt lat="45.833111" lon="13.5803105"><ele>189.8</ele><time>2026-04-25T09:29:26.312Z</time></trkpt><trkpt lat="45.833013" lon="13.580366"><ele>189.39999999999998</ele><time>2026-04-25T09:29:28.318Z</time></trkpt><trkpt lat="45.8329173" lon="13.5804309"><ele>189.0</ele><time>2026-04-25T09:29:30.333Z</time></trkpt><trkpt lat="45.8328249" lon="13.5804958"><ele>188.5</ele><time>2026-04-25T09:29:32.328Z</time></trkpt><trkpt lat="45.8327265" lon="13.5805458"><ele>188.0</ele><time>2026-04-25T09:29:34.326Z</time></trkpt><trkpt lat="45.832623" lon="13.5806017"><ele>187.5</ele><time>2026-04-25T09:29:36.347Z</time></trkpt><trkpt lat="45.8325159" lon="13.5806633"><ele>187.0</ele><time>2026-04-25T09:29:38.323Z</time></trkpt><trkpt lat="45.8323999" lon="13.5807227"><ele>186.83333333333334</ele><time>2026-04-25T09:29:40.321Z</time></trkpt><trkpt lat="45.8323397" lon="13.5807515"><ele>186.66666666666669</ele><time>2026-04-25T09:29:41.328Z</time></trkpt><trkpt lat="45.8322203" lon="13.5808087"><ele>186.5</ele><time>2026-04-25T09:29:43.313Z</time></trkpt><trkpt lat="45.8321584" lon="13.580838"><ele>186.33333333333334</ele><time>2026-04-25T09:29:44.312Z</time></trkpt><trkpt lat="45.8320969" lon="13.5808651"><ele>186.16666666666666</ele><time>2026-04-25T09:29:45.323Z</time></trkpt><trkpt lat="45.832032" lon="13.5808865"><ele>186.0</ele><time>2026-04-25T09:29:46.356Z</time></trkpt><trkpt lat="45.8319704" lon="13.5809152"><ele>186.00000000000003</ele><time>2026-04-25T09:29:47.314Z</time></trkpt><trkpt lat="45.8319127" lon="13.5809516"><ele>186.0</ele><time>2026-04-25T09:29:48.322Z</time></trkpt><trkpt lat="45.8318569" lon="13.5809972"><ele>186.0</ele><time>2026-04-25T09:29:49.324Z</time></trkpt><trkpt lat="45.8317989" lon="13.5810398"><ele>186.0</ele><time>2026-04-25T09:29:50.323Z</time></trkpt><trkpt lat="45.8317397" lon="13.5810752"><ele>186.0</ele><time>2026-04-25T09:29:51.335Z</time></trkpt><trkpt lat="45.8316787" lon="13.581111"><ele>186.00000000000003</ele><time>2026-04-25T09:29:52.323Z</time></trkpt><trkpt lat="45.831622" lon="13.5811607"><ele>186.0</ele><time>2026-04-25T09:29:53.332Z</time></trkpt><trkpt lat="45.8315618" lon="13.5812053"><ele>185.42857142857144</ele><time>2026-04-25T09:29:54.322Z</time></trkpt><trkpt lat="45.8315012" lon="13.5812483"><ele>184.85714285714286</ele><time>2026-04-25T09:29:55.323Z</time></trkpt><trkpt lat="45.8314426" lon="13.5812967"><ele>184.28571428571428</ele><time>2026-04-25T09:29:56.325Z</time></trkpt><trkpt lat="45.8313861" lon="13.5813496"><ele>183.71428571428572</ele><time>2026-04-25T09:29:57.344Z</time></trkpt><trkpt lat="45.8313278" lon="13.5813999"><ele>183.14285714285714</ele><time>2026-04-25T09:29:58.32Z</time></trkpt><trkpt lat="45.8312664" lon="13.5814415"><ele>182.57142857142858</ele><time>2026-04-25T09:29:59.332Z</time></trkpt><trkpt lat="45.8312066" lon="13.5814767"><ele>182.0</ele><time>2026-04-25T09:30:00.32Z</time></trkpt><trkpt lat="45.831096" lon="13.5815546"><ele>182.0</ele><time>2026-04-25T09:30:02.318Z</time></trkpt><trkpt lat="45.8310351" lon="13.5815775"><ele>182.0</ele><time>2026-04-25T09:30:03.331Z</time></trkpt><trkpt lat="45.8309721" lon="13.5815839"><ele>182.0</ele><time>2026-04-25T09:30:04.325Z</time></trkpt><trkpt lat="45.83086" lon="13.5816282"><ele>182.0</ele><time>2026-04-25T09:30:06.321Z</time></trkpt><trkpt lat="45.8307425" lon="13.581626"><ele>182.0</ele><time>2026-04-25T09:30:08.341Z</time></trkpt><trkpt lat="45.8306213" lon="13.58165"><ele>180.75</ele><time>2026-04-25T09:30:10.315Z</time></trkpt><trkpt lat="45.8305016" lon="13.5817064"><ele>179.5</ele><time>2026-04-25T09:30:12.324Z</time></trkpt><trkpt lat="45.8303873" lon="13.5817674"><ele>178.25</ele><time>2026-04-25T09:30:14.33Z</time></trkpt><trkpt lat="45.8302885" lon="13.5818681"><ele>177.0</ele><time>2026-04-25T09:30:16.339Z</time></trkpt><trkpt lat="45.8301928" lon="13.5819837"><ele>176.25</ele><time>2026-04-25T09:30:18.335Z</time></trkpt><trkpt lat="45.8300813" lon="13.5820653"><ele>175.5</ele><time>2026-04-25T09:30:20.316Z</time></trkpt><trkpt lat="45.8299619" lon="13.5821106"><ele>174.75</ele><time>2026-04-25T09:30:22.319Z</time></trkpt><trkpt lat="45.8298627" lon="13.5821696"><ele>174.0</ele><time>2026-04-25T09:30:24.33Z</time></trkpt><trkpt lat="45.8297681" lon="13.5821739"><ele>174.0</ele><time>2026-04-25T09:30:26.323Z</time></trkpt><trkpt lat="45.8296661" lon="13.5821883"><ele>174.0</ele><time>2026-04-25T09:30:28.321Z</time></trkpt><trkpt lat="45.8295707" lon="13.5822502"><ele>174.0</ele><time>2026-04-25T09:30:30.32Z</time></trkpt><trkpt lat="45.8294877" lon="13.5822882"><ele>174.0</ele><time>2026-04-25T09:30:32.33Z</time></trkpt><trkpt lat="45.8294006" lon="13.5823171"><ele>174.0</ele><time>2026-04-25T09:30:34.346Z</time></trkpt><trkpt lat="45.8293181" lon="13.5823504"><ele>173.0</ele><time>2026-04-25T09:30:36.326Z</time></trkpt><trkpt lat="45.82923" lon="13.5823863"><ele>172.0</ele><time>2026-04-25T09:30:38.321Z</time></trkpt><trkpt lat="45.8291234" lon="13.5824204"><ele>171.0</ele><time>2026-04-25T09:30:40.324Z</time></trkpt><trkpt lat="45.8290612" lon="13.5824356"><ele>170.0</ele><time>2026-04-25T09:30:41.328Z</time></trkpt><trkpt lat="45.8289526" lon="13.582431"><ele>169.0</ele><time>2026-04-25T09:30:43.341Z</time></trkpt><trkpt lat="45.8288455" lon="13.5824071"><ele>169.0</ele><time>2026-04-25T09:30:45.325Z</time></trkpt><trkpt lat="45.8287852" lon="13.582366"><ele>169.0</ele><time>2026-04-25T09:30:46.33Z</time></trkpt><trkpt lat="45.8286994" lon="13.5822583"><ele>169.0</ele><time>2026-04-25T09:30:48.326Z</time></trkpt><trkpt lat="45.8286869" lon="13.5821261"><ele>169.0</ele><time>2026-04-25T09:30:50.345Z</time></trkpt><trkpt lat="45.8287246" lon="13.5819961"><ele>169.0</ele><time>2026-04-25T09:30:52.331Z</time></trkpt><trkpt lat="45.8287744" lon="13.5818904"><ele>167.16666666666669</ele><time>2026-04-25T09:30:54.313Z</time></trkpt><trkpt lat="45.8288533" lon="13.5818154"><ele>165.33333333333334</ele><time>2026-04-25T09:30:56.323Z</time></trkpt><trkpt lat="45.8289067" lon="13.5816961"><ele>163.5</ele><time>2026-04-25T09:30:58.317Z</time></trkpt><trkpt lat="45.8289272" lon="13.5815834"><ele>161.66666666666666</ele><time>2026-04-25T09:31:00.323Z</time></trkpt><trkpt lat="45.8289694" lon="13.5815044"><ele>159.83333333333331</ele><time>2026-04-25T09:31:02.32Z</time></trkpt><trkpt lat="45.8290402" lon="13.581425"><ele>158.0</ele><time>2026-04-25T09:31:04.318Z</time></trkpt><trkpt lat="45.8291253" lon="13.5813394"><ele>158.0</ele><time>2026-04-25T09:31:06.32Z</time></trkpt><trkpt lat="45.8292094" lon="13.5812363"><ele>158.0</ele><time>2026-04-25T09:31:08.321Z</time></trkpt><trkpt lat="45.8292799" lon="13.5811022"><ele>158.0</ele><time>2026-04-25T09:31:10.316Z</time></trkpt><trkpt lat="45.8292688" lon="13.5809478"><ele>158.0</ele><time>2026-04-25T09:31:12.346Z</time></trkpt><trkpt lat="45.8292113" lon="13.5808489"><ele>158.0</ele><time>2026-04-25T09:31:14.318Z</time></trkpt><trkpt lat="45.8291036" lon="13.5808173"><ele>156.33333333333331</ele><time>2026-04-25T09:31:16.322Z</time></trkpt><trkpt lat="45.8290353" lon="13.5807895"><ele>154.66666666666666</ele><time>2026-04-25T09:31:17.322Z</time></trkpt><trkpt lat="45.8289672" lon="13.58076"><ele>153.0</ele><time>2026-04-25T09:31:18.328Z</time></trkpt><trkpt lat="45.8289077" lon="13.5807299"><ele>151.33333333333334</ele><time>2026-04-25T09:31:19.325Z</time></trkpt><trkpt lat="45.8287967" lon="13.5806699"><ele>149.66666666666669</ele><time>2026-04-25T09:31:21.319Z</time></trkpt><trkpt lat="45.8286914" lon="13.5806168"><ele>148.0</ele><time>2026-04-25T09:31:23.329Z</time></trkpt><trkpt lat="45.8285968" lon="13.5805655"><ele>148.0</ele><time>2026-04-25T09:31:25.329Z</time></trkpt><trkpt lat="45.8285108" lon="13.580503"><ele>148.0</ele><time>2026-04-25T09:31:27.327Z</time></trkpt><trkpt lat="45.8284438" lon="13.5804226"><ele>148.0</ele><time>2026-04-25T09:31:29.319Z</time></trkpt><trkpt lat="45.828399" lon="13.5803418"><ele>148.0</ele><time>2026-04-25T09:31:31.322Z</time></trkpt><trkpt lat="45.828371" lon="13.5802221"><ele>148.0</ele><time>2026-04-25T09:31:33.326Z</time></trkpt><trkpt lat="45.8283574" lon="13.5800849"><ele>148.0</ele><time>2026-04-25T09:31:35.324Z</time></trkpt><trkpt lat="45.8283455" lon="13.5799451"><ele>143.20000000000002</ele><time>2026-04-25T09:31:37.327Z</time></trkpt><trkpt lat="45.8283368" lon="13.57981"><ele>138.4</ele><time>2026-04-25T09:31:39.316Z</time></trkpt><trkpt lat="45.8283256" lon="13.5796859"><ele>133.60000000000002</ele><time>2026-04-25T09:31:41.311Z</time></trkpt><trkpt lat="45.8283227" lon="13.5795587"><ele>128.8</ele><time>2026-04-25T09:31:43.319Z</time></trkpt><trkpt lat="45.8283244" lon="13.5794141"><ele>124.0</ele><time>2026-04-25T09:31:45.322Z</time></trkpt><trkpt lat="45.828331" lon="13.5792957"><ele>122.50000000000001</ele><time>2026-04-25T09:31:47.335Z</time></trkpt><trkpt lat="45.8283427" lon="13.5791928"><ele>121.0</ele><time>2026-04-25T09:31:49.328Z</time></trkpt><trkpt lat="45.8283456" lon="13.5790958"><ele>119.5</ele><time>2026-04-25T09:31:51.323Z</time></trkpt><trkpt lat="45.8283154" lon="13.579014"><ele>118.0</ele><time>2026-04-25T09:31:55.339Z</time></trkpt><trkpt lat="45.8282439" lon="13.579066"><ele>116.50000000000001</ele><time>2026-04-25T09:31:58.318Z</time></trkpt><trkpt lat="45.8281724" lon="13.5791368"><ele>115.0</ele><time>2026-04-25T09:32:01.339Z</time></trkpt><trkpt lat="45.828107" lon="13.5792126"><ele>115.00000000000001</ele><time>2026-04-25T09:32:04.332Z</time></trkpt><trkpt lat="45.8280461" lon="13.5792933"><ele>115.0</ele><time>2026-04-25T09:32:07.32Z</time></trkpt><trkpt lat="45.8280072" lon="13.5793647"><ele>115.0</ele><time>2026-04-25T09:32:09.324Z</time></trkpt><trkpt lat="45.8279528" lon="13.5794554"><ele>115.0</ele><time>2026-04-25T09:32:12.317Z</time></trkpt><trkpt lat="45.8278987" lon="13.5795258"><ele>115.00000000000001</ele><time>2026-04-25T09:32:15.327Z</time></trkpt><trkpt lat="45.8278433" lon="13.5796234"><ele>115.0</ele><time>2026-04-25T09:32:18.32Z</time></trkpt><trkpt lat="45.8277771" lon="13.5796995"><ele>116.50000000000001</ele><time>2026-04-25T09:32:21.326Z</time></trkpt><trkpt lat="45.8277265" lon="13.5797781"><ele>118.0</ele><time>2026-04-25T09:32:24.346Z</time></trkpt><trkpt lat="45.8276725" lon="13.5798345"><ele>119.5</ele><time>2026-04-25T09:32:26.327Z</time></trkpt><trkpt lat="45.8276028" lon="13.579906"><ele>121.0</ele><time>2026-04-25T09:32:29.323Z</time></trkpt><trkpt lat="45.8275465" lon="13.5800061"><ele>122.50000000000001</ele><time>2026-04-25T09:32:32.326Z</time></trkpt><trkpt lat="45.8274965" lon="13.5800816"><ele>124.0</ele><time>2026-04-25T09:32:34.319Z</time></trkpt><trkpt lat="45.82743" lon="13.5801373"><ele>118.16666666666667</ele><time>2026-04-25T09:32:36.312Z</time></trkpt><trkpt lat="45.8273493" lon="13.5801908"><ele>112.33333333333334</ele><time>2026-04-25T09:32:39.325Z</time></trkpt><trkpt lat="45.8272727" lon="13.5802241"><ele>106.5</ele><time>2026-04-25T09:32:42.313Z</time></trkpt><trkpt lat="45.8271953" lon="13.5802611"><ele>100.66666666666667</ele><time>2026-04-25T09:32:45.317Z</time></trkpt><trkpt lat="45.8271129" lon="13.5802632"><ele>94.83333333333334</ele><time>2026-04-25T09:32:48.332Z</time></trkpt><trkpt lat="45.8270244" lon="13.5802486"><ele>89.0</ele><time>2026-04-25T09:32:51.325Z</time></trkpt><trkpt lat="45.8269434" lon="13.5802437"><ele>89.0</ele><time>2026-04-25T09:32:54.326Z</time></trkpt><trkpt lat="45.8268573" lon="13.5802498"><ele>89.0</ele><time>2026-04-25T09:32:57.32Z</time></trkpt><trkpt lat="45.8267738" lon="13.580246"><ele>89.0</ele><time>2026-04-25T09:33:00.333Z</time></trkpt><trkpt lat="45.8266923" lon="13.5802462"><ele>89.0</ele><time>2026-04-25T09:33:03.319Z</time></trkpt><trkpt lat="45.8266195" lon="13.5802506"><ele>89.0</ele><time>2026-04-25T09:33:06.325Z</time></trkpt><trkpt lat="45.8265141" lon="13.5802604"><ele>89.0</ele><time>2026-04-25T09:33:09.322Z</time></trkpt><trkpt lat="45.8264503" lon="13.5802782"><ele>87.28571428571428</ele><time>2026-04-25T09:33:11.324Z</time></trkpt><trkpt lat="45.8263862" lon="13.5803288"><ele>85.57142857142857</ele><time>2026-04-25T09:33:13.31Z</time></trkpt><trkpt lat="45.826329" lon="13.5803909"><ele>83.85714285714286</ele><time>2026-04-25T09:33:15.346Z</time></trkpt><trkpt lat="45.8262761" lon="13.5804534"><ele>82.14285714285714</ele><time>2026-04-25T09:33:17.318Z</time></trkpt><trkpt lat="45.8262156" lon="13.5805057"><ele>80.42857142857143</ele><time>2026-04-25T09:33:20.34Z</time></trkpt><trkpt lat="45.82616" lon="13.5805512"><ele>78.71428571428571</ele><time>2026-04-25T09:33:23.326Z</time></trkpt><trkpt lat="45.8261072" lon="13.5806021"><ele>77.0</ele><time>2026-04-25T09:33:26.322Z</time></trkpt><trkpt lat="45.8260366" lon="13.5806754"><ele>77.0</ele><time>2026-04-25T09:33:29.333Z</time></trkpt><trkpt lat="45.8259789" lon="13.580728"><ele>77.0</ele><time>2026-04-25T09:33:31.328Z</time></trkpt><trkpt lat="45.825906" lon="13.5807986"><ele>77.0</ele><time>2026-04-25T09:33:34.328Z</time></trkpt><trkpt lat="45.825842" lon="13.580844"><ele>77.0</ele><time>2026-04-25T09:33:36.319Z</time></trkpt><trkpt lat="45.8257853" lon="13.5808846"><ele>77.0</ele><time>2026-04-25T09:33:38.32Z</time></trkpt><trkpt lat="45.8257245" lon="13.5809202"><ele>77.0</ele><time>2026-04-25T09:33:40.321Z</time></trkpt><trkpt lat="45.825663" lon="13.5809505"><ele>77.0</ele><time>2026-04-25T09:33:42.334Z</time></trkpt><trkpt lat="45.8255971" lon="13.580987"><ele>75.85714285714286</ele><time>2026-04-25T09:33:44.328Z</time></trkpt><trkpt lat="45.8255212" lon="13.5810293"><ele>74.71428571428572</ele><time>2026-04-25T09:33:47.329Z</time></trkpt><trkpt lat="45.8254575" lon="13.5810504"><ele>73.57142857142857</ele><time>2026-04-25T09:33:50.318Z</time></trkpt><trkpt lat="45.8254119" lon="13.5811142"><ele>72.42857142857143</ele><time>2026-04-25T09:33:52.337Z</time></trkpt><trkpt lat="45.8253522" lon="13.5811859"><ele>71.28571428571429</ele><time>2026-04-25T09:33:54.333Z</time></trkpt><trkpt lat="45.8253015" lon="13.5812527"><ele>70.14285714285714</ele><time>2026-04-25T09:33:56.317Z</time></trkpt><trkpt lat="45.8252369" lon="13.5813307"><ele>69.0</ele><time>2026-04-25T09:33:59.314Z</time></trkpt><trkpt lat="45.8251553" lon="13.5813985"><ele>67.0</ele><time>2026-04-25T09:34:02.323Z</time></trkpt><trkpt lat="45.8250958" lon="13.581455"><ele>65.0</ele><time>2026-04-25T09:34:04.341Z</time></trkpt><trkpt lat="45.8250355" lon="13.5815129"><ele>63.0</ele><time>2026-04-25T09:34:06.318Z</time></trkpt><trkpt lat="45.8249711" lon="13.5815739"><ele>61.0</ele><time>2026-04-25T09:34:08.314Z</time></trkpt><trkpt lat="45.824897" lon="13.5816661"><ele>59.0</ele><time>2026-04-25T09:34:10.322Z</time></trkpt><trkpt lat="45.8248342" lon="13.5817556"><ele>57.0</ele><time>2026-04-25T09:34:12.313Z</time></trkpt><trkpt lat="45.8247775" lon="13.5818327"><ele>57.0</ele><time>2026-04-25T09:34:14.32Z</time></trkpt><trkpt lat="45.8247253" lon="13.5819031"><ele>56.99999999999999</ele><time>2026-04-25T09:34:16.332Z</time></trkpt><trkpt lat="45.8246744" lon="13.5819646"><ele>57.0</ele><time>2026-04-25T09:34:18.318Z</time></trkpt><trkpt lat="45.8246193" lon="13.5820201"><ele>57.0</ele><time>2026-04-25T09:34:20.322Z</time></trkpt><trkpt lat="45.8245657" lon="13.5820768"><ele>56.99999999999999</ele><time>2026-04-25T09:34:22.326Z</time></trkpt><trkpt lat="45.8245034" lon="13.582155"><ele>57.0</ele><time>2026-04-25T09:34:24.323Z</time></trkpt><trkpt lat="45.8244347" lon="13.5822367"><ele>57.0</ele><time>2026-04-25T09:34:26.33Z</time></trkpt><trkpt lat="45.8243707" lon="13.5822968"><ele>56.833333333333336</ele><time>2026-04-25T09:34:28.33Z</time></trkpt><trkpt lat="45.8243067" lon="13.582349"><ele>56.66666666666667</ele><time>2026-04-25T09:34:30.325Z</time></trkpt><trkpt lat="45.8242353" lon="13.5824273"><ele>56.5</ele><time>2026-04-25T09:34:32.33Z</time></trkpt><trkpt lat="45.8241739" lon="13.5824953"><ele>56.333333333333336</ele><time>2026-04-25T09:34:34.344Z</time></trkpt><trkpt lat="45.824112" lon="13.5825686"><ele>56.16666666666667</ele><time>2026-04-25T09:34:36.323Z</time></trkpt><trkpt lat="45.8240459" lon="13.582627"><ele>56.0</ele><time>2026-04-25T09:34:38.326Z</time></trkpt><trkpt lat="45.8239832" lon="13.5826882"><ele>56.00000000000001</ele><time>2026-04-25T09:34:40.318Z</time></trkpt><trkpt lat="45.8239229" lon="13.5827526"><ele>56.0</ele><time>2026-04-25T09:34:42.32Z</time></trkpt><trkpt lat="45.823865" lon="13.5828129"><ele>56.0</ele><time>2026-04-25T09:34:44.323Z</time></trkpt><trkpt lat="45.8238005" lon="13.5828664"><ele>56.0</ele><time>2026-04-25T09:34:46.328Z</time></trkpt><trkpt lat="45.8237176" lon="13.5828987"><ele>56.00000000000001</ele><time>2026-04-25T09:34:48.316Z</time></trkpt><trkpt lat="45.823629" lon="13.5829094"><ele>56.0</ele><time>2026-04-25T09:34:50.325Z</time></trkpt><trkpt lat="45.8235516" lon="13.5828494"><ele>56.0</ele><time>2026-04-25T09:34:52.339Z</time></trkpt><trkpt lat="45.8235238" lon="13.582727"><ele>55.99999999999999</ele><time>2026-04-25T09:34:54.316Z</time></trkpt><trkpt lat="45.8235312" lon="13.5825724"><ele>55.99999999999999</ele><time>2026-04-25T09:34:56.323Z</time></trkpt><trkpt lat="45.8235526" lon="13.5824007"><ele>56.0</ele><time>2026-04-25T09:34:58.316Z</time></trkpt><trkpt lat="45.8235674" lon="13.582306"><ele>56.0</ele><time>2026-04-25T09:34:59.313Z</time></trkpt><trkpt lat="45.8235836" lon="13.5822057"><ele>56.00000000000001</ele><time>2026-04-25T09:35:00.319Z</time></trkpt><trkpt lat="45.8236004" lon="13.5821047"><ele>56.0</ele><time>2026-04-25T09:35:01.316Z</time></trkpt><trkpt lat="45.8236159" lon="13.5819961"><ele>56.0</ele><time>2026-04-25T09:35:02.329Z</time></trkpt><trkpt lat="45.8236288" lon="13.5818898"><ele>56.0</ele><time>2026-04-25T09:35:03.331Z</time></trkpt><trkpt lat="45.8236387" lon="13.5817835"><ele>56.00000000000001</ele><time>2026-04-25T09:35:04.324Z</time></trkpt><trkpt lat="45.823648" lon="13.5816756"><ele>56.0</ele><time>2026-04-25T09:35:05.32Z</time></trkpt><trkpt lat="45.8236581" lon="13.5815678"><ele>54.833333333333336</ele><time>2026-04-25T09:35:06.325Z</time></trkpt><trkpt lat="45.8236699" lon="13.581458"><ele>53.66666666666667</ele><time>2026-04-25T09:35:07.323Z</time></trkpt><trkpt lat="45.8236805" lon="13.5813474"><ele>52.5</ele><time>2026-04-25T09:35:08.319Z</time></trkpt><trkpt lat="45.8236902" lon="13.5812353"><ele>51.33333333333333</ele><time>2026-04-25T09:35:09.324Z</time></trkpt><trkpt lat="45.8237007" lon="13.5811218"><ele>50.166666666666664</ele><time>2026-04-25T09:35:10.317Z</time></trkpt><trkpt lat="45.8237116" lon="13.5810071"><ele>49.0</ele><time>2026-04-25T09:35:11.323Z</time></trkpt><trkpt lat="45.8237238" lon="13.5808897"><ele>48.166666666666664</ele><time>2026-04-25T09:35:12.311Z</time></trkpt><trkpt lat="45.8237362" lon="13.5807712"><ele>47.33333333333333</ele><time>2026-04-25T09:35:13.33Z</time></trkpt><trkpt lat="45.8237504" lon="13.5806529"><ele>46.5</ele><time>2026-04-25T09:35:14.322Z</time></trkpt><trkpt lat="45.8237641" lon="13.5805352"><ele>45.666666666666664</ele><time>2026-04-25T09:35:15.321Z</time></trkpt><trkpt lat="45.8237578" lon="13.5804158"><ele>44.83333333333333</ele><time>2026-04-25T09:35:16.33Z</time></trkpt><trkpt lat="45.8237437" lon="13.5802948"><ele>44.0</ele><time>2026-04-25T09:35:17.321Z</time></trkpt><trkpt lat="45.823731" lon="13.5801736"><ele>43.666666666666664</ele><time>2026-04-25T09:35:18.317Z</time></trkpt><trkpt lat="45.8237234" lon="13.5800507"><ele>43.33333333333333</ele><time>2026-04-25T09:35:19.313Z</time></trkpt><trkpt lat="45.823721" lon="13.5799275"><ele>43.0</ele><time>2026-04-25T09:35:20.332Z</time></trkpt><trkpt lat="45.823727" lon="13.579803"><ele>42.666666666666664</ele><time>2026-04-25T09:35:21.339Z</time></trkpt><trkpt lat="45.8237477" lon="13.579679"><ele>42.333333333333336</ele><time>2026-04-25T09:35:22.323Z</time></trkpt><trkpt lat="45.823788" lon="13.5795652"><ele>42.0</ele><time>2026-04-25T09:35:23.329Z</time></trkpt><trkpt lat="45.8238438" lon="13.579466"><ele>42.0</ele><time>2026-04-25T09:35:24.321Z</time></trkpt><trkpt lat="45.8239079" lon="13.5793818"><ele>42.0</ele><time>2026-04-25T09:35:25.33Z</time></trkpt><trkpt lat="45.8239721" lon="13.579302"><ele>42.0</ele><time>2026-04-25T09:35:26.331Z</time></trkpt><trkpt lat="45.8240355" lon="13.579229"><ele>42.0</ele><time>2026-04-25T09:35:27.326Z</time></trkpt><trkpt lat="45.8240979" lon="13.5791605"><ele>42.0</ele><time>2026-04-25T09:35:28.339Z</time></trkpt><trkpt lat="45.8241593" lon="13.5790957"><ele>42.0</ele><time>2026-04-25T09:35:29.324Z</time></trkpt><trkpt lat="45.824216" lon="13.5790292"><ele>42.0</ele><time>2026-04-25T09:35:30.33Z</time></trkpt><trkpt lat="45.8242685" lon="13.578961"><ele>42.0</ele><time>2026-04-25T09:35:31.336Z</time></trkpt><trkpt lat="45.8243192" lon="13.5788967"><ele>42.0</ele><time>2026-04-25T09:35:32.323Z</time></trkpt><trkpt lat="45.8243659" lon="13.5788326"><ele>42.0</ele><time>2026-04-25T09:35:33.326Z</time></trkpt><trkpt lat="45.8244115" lon="13.5787698"><ele>42.0</ele><time>2026-04-25T09:35:34.327Z</time></trkpt><trkpt lat="45.8244942" lon="13.5786481"><ele>42.0</ele><time>2026-04-25T09:35:36.312Z</time></trkpt><trkpt lat="45.8245663" lon="13.5785437"><ele>42.666666666666664</ele><time>2026-04-25T09:35:38.312Z</time></trkpt><trkpt lat="45.8246173" lon="13.578433"><ele>43.333333333333336</ele><time>2026-04-25T09:35:40.323Z</time></trkpt><trkpt lat="45.8246515" lon="13.5783186"><ele>44.0</ele><time>2026-04-25T09:35:42.319Z</time></trkpt><trkpt lat="45.8246762" lon="13.5782137"><ele>44.66666666666667</ele><time>2026-04-25T09:35:44.317Z</time></trkpt><trkpt lat="45.8246918" lon="13.5781213"><ele>45.333333333333336</ele><time>2026-04-25T09:35:47.331Z</time></trkpt><trkpt lat="45.8247403" lon="13.5780054"><ele>46.0</ele><time>2026-04-25T09:35:51.344Z</time></trkpt><trkpt lat="45.8247722" lon="13.577904"><ele>44.8</ele><time>2026-04-25T09:35:53.328Z</time></trkpt><trkpt lat="45.8248" lon="13.5777714"><ele>43.599999999999994</ele><time>2026-04-25T09:35:55.323Z</time></trkpt><trkpt lat="45.8248385" lon="13.5776462"><ele>42.4</ele><time>2026-04-25T09:35:57.313Z</time></trkpt><trkpt lat="45.8248881" lon="13.5775248"><ele>41.2</ele><time>2026-04-25T09:35:59.317Z</time></trkpt><trkpt lat="45.8249457" lon="13.5774131"><ele>40.0</ele><time>2026-04-25T09:36:01.342Z</time></trkpt><trkpt lat="45.8250126" lon="13.5773173"><ele>40.0</ele><time>2026-04-25T09:36:03.342Z</time></trkpt><trkpt lat="45.8250747" lon="13.5772171"><ele>40.0</ele><time>2026-04-25T09:36:05.325Z</time></trkpt><trkpt lat="45.8251416" lon="13.5771125"><ele>40.0</ele><time>2026-04-25T09:36:07.333Z</time></trkpt><trkpt lat="45.8251849" lon="13.5769813"><ele>40.0</ele><time>2026-04-25T09:36:09.321Z</time></trkpt><trkpt lat="45.8251879" lon="13.5768286"><ele>40.0</ele><time>2026-04-25T09:36:11.317Z</time></trkpt><trkpt lat="45.8251695" lon="13.5766705"><ele>40.0</ele><time>2026-04-25T09:36:13.324Z</time></trkpt><trkpt lat="45.8251227" lon="13.5765161"><ele>40.0</ele><time>2026-04-25T09:36:15.313Z</time></trkpt><trkpt lat="45.8250708" lon="13.5763675"><ele>40.0</ele><time>2026-04-25T09:36:17.32Z</time></trkpt><trkpt lat="45.8250093" lon="13.5762068"><ele>40.0</ele><time>2026-04-25T09:36:19.325Z</time></trkpt><trkpt lat="45.8249786" lon="13.5761247"><ele>40.0</ele><time>2026-04-25T09:36:20.313Z</time></trkpt><trkpt lat="45.8249186" lon="13.5759683"><ele>39.4</ele><time>2026-04-25T09:36:22.321Z</time></trkpt><trkpt lat="45.8248407" lon="13.5758333"><ele>38.8</ele><time>2026-04-25T09:36:24.318Z</time></trkpt><trkpt lat="45.8247543" lon="13.575725"><ele>38.2</ele><time>2026-04-25T09:36:26.324Z</time></trkpt><trkpt lat="45.8246814" lon="13.57561"><ele>37.6</ele><time>2026-04-25T09:36:28.327Z</time></trkpt><trkpt lat="45.8246134" lon="13.5755207"><ele>37.0</ele><time>2026-04-25T09:36:30.313Z</time></trkpt><trkpt lat="45.8245705" lon="13.5754468"><ele>36.6</ele><time>2026-04-25T09:36:32.317Z</time></trkpt><trkpt lat="45.824579" lon="13.5753193"><ele>36.2</ele><time>2026-04-25T09:36:35.311Z</time></trkpt><trkpt lat="45.8246124" lon="13.5752104"><ele>35.8</ele><time>2026-04-25T09:36:37.33Z</time></trkpt><trkpt lat="45.82465" lon="13.5750796"><ele>35.4</ele><time>2026-04-25T09:36:39.317Z</time></trkpt><trkpt lat="45.8246891" lon="13.5749368"><ele>35.0</ele><time>2026-04-25T09:36:41.345Z</time></trkpt><trkpt lat="45.8247317" lon="13.5747872"><ele>35.0</ele><time>2026-04-25T09:36:43.329Z</time></trkpt><trkpt lat="45.8247748" lon="13.5746268"><ele>35.0</ele><time>2026-04-25T09:36:45.317Z</time></trkpt><trkpt lat="45.8248206" lon="13.5744591"><ele>35.0</ele><time>2026-04-25T09:36:47.308Z</time></trkpt><trkpt lat="45.8248445" lon="13.5743694"><ele>35.0</ele><time>2026-04-25T09:36:48.322Z</time></trkpt><trkpt lat="45.8248677" lon="13.5742775"><ele>35.0</ele><time>2026-04-25T09:36:49.333Z</time></trkpt><trkpt lat="45.8248863" lon="13.5741852"><ele>35.0</ele><time>2026-04-25T09:36:50.322Z</time></trkpt><trkpt lat="45.8249025" lon="13.5740926"><ele>34.8</ele><time>2026-04-25T09:36:51.319Z</time></trkpt><trkpt lat="45.8249191" lon="13.5739999"><ele>34.6</ele><time>2026-04-25T09:36:52.314Z</time></trkpt><trkpt lat="45.8249322" lon="13.5739064"><ele>34.4</ele><time>2026-04-25T09:36:53.322Z</time></trkpt><trkpt lat="45.8249557" lon="13.5737404"><ele>34.2</ele><time>2026-04-25T09:36:55.323Z</time></trkpt><trkpt lat="45.8249824" lon="13.5735657"><ele>34.0</ele><time>2026-04-25T09:36:57.343Z</time></trkpt><trkpt lat="45.8250164" lon="13.5733967"><ele>34.0</ele><time>2026-04-25T09:36:59.333Z</time></trkpt><trkpt lat="45.8250385" lon="13.5733091"><ele>34.0</ele><time>2026-04-25T09:37:00.324Z</time></trkpt><trkpt lat="45.8250631" lon="13.5732223"><ele>34.0</ele><time>2026-04-25T09:37:01.331Z</time></trkpt><trkpt lat="45.8250917" lon="13.5731371"><ele>34.0</ele><time>2026-04-25T09:37:02.331Z</time></trkpt><trkpt lat="45.8251199" lon="13.5730557"><ele>34.0</ele><time>2026-04-25T09:37:03.317Z</time></trkpt><trkpt lat="45.8251819" lon="13.5729024"><ele>34.0</ele><time>2026-04-25T09:37:05.325Z</time></trkpt><trkpt lat="45.8252421" lon="13.5727534"><ele>33.25</ele><time>2026-04-25T09:37:07.34Z</time></trkpt><trkpt lat="45.825303" lon="13.5726062"><ele>32.5</ele><time>2026-04-25T09:37:09.324Z</time></trkpt><trkpt lat="45.8253585" lon="13.5724594"><ele>31.75</ele><time>2026-04-25T09:37:11.342Z</time></trkpt><trkpt lat="45.8254112" lon="13.5723088"><ele>31.0</ele><time>2026-04-25T09:37:13.337Z</time></trkpt><trkpt lat="45.8254648" lon="13.5721495"><ele>31.0</ele><time>2026-04-25T09:37:15.316Z</time></trkpt><trkpt lat="45.8255006" lon="13.5720724"><ele>31.000000000000004</ele><time>2026-04-25T09:37:16.328Z</time></trkpt><trkpt lat="45.8255406" lon="13.5719956"><ele>31.0</ele><time>2026-04-25T09:37:17.32Z</time></trkpt><trkpt lat="45.8255847" lon="13.5719211"><ele>31.0</ele><time>2026-04-25T09:37:18.321Z</time></trkpt><trkpt lat="45.825634" lon="13.5718545"><ele>31.000000000000004</ele><time>2026-04-25T09:37:19.334Z</time></trkpt><trkpt lat="45.8256864" lon="13.5717873"><ele>31.0</ele><time>2026-04-25T09:37:20.322Z</time></trkpt><trkpt lat="45.8257435" lon="13.5717264"><ele>31.0</ele><time>2026-04-25T09:37:21.318Z</time></trkpt><trkpt lat="45.8258033" lon="13.5716681"><ele>30.714285714285715</ele><time>2026-04-25T09:37:22.321Z</time></trkpt><trkpt lat="45.8258622" lon="13.5716075"><ele>30.42857142857143</ele><time>2026-04-25T09:37:23.321Z</time></trkpt><trkpt lat="45.8259229" lon="13.5715476"><ele>30.142857142857146</ele><time>2026-04-25T09:37:24.313Z</time></trkpt><trkpt lat="45.8259834" lon="13.5714891"><ele>29.85714285714286</ele><time>2026-04-25T09:37:25.339Z</time></trkpt><trkpt lat="45.8260448" lon="13.5714326"><ele>29.571428571428573</ele><time>2026-04-25T09:37:26.323Z</time></trkpt><trkpt lat="45.8261055" lon="13.5713752"><ele>29.285714285714292</ele><time>2026-04-25T09:37:27.329Z</time></trkpt><trkpt lat="45.8261655" lon="13.5713163"><ele>29.000000000000004</ele><time>2026-04-25T09:37:28.331Z</time></trkpt><trkpt lat="45.8262245" lon="13.5712565"><ele>29.000000000000004</ele><time>2026-04-25T09:37:29.327Z</time></trkpt><trkpt lat="45.8262812" lon="13.5711921"><ele>29.0</ele><time>2026-04-25T09:37:30.325Z</time></trkpt><trkpt lat="45.8263347" lon="13.5711192"><ele>29.000000000000004</ele><time>2026-04-25T09:37:31.323Z</time></trkpt><trkpt lat="45.8263818" lon="13.5710385"><ele>29.000000000000004</ele><time>2026-04-25T09:37:32.325Z</time></trkpt><trkpt lat="45.8264259" lon="13.5709526"><ele>29.0</ele><time>2026-04-25T09:37:33.32Z</time></trkpt><trkpt lat="45.82647" lon="13.5708648"><ele>29.000000000000004</ele><time>2026-04-25T09:37:34.334Z</time></trkpt><trkpt lat="45.826514" lon="13.570772"><ele>29.000000000000004</ele><time>2026-04-25T09:37:35.319Z</time></trkpt><trkpt lat="45.8265567" lon="13.5706783"><ele>28.999999999999996</ele><time>2026-04-25T09:37:36.315Z</time></trkpt><trkpt lat="45.8265984" lon="13.5705822"><ele>29.0</ele><time>2026-04-25T09:37:37.315Z</time></trkpt><trkpt lat="45.8266407" lon="13.5704842"><ele>29.0</ele><time>2026-04-25T09:37:38.326Z</time></trkpt><trkpt lat="45.826684" lon="13.5703872"><ele>29.0</ele><time>2026-04-25T09:37:39.327Z</time></trkpt><trkpt lat="45.8267281" lon="13.5702909"><ele>28.999999999999996</ele><time>2026-04-25T09:37:40.332Z</time></trkpt><trkpt lat="45.8267722" lon="13.5701915"><ele>29.0</ele><time>2026-04-25T09:37:41.315Z</time></trkpt><trkpt lat="45.8268188" lon="13.5700892"><ele>27.4</ele><time>2026-04-25T09:37:42.324Z</time></trkpt><trkpt lat="45.8268674" lon="13.5699856"><ele>25.799999999999997</ele><time>2026-04-25T09:37:43.323Z</time></trkpt><trkpt lat="45.8269168" lon="13.569879"><ele>24.200000000000003</ele><time>2026-04-25T09:37:44.319Z</time></trkpt><trkpt lat="45.8269651" lon="13.5697668"><ele>22.6</ele><time>2026-04-25T09:37:45.33Z</time></trkpt><trkpt lat="45.8270144" lon="13.5696512"><ele>21.0</ele><time>2026-04-25T09:37:46.325Z</time></trkpt><trkpt lat="45.8270624" lon="13.5695324"><ele>20.2</ele><time>2026-04-25T09:37:47.33Z</time></trkpt><trkpt lat="45.8271074" lon="13.5694103"><ele>19.400000000000002</ele><time>2026-04-25T09:37:48.333Z</time></trkpt><trkpt lat="45.8271452" lon="13.5692835"><ele>18.6</ele><time>2026-04-25T09:37:49.337Z</time></trkpt><trkpt lat="45.8271814" lon="13.5691608"><ele>17.8</ele><time>2026-04-25T09:37:50.318Z</time></trkpt><trkpt lat="45.8272085" lon="13.5690358"><ele>17.0</ele><time>2026-04-25T09:37:51.317Z</time></trkpt><trkpt lat="45.827234" lon="13.5689109"><ele>17.0</ele><time>2026-04-25T09:37:52.323Z</time></trkpt><trkpt lat="45.8272586" lon="13.5687844"><ele>17.0</ele><time>2026-04-25T09:37:53.312Z</time></trkpt><trkpt lat="45.8272826" lon="13.5686582"><ele>17.0</ele><time>2026-04-25T09:37:54.317Z</time></trkpt><trkpt lat="45.8273032" lon="13.568535"><ele>17.0</ele><time>2026-04-25T09:37:55.32Z</time></trkpt><trkpt lat="45.8273196" lon="13.5684111"><ele>17.0</ele><time>2026-04-25T09:37:56.318Z</time></trkpt><trkpt lat="45.8273306" lon="13.5682863"><ele>17.0</ele><time>2026-04-25T09:37:57.338Z</time></trkpt><trkpt lat="45.8273383" lon="13.5681604"><ele>17.0</ele><time>2026-04-25T09:37:58.316Z</time></trkpt><trkpt lat="45.82735" lon="13.5680366"><ele>17.0</ele><time>2026-04-25T09:37:59.326Z</time></trkpt><trkpt lat="45.8273637" lon="13.5679161"><ele>17.0</ele><time>2026-04-25T09:38:00.326Z</time></trkpt><trkpt lat="45.827376" lon="13.5677981"><ele>17.0</ele><time>2026-04-25T09:38:01.318Z</time></trkpt><trkpt lat="45.8273869" lon="13.5676806"><ele>17.0</ele><time>2026-04-25T09:38:02.328Z</time></trkpt><trkpt lat="45.8273961" lon="13.5675649"><ele>17.0</ele><time>2026-04-25T09:38:03.325Z</time></trkpt><trkpt lat="45.8273996" lon="13.5674485"><ele>16.833333333333336</ele><time>2026-04-25T09:38:04.319Z</time></trkpt><trkpt lat="45.8273969" lon="13.5673316"><ele>16.666666666666668</ele><time>2026-04-25T09:38:05.343Z</time></trkpt><trkpt lat="45.8273862" lon="13.5672161"><ele>16.5</ele><time>2026-04-25T09:38:06.318Z</time></trkpt><trkpt lat="45.8273669" lon="13.5671043"><ele>16.333333333333332</ele><time>2026-04-25T09:38:07.334Z</time></trkpt><trkpt lat="45.8273393" lon="13.5669988"><ele>16.166666666666664</ele><time>2026-04-25T09:38:08.328Z</time></trkpt><trkpt lat="45.8273046" lon="13.566901"><ele>16.0</ele><time>2026-04-25T09:38:09.336Z</time></trkpt><trkpt lat="45.8272623" lon="13.5668118"><ele>16.0</ele><time>2026-04-25T09:38:10.326Z</time></trkpt><trkpt lat="45.8272151" lon="13.5667311"><ele>15.999999999999998</ele><time>2026-04-25T09:38:11.327Z</time></trkpt><trkpt lat="45.8271655" lon="13.5666559"><ele>16.0</ele><time>2026-04-25T09:38:12.332Z</time></trkpt><trkpt lat="45.8271155" lon="13.5665838"><ele>16.0</ele><time>2026-04-25T09:38:13.328Z</time></trkpt><trkpt lat="45.827066" lon="13.5665146"><ele>15.999999999999998</ele><time>2026-04-25T09:38:14.318Z</time></trkpt><trkpt lat="45.8270156" lon="13.5664469"><ele>16.0</ele><time>2026-04-25T09:38:15.333Z</time></trkpt><trkpt lat="45.8269668" lon="13.5663802"><ele>16.0</ele><time>2026-04-25T09:38:16.325Z</time></trkpt><trkpt lat="45.8269207" lon="13.5663138"><ele>16.0</ele><time>2026-04-25T09:38:17.329Z</time></trkpt><trkpt lat="45.8268772" lon="13.5662472"><ele>16.0</ele><time>2026-04-25T09:38:18.333Z</time></trkpt><trkpt lat="45.8267946" lon="13.5661129"><ele>16.0</ele><time>2026-04-25T09:38:20.33Z</time></trkpt><trkpt lat="45.8267123" lon="13.5659725"><ele>16.0</ele><time>2026-04-25T09:38:22.315Z</time></trkpt><trkpt lat="45.826671" lon="13.5658978"><ele>16.0</ele><time>2026-04-25T09:38:23.325Z</time></trkpt><trkpt lat="45.826631" lon="13.5658178"><ele>16.428571428571427</ele><time>2026-04-25T09:38:24.318Z</time></trkpt><trkpt lat="45.8265894" lon="13.5657351"><ele>16.857142857142854</ele><time>2026-04-25T09:38:25.328Z</time></trkpt><trkpt lat="45.8265481" lon="13.5656496"><ele>17.285714285714285</ele><time>2026-04-25T09:38:26.323Z</time></trkpt><trkpt lat="45.8265076" lon="13.5655628"><ele>17.714285714285715</ele><time>2026-04-25T09:38:27.337Z</time></trkpt><trkpt lat="45.8264668" lon="13.5654738"><ele>18.142857142857146</ele><time>2026-04-25T09:38:28.328Z</time></trkpt><trkpt lat="45.8264248" lon="13.5653829"><ele>18.57142857142857</ele><time>2026-04-25T09:38:29.329Z</time></trkpt><trkpt lat="45.8263789" lon="13.5652919"><ele>19.0</ele><time>2026-04-25T09:38:30.32Z</time></trkpt><trkpt lat="45.8263308" lon="13.5652009"><ele>17.833333333333332</ele><time>2026-04-25T09:38:31.326Z</time></trkpt><trkpt lat="45.826286" lon="13.5651023"><ele>16.666666666666664</ele><time>2026-04-25T09:38:32.339Z</time></trkpt><trkpt lat="45.8262394" lon="13.5650027"><ele>15.5</ele><time>2026-04-25T09:38:33.326Z</time></trkpt><trkpt lat="45.8261894" lon="13.5649074"><ele>14.333333333333332</ele><time>2026-04-25T09:38:34.322Z</time></trkpt><trkpt lat="45.8261345" lon="13.5648086"><ele>13.166666666666666</ele><time>2026-04-25T09:38:35.334Z</time></trkpt><trkpt lat="45.8260697" lon="13.5647236"><ele>12.0</ele><time>2026-04-25T09:38:36.33Z</time></trkpt><trkpt lat="45.8260001" lon="13.5646452"><ele>12.5</ele><time>2026-04-25T09:38:37.324Z</time></trkpt><trkpt lat="45.8259297" lon="13.5645737"><ele>13.0</ele><time>2026-04-25T09:38:38.334Z</time></trkpt><trkpt lat="45.8258658" lon="13.5644906"><ele>13.5</ele><time>2026-04-25T09:38:39.323Z</time></trkpt><trkpt lat="45.8258178" lon="13.5643889"><ele>14.0</ele><time>2026-04-25T09:38:40.331Z</time></trkpt><trkpt lat="45.825798" lon="13.5642709"><ele>14.5</ele><time>2026-04-25T09:38:41.326Z</time></trkpt><trkpt lat="45.8258124" lon="13.5641509"><ele>15.0</ele><time>2026-04-25T09:38:42.32Z</time></trkpt><trkpt lat="45.8258545" lon="13.5640492"><ele>15.0</ele><time>2026-04-25T09:38:43.34Z</time></trkpt><trkpt lat="45.8259169" lon="13.5639761"><ele>15.0</ele><time>2026-04-25T09:38:44.321Z</time></trkpt><trkpt lat="45.8259863" lon="13.5639258"><ele>15.0</ele><time>2026-04-25T09:38:45.323Z</time></trkpt><trkpt lat="45.8260567" lon="13.5638846"><ele>15.0</ele><time>2026-04-25T09:38:46.322Z</time></trkpt><trkpt lat="45.8261231" lon="13.5638447"><ele>15.0</ele><time>2026-04-25T09:38:47.323Z</time></trkpt><trkpt lat="45.8261858" lon="13.5638054"><ele>15.0</ele><time>2026-04-25T09:38:48.319Z</time></trkpt><trkpt lat="45.8262492" lon="13.5637664"><ele>15.0</ele><time>2026-04-25T09:38:49.325Z</time></trkpt><trkpt lat="45.8263083" lon="13.5637304"><ele>15.75</ele><time>2026-04-25T09:38:50.32Z</time></trkpt><trkpt lat="45.8264239" lon="13.5636619"><ele>16.5</ele><time>2026-04-25T09:38:52.325Z</time></trkpt><trkpt lat="45.8265367" lon="13.5635971"><ele>17.25</ele><time>2026-04-25T09:38:54.325Z</time></trkpt><trkpt lat="45.8266502" lon="13.5635471"><ele>18.0</ele><time>2026-04-25T09:38:56.32Z</time></trkpt><trkpt lat="45.8267583" lon="13.5635025"><ele>17.4</ele><time>2026-04-25T09:38:58.325Z</time></trkpt><trkpt lat="45.8268673" lon="13.5634685"><ele>16.8</ele><time>2026-04-25T09:39:00.322Z</time></trkpt><trkpt lat="45.8269702" lon="13.5634338"><ele>16.2</ele><time>2026-04-25T09:39:02.332Z</time></trkpt><trkpt lat="45.8270655" lon="13.5633921"><ele>15.6</ele><time>2026-04-25T09:39:04.326Z</time></trkpt><trkpt lat="45.8271552" lon="13.5633349"><ele>15.0</ele><time>2026-04-25T09:39:06.317Z</time></trkpt><trkpt lat="45.8272446" lon="13.5632708"><ele>15.0</ele><time>2026-04-25T09:39:08.316Z</time></trkpt><trkpt lat="45.8273317" lon="13.5631987"><ele>15.0</ele><time>2026-04-25T09:39:10.337Z</time></trkpt><trkpt lat="45.8274204" lon="13.563125"><ele>15.0</ele><time>2026-04-25T09:39:12.318Z</time></trkpt><trkpt lat="45.8275064" lon="13.563055"><ele>15.0</ele><time>2026-04-25T09:39:14.317Z</time></trkpt><trkpt lat="45.8275897" lon="13.5629857"><ele>15.0</ele><time>2026-04-25T09:39:16.312Z</time></trkpt><trkpt lat="45.8276721" lon="13.5629107"><ele>15.4</ele><time>2026-04-25T09:39:18.332Z</time></trkpt><trkpt lat="45.8277552" lon="13.5628342"><ele>15.8</ele><time>2026-04-25T09:39:20.335Z</time></trkpt><trkpt lat="45.8278402" lon="13.5627579"><ele>16.2</ele><time>2026-04-25T09:39:22.316Z</time></trkpt><trkpt lat="45.8279229" lon="13.5626796"><ele>16.6</ele><time>2026-04-25T09:39:24.32Z</time></trkpt><trkpt lat="45.8280064" lon="13.5625956"><ele>17.0</ele><time>2026-04-25T09:39:26.338Z</time></trkpt><trkpt lat="45.8280906" lon="13.5624977"><ele>17.0</ele><time>2026-04-25T09:39:28.33Z</time></trkpt><trkpt lat="45.828175" lon="13.5623961"><ele>17.0</ele><time>2026-04-25T09:39:30.325Z</time></trkpt><trkpt lat="45.8282606" lon="13.562291"><ele>17.0</ele><time>2026-04-25T09:39:32.307Z</time></trkpt><trkpt lat="45.8283436" lon="13.5621805"><ele>17.0</ele><time>2026-04-25T09:39:34.328Z</time></trkpt><trkpt lat="45.8284253" lon="13.5620736"><ele>17.0</ele><time>2026-04-25T09:39:36.327Z</time></trkpt><trkpt lat="45.8285049" lon="13.561962"><ele>15.4</ele><time>2026-04-25T09:39:38.327Z</time></trkpt><trkpt lat="45.8285819" lon="13.5618506"><ele>13.799999999999999</ele><time>2026-04-25T09:39:40.335Z</time></trkpt><trkpt lat="45.8286587" lon="13.561738"><ele>12.2</ele><time>2026-04-25T09:39:42.313Z</time></trkpt><trkpt lat="45.828736" lon="13.5616255"><ele>10.6</ele><time>2026-04-25T09:39:44.319Z</time></trkpt><trkpt lat="45.8288075" lon="13.561508"><ele>9.0</ele><time>2026-04-25T09:39:46.323Z</time></trkpt><trkpt lat="45.8288769" lon="13.5613912"><ele>9.0</ele><time>2026-04-25T09:39:48.315Z</time></trkpt><trkpt lat="45.8289342" lon="13.5612664"><ele>9.0</ele><time>2026-04-25T09:39:50.334Z</time></trkpt><trkpt lat="45.8289858" lon="13.5611358"><ele>9.0</ele><time>2026-04-25T09:39:52.32Z</time></trkpt><trkpt lat="45.8290419" lon="13.5610067"><ele>9.0</ele><time>2026-04-25T09:39:54.329Z</time></trkpt><trkpt lat="45.8290922" lon="13.5608843"><ele>9.0</ele><time>2026-04-25T09:39:56.345Z</time></trkpt><trkpt lat="45.8291317" lon="13.5607794"><ele>9.857142857142858</ele><time>2026-04-25T09:39:58.33Z</time></trkpt><trkpt lat="45.8291678" lon="13.560688"><ele>10.714285714285715</ele><time>2026-04-25T09:40:00.344Z</time></trkpt><trkpt lat="45.8291941" lon="13.5605984"><ele>11.571428571428573</ele><time>2026-04-25T09:40:02.332Z</time></trkpt><trkpt lat="45.8292141" lon="13.5604992"><ele>12.428571428571429</ele><time>2026-04-25T09:40:04.338Z</time></trkpt><trkpt lat="45.8292319" lon="13.5603935"><ele>13.285714285714285</ele><time>2026-04-25T09:40:06.321Z</time></trkpt><trkpt lat="45.8292449" lon="13.5602869"><ele>14.142857142857144</ele><time>2026-04-25T09:40:08.344Z</time></trkpt><trkpt lat="45.8292501" lon="13.5601843"><ele>15.0</ele><time>2026-04-25T09:40:10.344Z</time></trkpt><trkpt lat="45.8292613" lon="13.5600821"><ele>16.285714285714285</ele><time>2026-04-25T09:40:12.339Z</time></trkpt><trkpt lat="45.8292701" lon="13.5599876"><ele>17.57142857142857</ele><time>2026-04-25T09:40:14.322Z</time></trkpt><trkpt lat="45.8292772" lon="13.5598851"><ele>18.857142857142854</ele><time>2026-04-25T09:40:16.329Z</time></trkpt><trkpt lat="45.8292873" lon="13.559778"><ele>20.142857142857142</ele><time>2026-04-25T09:40:18.321Z</time></trkpt><trkpt lat="45.8292922" lon="13.5596678"><ele>21.428571428571427</ele><time>2026-04-25T09:40:20.329Z</time></trkpt><trkpt lat="45.8292961" lon="13.5595615"><ele>22.71428571428571</ele><time>2026-04-25T09:40:22.327Z</time></trkpt><trkpt lat="45.829301" lon="13.5594567"><ele>24.0</ele><time>2026-04-25T09:40:24.332Z</time></trkpt><trkpt lat="45.8293045" lon="13.5593558"><ele>24.166666666666668</ele><time>2026-04-25T09:40:26.318Z</time></trkpt><trkpt lat="45.8293014" lon="13.5592514"><ele>24.333333333333336</ele><time>2026-04-25T09:40:28.318Z</time></trkpt><trkpt lat="45.8292975" lon="13.5591508"><ele>24.5</ele><time>2026-04-25T09:40:30.333Z</time></trkpt><trkpt lat="45.8292917" lon="13.5590564"><ele>24.666666666666668</ele><time>2026-04-25T09:40:32.328Z</time></trkpt><trkpt lat="45.8292792" lon="13.5589223"><ele>24.833333333333336</ele><time>2026-04-25T09:40:35.316Z</time></trkpt><trkpt lat="45.8292632" lon="13.5588192"><ele>25.0</ele><time>2026-04-25T09:40:37.322Z</time></trkpt><trkpt lat="45.8292388" lon="13.5586864"><ele>25.571428571428573</ele><time>2026-04-25T09:40:40.329Z</time></trkpt><trkpt lat="45.8292189" lon="13.5585901"><ele>26.142857142857146</ele><time>2026-04-25T09:40:42.327Z</time></trkpt><trkpt lat="45.8291951" lon="13.5584915"><ele>26.714285714285715</ele><time>2026-04-25T09:40:44.313Z</time></trkpt><trkpt lat="45.8291715" lon="13.5584004"><ele>27.28571428571429</ele><time>2026-04-25T09:40:46.311Z</time></trkpt><trkpt lat="45.8291484" lon="13.5583036"><ele>27.857142857142858</ele><time>2026-04-25T09:40:48.309Z</time></trkpt><trkpt lat="45.8291242" lon="13.5582072"><ele>28.428571428571434</ele><time>2026-04-25T09:40:50.339Z</time></trkpt><trkpt lat="45.8290975" lon="13.5581148"><ele>29.000000000000004</ele><time>2026-04-25T09:40:52.327Z</time></trkpt><trkpt lat="45.8290624" lon="13.5579963"><ele>29.000000000000004</ele><time>2026-04-25T09:40:55.318Z</time></trkpt><trkpt lat="45.8290282" lon="13.5578947"><ele>29.0</ele><time>2026-04-25T09:40:57.319Z</time></trkpt><trkpt lat="45.8289891" lon="13.5578077"><ele>29.000000000000004</ele><time>2026-04-25T09:40:59.347Z</time></trkpt><trkpt lat="45.8289386" lon="13.5577355"><ele>29.000000000000004</ele><time>2026-04-25T09:41:01.32Z</time></trkpt><trkpt lat="45.8288891" lon="13.5576651"><ele>29.0</ele><time>2026-04-25T09:41:03.321Z</time></trkpt><trkpt lat="45.828824" lon="13.5575731"><ele>29.000000000000004</ele><time>2026-04-25T09:41:06.331Z</time></trkpt><trkpt lat="45.8287597" lon="13.5575503"><ele>29.000000000000004</ele><time>2026-04-25T09:41:08.313Z</time></trkpt><trkpt lat="45.8286967" lon="13.5575649"><ele>29.142857142857146</ele><time>2026-04-25T09:41:10.315Z</time></trkpt><trkpt lat="45.8286308" lon="13.5575759"><ele>29.285714285714285</ele><time>2026-04-25T09:41:12.345Z</time></trkpt><trkpt lat="45.8285635" lon="13.557585"><ele>29.42857142857143</ele><time>2026-04-25T09:41:14.319Z</time></trkpt><trkpt lat="45.8284963" lon="13.5576037"><ele>29.571428571428573</ele><time>2026-04-25T09:41:16.324Z</time></trkpt><trkpt lat="45.8284305" lon="13.5576174"><ele>29.714285714285715</ele><time>2026-04-25T09:41:18.329Z</time></trkpt><trkpt lat="45.8283625" lon="13.5576287"><ele>29.857142857142858</ele><time>2026-04-25T09:41:20.317Z</time></trkpt><trkpt lat="45.8282923" lon="13.5576273"><ele>30.0</ele><time>2026-04-25T09:41:22.319Z</time></trkpt><trkpt lat="45.8282249" lon="13.5576211"><ele>31.42857142857143</ele><time>2026-04-25T09:41:24.321Z</time></trkpt><trkpt lat="45.8281563" lon="13.5576189"><ele>32.857142857142854</ele><time>2026-04-25T09:41:26.335Z</time></trkpt><trkpt lat="45.8280773" lon="13.5576257"><ele>34.285714285714285</ele><time>2026-04-25T09:41:28.322Z</time></trkpt><trkpt lat="45.8280061" lon="13.5576319"><ele>35.714285714285715</ele><time>2026-04-25T09:41:30.334Z</time></trkpt><trkpt lat="45.8279368" lon="13.5576341"><ele>37.142857142857146</ele><time>2026-04-25T09:41:32.329Z</time></trkpt><trkpt lat="45.8278664" lon="13.5576273"><ele>38.57142857142857</ele><time>2026-04-25T09:41:34.322Z</time></trkpt><trkpt lat="45.8277973" lon="13.5576053"><ele>40.0</ele><time>2026-04-25T09:41:36.321Z</time></trkpt><trkpt lat="45.8277338" lon="13.5575865"><ele>40.0</ele><time>2026-04-25T09:41:38.327Z</time></trkpt><trkpt lat="45.8276726" lon="13.557565"><ele>40.0</ele><time>2026-04-25T09:41:40.338Z</time></trkpt><trkpt lat="45.8275889" lon="13.5575175"><ele>40.0</ele><time>2026-04-25T09:41:43.315Z</time></trkpt><trkpt lat="45.827527" lon="13.5574846"><ele>40.0</ele><time>2026-04-25T09:41:45.32Z</time></trkpt><trkpt lat="45.8274428" lon="13.55747"><ele>40.0</ele><time>2026-04-25T09:41:48.331Z</time></trkpt><trkpt lat="45.8273773" lon="13.5574693"><ele>40.0</ele><time>2026-04-25T09:41:50.33Z</time></trkpt><trkpt lat="45.8273107" lon="13.5574706"><ele>40.0</ele><time>2026-04-25T09:41:52.321Z</time></trkpt><trkpt lat="45.8272294" lon="13.5574646"><ele>41.57142857142857</ele><time>2026-04-25T09:41:55.341Z</time></trkpt><trkpt lat="45.8271418" lon="13.5574448"><ele>43.142857142857146</ele><time>2026-04-25T09:41:58.319Z</time></trkpt><trkpt lat="45.8270691" lon="13.5574158"><ele>44.714285714285715</ele><time>2026-04-25T09:42:00.331Z</time></trkpt><trkpt lat="45.8269977" lon="13.5573872"><ele>46.285714285714285</ele><time>2026-04-25T09:42:02.336Z</time></trkpt><trkpt lat="45.826927" lon="13.5573717"><ele>47.85714285714286</ele><time>2026-04-25T09:42:04.331Z</time></trkpt><trkpt lat="45.8268623" lon="13.5573765"><ele>49.42857142857143</ele><time>2026-04-25T09:42:06.346Z</time></trkpt><trkpt lat="45.8267927" lon="13.5573788"><ele>51.0</ele><time>2026-04-25T09:42:08.323Z</time></trkpt><trkpt lat="45.8267252" lon="13.5573728"><ele>53.0</ele><time>2026-04-25T09:42:10.336Z</time></trkpt><trkpt lat="45.8266604" lon="13.5573453"><ele>55.0</ele><time>2026-04-25T09:42:12.332Z</time></trkpt><trkpt lat="45.8265966" lon="13.5572903"><ele>57.0</ele><time>2026-04-25T09:42:14.329Z</time></trkpt><trkpt lat="45.8265304" lon="13.5572345"><ele>59.0</ele><time>2026-04-25T09:42:16.33Z</time></trkpt><trkpt lat="45.8264599" lon="13.557204"><ele>61.0</ele><time>2026-04-25T09:42:18.326Z</time></trkpt><trkpt lat="45.8263891" lon="13.5571914"><ele>63.00000000000001</ele><time>2026-04-25T09:42:20.348Z</time></trkpt><trkpt lat="45.8263184" lon="13.5571906"><ele>65.0</ele><time>2026-04-25T09:42:22.324Z</time></trkpt><trkpt lat="45.8262492" lon="13.5571716"><ele>65.00000000000001</ele><time>2026-04-25T09:42:24.325Z</time></trkpt><trkpt lat="45.8261779" lon="13.5571473"><ele>65.0</ele><time>2026-04-25T09:42:26.34Z</time></trkpt><trkpt lat="45.8261106" lon="13.5571291"><ele>65.0</ele><time>2026-04-25T09:42:28.335Z</time></trkpt><trkpt lat="45.8260407" lon="13.5571132"><ele>65.0</ele><time>2026-04-25T09:42:30.313Z</time></trkpt><trkpt lat="45.8259752" lon="13.5571076"><ele>65.0</ele><time>2026-04-25T09:42:32.327Z</time></trkpt><trkpt lat="45.8258799" lon="13.5571106"><ele>65.00000000000001</ele><time>2026-04-25T09:42:35.325Z</time></trkpt><trkpt lat="45.8258146" lon="13.5571212"><ele>65.0</ele><time>2026-04-25T09:42:37.332Z</time></trkpt><trkpt lat="45.8257509" lon="13.5571339"><ele>66.83333333333334</ele><time>2026-04-25T09:42:39.331Z</time></trkpt><trkpt lat="45.8256845" lon="13.557131"><ele>68.66666666666667</ele><time>2026-04-25T09:42:41.318Z</time></trkpt><trkpt lat="45.8255951" lon="13.557121"><ele>70.5</ele><time>2026-04-25T09:42:44.325Z</time></trkpt><trkpt lat="45.8255057" lon="13.557117"><ele>72.33333333333333</ele><time>2026-04-25T09:42:47.318Z</time></trkpt><trkpt lat="45.8254118" lon="13.5571145"><ele>74.16666666666666</ele><time>2026-04-25T09:42:50.312Z</time></trkpt><trkpt lat="45.8253245" lon="13.5571405"><ele>76.0</ele><time>2026-04-25T09:42:53.316Z</time></trkpt><trkpt lat="45.8252737" lon="13.5572532"><ele>76.0</ele><time>2026-04-25T09:42:56.326Z</time></trkpt><trkpt lat="45.8252589" lon="13.5573898"><ele>76.0</ele><time>2026-04-25T09:42:58.337Z</time></trkpt><trkpt lat="45.8252451" lon="13.5575314"><ele>76.0</ele><time>2026-04-25T09:43:00.32Z</time></trkpt><trkpt lat="45.8252312" lon="13.5576821"><ele>76.0</ele><time>2026-04-25T09:43:02.318Z</time></trkpt><trkpt lat="45.825218" lon="13.5578291"><ele>76.0</ele><time>2026-04-25T09:43:04.324Z</time></trkpt><trkpt lat="45.8252048" lon="13.5579719"><ele>75.8</ele><time>2026-04-25T09:43:06.325Z</time></trkpt><trkpt lat="45.8251894" lon="13.5581188"><ele>75.6</ele><time>2026-04-25T09:43:08.336Z</time></trkpt><trkpt lat="45.8251948" lon="13.5582665"><ele>75.4</ele><time>2026-04-25T09:43:10.319Z</time></trkpt><trkpt lat="45.8252039" lon="13.5584241"><ele>75.2</ele><time>2026-04-25T09:43:12.331Z</time></trkpt><trkpt lat="45.825195" lon="13.5585875"><ele>75.0</ele><time>2026-04-25T09:43:14.323Z</time></trkpt><trkpt lat="45.8251864" lon="13.5587498"><ele>75.0</ele><time>2026-04-25T09:43:16.322Z</time></trkpt><trkpt lat="45.8251656" lon="13.5589094"><ele>75.0</ele><time>2026-04-25T09:43:18.33Z</time></trkpt><trkpt lat="45.8251445" lon="13.5590698"><ele>75.0</ele><time>2026-04-25T09:43:20.322Z</time></trkpt><trkpt lat="45.8251206" lon="13.5592274"><ele>75.0</ele><time>2026-04-25T09:43:22.329Z</time></trkpt><trkpt lat="45.8250671" lon="13.5593582"><ele>75.0</ele><time>2026-04-25T09:43:24.317Z</time></trkpt><trkpt lat="45.8249917" lon="13.5594063"><ele>76.16666666666667</ele><time>2026-04-25T09:43:26.338Z</time></trkpt><trkpt lat="45.8249084" lon="13.5594131"><ele>77.33333333333333</ele><time>2026-04-25T09:43:29.348Z</time></trkpt><trkpt lat="45.8248176" lon="13.5594062"><ele>78.5</ele><time>2026-04-25T09:43:32.314Z</time></trkpt><trkpt lat="45.824727" lon="13.5594301"><ele>79.66666666666666</ele><time>2026-04-25T09:43:35.308Z</time></trkpt><trkpt lat="45.8246648" lon="13.5594671"><ele>80.83333333333333</ele><time>2026-04-25T09:43:37.299Z</time></trkpt><trkpt lat="45.8246132" lon="13.5595273"><ele>82.0</ele><time>2026-04-25T09:43:39.326Z</time></trkpt><trkpt lat="45.8245658" lon="13.559593"><ele>82.0</ele><time>2026-04-25T09:43:41.312Z</time></trkpt><trkpt lat="45.8245098" lon="13.5596418"><ele>82.0</ele><time>2026-04-25T09:43:43.315Z</time></trkpt><trkpt lat="45.824455" lon="13.5596879"><ele>82.0</ele><time>2026-04-25T09:43:45.331Z</time></trkpt><trkpt lat="45.8243781" lon="13.5597282"><ele>82.0</ele><time>2026-04-25T09:43:48.332Z</time></trkpt><trkpt lat="45.8242982" lon="13.5597007"><ele>82.0</ele><time>2026-04-25T09:43:51.319Z</time></trkpt><trkpt lat="45.8242241" lon="13.5596544"><ele>82.0</ele><time>2026-04-25T09:43:54.324Z</time></trkpt><trkpt lat="45.8241468" lon="13.5596188"><ele>84.16666666666666</ele><time>2026-04-25T09:43:57.341Z</time></trkpt><trkpt lat="45.8240583" lon="13.5596243"><ele>86.33333333333333</ele><time>2026-04-25T09:44:00.325Z</time></trkpt><trkpt lat="45.8239703" lon="13.5596337"><ele>88.5</ele><time>2026-04-25T09:44:03.336Z</time></trkpt><trkpt lat="45.8238841" lon="13.5596441"><ele>90.66666666666667</ele><time>2026-04-25T09:44:06.32Z</time></trkpt><trkpt lat="45.8238008" lon="13.5596497"><ele>92.83333333333334</ele><time>2026-04-25T09:44:09.323Z</time></trkpt><trkpt lat="45.823717" lon="13.5596595"><ele>95.0</ele><time>2026-04-25T09:44:12.323Z</time></trkpt><trkpt lat="45.8236321" lon="13.5596665"><ele>95.0</ele><time>2026-04-25T09:44:15.327Z</time></trkpt><trkpt lat="45.823561" lon="13.5596076"><ele>95.0</ele><time>2026-04-25T09:44:18.331Z</time></trkpt><trkpt lat="45.8235036" lon="13.5595382"><ele>95.0</ele><time>2026-04-25T09:44:21.213Z</time></trkpt><trkpt lat="45.8234417" lon="13.5594546"><ele>95.0</ele><time>2026-04-25T09:44:24.328Z</time></trkpt><trkpt lat="45.8233898" lon="13.5593635"><ele>95.0</ele><time>2026-04-25T09:44:27.336Z</time></trkpt><trkpt lat="45.8233496" lon="13.5592638"><ele>95.0</ele><time>2026-04-25T09:44:30.336Z</time></trkpt><trkpt lat="45.823307" lon="13.5591733"><ele>98.0</ele><time>2026-04-25T09:44:33.334Z</time></trkpt><trkpt lat="45.8232364" lon="13.5591047"><ele>101.0</ele><time>2026-04-25T09:44:36.324Z</time></trkpt><trkpt lat="45.8231678" lon="13.55905"><ele>104.0</ele><time>2026-04-25T09:44:39.327Z</time></trkpt><trkpt lat="45.8231141" lon="13.5589657"><ele>107.0</ele><time>2026-04-25T09:44:42.342Z</time></trkpt><trkpt lat="45.8230715" lon="13.5588958"><ele>109.99999999999999</ele><time>2026-04-25T09:44:45.311Z</time></trkpt><trkpt lat="45.8230116" lon="13.5588079"><ele>113.0</ele><time>2026-04-25T09:44:48.328Z</time></trkpt><trkpt lat="45.8229577" lon="13.5587174"><ele>112.99999999999999</ele><time>2026-04-25T09:44:51.31Z</time></trkpt><trkpt lat="45.822882" lon="13.5587054"><ele>113.0</ele><time>2026-04-25T09:44:54.345Z</time></trkpt><trkpt lat="45.8228163" lon="13.558795"><ele>113.0</ele><time>2026-04-25T09:44:57.338Z</time></trkpt><trkpt lat="45.8227723" lon="13.5588597"><ele>113.0</ele><time>2026-04-25T09:44:59.326Z</time></trkpt><trkpt lat="45.8227146" lon="13.5589279"><ele>112.99999999999999</ele><time>2026-04-25T09:45:01.319Z</time></trkpt><trkpt lat="45.8226386" lon="13.5589809"><ele>113.0</ele><time>2026-04-25T09:45:03.322Z</time></trkpt><trkpt lat="45.8225603" lon="13.5589525"><ele>113.49999999999999</ele><time>2026-04-25T09:45:05.327Z</time></trkpt><trkpt lat="45.8225025" lon="13.5589041"><ele>114.0</ele><time>2026-04-25T09:45:07.341Z</time></trkpt><trkpt lat="45.8224386" lon="13.5587895"><ele>114.5</ele><time>2026-04-25T09:45:10.316Z</time></trkpt><trkpt lat="45.822389" lon="13.5587021"><ele>115.0</ele><time>2026-04-25T09:45:12.329Z</time></trkpt><trkpt lat="45.822342" lon="13.5586233"><ele>115.49999999999999</ele><time>2026-04-25T09:45:14.321Z</time></trkpt><trkpt lat="45.8222818" lon="13.5585533"><ele>116.0</ele><time>2026-04-25T09:45:16.35Z</time></trkpt><trkpt lat="45.8222281" lon="13.5584672"><ele>117.16666666666666</ele><time>2026-04-25T09:45:18.32Z</time></trkpt><trkpt lat="45.822183" lon="13.5583748"><ele>118.33333333333333</ele><time>2026-04-25T09:45:20.318Z</time></trkpt><trkpt lat="45.8221608" lon="13.5582639"><ele>119.5</ele><time>2026-04-25T09:45:22.327Z</time></trkpt><trkpt lat="45.8221595" lon="13.5581502"><ele>120.66666666666666</ele><time>2026-04-25T09:45:24.314Z</time></trkpt><trkpt lat="45.82217" lon="13.5580318"><ele>121.83333333333333</ele><time>2026-04-25T09:45:26.318Z</time></trkpt><trkpt lat="45.8221886" lon="13.5579063"><ele>123.0</ele><time>2026-04-25T09:45:28.318Z</time></trkpt><trkpt lat="45.8222011" lon="13.5577764"><ele>123.4</ele><time>2026-04-25T09:45:30.316Z</time></trkpt><trkpt lat="45.8222161" lon="13.5576282"><ele>123.80000000000001</ele><time>2026-04-25T09:45:32.318Z</time></trkpt><trkpt lat="45.8222398" lon="13.5574358"><ele>124.2</ele><time>2026-04-25T09:45:34.34Z</time></trkpt><trkpt lat="45.8222528" lon="13.557324"><ele>124.6</ele><time>2026-04-25T09:45:35.319Z</time></trkpt><trkpt lat="45.8222575" lon="13.5572212"><ele>125.0</ele><time>2026-04-25T09:45:36.333Z</time></trkpt><trkpt lat="45.8222614" lon="13.5571283"><ele>125.33333333333333</ele><time>2026-04-25T09:45:37.323Z</time></trkpt><trkpt lat="45.8222485" lon="13.5569756"><ele>125.66666666666666</ele><time>2026-04-25T09:45:39.321Z</time></trkpt><trkpt lat="45.8222315" lon="13.5568586"><ele>126.0</ele><time>2026-04-25T09:45:41.319Z</time></trkpt><trkpt lat="45.822224" lon="13.5567443"><ele>126.33333333333334</ele><time>2026-04-25T09:45:43.328Z</time></trkpt><trkpt lat="45.8222176" lon="13.5566209"><ele>126.66666666666667</ele><time>2026-04-25T09:45:45.319Z</time></trkpt><trkpt lat="45.8222277" lon="13.5565"><ele>127.0</ele><time>2026-04-25T09:45:47.323Z</time></trkpt><trkpt lat="45.8222319" lon="13.5563821"><ele>127.0</ele><time>2026-04-25T09:45:49.331Z</time></trkpt><trkpt lat="45.8222309" lon="13.556248"><ele>126.99999999999999</ele><time>2026-04-25T09:45:51.336Z</time></trkpt><trkpt lat="45.8222278" lon="13.556114"><ele>126.99999999999999</ele><time>2026-04-25T09:45:53.357Z</time></trkpt><trkpt lat="45.8222261" lon="13.5559814"><ele>127.0</ele><time>2026-04-25T09:45:55.33Z</time></trkpt><trkpt lat="45.8222244" lon="13.5558532"><ele>127.0</ele><time>2026-04-25T09:45:57.315Z</time></trkpt><trkpt lat="45.8222271" lon="13.5557136"><ele>126.8</ele><time>2026-04-25T09:45:59.32Z</time></trkpt><trkpt lat="45.8222124" lon="13.5555713"><ele>126.6</ele><time>2026-04-25T09:46:01.343Z</time></trkpt><trkpt lat="45.8221889" lon="13.5554202"><ele>126.39999999999999</ele><time>2026-04-25T09:46:03.337Z</time></trkpt><trkpt lat="45.822184" lon="13.5552501"><ele>126.19999999999999</ele><time>2026-04-25T09:46:05.347Z</time></trkpt><trkpt lat="45.8221542" lon="13.5550896"><ele>126.0</ele><time>2026-04-25T09:46:07.316Z</time></trkpt><trkpt lat="45.8220922" lon="13.5549521"><ele>125.83333333333333</ele><time>2026-04-25T09:46:09.333Z</time></trkpt><trkpt lat="45.8220125" lon="13.5548168"><ele>125.66666666666666</ele><time>2026-04-25T09:46:11.328Z</time></trkpt><trkpt lat="45.8219152" lon="13.5547123"><ele>125.5</ele><time>2026-04-25T09:46:13.339Z</time></trkpt><trkpt lat="45.821853" lon="13.5546874"><ele>125.33333333333333</ele><time>2026-04-25T09:46:14.32Z</time></trkpt><trkpt lat="45.8217975" lon="13.5546319"><ele>125.16666666666666</ele><time>2026-04-25T09:46:15.329Z</time></trkpt><trkpt lat="45.8217522" lon="13.5545674"><ele>125.0</ele><time>2026-04-25T09:46:16.355Z</time></trkpt><trkpt lat="45.8216621" lon="13.5544574"><ele>125.0</ele><time>2026-04-25T09:46:18.328Z</time></trkpt><trkpt lat="45.8215685" lon="13.5543445"><ele>125.0</ele><time>2026-04-25T09:46:20.319Z</time></trkpt><trkpt lat="45.8214708" lon="13.5542382"><ele>125.0</ele><time>2026-04-25T09:46:22.332Z</time></trkpt><trkpt lat="45.8213794" lon="13.5541109"><ele>125.0</ele><time>2026-04-25T09:46:24.322Z</time></trkpt><trkpt lat="45.8213487" lon="13.5540193"><ele>125.0</ele><time>2026-04-25T09:46:25.321Z</time></trkpt><trkpt lat="45.8213203" lon="13.5539295"><ele>125.0</ele><time>2026-04-25T09:46:26.315Z</time></trkpt><trkpt lat="45.8213147" lon="13.5538286"><ele>125.0</ele><time>2026-04-25T09:46:27.317Z</time></trkpt><trkpt lat="45.8213244" lon="13.5537213"><ele>125.0</ele><time>2026-04-25T09:46:28.324Z</time></trkpt><trkpt lat="45.8213379" lon="13.553622"><ele>125.0</ele><time>2026-04-25T09:46:29.324Z</time></trkpt><trkpt lat="45.8213473" lon="13.5535246"><ele>125.0</ele><time>2026-04-25T09:46:30.32Z</time></trkpt><trkpt lat="45.8213548" lon="13.5534254"><ele>125.0</ele><time>2026-04-25T09:46:31.319Z</time></trkpt><trkpt lat="45.8213584" lon="13.5533259"><ele>125.0</ele><time>2026-04-25T09:46:32.319Z</time></trkpt><trkpt lat="45.8213605" lon="13.553225"><ele>124.33333333333333</ele><time>2026-04-25T09:46:33.324Z</time></trkpt><trkpt lat="45.8213783" lon="13.5531283"><ele>123.66666666666666</ele><time>2026-04-25T09:46:34.323Z</time></trkpt><trkpt lat="45.8214133" lon="13.5530366"><ele>123.0</ele><time>2026-04-25T09:46:35.326Z</time></trkpt><trkpt lat="45.8214613" lon="13.552964"><ele>122.33333333333334</ele><time>2026-04-25T09:46:36.318Z</time></trkpt><trkpt lat="45.8215064" lon="13.5528944"><ele>121.66666666666667</ele><time>2026-04-25T09:46:37.323Z</time></trkpt><trkpt lat="45.8216017" lon="13.5527646"><ele>121.0</ele><time>2026-04-25T09:46:39.314Z</time></trkpt><trkpt lat="45.821648" lon="13.55269"><ele>120.33333333333334</ele><time>2026-04-25T09:46:40.334Z</time></trkpt><trkpt lat="45.8217097" lon="13.5526263"><ele>119.66666666666667</ele><time>2026-04-25T09:46:41.329Z</time></trkpt><trkpt lat="45.8217671" lon="13.5525764"><ele>119.0</ele><time>2026-04-25T09:46:42.319Z</time></trkpt><trkpt lat="45.8218589" lon="13.5524579"><ele>118.33333333333334</ele><time>2026-04-25T09:46:44.331Z</time></trkpt><trkpt lat="45.8218914" lon="13.5523667"><ele>117.66666666666667</ele><time>2026-04-25T09:46:45.332Z</time></trkpt><trkpt lat="45.8219233" lon="13.5522708"><ele>117.0</ele><time>2026-04-25T09:46:46.325Z</time></trkpt><trkpt lat="45.8219527" lon="13.5521665"><ele>116.5</ele><time>2026-04-25T09:46:47.334Z</time></trkpt><trkpt lat="45.8219751" lon="13.5520559"><ele>116.0</ele><time>2026-04-25T09:46:48.319Z</time></trkpt><trkpt lat="45.8219945" lon="13.5519413"><ele>115.5</ele><time>2026-04-25T09:46:49.34Z</time></trkpt><trkpt lat="45.8220124" lon="13.5518268"><ele>115.0</ele><time>2026-04-25T09:46:50.324Z</time></trkpt><trkpt lat="45.8220299" lon="13.5517116"><ele>114.5</ele><time>2026-04-25T09:46:51.333Z</time></trkpt><trkpt lat="45.8220359" lon="13.551608"><ele>114.0</ele><time>2026-04-25T09:46:52.337Z</time></trkpt><trkpt lat="45.8220797" lon="13.551439"><ele>113.33333333333333</ele><time>2026-04-25T09:46:54.331Z</time></trkpt><trkpt lat="45.8221102" lon="13.5513563"><ele>112.66666666666666</ele><time>2026-04-25T09:46:55.325Z</time></trkpt><trkpt lat="45.8221595" lon="13.5512755"><ele>112.0</ele><time>2026-04-25T09:46:56.328Z</time></trkpt><trkpt lat="45.8222097" lon="13.5511944"><ele>111.33333333333333</ele><time>2026-04-25T09:46:57.336Z</time></trkpt><trkpt lat="45.8222596" lon="13.5510998"><ele>110.66666666666666</ele><time>2026-04-25T09:46:58.321Z</time></trkpt><trkpt lat="45.8223057" lon="13.5510002"><ele>110.0</ele><time>2026-04-25T09:46:59.345Z</time></trkpt><trkpt lat="45.822351" lon="13.5509034"><ele>109.16666666666666</ele><time>2026-04-25T09:47:00.316Z</time></trkpt><trkpt lat="45.8223946" lon="13.5508078"><ele>108.33333333333333</ele><time>2026-04-25T09:47:01.326Z</time></trkpt><trkpt lat="45.822427" lon="13.550712"><ele>107.5</ele><time>2026-04-25T09:47:02.326Z</time></trkpt><trkpt lat="45.8224554" lon="13.5506208"><ele>106.66666666666666</ele><time>2026-04-25T09:47:03.313Z</time></trkpt><trkpt lat="45.8224621" lon="13.5505158"><ele>105.83333333333333</ele><time>2026-04-25T09:47:04.335Z</time></trkpt><trkpt lat="45.8224685" lon="13.5504053"><ele>105.0</ele><time>2026-04-25T09:47:05.332Z</time></trkpt><trkpt lat="45.82249" lon="13.5502932"><ele>103.5</ele><time>2026-04-25T09:47:06.318Z</time></trkpt><trkpt lat="45.8225101" lon="13.5501768"><ele>102.0</ele><time>2026-04-25T09:47:07.323Z</time></trkpt><trkpt lat="45.82252" lon="13.5500623"><ele>100.5</ele><time>2026-04-25T09:47:08.319Z</time></trkpt><trkpt lat="45.8225254" lon="13.549953"><ele>99.0</ele><time>2026-04-25T09:47:09.327Z</time></trkpt><trkpt lat="45.8225194" lon="13.5498572"><ele>97.5</ele><time>2026-04-25T09:47:10.32Z</time></trkpt><trkpt lat="45.8224687" lon="13.5497312"><ele>96.0</ele><time>2026-04-25T09:47:12.339Z</time></trkpt><trkpt lat="45.822359" lon="13.5497039"><ele>96.0</ele><time>2026-04-25T09:47:14.333Z</time></trkpt><trkpt lat="45.8222356" lon="13.5496909"><ele>96.0</ele><time>2026-04-25T09:47:16.32Z</time></trkpt><trkpt lat="45.8221684" lon="13.5496826"><ele>96.0</ele><time>2026-04-25T09:47:17.328Z</time></trkpt><trkpt lat="45.8220985" lon="13.5496756"><ele>96.0</ele><time>2026-04-25T09:47:18.324Z</time></trkpt><trkpt lat="45.8220274" lon="13.5496681"><ele>96.0</ele><time>2026-04-25T09:47:19.321Z</time></trkpt><trkpt lat="45.8219557" lon="13.5496632"><ele>96.0</ele><time>2026-04-25T09:47:20.335Z</time></trkpt><trkpt lat="45.8218874" lon="13.5496567"><ele>96.0</ele><time>2026-04-25T09:47:21.334Z</time></trkpt><trkpt lat="45.8218259" lon="13.5496334"><ele>96.0</ele><time>2026-04-25T09:47:22.33Z</time></trkpt><trkpt lat="45.8217197" lon="13.5495383"><ele>96.0</ele><time>2026-04-25T09:47:24.331Z</time></trkpt><trkpt lat="45.8216886" lon="13.5494469"><ele>96.0</ele><time>2026-04-25T09:47:25.333Z</time></trkpt><trkpt lat="45.8216595" lon="13.5493543"><ele>96.0</ele><time>2026-04-25T09:47:26.317Z</time></trkpt><trkpt lat="45.8216497" lon="13.5492472"><ele>96.0</ele><time>2026-04-25T09:47:27.33Z</time></trkpt><trkpt lat="45.8216303" lon="13.5491333"><ele>94.83333333333333</ele><time>2026-04-25T09:47:28.318Z</time></trkpt><trkpt lat="45.8215998" lon="13.5490145"><ele>93.66666666666667</ele><time>2026-04-25T09:47:29.325Z</time></trkpt><trkpt lat="45.8215678" lon="13.548888"><ele>92.5</ele><time>2026-04-25T09:47:30.324Z</time></trkpt><trkpt lat="45.8215383" lon="13.5487687"><ele>91.33333333333334</ele><time>2026-04-25T09:47:31.336Z</time></trkpt><trkpt lat="45.82152" lon="13.5486534"><ele>90.16666666666667</ele><time>2026-04-25T09:47:32.322Z</time></trkpt><trkpt lat="45.8215144" lon="13.5485472"><ele>89.0</ele><time>2026-04-25T09:47:33.324Z</time></trkpt><trkpt lat="45.8215102" lon="13.5484384"><ele>87.33333333333334</ele><time>2026-04-25T09:47:34.337Z</time></trkpt><trkpt lat="45.8215327" lon="13.5483279"><ele>85.66666666666667</ele><time>2026-04-25T09:47:35.328Z</time></trkpt><trkpt lat="45.8215584" lon="13.5482122"><ele>84.0</ele><time>2026-04-25T09:47:36.34Z</time></trkpt><trkpt lat="45.82158" lon="13.5480939"><ele>82.33333333333333</ele><time>2026-04-25T09:47:37.343Z</time></trkpt><trkpt lat="45.8215973" lon="13.5479746"><ele>80.66666666666666</ele><time>2026-04-25T09:47:38.312Z</time></trkpt><trkpt lat="45.8216042" lon="13.5478514"><ele>79.0</ele><time>2026-04-25T09:47:39.341Z</time></trkpt><trkpt lat="45.821606" lon="13.5477269"><ele>77.8</ele><time>2026-04-25T09:47:40.33Z</time></trkpt><trkpt lat="45.8216064" lon="13.5475984"><ele>76.60000000000001</ele><time>2026-04-25T09:47:41.323Z</time></trkpt><trkpt lat="45.8216041" lon="13.5474663"><ele>75.4</ele><time>2026-04-25T09:47:42.333Z</time></trkpt><trkpt lat="45.8215993" lon="13.5473291"><ele>74.2</ele><time>2026-04-25T09:47:43.335Z</time></trkpt><trkpt lat="45.8215924" lon="13.5471928"><ele>73.0</ele><time>2026-04-25T09:47:44.344Z</time></trkpt><trkpt lat="45.8215829" lon="13.5470622"><ele>71.8</ele><time>2026-04-25T09:47:45.34Z</time></trkpt><trkpt lat="45.8215671" lon="13.5469411"><ele>70.6</ele><time>2026-04-25T09:47:46.324Z</time></trkpt><trkpt lat="45.8215431" lon="13.5468386"><ele>69.4</ele><time>2026-04-25T09:47:47.321Z</time></trkpt><trkpt lat="45.8215061" lon="13.5466876"><ele>68.2</ele><time>2026-04-25T09:47:49.329Z</time></trkpt><trkpt lat="45.8214846" lon="13.5465522"><ele>67.0</ele><time>2026-04-25T09:47:51.328Z</time></trkpt><trkpt lat="45.8214614" lon="13.5464173"><ele>67.0</ele><time>2026-04-25T09:47:53.324Z</time></trkpt><trkpt lat="45.8214415" lon="13.5462646"><ele>67.0</ele><time>2026-04-25T09:47:55.34Z</time></trkpt><trkpt lat="45.8214137" lon="13.5460924"><ele>67.0</ele><time>2026-04-25T09:47:57.332Z</time></trkpt><trkpt lat="45.8213899" lon="13.5460025"><ele>67.0</ele><time>2026-04-25T09:47:58.33Z</time></trkpt><trkpt lat="45.8213644" lon="13.545912"><ele>67.0</ele><time>2026-04-25T09:47:59.341Z</time></trkpt><trkpt lat="45.8213367" lon="13.5458177"><ele>67.0</ele><time>2026-04-25T09:48:00.335Z</time></trkpt><trkpt lat="45.8213082" lon="13.5457156"><ele>66.66666666666666</ele><time>2026-04-25T09:48:01.332Z</time></trkpt><trkpt lat="45.8212801" lon="13.5456098"><ele>66.33333333333333</ele><time>2026-04-25T09:48:02.333Z</time></trkpt><trkpt lat="45.8212554" lon="13.5454996"><ele>66.0</ele><time>2026-04-25T09:48:03.344Z</time></trkpt><trkpt lat="45.8212388" lon="13.5453829"><ele>65.66666666666667</ele><time>2026-04-25T09:48:04.318Z</time></trkpt><trkpt lat="45.8212329" lon="13.5452644"><ele>65.33333333333334</ele><time>2026-04-25T09:48:05.324Z</time></trkpt><trkpt lat="45.8212278" lon="13.5451435"><ele>65.0</ele><time>2026-04-25T09:48:06.324Z</time></trkpt><trkpt lat="45.8212228" lon="13.5450253"><ele>64.0</ele><time>2026-04-25T09:48:07.32Z</time></trkpt><trkpt lat="45.8212186" lon="13.5449108"><ele>63.0</ele><time>2026-04-25T09:48:08.328Z</time></trkpt><trkpt lat="45.821217" lon="13.5447985"><ele>62.0</ele><time>2026-04-25T09:48:09.331Z</time></trkpt><trkpt lat="45.821233" lon="13.5446916"><ele>61.0</ele><time>2026-04-25T09:48:10.319Z</time></trkpt><trkpt lat="45.8212688" lon="13.5445993"><ele>60.00000000000001</ele><time>2026-04-25T09:48:11.34Z</time></trkpt><trkpt lat="45.8213138" lon="13.5445147"><ele>59.0</ele><time>2026-04-25T09:48:12.331Z</time></trkpt><trkpt lat="45.8213543" lon="13.5444231"><ele>59.00000000000001</ele><time>2026-04-25T09:48:13.314Z</time></trkpt><trkpt lat="45.8213976" lon="13.5443321"><ele>59.0</ele><time>2026-04-25T09:48:14.321Z</time></trkpt><trkpt lat="45.8214457" lon="13.5442448"><ele>59.0</ele><time>2026-04-25T09:48:15.323Z</time></trkpt><trkpt lat="45.8214842" lon="13.5441499"><ele>59.0</ele><time>2026-04-25T09:48:16.325Z</time></trkpt><trkpt lat="45.8215218" lon="13.5440571"><ele>59.00000000000001</ele><time>2026-04-25T09:48:17.32Z</time></trkpt><trkpt lat="45.8215869" lon="13.5439157"><ele>59.0</ele><time>2026-04-25T09:48:19.332Z</time></trkpt><trkpt lat="45.8216504" lon="13.5438146"><ele>59.0</ele><time>2026-04-25T09:48:21.338Z</time></trkpt><trkpt lat="45.8217158" lon="13.5437187"><ele>59.00000000000001</ele><time>2026-04-25T09:48:23.339Z</time></trkpt><trkpt lat="45.8217809" lon="13.5436055"><ele>59.00000000000001</ele><time>2026-04-25T09:48:25.319Z</time></trkpt><trkpt lat="45.821852" lon="13.5434847"><ele>59.0</ele><time>2026-04-25T09:48:27.33Z</time></trkpt><trkpt lat="45.8219278" lon="13.5433558"><ele>59.0</ele><time>2026-04-25T09:48:29.323Z</time></trkpt><trkpt lat="45.8220071" lon="13.5432197"><ele>57.857142857142854</ele><time>2026-04-25T09:48:31.333Z</time></trkpt><trkpt lat="45.822048" lon="13.5431506"><ele>56.714285714285715</ele><time>2026-04-25T09:48:32.329Z</time></trkpt><trkpt lat="45.8220891" lon="13.543077"><ele>55.57142857142857</ele><time>2026-04-25T09:48:33.33Z</time></trkpt><trkpt lat="45.8221292" lon="13.5430048"><ele>54.42857142857143</ele><time>2026-04-25T09:48:34.316Z</time></trkpt><trkpt lat="45.822173" lon="13.5429246"><ele>53.28571428571429</ele><time>2026-04-25T09:48:35.346Z</time></trkpt><trkpt lat="45.8222157" lon="13.5428512"><ele>52.142857142857146</ele><time>2026-04-25T09:48:36.333Z</time></trkpt><trkpt lat="45.8222739" lon="13.5427109"><ele>51.0</ele><time>2026-04-25T09:48:38.319Z</time></trkpt><trkpt lat="45.8222701" lon="13.5425629"><ele>50.85714285714286</ele><time>2026-04-25T09:48:40.333Z</time></trkpt><trkpt lat="45.8222274" lon="13.5424749"><ele>50.714285714285715</ele><time>2026-04-25T09:48:42.334Z</time></trkpt><trkpt lat="45.8221751" lon="13.5424119"><ele>50.57142857142857</ele><time>2026-04-25T09:48:44.328Z</time></trkpt><trkpt lat="45.8221262" lon="13.5423096"><ele>50.42857142857143</ele><time>2026-04-25T09:48:47.324Z</time></trkpt><trkpt lat="45.8220931" lon="13.5422294"><ele>50.285714285714285</ele><time>2026-04-25T09:48:49.324Z</time></trkpt><trkpt lat="45.822067" lon="13.5421377"><ele>50.142857142857146</ele><time>2026-04-25T09:48:51.354Z</time></trkpt><trkpt lat="45.8220397" lon="13.5420259"><ele>50.0</ele><time>2026-04-25T09:48:53.342Z</time></trkpt><trkpt lat="45.8220088" lon="13.5419169"><ele>50.6</ele><time>2026-04-25T09:48:55.325Z</time></trkpt><trkpt lat="45.8219904" lon="13.5418052"><ele>51.2</ele><time>2026-04-25T09:48:57.321Z</time></trkpt><trkpt lat="45.8219707" lon="13.5416811"><ele>51.8</ele><time>2026-04-25T09:48:59.316Z</time></trkpt><trkpt lat="45.8219485" lon="13.5415492"><ele>52.4</ele><time>2026-04-25T09:49:01.312Z</time></trkpt><trkpt lat="45.8219589" lon="13.5414008"><ele>53.0</ele><time>2026-04-25T09:49:03.353Z</time></trkpt><trkpt lat="45.8219925" lon="13.5412654"><ele>53.599999999999994</ele><time>2026-04-25T09:49:05.334Z</time></trkpt><trkpt lat="45.8220262" lon="13.5411218"><ele>54.199999999999996</ele><time>2026-04-25T09:49:07.339Z</time></trkpt><trkpt lat="45.8220375" lon="13.5409595"><ele>54.8</ele><time>2026-04-25T09:49:09.314Z</time></trkpt><trkpt lat="45.8220375" lon="13.540812"><ele>55.4</ele><time>2026-04-25T09:49:11.317Z</time></trkpt><trkpt lat="45.8220691" lon="13.5406658"><ele>56.0</ele><time>2026-04-25T09:49:13.342Z</time></trkpt><trkpt lat="45.8220918" lon="13.540513"><ele>56.4</ele><time>2026-04-25T09:49:15.325Z</time></trkpt><trkpt lat="45.8220764" lon="13.5403826"><ele>56.8</ele><time>2026-04-25T09:49:17.326Z</time></trkpt><trkpt lat="45.8220608" lon="13.5402473"><ele>57.199999999999996</ele><time>2026-04-25T09:49:19.324Z</time></trkpt><trkpt lat="45.8220412" lon="13.5400992"><ele>57.599999999999994</ele><time>2026-04-25T09:49:21.326Z</time></trkpt><trkpt lat="45.8220216" lon="13.5399655"><ele>58.0</ele><time>2026-04-25T09:49:23.328Z</time></trkpt><trkpt lat="45.8219911" lon="13.5398271"><ele>58.0</ele><time>2026-04-25T09:49:25.324Z</time></trkpt><trkpt lat="45.8219534" lon="13.5396931"><ele>58.0</ele><time>2026-04-25T09:49:27.335Z</time></trkpt><trkpt lat="45.8219133" lon="13.5395645"><ele>58.0</ele><time>2026-04-25T09:49:29.323Z</time></trkpt><trkpt lat="45.8218717" lon="13.5394414"><ele>58.0</ele><time>2026-04-25T09:49:31.337Z</time></trkpt><trkpt lat="45.8218348" lon="13.5393166"><ele>58.0</ele><time>2026-04-25T09:49:33.337Z</time></trkpt><trkpt lat="45.8217931" lon="13.5391899"><ele>59.49999999999999</ele><time>2026-04-25T09:49:35.316Z</time></trkpt><trkpt lat="45.8217505" lon="13.5390669"><ele>61.0</ele><time>2026-04-25T09:49:37.343Z</time></trkpt><trkpt lat="45.8217164" lon="13.5389476"><ele>62.5</ele><time>2026-04-25T09:49:39.329Z</time></trkpt><trkpt lat="45.8216794" lon="13.5388444"><ele>64.0</ele><time>2026-04-25T09:49:41.338Z</time></trkpt><trkpt lat="45.8216526" lon="13.5387071"><ele>65.5</ele><time>2026-04-25T09:49:44.327Z</time></trkpt><trkpt lat="45.8216489" lon="13.5385943"><ele>67.0</ele><time>2026-04-25T09:49:46.325Z</time></trkpt><trkpt lat="45.8216352" lon="13.5384829"><ele>67.0</ele><time>2026-04-25T09:49:48.354Z</time></trkpt><trkpt lat="45.8216257" lon="13.5383594"><ele>67.0</ele><time>2026-04-25T09:49:50.33Z</time></trkpt><trkpt lat="45.8216136" lon="13.5382427"><ele>67.0</ele><time>2026-04-25T09:49:52.34Z</time></trkpt><trkpt lat="45.8215891" lon="13.5381403"><ele>67.0</ele><time>2026-04-25T09:49:54.328Z</time></trkpt><trkpt lat="45.8215723" lon="13.5380365"><ele>67.0</ele><time>2026-04-25T09:49:56.319Z</time></trkpt><trkpt lat="45.8215573" lon="13.5379218"><ele>67.0</ele><time>2026-04-25T09:49:58.325Z</time></trkpt><trkpt lat="45.821536" lon="13.537819"><ele>67.33333333333333</ele><time>2026-04-25T09:50:00.353Z</time></trkpt><trkpt lat="45.8215149" lon="13.5377157"><ele>67.66666666666666</ele><time>2026-04-25T09:50:02.345Z</time></trkpt><trkpt lat="45.8214968" lon="13.5376211"><ele>68.0</ele><time>2026-04-25T09:50:04.32Z</time></trkpt><trkpt lat="45.8214613" lon="13.5375283"><ele>68.33333333333333</ele><time>2026-04-25T09:50:06.327Z</time></trkpt><trkpt lat="45.8214132" lon="13.537446"><ele>68.66666666666667</ele><time>2026-04-25T09:50:08.331Z</time></trkpt><trkpt lat="45.8213596" lon="13.5373619"><ele>69.0</ele><time>2026-04-25T09:50:10.32Z</time></trkpt><trkpt lat="45.8212971" lon="13.5372734"><ele>69.0</ele><time>2026-04-25T09:50:13.331Z</time></trkpt><trkpt lat="45.8212483" lon="13.5372065"><ele>69.0</ele><time>2026-04-25T09:50:15.321Z</time></trkpt><trkpt lat="45.8211933" lon="13.537162"><ele>69.0</ele><time>2026-04-25T09:50:17.327Z</time></trkpt><trkpt lat="45.8211357" lon="13.5370546"><ele>69.0</ele><time>2026-04-25T09:50:20.332Z</time></trkpt><trkpt lat="45.8210556" lon="13.5369825"><ele>69.0</ele><time>2026-04-25T09:50:23.337Z</time></trkpt><trkpt lat="45.8209966" lon="13.5369386"><ele>69.0</ele><time>2026-04-25T09:50:25.321Z</time></trkpt><trkpt lat="45.8209461" lon="13.5368819"><ele>69.33333333333333</ele><time>2026-04-25T09:50:27.318Z</time></trkpt><trkpt lat="45.8208997" lon="13.5368078"><ele>69.66666666666667</ele><time>2026-04-25T09:50:29.321Z</time></trkpt><trkpt lat="45.8208874" lon="13.5366981"><ele>70.0</ele><time>2026-04-25T09:50:31.31Z</time></trkpt><trkpt lat="45.8208978" lon="13.5365798"><ele>70.33333333333334</ele><time>2026-04-25T09:50:33.328Z</time></trkpt><trkpt lat="45.8209202" lon="13.5364683"><ele>70.66666666666667</ele><time>2026-04-25T09:50:35.32Z</time></trkpt><trkpt lat="45.8209537" lon="13.5363752"><ele>71.0</ele><time>2026-04-25T09:50:37.326Z</time></trkpt><trkpt lat="45.8209858" lon="13.5362787"><ele>71.28571428571428</ele><time>2026-04-25T09:50:39.338Z</time></trkpt><trkpt lat="45.8210254" lon="13.5361951"><ele>71.57142857142857</ele><time>2026-04-25T09:50:41.325Z</time></trkpt><trkpt lat="45.8210619" lon="13.5361061"><ele>71.85714285714286</ele><time>2026-04-25T09:50:43.321Z</time></trkpt><trkpt lat="45.8210948" lon="13.5360227"><ele>72.14285714285714</ele><time>2026-04-25T09:50:45.321Z</time></trkpt><trkpt lat="45.821133" lon="13.5359392"><ele>72.42857142857143</ele><time>2026-04-25T09:50:47.325Z</time></trkpt><trkpt lat="45.821176" lon="13.5358611"><ele>72.71428571428571</ele><time>2026-04-25T09:50:49.335Z</time></trkpt><trkpt lat="45.8212019" lon="13.5357767"><ele>73.0</ele><time>2026-04-25T09:50:51.321Z</time></trkpt><trkpt lat="45.8212294" lon="13.5356946"><ele>73.0</ele><time>2026-04-25T09:50:53.327Z</time></trkpt><trkpt lat="45.8212547" lon="13.5356069"><ele>73.0</ele><time>2026-04-25T09:50:55.317Z</time></trkpt><trkpt lat="45.8212812" lon="13.5354869"><ele>73.0</ele><time>2026-04-25T09:50:58.323Z</time></trkpt><trkpt lat="45.8213119" lon="13.5353847"><ele>73.0</ele><time>2026-04-25T09:51:01.331Z</time></trkpt><trkpt lat="45.8213526" lon="13.5352985"><ele>73.0</ele><time>2026-04-25T09:51:04.319Z</time></trkpt><trkpt lat="45.8213746" lon="13.535208"><ele>73.0</ele><time>2026-04-25T09:53:14.345Z</time></trkpt><trkpt lat="45.8213757" lon="13.5351021"><ele>73.0</ele><time>2026-04-25T09:53:17.334Z</time></trkpt><trkpt lat="45.8213857" lon="13.5349731"><ele>73.0</ele><time>2026-04-25T09:53:20.339Z</time></trkpt><trkpt lat="45.8214398" lon="13.5348702"><ele>73.0</ele><time>2026-04-25T09:53:23.335Z</time></trkpt><trkpt lat="45.8214823" lon="13.5347991"><ele>73.0</ele><time>2026-04-25T09:53:25.33Z</time></trkpt><trkpt lat="45.8215165" lon="13.5346995"><ele>73.0</ele><time>2026-04-25T09:53:27.333Z</time></trkpt><trkpt lat="45.8215296" lon="13.5345779"><ele>73.0</ele><time>2026-04-25T09:53:29.329Z</time></trkpt><trkpt lat="45.8215461" lon="13.5344661"><ele>73.0</ele><time>2026-04-25T09:53:31.32Z</time></trkpt><trkpt lat="45.8215704" lon="13.5343499"><ele>71.6</ele><time>2026-04-25T09:53:33.315Z</time></trkpt><trkpt lat="45.8215839" lon="13.5342165"><ele>70.19999999999999</ele><time>2026-04-25T09:53:35.328Z</time></trkpt><trkpt lat="45.8216148" lon="13.5340694"><ele>68.8</ele><time>2026-04-25T09:53:37.338Z</time></trkpt><trkpt lat="45.821674" lon="13.5339365"><ele>67.39999999999999</ele><time>2026-04-25T09:53:39.32Z</time></trkpt><trkpt lat="45.8217617" lon="13.5338086"><ele>66.0</ele><time>2026-04-25T09:53:41.314Z</time></trkpt><trkpt lat="45.8218077" lon="13.5337386"><ele>66.14285714285714</ele><time>2026-04-25T09:53:42.344Z</time></trkpt><trkpt lat="45.8218551" lon="13.5336685"><ele>66.28571428571429</ele><time>2026-04-25T09:53:43.333Z</time></trkpt><trkpt lat="45.8219018" lon="13.5335924"><ele>66.42857142857143</ele><time>2026-04-25T09:53:44.343Z</time></trkpt><trkpt lat="45.8219508" lon="13.5335182"><ele>66.57142857142857</ele><time>2026-04-25T09:53:45.32Z</time></trkpt><trkpt lat="45.8219986" lon="13.5334375"><ele>66.71428571428571</ele><time>2026-04-25T09:53:46.327Z</time></trkpt><trkpt lat="45.8220431" lon="13.5333596"><ele>66.85714285714286</ele><time>2026-04-25T09:53:47.344Z</time></trkpt><trkpt lat="45.822091" lon="13.5332833"><ele>67.0</ele><time>2026-04-25T09:53:48.326Z</time></trkpt><trkpt lat="45.8221401" lon="13.5332104"><ele>67.0</ele><time>2026-04-25T09:53:49.326Z</time></trkpt><trkpt lat="45.8221827" lon="13.5331366"><ele>67.0</ele><time>2026-04-25T09:53:50.316Z</time></trkpt><trkpt lat="45.822224" lon="13.5330649"><ele>67.0</ele><time>2026-04-25T09:53:51.32Z</time></trkpt><trkpt lat="45.822298" lon="13.5329194"><ele>67.0</ele><time>2026-04-25T09:53:53.322Z</time></trkpt><trkpt lat="45.8223633" lon="13.5327769"><ele>67.0</ele><time>2026-04-25T09:53:55.322Z</time></trkpt><trkpt lat="45.8224423" lon="13.5326524"><ele>67.0</ele><time>2026-04-25T09:53:57.337Z</time></trkpt><trkpt lat="45.8225256" lon="13.5325398"><ele>67.0</ele><time>2026-04-25T09:53:59.332Z</time></trkpt><trkpt lat="45.8225698" lon="13.5324754"><ele>67.0</ele><time>2026-04-25T09:54:00.332Z</time></trkpt><trkpt lat="45.8226585" lon="13.5323487"><ele>67.0</ele><time>2026-04-25T09:54:02.339Z</time></trkpt><trkpt lat="45.8227423" lon="13.532216"><ele>67.0</ele><time>2026-04-25T09:54:04.332Z</time></trkpt><trkpt lat="45.8228186" lon="13.5320909"><ele>66.4</ele><time>2026-04-25T09:54:06.308Z</time></trkpt><trkpt lat="45.8228925" lon="13.5319734"><ele>65.80000000000001</ele><time>2026-04-25T09:54:08.324Z</time></trkpt><trkpt lat="45.8229657" lon="13.5318577"><ele>65.2</ele><time>2026-04-25T09:54:10.329Z</time></trkpt><trkpt lat="45.8230403" lon="13.5317407"><ele>64.60000000000001</ele><time>2026-04-25T09:54:12.322Z</time></trkpt><trkpt lat="45.8231153" lon="13.5316188"><ele>64.0</ele><time>2026-04-25T09:54:14.318Z</time></trkpt><trkpt lat="45.8231886" lon="13.5315002"><ele>64.0</ele><time>2026-04-25T09:54:16.35Z</time></trkpt><trkpt lat="45.8232595" lon="13.5313887"><ele>64.0</ele><time>2026-04-25T09:54:18.325Z</time></trkpt><trkpt lat="45.8233226" lon="13.5312813"><ele>64.0</ele><time>2026-04-25T09:54:20.321Z</time></trkpt><trkpt lat="45.8233748" lon="13.5311805"><ele>64.0</ele><time>2026-04-25T09:54:22.335Z</time></trkpt><trkpt lat="45.8234312" lon="13.5310771"><ele>64.0</ele><time>2026-04-25T09:54:24.326Z</time></trkpt><trkpt lat="45.8234928" lon="13.5309856"><ele>63.400000000000006</ele><time>2026-04-25T09:54:26.349Z</time></trkpt><trkpt lat="45.8235573" lon="13.5308859"><ele>62.800000000000004</ele><time>2026-04-25T09:54:28.328Z</time></trkpt><trkpt lat="45.8236245" lon="13.5307842"><ele>62.199999999999996</ele><time>2026-04-25T09:54:30.32Z</time></trkpt><trkpt lat="45.8236906" lon="13.5306798"><ele>61.599999999999994</ele><time>2026-04-25T09:54:32.317Z</time></trkpt><trkpt lat="45.8237591" lon="13.5305712"><ele>61.0</ele><time>2026-04-25T09:54:34.316Z</time></trkpt><trkpt lat="45.8238213" lon="13.5304506"><ele>61.4</ele><time>2026-04-25T09:54:36.338Z</time></trkpt><trkpt lat="45.8238853" lon="13.5303341"><ele>61.8</ele><time>2026-04-25T09:54:38.33Z</time></trkpt><trkpt lat="45.8239512" lon="13.530226"><ele>62.199999999999996</ele><time>2026-04-25T09:54:40.324Z</time></trkpt><trkpt lat="45.8240158" lon="13.5301222"><ele>62.599999999999994</ele><time>2026-04-25T09:54:42.328Z</time></trkpt><trkpt lat="45.8240808" lon="13.5300206"><ele>63.0</ele><time>2026-04-25T09:54:44.315Z</time></trkpt><trkpt lat="45.8241513" lon="13.5299202"><ele>63.0</ele><time>2026-04-25T09:54:46.319Z</time></trkpt><trkpt lat="45.8242143" lon="13.5298172"><ele>63.0</ele><time>2026-04-25T09:54:48.324Z</time></trkpt><trkpt lat="45.8242745" lon="13.5297172"><ele>63.0</ele><time>2026-04-25T09:54:50.328Z</time></trkpt><trkpt lat="45.8243331" lon="13.5296154"><ele>63.0</ele><time>2026-04-25T09:54:52.361Z</time></trkpt><trkpt lat="45.824393" lon="13.5295159"><ele>63.0</ele><time>2026-04-25T09:54:54.329Z</time></trkpt><trkpt lat="45.8244519" lon="13.5294178"><ele>63.4</ele><time>2026-04-25T09:54:56.317Z</time></trkpt><trkpt lat="45.8245149" lon="13.5293178"><ele>63.8</ele><time>2026-04-25T09:54:58.321Z</time></trkpt><trkpt lat="45.8245749" lon="13.5292207"><ele>64.2</ele><time>2026-04-25T09:55:00.317Z</time></trkpt><trkpt lat="45.8246365" lon="13.5291222"><ele>64.6</ele><time>2026-04-25T09:55:02.314Z</time></trkpt><trkpt lat="45.8246944" lon="13.5290219"><ele>65.0</ele><time>2026-04-25T09:55:04.323Z</time></trkpt><trkpt lat="45.8247507" lon="13.5289206"><ele>65.0</ele><time>2026-04-25T09:55:06.311Z</time></trkpt><trkpt lat="45.8248119" lon="13.5288203"><ele>65.0</ele><time>2026-04-25T09:55:08.333Z</time></trkpt><trkpt lat="45.8248744" lon="13.5287235"><ele>65.0</ele><time>2026-04-25T09:55:10.317Z</time></trkpt><trkpt lat="45.8249325" lon="13.5286239"><ele>65.0</ele><time>2026-04-25T09:55:12.353Z</time></trkpt><trkpt lat="45.8249986" lon="13.5285194"><ele>65.0</ele><time>2026-04-25T09:55:14.313Z</time></trkpt><trkpt lat="45.825075" lon="13.5284131"><ele>64.25</ele><time>2026-04-25T09:55:16.315Z</time></trkpt><trkpt lat="45.8251507" lon="13.528285"><ele>63.5</ele><time>2026-04-25T09:55:18.339Z</time></trkpt><trkpt lat="45.8252309" lon="13.5281504"><ele>62.75</ele><time>2026-04-25T09:55:20.325Z</time></trkpt><trkpt lat="45.8253071" lon="13.5280324"><ele>62.0</ele><time>2026-04-25T09:55:22.329Z</time></trkpt><trkpt lat="45.8253925" lon="13.5279383"><ele>62.400000000000006</ele><time>2026-04-25T09:55:24.34Z</time></trkpt><trkpt lat="45.8254843" lon="13.527865"><ele>62.800000000000004</ele><time>2026-04-25T09:55:26.333Z</time></trkpt><trkpt lat="45.8255742" lon="13.5277924"><ele>63.2</ele><time>2026-04-25T09:55:28.347Z</time></trkpt><trkpt lat="45.8256647" lon="13.5277209"><ele>63.6</ele><time>2026-04-25T09:55:30.329Z</time></trkpt><trkpt lat="45.8257567" lon="13.5276496"><ele>64.0</ele><time>2026-04-25T09:55:32.333Z</time></trkpt><trkpt lat="45.8258555" lon="13.5275755"><ele>64.0</ele><time>2026-04-25T09:55:34.33Z</time></trkpt><trkpt lat="45.8259577" lon="13.5275001"><ele>64.0</ele><time>2026-04-25T09:55:36.328Z</time></trkpt><trkpt lat="45.8260606" lon="13.5274225"><ele>64.0</ele><time>2026-04-25T09:55:38.344Z</time></trkpt><trkpt lat="45.8261572" lon="13.5273408"><ele>64.0</ele><time>2026-04-25T09:55:40.328Z</time></trkpt><trkpt lat="45.8262567" lon="13.5272558"><ele>63.33333333333333</ele><time>2026-04-25T09:55:42.348Z</time></trkpt><trkpt lat="45.8263615" lon="13.5271735"><ele>62.666666666666664</ele><time>2026-04-25T09:55:44.329Z</time></trkpt><trkpt lat="45.826418" lon="13.5271305"><ele>62.0</ele><time>2026-04-25T09:55:45.325Z</time></trkpt><trkpt lat="45.8264756" lon="13.5270866"><ele>61.33333333333333</ele><time>2026-04-25T09:55:46.315Z</time></trkpt><trkpt lat="45.8265343" lon="13.5270423"><ele>60.666666666666664</ele><time>2026-04-25T09:55:47.388Z</time></trkpt><trkpt lat="45.826596" lon="13.5269974"><ele>60.0</ele><time>2026-04-25T09:55:48.342Z</time></trkpt><trkpt lat="45.8266592" lon="13.5269511"><ele>59.833333333333336</ele><time>2026-04-25T09:55:49.325Z</time></trkpt><trkpt lat="45.8267235" lon="13.526903"><ele>59.66666666666667</ele><time>2026-04-25T09:55:50.345Z</time></trkpt><trkpt lat="45.8267901" lon="13.5268538"><ele>59.5</ele><time>2026-04-25T09:55:51.331Z</time></trkpt><trkpt lat="45.8268584" lon="13.526803"><ele>59.333333333333336</ele><time>2026-04-25T09:55:52.329Z</time></trkpt><trkpt lat="45.8269281" lon="13.5267542"><ele>59.16666666666667</ele><time>2026-04-25T09:55:53.326Z</time></trkpt><trkpt lat="45.826996" lon="13.5267036"><ele>59.0</ele><time>2026-04-25T09:55:54.333Z</time></trkpt><trkpt lat="45.827063" lon="13.5266542"><ele>58.57142857142857</ele><time>2026-04-25T09:55:55.337Z</time></trkpt><trkpt lat="45.8271292" lon="13.5266052"><ele>58.142857142857146</ele><time>2026-04-25T09:55:56.345Z</time></trkpt><trkpt lat="45.8271923" lon="13.5265561"><ele>57.714285714285715</ele><time>2026-04-25T09:55:57.332Z</time></trkpt><trkpt lat="45.8272564" lon="13.5265078"><ele>57.285714285714285</ele><time>2026-04-25T09:55:58.333Z</time></trkpt><trkpt lat="45.8273173" lon="13.52646"><ele>56.85714285714286</ele><time>2026-04-25T09:55:59.332Z</time></trkpt><trkpt lat="45.8273762" lon="13.5264125"><ele>56.42857142857143</ele><time>2026-04-25T09:56:00.333Z</time></trkpt><trkpt lat="45.827434" lon="13.5263669"><ele>56.0</ele><time>2026-04-25T09:56:01.325Z</time></trkpt><trkpt lat="45.8274928" lon="13.5263206"><ele>56.0</ele><time>2026-04-25T09:56:02.315Z</time></trkpt><trkpt lat="45.827552" lon="13.5262733"><ele>56.0</ele><time>2026-04-25T09:56:03.329Z</time></trkpt><trkpt lat="45.8276122" lon="13.5262262"><ele>56.0</ele><time>2026-04-25T09:56:04.352Z</time></trkpt><trkpt lat="45.8276694" lon="13.5261819"><ele>56.0</ele><time>2026-04-25T09:56:05.333Z</time></trkpt><trkpt lat="45.827729" lon="13.5261459"><ele>56.0</ele><time>2026-04-25T09:56:06.324Z</time></trkpt><trkpt lat="45.8277918" lon="13.526128"><ele>56.0</ele><time>2026-04-25T09:56:07.331Z</time></trkpt><trkpt lat="45.827853" lon="13.5261033"><ele>56.0</ele><time>2026-04-25T09:56:08.331Z</time></trkpt><trkpt lat="45.8279644" lon="13.526031"><ele>55.75</ele><time>2026-04-25T09:56:10.341Z</time></trkpt><trkpt lat="45.8280605" lon="13.5259284"><ele>55.5</ele><time>2026-04-25T09:56:12.337Z</time></trkpt><trkpt lat="45.828166" lon="13.5258484"><ele>55.25</ele><time>2026-04-25T09:56:14.32Z</time></trkpt><trkpt lat="45.8282733" lon="13.5257674"><ele>55.0</ele><time>2026-04-25T09:56:16.33Z</time></trkpt><trkpt lat="45.8283813" lon="13.5257008"><ele>54.75</ele><time>2026-04-25T09:56:18.329Z</time></trkpt><trkpt lat="45.8284879" lon="13.5256369"><ele>54.5</ele><time>2026-04-25T09:56:20.332Z</time></trkpt><trkpt lat="45.8285856" lon="13.5255566"><ele>54.25</ele><time>2026-04-25T09:56:22.33Z</time></trkpt><trkpt lat="45.8286597" lon="13.5254379"><ele>54.0</ele><time>2026-04-25T09:56:24.323Z</time></trkpt><trkpt lat="45.8287362" lon="13.5253177"><ele>54.0</ele><time>2026-04-25T09:56:26.322Z</time></trkpt><trkpt lat="45.8288248" lon="13.5252265"><ele>54.00000000000001</ele><time>2026-04-25T09:56:28.332Z</time></trkpt><trkpt lat="45.8289047" lon="13.5251333"><ele>54.00000000000001</ele><time>2026-04-25T09:56:30.339Z</time></trkpt><trkpt lat="45.8289804" lon="13.5250503"><ele>54.0</ele><time>2026-04-25T09:56:32.338Z</time></trkpt><trkpt lat="45.8290539" lon="13.5249655"><ele>54.0</ele><time>2026-04-25T09:56:34.326Z</time></trkpt><trkpt lat="45.8291257" lon="13.5248791"><ele>54.0</ele><time>2026-04-25T09:56:36.331Z</time></trkpt><trkpt lat="45.8291972" lon="13.5247985"><ele>54.00000000000001</ele><time>2026-04-25T09:56:38.329Z</time></trkpt><trkpt lat="45.8292682" lon="13.5247146"><ele>54.00000000000001</ele><time>2026-04-25T09:56:40.323Z</time></trkpt><trkpt lat="45.8293375" lon="13.5246208"><ele>54.0</ele><time>2026-04-25T09:56:42.312Z</time></trkpt><trkpt lat="45.8294112" lon="13.5245375"><ele>54.0</ele><time>2026-04-25T09:56:44.328Z</time></trkpt><trkpt lat="45.8294986" lon="13.5244609"><ele>54.2</ele><time>2026-04-25T09:56:46.329Z</time></trkpt><trkpt lat="45.8295815" lon="13.5243711"><ele>54.400000000000006</ele><time>2026-04-25T09:56:48.323Z</time></trkpt><trkpt lat="45.8296626" lon="13.5242679"><ele>54.6</ele><time>2026-04-25T09:56:50.317Z</time></trkpt><trkpt lat="45.8297386" lon="13.5241656"><ele>54.8</ele><time>2026-04-25T09:56:52.362Z</time></trkpt><trkpt lat="45.8298127" lon="13.5240611"><ele>55.0</ele><time>2026-04-25T09:56:54.347Z</time></trkpt><trkpt lat="45.8298828" lon="13.5239681"><ele>55.0</ele><time>2026-04-25T09:56:56.317Z</time></trkpt><trkpt lat="45.8299625" lon="13.5239065"><ele>55.0</ele><time>2026-04-25T09:56:58.32Z</time></trkpt><trkpt lat="45.8300381" lon="13.5238283"><ele>55.0</ele><time>2026-04-25T09:57:00.317Z</time></trkpt><trkpt lat="45.8301134" lon="13.5237417"><ele>55.0</ele><time>2026-04-25T09:57:02.325Z</time></trkpt><trkpt lat="45.8301886" lon="13.523646"><ele>55.0</ele><time>2026-04-25T09:57:04.305Z</time></trkpt><trkpt lat="45.8302704" lon="13.5235354"><ele>54.666666666666664</ele><time>2026-04-25T09:57:06.322Z</time></trkpt><trkpt lat="45.8303584" lon="13.5234143"><ele>54.33333333333333</ele><time>2026-04-25T09:57:08.341Z</time></trkpt><trkpt lat="45.8304074" lon="13.5233539"><ele>54.0</ele><time>2026-04-25T09:57:09.336Z</time></trkpt><trkpt lat="45.8304564" lon="13.5232937"><ele>53.66666666666667</ele><time>2026-04-25T09:57:10.328Z</time></trkpt><trkpt lat="45.8305137" lon="13.523226"><ele>53.333333333333336</ele><time>2026-04-25T09:57:11.337Z</time></trkpt><trkpt lat="45.8305771" lon="13.523163"><ele>53.0</ele><time>2026-04-25T09:57:12.316Z</time></trkpt><trkpt lat="45.8306395" lon="13.5230931"><ele>53.00000000000001</ele><time>2026-04-25T09:57:13.337Z</time></trkpt><trkpt lat="45.8307006" lon="13.5230185"><ele>53.0</ele><time>2026-04-25T09:57:14.329Z</time></trkpt><trkpt lat="45.8307612" lon="13.5229421"><ele>53.0</ele><time>2026-04-25T09:57:15.313Z</time></trkpt><trkpt lat="45.8308234" lon="13.5228627"><ele>53.0</ele><time>2026-04-25T09:57:16.317Z</time></trkpt><trkpt lat="45.8308821" lon="13.5227853"><ele>53.00000000000001</ele><time>2026-04-25T09:57:17.314Z</time></trkpt><trkpt lat="45.830942" lon="13.5227232"><ele>53.0</ele><time>2026-04-25T09:57:18.324Z</time></trkpt><trkpt lat="45.8309995" lon="13.5226643"><ele>53.00000000000001</ele><time>2026-04-25T09:57:19.348Z</time></trkpt><trkpt lat="45.8310703" lon="13.5226422"><ele>53.0</ele><time>2026-04-25T09:57:20.334Z</time></trkpt><trkpt lat="45.8311371" lon="13.5226232"><ele>53.0</ele><time>2026-04-25T09:57:21.334Z</time></trkpt><trkpt lat="45.8311978" lon="13.5225971"><ele>53.0</ele><time>2026-04-25T09:57:22.324Z</time></trkpt><trkpt lat="45.8313068" lon="13.5225251"><ele>53.00000000000001</ele><time>2026-04-25T09:57:24.327Z</time></trkpt><trkpt lat="45.8314048" lon="13.5224485"><ele>53.0</ele><time>2026-04-25T09:57:26.309Z</time></trkpt><trkpt lat="45.8315003" lon="13.5223791"><ele>53.0</ele><time>2026-04-25T09:57:28.316Z</time></trkpt><trkpt lat="45.8315941" lon="13.5223164"><ele>53.0</ele><time>2026-04-25T09:57:30.32Z</time></trkpt><trkpt lat="45.8316829" lon="13.5222446"><ele>53.0</ele><time>2026-04-25T09:57:32.32Z</time></trkpt><trkpt lat="45.8317611" lon="13.522159"><ele>53.0</ele><time>2026-04-25T09:57:34.317Z</time></trkpt><trkpt lat="45.8318294" lon="13.5220316"><ele>53.0</ele><time>2026-04-25T09:57:36.321Z</time></trkpt><trkpt lat="45.8319089" lon="13.5219225"><ele>52.599999999999994</ele><time>2026-04-25T09:57:38.33Z</time></trkpt><trkpt lat="45.8319741" lon="13.5218085"><ele>52.199999999999996</ele><time>2026-04-25T09:57:40.313Z</time></trkpt><trkpt lat="45.8320454" lon="13.5216916"><ele>51.8</ele><time>2026-04-25T09:57:42.316Z</time></trkpt><trkpt lat="45.8321148" lon="13.521573"><ele>51.4</ele><time>2026-04-25T09:57:44.315Z</time></trkpt><trkpt lat="45.8321973" lon="13.5214614"><ele>51.0</ele><time>2026-04-25T09:57:46.332Z</time></trkpt><trkpt lat="45.8322769" lon="13.5213412"><ele>51.0</ele><time>2026-04-25T09:57:48.321Z</time></trkpt><trkpt lat="45.8323313" lon="13.5211915"><ele>51.0</ele><time>2026-04-25T09:57:50.322Z</time></trkpt><trkpt lat="45.8323363" lon="13.5210206"><ele>51.0</ele><time>2026-04-25T09:57:52.318Z</time></trkpt><trkpt lat="45.8323344" lon="13.5208514"><ele>51.0</ele><time>2026-04-25T09:57:54.329Z</time></trkpt><trkpt lat="45.832345" lon="13.5206878"><ele>51.0</ele><time>2026-04-25T09:57:56.327Z</time></trkpt><trkpt lat="45.8323278" lon="13.5205303"><ele>51.0</ele><time>2026-04-25T09:57:58.323Z</time></trkpt><trkpt lat="45.8323143" lon="13.5203768"><ele>51.0</ele><time>2026-04-25T09:58:00.327Z</time></trkpt><trkpt lat="45.8323025" lon="13.5202279"><ele>51.0</ele><time>2026-04-25T09:58:02.32Z</time></trkpt><trkpt lat="45.8322915" lon="13.5200731"><ele>51.0</ele><time>2026-04-25T09:58:04.32Z</time></trkpt><trkpt lat="45.8322775" lon="13.5199136"><ele>50.599999999999994</ele><time>2026-04-25T09:58:06.317Z</time></trkpt><trkpt lat="45.8322609" lon="13.5197492"><ele>50.2</ele><time>2026-04-25T09:58:08.323Z</time></trkpt><trkpt lat="45.832271" lon="13.5195962"><ele>49.8</ele><time>2026-04-25T09:58:10.333Z</time></trkpt><trkpt lat="45.8323216" lon="13.51946"><ele>49.400000000000006</ele><time>2026-04-25T09:58:12.313Z</time></trkpt><trkpt lat="45.8323941" lon="13.5193361"><ele>49.0</ele><time>2026-04-25T09:58:14.32Z</time></trkpt><trkpt lat="45.8324637" lon="13.5192053"><ele>49.0</ele><time>2026-04-25T09:58:16.32Z</time></trkpt><trkpt lat="45.8325285" lon="13.519083"><ele>49.0</ele><time>2026-04-25T09:58:18.323Z</time></trkpt><trkpt lat="45.8325926" lon="13.5189419"><ele>49.0</ele><time>2026-04-25T09:58:20.326Z</time></trkpt><trkpt lat="45.8326647" lon="13.5188277"><ele>49.0</ele><time>2026-04-25T09:58:22.32Z</time></trkpt><trkpt lat="45.8327455" lon="13.5187311"><ele>49.0</ele><time>2026-04-25T09:58:24.325Z</time></trkpt><trkpt lat="45.8328295" lon="13.5186469"><ele>48.99999999999999</ele><time>2026-04-25T09:58:26.357Z</time></trkpt><trkpt lat="45.8329164" lon="13.5185829"><ele>49.0</ele><time>2026-04-25T09:58:28.312Z</time></trkpt><trkpt lat="45.8329845" lon="13.5185134"><ele>49.0</ele><time>2026-04-25T09:58:30.304Z</time></trkpt><trkpt lat="45.8330611" lon="13.5184771"><ele>49.0</ele><time>2026-04-25T09:58:33.325Z</time></trkpt><trkpt lat="45.8330496" lon="13.5185729"><ele>48.99999999999999</ele><time>2026-04-25T09:58:47.309Z</time></trkpt><trkpt lat="45.8331122" lon="13.5185973"><ele>49.0</ele><time>2026-04-25T09:58:51.322Z</time></trkpt><trkpt lat="45.8331162" lon="13.5184585"><ele>49.0</ele><time>2026-04-25T09:58:54.319Z</time></trkpt><trkpt lat="45.833157" lon="13.5183659"><ele>49.0</ele><time>2026-04-25T09:58:56.328Z</time></trkpt><trkpt lat="45.8332282" lon="13.5182894"><ele>49.0</ele><time>2026-04-25T09:58:58.327Z</time></trkpt><trkpt lat="45.8332969" lon="13.5181976"><ele>49.0</ele><time>2026-04-25T09:59:00.32Z</time></trkpt><trkpt lat="45.8333854" lon="13.5181438"><ele>49.0</ele><time>2026-04-25T09:59:02.323Z</time></trkpt><trkpt lat="45.8334746" lon="13.5180902"><ele>48.800000000000004</ele><time>2026-04-25T09:59:04.329Z</time></trkpt><trkpt lat="45.833559" lon="13.5180178"><ele>48.6</ele><time>2026-04-25T09:59:06.333Z</time></trkpt><trkpt lat="45.8336412" lon="13.5179444"><ele>48.4</ele><time>2026-04-25T09:59:08.311Z</time></trkpt><trkpt lat="45.8337208" lon="13.5178715"><ele>48.2</ele><time>2026-04-25T09:59:10.326Z</time></trkpt><trkpt lat="45.8337939" lon="13.5178002"><ele>48.0</ele><time>2026-04-25T09:59:12.333Z</time></trkpt><trkpt lat="45.8338682" lon="13.5177383"><ele>48.0</ele><time>2026-04-25T09:59:14.33Z</time></trkpt><trkpt lat="45.8339393" lon="13.5176761"><ele>48.0</ele><time>2026-04-25T09:59:16.317Z</time></trkpt><trkpt lat="45.8340059" lon="13.5176089"><ele>48.0</ele><time>2026-04-25T09:59:18.319Z</time></trkpt><trkpt lat="45.8340787" lon="13.5175439"><ele>48.0</ele><time>2026-04-25T09:59:20.325Z</time></trkpt><trkpt lat="45.8341536" lon="13.5174772"><ele>48.0</ele><time>2026-04-25T09:59:22.314Z</time></trkpt><trkpt lat="45.8342279" lon="13.5174146"><ele>48.0</ele><time>2026-04-25T09:59:24.325Z</time></trkpt><trkpt lat="45.8343051" lon="13.5173579"><ele>48.833333333333336</ele><time>2026-04-25T09:59:26.329Z</time></trkpt><trkpt lat="45.8343792" lon="13.5172979"><ele>49.66666666666667</ele><time>2026-04-25T09:59:28.317Z</time></trkpt><trkpt lat="45.834452" lon="13.517242"><ele>50.5</ele><time>2026-04-25T09:59:30.332Z</time></trkpt><trkpt lat="45.8345213" lon="13.5171813"><ele>51.333333333333336</ele><time>2026-04-25T09:59:32.321Z</time></trkpt><trkpt lat="45.8345866" lon="13.5171149"><ele>52.16666666666667</ele><time>2026-04-25T09:59:34.323Z</time></trkpt><trkpt lat="45.834655" lon="13.5170653"><ele>53.0</ele><time>2026-04-25T09:59:36.331Z</time></trkpt><trkpt lat="45.8347254" lon="13.5170084"><ele>53.00000000000001</ele><time>2026-04-25T09:59:38.322Z</time></trkpt><trkpt lat="45.8347919" lon="13.5169485"><ele>53.0</ele><time>2026-04-25T09:59:40.319Z</time></trkpt><trkpt lat="45.8348568" lon="13.5168875"><ele>53.0</ele><time>2026-04-25T09:59:42.328Z</time></trkpt><trkpt lat="45.8349194" lon="13.5168293"><ele>53.0</ele><time>2026-04-25T09:59:44.312Z</time></trkpt><trkpt lat="45.8349802" lon="13.5167704"><ele>53.00000000000001</ele><time>2026-04-25T09:59:46.323Z</time></trkpt><trkpt lat="45.8350464" lon="13.516714"><ele>53.0</ele><time>2026-04-25T09:59:48.331Z</time></trkpt><trkpt lat="45.835111" lon="13.5166621"><ele>54.0</ele><time>2026-04-25T09:59:50.343Z</time></trkpt><trkpt lat="45.8351716" lon="13.5166101"><ele>55.0</ele><time>2026-04-25T09:59:52.319Z</time></trkpt><trkpt lat="45.8352321" lon="13.5165649"><ele>56.0</ele><time>2026-04-25T09:59:54.319Z</time></trkpt><trkpt lat="45.8352945" lon="13.5165191"><ele>57.0</ele><time>2026-04-25T09:59:56.329Z</time></trkpt><trkpt lat="45.8353615" lon="13.5164758"><ele>58.0</ele><time>2026-04-25T09:59:58.317Z</time></trkpt><trkpt lat="45.8354274" lon="13.5164191"><ele>59.0</ele><time>2026-04-25T10:00:00.331Z</time></trkpt><trkpt lat="45.8354925" lon="13.5163638"><ele>60.0</ele><time>2026-04-25T10:00:02.327Z</time></trkpt><trkpt lat="45.8355591" lon="13.5163119"><ele>60.0</ele><time>2026-04-25T10:00:04.325Z</time></trkpt><trkpt lat="45.8356265" lon="13.5162593"><ele>60.0</ele><time>2026-04-25T10:00:06.327Z</time></trkpt><trkpt lat="45.8356899" lon="13.5162017"><ele>60.0</ele><time>2026-04-25T10:00:08.315Z</time></trkpt><trkpt lat="45.8357535" lon="13.516144"><ele>60.0</ele><time>2026-04-25T10:00:10.329Z</time></trkpt><trkpt lat="45.8358168" lon="13.5160884"><ele>60.0</ele><time>2026-04-25T10:00:12.326Z</time></trkpt><trkpt lat="45.8358798" lon="13.5160303"><ele>60.0</ele><time>2026-04-25T10:00:14.313Z</time></trkpt><trkpt lat="45.8359445" lon="13.5159755"><ele>60.0</ele><time>2026-04-25T10:00:16.327Z</time></trkpt><trkpt lat="45.8360127" lon="13.5159226"><ele>60.0</ele><time>2026-04-25T10:00:18.34Z</time></trkpt><trkpt lat="45.8360785" lon="13.515864"><ele>60.0</ele><time>2026-04-25T10:00:20.327Z</time></trkpt><trkpt lat="45.8361455" lon="13.5158062"><ele>60.0</ele><time>2026-04-25T10:00:22.323Z</time></trkpt><trkpt lat="45.8362143" lon="13.5157439"><ele>60.0</ele><time>2026-04-25T10:00:24.322Z</time></trkpt><trkpt lat="45.8362813" lon="13.515678"><ele>60.0</ele><time>2026-04-25T10:00:26.339Z</time></trkpt><trkpt lat="45.8363536" lon="13.5156233"><ele>60.0</ele><time>2026-04-25T10:00:28.322Z</time></trkpt><trkpt lat="45.8364246" lon="13.5155637"><ele>60.0</ele><time>2026-04-25T10:00:30.328Z</time></trkpt><trkpt lat="45.8365008" lon="13.5154965"><ele>60.0</ele><time>2026-04-25T10:00:32.328Z</time></trkpt><trkpt lat="45.8365855" lon="13.5154015"><ele>60.0</ele><time>2026-04-25T10:00:34.323Z</time></trkpt><trkpt lat="45.8366926" lon="13.5153051"><ele>60.0</ele><time>2026-04-25T10:00:36.312Z</time></trkpt><trkpt lat="45.836761" lon="13.5152604"><ele>60.0</ele><time>2026-04-25T10:00:37.321Z</time></trkpt><trkpt lat="45.8368242" lon="13.5152055"><ele>60.0</ele><time>2026-04-25T10:00:38.334Z</time></trkpt><trkpt lat="45.8368784" lon="13.5151528"><ele>60.0</ele><time>2026-04-25T10:00:39.318Z</time></trkpt><trkpt lat="45.8369645" lon="13.5150775"><ele>60.0</ele><time>2026-04-25T10:00:41.324Z</time></trkpt><trkpt lat="45.8370395" lon="13.515021"><ele>60.0</ele><time>2026-04-25T10:00:43.323Z</time></trkpt><trkpt lat="45.8371021" lon="13.5149659"><ele>60.0</ele><time>2026-04-25T10:00:45.327Z</time></trkpt><trkpt lat="45.8371563" lon="13.514917"><ele>60.0</ele><time>2026-04-25T10:00:47.328Z</time></trkpt><trkpt lat="45.8372228" lon="13.5148445"><ele>60.0</ele><time>2026-04-25T10:00:50.312Z</time></trkpt><trkpt lat="45.8372888" lon="13.5147663"><ele>60.0</ele><time>2026-04-25T10:00:53.326Z</time></trkpt><trkpt lat="45.8373589" lon="13.5146824"><ele>60.0</ele><time>2026-04-25T10:00:56.322Z</time></trkpt><trkpt lat="45.8374244" lon="13.5145906"><ele>60.0</ele><time>2026-04-25T10:00:59.328Z</time></trkpt><trkpt lat="45.8374769" lon="13.5145087"><ele>60.0</ele><time>2026-04-25T10:01:01.319Z</time></trkpt><trkpt lat="45.8375514" lon="13.5144025"><ele>59.85714285714286</ele><time>2026-04-25T10:01:03.328Z</time></trkpt><trkpt lat="45.8376022" lon="13.5143429"><ele>59.71428571428571</ele><time>2026-04-25T10:01:04.316Z</time></trkpt><trkpt lat="45.8376604" lon="13.5142776"><ele>59.57142857142857</ele><time>2026-04-25T10:01:05.337Z</time></trkpt><trkpt lat="45.8377217" lon="13.5142056"><ele>59.42857142857143</ele><time>2026-04-25T10:01:06.307Z</time></trkpt><trkpt lat="45.8377805" lon="13.514129"><ele>59.28571428571429</ele><time>2026-04-25T10:01:07.322Z</time></trkpt><trkpt lat="45.83782" lon="13.5140573"><ele>59.14285714285714</ele><time>2026-04-25T10:01:08.325Z</time></trkpt><trkpt lat="45.8378691" lon="13.5139632"><ele>59.0</ele><time>2026-04-25T10:01:10.324Z</time></trkpt><trkpt lat="45.837927" lon="13.5138937"><ele>59.00000000000001</ele><time>2026-04-25T10:01:13.322Z</time></trkpt><trkpt lat="45.8379816" lon="13.5138255"><ele>59.0</ele><time>2026-04-25T10:01:16.331Z</time></trkpt><trkpt lat="45.8380578" lon="13.513751"><ele>59.0</ele><time>2026-04-25T10:01:19.308Z</time></trkpt><trkpt lat="45.8381235" lon="13.5136808"><ele>59.0</ele><time>2026-04-25T10:01:22.327Z</time></trkpt><trkpt lat="45.8381917" lon="13.5135864"><ele>59.00000000000001</ele><time>2026-04-25T10:01:25.321Z</time></trkpt><trkpt lat="45.8382331" lon="13.5135165"><ele>59.0</ele><time>2026-04-25T10:01:27.331Z</time></trkpt><trkpt lat="45.8382776" lon="13.5134455"><ele>59.16666666666667</ele><time>2026-04-25T10:01:29.323Z</time></trkpt><trkpt lat="45.8383262" lon="13.5133791"><ele>59.333333333333336</ele><time>2026-04-25T10:01:31.313Z</time></trkpt><trkpt lat="45.8383984" lon="13.5132927"><ele>59.5</ele><time>2026-04-25T10:01:34.328Z</time></trkpt><trkpt lat="45.8384689" lon="13.5132069"><ele>59.66666666666667</ele><time>2026-04-25T10:01:37.319Z</time></trkpt><trkpt lat="45.838516" lon="13.5131413"><ele>59.833333333333336</ele><time>2026-04-25T10:01:39.331Z</time></trkpt><trkpt lat="45.8385727" lon="13.5130707"><ele>60.0</ele><time>2026-04-25T10:01:41.314Z</time></trkpt><trkpt lat="45.8386336" lon="13.512993"><ele>61.833333333333336</ele><time>2026-04-25T10:01:43.324Z</time></trkpt><trkpt lat="45.8386975" lon="13.5129085"><ele>63.66666666666667</ele><time>2026-04-25T10:01:45.318Z</time></trkpt><trkpt lat="45.8387669" lon="13.5128215"><ele>65.5</ele><time>2026-04-25T10:01:47.329Z</time></trkpt><trkpt lat="45.8388291" lon="13.5127252"><ele>67.33333333333334</ele><time>2026-04-25T10:01:49.333Z</time></trkpt><trkpt lat="45.8388932" lon="13.5126411"><ele>69.16666666666667</ele><time>2026-04-25T10:01:51.314Z</time></trkpt><trkpt lat="45.8389537" lon="13.5125577"><ele>71.0</ele><time>2026-04-25T10:01:53.319Z</time></trkpt><trkpt lat="45.8390103" lon="13.5124793"><ele>71.0</ele><time>2026-04-25T10:01:55.323Z</time></trkpt><trkpt lat="45.839066" lon="13.5123997"><ele>71.0</ele><time>2026-04-25T10:01:57.333Z</time></trkpt><trkpt lat="45.8391242" lon="13.5123215"><ele>71.0</ele><time>2026-04-25T10:01:59.328Z</time></trkpt><trkpt lat="45.8391821" lon="13.5122455"><ele>71.0</ele><time>2026-04-25T10:02:01.335Z</time></trkpt><trkpt lat="45.8392396" lon="13.5121714"><ele>71.0</ele><time>2026-04-25T10:02:03.32Z</time></trkpt><trkpt lat="45.8392959" lon="13.5120914"><ele>71.0</ele><time>2026-04-25T10:02:05.31Z</time></trkpt><trkpt lat="45.8393528" lon="13.5120108"><ele>71.83333333333334</ele><time>2026-04-25T10:02:07.333Z</time></trkpt><trkpt lat="45.83942" lon="13.5119336"><ele>72.66666666666667</ele><time>2026-04-25T10:02:09.332Z</time></trkpt><trkpt lat="45.8394827" lon="13.5118518"><ele>73.5</ele><time>2026-04-25T10:02:11.317Z</time></trkpt><trkpt lat="45.8395446" lon="13.5117738"><ele>74.33333333333333</ele><time>2026-04-25T10:02:13.338Z</time></trkpt><trkpt lat="45.8396033" lon="13.5116969"><ele>75.16666666666666</ele><time>2026-04-25T10:02:15.32Z</time></trkpt><trkpt lat="45.8396585" lon="13.5116278"><ele>76.0</ele><time>2026-04-25T10:02:17.33Z</time></trkpt><trkpt lat="45.8397118" lon="13.5115533"><ele>76.0</ele><time>2026-04-25T10:02:19.325Z</time></trkpt><trkpt lat="45.8397701" lon="13.5114822"><ele>76.0</ele><time>2026-04-25T10:02:21.317Z</time></trkpt><trkpt lat="45.8398276" lon="13.5114056"><ele>76.0</ele><time>2026-04-25T10:02:23.324Z</time></trkpt><trkpt lat="45.8398866" lon="13.5113287"><ele>76.0</ele><time>2026-04-25T10:02:25.32Z</time></trkpt><trkpt lat="45.8399459" lon="13.5112468"><ele>76.0</ele><time>2026-04-25T10:02:27.322Z</time></trkpt><trkpt lat="45.8400029" lon="13.5111657"><ele>76.0</ele><time>2026-04-25T10:02:29.324Z</time></trkpt><trkpt lat="45.8400601" lon="13.5110858"><ele>74.66666666666666</ele><time>2026-04-25T10:02:31.322Z</time></trkpt><trkpt lat="45.8401134" lon="13.5110092"><ele>73.33333333333333</ele><time>2026-04-25T10:02:33.328Z</time></trkpt><trkpt lat="45.8401655" lon="13.5109288"><ele>72.0</ele><time>2026-04-25T10:02:35.325Z</time></trkpt><trkpt lat="45.8402169" lon="13.5108457"><ele>70.66666666666667</ele><time>2026-04-25T10:02:37.341Z</time></trkpt><trkpt lat="45.8402716" lon="13.5107703"><ele>69.33333333333334</ele><time>2026-04-25T10:02:39.324Z</time></trkpt><trkpt lat="45.8403262" lon="13.5106981"><ele>68.0</ele><time>2026-04-25T10:02:41.32Z</time></trkpt><trkpt lat="45.8403777" lon="13.5106266"><ele>69.28571428571428</ele><time>2026-04-25T10:02:43.342Z</time></trkpt><trkpt lat="45.8404276" lon="13.5105566"><ele>70.57142857142857</ele><time>2026-04-25T10:02:45.33Z</time></trkpt><trkpt lat="45.8404818" lon="13.5104853"><ele>71.85714285714286</ele><time>2026-04-25T10:02:47.315Z</time></trkpt><trkpt lat="45.8405336" lon="13.5104084"><ele>73.14285714285714</ele><time>2026-04-25T10:02:49.341Z</time></trkpt><trkpt lat="45.8405898" lon="13.5103333"><ele>74.42857142857143</ele><time>2026-04-25T10:02:51.323Z</time></trkpt><trkpt lat="45.8406384" lon="13.5102466"><ele>75.71428571428571</ele><time>2026-04-25T10:02:53.322Z</time></trkpt><trkpt lat="45.8406901" lon="13.5101695"><ele>77.0</ele><time>2026-04-25T10:02:55.316Z</time></trkpt><trkpt lat="45.8407405" lon="13.5100942"><ele>77.0</ele><time>2026-04-25T10:02:57.317Z</time></trkpt><trkpt lat="45.8407935" lon="13.5100271"><ele>77.0</ele><time>2026-04-25T10:02:59.326Z</time></trkpt><trkpt lat="45.8408478" lon="13.5099669"><ele>77.0</ele><time>2026-04-25T10:03:01.296Z</time></trkpt><trkpt lat="45.840902" lon="13.5099121"><ele>77.0</ele><time>2026-04-25T10:03:03.326Z</time></trkpt><trkpt lat="45.8409508" lon="13.5098534"><ele>77.0</ele><time>2026-04-25T10:03:05.322Z</time></trkpt><trkpt lat="45.8409975" lon="13.5097862"><ele>77.0</ele><time>2026-04-25T10:03:07.34Z</time></trkpt><trkpt lat="45.8410629" lon="13.5097023"><ele>77.0</ele><time>2026-04-25T10:03:10.326Z</time></trkpt><trkpt lat="45.8411272" lon="13.5096166"><ele>78.83333333333334</ele><time>2026-04-25T10:03:13.333Z</time></trkpt><trkpt lat="45.8411887" lon="13.5095293"><ele>80.66666666666667</ele><time>2026-04-25T10:03:16.314Z</time></trkpt><trkpt lat="45.8412541" lon="13.5094386"><ele>82.5</ele><time>2026-04-25T10:03:19.33Z</time></trkpt><trkpt lat="45.8413029" lon="13.5093798"><ele>84.33333333333333</ele><time>2026-04-25T10:03:21.339Z</time></trkpt><trkpt lat="45.8413695" lon="13.5092868"><ele>86.16666666666666</ele><time>2026-04-25T10:03:24.318Z</time></trkpt><trkpt lat="45.841434" lon="13.5091919"><ele>88.0</ele><time>2026-04-25T10:03:27.326Z</time></trkpt><trkpt lat="45.841499" lon="13.5091076"><ele>88.0</ele><time>2026-04-25T10:03:30.341Z</time></trkpt><trkpt lat="45.841561" lon="13.5090279"><ele>88.0</ele><time>2026-04-25T10:03:33.326Z</time></trkpt><trkpt lat="45.8416283" lon="13.5089358"><ele>88.0</ele><time>2026-04-25T10:03:36.315Z</time></trkpt><trkpt lat="45.8416944" lon="13.5088444"><ele>88.0</ele><time>2026-04-25T10:03:39.332Z</time></trkpt><trkpt lat="45.8417609" lon="13.508758"><ele>88.0</ele><time>2026-04-25T10:03:42.316Z</time></trkpt><trkpt lat="45.8418212" lon="13.5086752"><ele>88.0</ele><time>2026-04-25T10:03:45.337Z</time></trkpt><trkpt lat="45.8418838" lon="13.5085904"><ele>90.16666666666666</ele><time>2026-04-25T10:03:48.321Z</time></trkpt><trkpt lat="45.8419392" lon="13.5084959"><ele>92.33333333333333</ele><time>2026-04-25T10:03:51.327Z</time></trkpt><trkpt lat="45.8420035" lon="13.5084021"><ele>94.5</ele><time>2026-04-25T10:03:54.335Z</time></trkpt><trkpt lat="45.842069" lon="13.508317"><ele>96.66666666666666</ele><time>2026-04-25T10:03:57.329Z</time></trkpt><trkpt lat="45.8421376" lon="13.5082346"><ele>98.83333333333333</ele><time>2026-04-25T10:04:00.339Z</time></trkpt><trkpt lat="45.8421854" lon="13.5081645"><ele>101.0</ele><time>2026-04-25T10:04:02.318Z</time></trkpt><trkpt lat="45.8422354" lon="13.5080997"><ele>101.0</ele><time>2026-04-25T10:04:04.332Z</time></trkpt><trkpt lat="45.8422838" lon="13.5080341"><ele>101.0</ele><time>2026-04-25T10:04:06.333Z</time></trkpt><trkpt lat="45.842331" lon="13.5079658"><ele>101.0</ele><time>2026-04-25T10:04:08.323Z</time></trkpt><trkpt lat="45.8423778" lon="13.5079005"><ele>101.0</ele><time>2026-04-25T10:04:10.336Z</time></trkpt><trkpt lat="45.8424218" lon="13.5078256"><ele>101.0</ele><time>2026-04-25T10:04:12.323Z</time></trkpt><trkpt lat="45.8424723" lon="13.5077574"><ele>101.0</ele><time>2026-04-25T10:04:14.332Z</time></trkpt><trkpt lat="45.8425254" lon="13.5076897"><ele>101.0</ele><time>2026-04-25T10:04:16.328Z</time></trkpt><trkpt lat="45.8425793" lon="13.5076261"><ele>101.28571428571428</ele><time>2026-04-25T10:04:18.328Z</time></trkpt><trkpt lat="45.8426328" lon="13.5075593"><ele>101.57142857142857</ele><time>2026-04-25T10:04:20.336Z</time></trkpt><trkpt lat="45.8426866" lon="13.5074952"><ele>101.85714285714286</ele><time>2026-04-25T10:04:22.321Z</time></trkpt><trkpt lat="45.8427397" lon="13.5074288"><ele>102.14285714285714</ele><time>2026-04-25T10:04:24.323Z</time></trkpt><trkpt lat="45.8428007" lon="13.5073607"><ele>102.42857142857143</ele><time>2026-04-25T10:04:26.316Z</time></trkpt><trkpt lat="45.842862" lon="13.50729"><ele>102.71428571428571</ele><time>2026-04-25T10:04:28.316Z</time></trkpt><trkpt lat="45.8429229" lon="13.5072172"><ele>103.0</ele><time>2026-04-25T10:04:30.339Z</time></trkpt><trkpt lat="45.8429864" lon="13.5071537"><ele>103.00000000000001</ele><time>2026-04-25T10:04:32.32Z</time></trkpt><trkpt lat="45.843049" lon="13.5070866"><ele>103.0</ele><time>2026-04-25T10:04:34.343Z</time></trkpt><trkpt lat="45.8431061" lon="13.5070044"><ele>103.0</ele><time>2026-04-25T10:04:36.331Z</time></trkpt><trkpt lat="45.8431706" lon="13.5069309"><ele>103.0</ele><time>2026-04-25T10:04:38.332Z</time></trkpt><trkpt lat="45.8432364" lon="13.5068602"><ele>103.00000000000001</ele><time>2026-04-25T10:04:40.32Z</time></trkpt><trkpt lat="45.8433031" lon="13.5067881"><ele>103.0</ele><time>2026-04-25T10:04:42.337Z</time></trkpt><trkpt lat="45.8433689" lon="13.5067076"><ele>102.60000000000001</ele><time>2026-04-25T10:04:44.327Z</time></trkpt><trkpt lat="45.8434434" lon="13.5066479"><ele>102.2</ele><time>2026-04-25T10:04:46.331Z</time></trkpt><trkpt lat="45.8435374" lon="13.5066127"><ele>101.8</ele><time>2026-04-25T10:04:48.318Z</time></trkpt><trkpt lat="45.8436272" lon="13.506587"><ele>101.4</ele><time>2026-04-25T10:04:50.344Z</time></trkpt><trkpt lat="45.8437151" lon="13.5065506"><ele>101.0</ele><time>2026-04-25T10:04:52.32Z</time></trkpt><trkpt lat="45.8438102" lon="13.5065426"><ele>100.99999999999999</ele><time>2026-04-25T10:04:54.326Z</time></trkpt><trkpt lat="45.8438955" lon="13.5065455"><ele>101.0</ele><time>2026-04-25T10:04:56.314Z</time></trkpt><trkpt lat="45.8439705" lon="13.5065317"><ele>101.0</ele><time>2026-04-25T10:04:58.329Z</time></trkpt><trkpt lat="45.8440495" lon="13.5064963"><ele>101.0</ele><time>2026-04-25T10:05:00.334Z</time></trkpt><trkpt lat="45.8441237" lon="13.506437"><ele>100.99999999999999</ele><time>2026-04-25T10:05:03.336Z</time></trkpt><trkpt lat="45.8441753" lon="13.5063695"><ele>101.0</ele><time>2026-04-25T10:05:05.324Z</time></trkpt><trkpt lat="45.844235" lon="13.5062726"><ele>99.8</ele><time>2026-04-25T10:05:07.315Z</time></trkpt><trkpt lat="45.8442833" lon="13.5061572"><ele>98.6</ele><time>2026-04-25T10:05:09.313Z</time></trkpt><trkpt lat="45.8443329" lon="13.5060403"><ele>97.4</ele><time>2026-04-25T10:05:11.322Z</time></trkpt><trkpt lat="45.8443878" lon="13.5059258"><ele>96.2</ele><time>2026-04-25T10:05:13.329Z</time></trkpt><trkpt lat="45.8444427" lon="13.5058189"><ele>95.0</ele><time>2026-04-25T10:05:15.345Z</time></trkpt><trkpt lat="45.8444993" lon="13.5057221"><ele>96.66666666666667</ele><time>2026-04-25T10:05:17.319Z</time></trkpt><trkpt lat="45.844556" lon="13.5056254"><ele>98.33333333333334</ele><time>2026-04-25T10:05:19.307Z</time></trkpt><trkpt lat="45.8446166" lon="13.5055332"><ele>100.0</ele><time>2026-04-25T10:05:21.33Z</time></trkpt><trkpt lat="45.8446816" lon="13.5054539"><ele>101.66666666666667</ele><time>2026-04-25T10:05:23.316Z</time></trkpt><trkpt lat="45.8447452" lon="13.5053672"><ele>103.33333333333333</ele><time>2026-04-25T10:05:25.338Z</time></trkpt><trkpt lat="45.8448037" lon="13.5052713"><ele>105.0</ele><time>2026-04-25T10:05:27.322Z</time></trkpt><trkpt lat="45.8448515" lon="13.5051607"><ele>105.0</ele><time>2026-04-25T10:05:29.325Z</time></trkpt><trkpt lat="45.8449015" lon="13.5050446"><ele>105.0</ele><time>2026-04-25T10:05:31.341Z</time></trkpt><trkpt lat="45.8449702" lon="13.5049615"><ele>105.0</ele><time>2026-04-25T10:05:33.331Z</time></trkpt><trkpt lat="45.8450447" lon="13.504874"><ele>105.0</ele><time>2026-04-25T10:05:35.333Z</time></trkpt><trkpt lat="45.845128" lon="13.5047939"><ele>105.0</ele><time>2026-04-25T10:05:37.344Z</time></trkpt><trkpt lat="45.8452127" lon="13.5047128"><ele>105.2</ele><time>2026-04-25T10:05:39.327Z</time></trkpt><trkpt lat="45.8452921" lon="13.5046362"><ele>105.4</ele><time>2026-04-25T10:05:41.316Z</time></trkpt><trkpt lat="45.8453792" lon="13.5045661"><ele>105.6</ele><time>2026-04-25T10:05:43.324Z</time></trkpt><trkpt lat="45.8454673" lon="13.5045065"><ele>105.8</ele><time>2026-04-25T10:05:45.343Z</time></trkpt><trkpt lat="45.8455491" lon="13.5044516"><ele>106.0</ele><time>2026-04-25T10:05:47.324Z</time></trkpt><trkpt lat="45.845619" lon="13.5043923"><ele>106.0</ele><time>2026-04-25T10:05:49.371Z</time></trkpt><trkpt lat="45.8457022" lon="13.5043223"><ele>106.0</ele><time>2026-04-25T10:05:51.321Z</time></trkpt><trkpt lat="45.8457734" lon="13.5042521"><ele>106.0</ele><time>2026-04-25T10:05:53.331Z</time></trkpt><trkpt lat="45.845851" lon="13.5041639"><ele>106.0</ele><time>2026-04-25T10:05:55.329Z</time></trkpt><trkpt lat="45.8459244" lon="13.5040514"><ele>106.0</ele><time>2026-04-25T10:05:57.332Z</time></trkpt><trkpt lat="45.8459983" lon="13.5039413"><ele>106.4</ele><time>2026-04-25T10:05:59.329Z</time></trkpt><trkpt lat="45.8460752" lon="13.5038432"><ele>106.8</ele><time>2026-04-25T10:06:01.341Z</time></trkpt><trkpt lat="45.8461455" lon="13.5037383"><ele>107.20000000000002</ele><time>2026-04-25T10:06:03.328Z</time></trkpt><trkpt lat="45.8462268" lon="13.5036353"><ele>107.60000000000001</ele><time>2026-04-25T10:06:05.33Z</time></trkpt><trkpt lat="45.8463162" lon="13.503518"><ele>108.0</ele><time>2026-04-25T10:06:07.319Z</time></trkpt><trkpt lat="45.8464055" lon="13.5033994"><ele>107.0</ele><time>2026-04-25T10:06:09.32Z</time></trkpt><trkpt lat="45.8465006" lon="13.5032943"><ele>106.0</ele><time>2026-04-25T10:06:11.332Z</time></trkpt><trkpt lat="45.8465919" lon="13.5031912"><ele>105.0</ele><time>2026-04-25T10:06:13.337Z</time></trkpt><trkpt lat="45.8466851" lon="13.5030954"><ele>104.0</ele><time>2026-04-25T10:06:15.321Z</time></trkpt><trkpt lat="45.8467688" lon="13.5029939"><ele>103.80000000000001</ele><time>2026-04-25T10:06:17.325Z</time></trkpt><trkpt lat="45.8468547" lon="13.5028913"><ele>103.60000000000001</ele><time>2026-04-25T10:06:19.321Z</time></trkpt><trkpt lat="45.8469414" lon="13.5027874"><ele>103.4</ele><time>2026-04-25T10:06:21.339Z</time></trkpt><trkpt lat="45.8470212" lon="13.5026762"><ele>103.2</ele><time>2026-04-25T10:06:23.332Z</time></trkpt><trkpt lat="45.8471073" lon="13.5025784"><ele>103.0</ele><time>2026-04-25T10:06:25.344Z</time></trkpt><trkpt lat="45.8471896" lon="13.50248"><ele>103.0</ele><time>2026-04-25T10:06:27.325Z</time></trkpt><trkpt lat="45.8472708" lon="13.5023812"><ele>103.0</ele><time>2026-04-25T10:06:29.33Z</time></trkpt><trkpt lat="45.8473581" lon="13.5022807"><ele>103.0</ele><time>2026-04-25T10:06:31.328Z</time></trkpt><trkpt lat="45.8474424" lon="13.5021829"><ele>103.0</ele><time>2026-04-25T10:06:33.336Z</time></trkpt><trkpt lat="45.8475282" lon="13.5020755"><ele>103.0</ele><time>2026-04-25T10:06:35.334Z</time></trkpt><trkpt lat="45.8476198" lon="13.5019726"><ele>103.60000000000001</ele><time>2026-04-25T10:06:37.316Z</time></trkpt><trkpt lat="45.847716" lon="13.5018816"><ele>104.2</ele><time>2026-04-25T10:06:39.315Z</time></trkpt><trkpt lat="45.8478024" lon="13.5017904"><ele>104.8</ele><time>2026-04-25T10:06:41.326Z</time></trkpt><trkpt lat="45.8478784" lon="13.5017049"><ele>105.4</ele><time>2026-04-25T10:06:43.334Z</time></trkpt><trkpt lat="45.8479484" lon="13.5016229"><ele>106.0</ele><time>2026-04-25T10:06:45.336Z</time></trkpt><trkpt lat="45.8480278" lon="13.5015541"><ele>106.0</ele><time>2026-04-25T10:06:47.324Z</time></trkpt><trkpt lat="45.8481212" lon="13.5015076"><ele>106.0</ele><time>2026-04-25T10:06:49.323Z</time></trkpt><trkpt lat="45.8481921" lon="13.5014247"><ele>106.0</ele><time>2026-04-25T10:06:51.347Z</time></trkpt><trkpt lat="45.8482678" lon="13.5013168"><ele>106.0</ele><time>2026-04-25T10:06:53.341Z</time></trkpt><trkpt lat="45.848356" lon="13.5012311"><ele>106.0</ele><time>2026-04-25T10:06:55.327Z</time></trkpt><trkpt lat="45.8484512" lon="13.5011575"><ele>105.5</ele><time>2026-04-25T10:06:57.338Z</time></trkpt><trkpt lat="45.8485528" lon="13.5010808"><ele>105.0</ele><time>2026-04-25T10:06:59.327Z</time></trkpt><trkpt lat="45.8486525" lon="13.5010056"><ele>104.5</ele><time>2026-04-25T10:07:01.333Z</time></trkpt><trkpt lat="45.848749" lon="13.5009087"><ele>104.0</ele><time>2026-04-25T10:07:03.321Z</time></trkpt><trkpt lat="45.8488222" lon="13.500779"><ele>104.0</ele><time>2026-04-25T10:07:05.35Z</time></trkpt><trkpt lat="45.8488959" lon="13.5006672"><ele>104.0</ele><time>2026-04-25T10:07:07.349Z</time></trkpt><trkpt lat="45.8489825" lon="13.5005886"><ele>104.0</ele><time>2026-04-25T10:07:09.326Z</time></trkpt><trkpt lat="45.8490767" lon="13.5005328"><ele>104.0</ele><time>2026-04-25T10:07:11.328Z</time></trkpt><trkpt lat="45.8491738" lon="13.5004729"><ele>104.0</ele><time>2026-04-25T10:07:13.337Z</time></trkpt><trkpt lat="45.8492642" lon="13.5004136"><ele>103.2</ele><time>2026-04-25T10:07:15.328Z</time></trkpt><trkpt lat="45.84937" lon="13.5003668"><ele>102.4</ele><time>2026-04-25T10:07:17.342Z</time></trkpt><trkpt lat="45.8494695" lon="13.5003326"><ele>101.6</ele><time>2026-04-25T10:07:19.32Z</time></trkpt><trkpt lat="45.8495508" lon="13.5003134"><ele>100.8</ele><time>2026-04-25T10:07:21.348Z</time></trkpt><trkpt lat="45.8496289" lon="13.5002341"><ele>100.0</ele><time>2026-04-25T10:07:24.334Z</time></trkpt><trkpt lat="45.8497177" lon="13.5001438"><ele>100.0</ele><time>2026-04-25T10:07:26.314Z</time></trkpt><trkpt lat="45.8498325" lon="13.5000757"><ele>100.0</ele><time>2026-04-25T10:07:28.327Z</time></trkpt><trkpt lat="45.8498958" lon="13.5000517"><ele>100.0</ele><time>2026-04-25T10:07:29.323Z</time></trkpt><trkpt lat="45.8499595" lon="13.5000386"><ele>100.0</ele><time>2026-04-25T10:07:30.316Z</time></trkpt><trkpt lat="45.8500829" lon="13.5000313"><ele>100.0</ele><time>2026-04-25T10:07:32.328Z</time></trkpt><trkpt lat="45.8501909" lon="13.5000381"><ele>100.4</ele><time>2026-04-25T10:07:34.322Z</time></trkpt><trkpt lat="45.8502906" lon="13.5000086"><ele>100.8</ele><time>2026-04-25T10:07:36.326Z</time></trkpt><trkpt lat="45.8503966" lon="13.4999907"><ele>101.19999999999999</ele><time>2026-04-25T10:07:38.331Z</time></trkpt><trkpt lat="45.8504993" lon="13.4999838"><ele>101.6</ele><time>2026-04-25T10:07:40.323Z</time></trkpt><trkpt lat="45.850606" lon="13.4999831"><ele>102.0</ele><time>2026-04-25T10:07:42.322Z</time></trkpt><trkpt lat="45.8507115" lon="13.4999698"><ele>102.0</ele><time>2026-04-25T10:07:44.318Z</time></trkpt><trkpt lat="45.8508162" lon="13.4999575"><ele>102.0</ele><time>2026-04-25T10:07:46.32Z</time></trkpt><trkpt lat="45.8509137" lon="13.4999331"><ele>102.0</ele><time>2026-04-25T10:07:48.334Z</time></trkpt><trkpt lat="45.8510001" lon="13.4998973"><ele>102.0</ele><time>2026-04-25T10:07:50.325Z</time></trkpt><trkpt lat="45.8510809" lon="13.4998697"><ele>102.0</ele><time>2026-04-25T10:07:52.33Z</time></trkpt><trkpt lat="45.8511558" lon="13.4998484"><ele>102.16666666666667</ele><time>2026-04-25T10:07:54.321Z</time></trkpt><trkpt lat="45.8512249" lon="13.4998281"><ele>102.33333333333334</ele><time>2026-04-25T10:07:56.314Z</time></trkpt><trkpt lat="45.8513103" lon="13.4997959"><ele>102.5</ele><time>2026-04-25T10:07:59.315Z</time></trkpt><trkpt lat="45.8513854" lon="13.4997733"><ele>102.66666666666667</ele><time>2026-04-25T10:08:02.324Z</time></trkpt><trkpt lat="45.8514801" lon="13.49975"><ele>102.83333333333334</ele><time>2026-04-25T10:08:05.324Z</time></trkpt><trkpt lat="45.8515432" lon="13.4997259"><ele>103.0</ele><time>2026-04-25T10:08:07.319Z</time></trkpt><trkpt lat="45.8516149" lon="13.4997056"><ele>103.00000000000001</ele><time>2026-04-25T10:08:10.345Z</time></trkpt><trkpt lat="45.8517016" lon="13.4996964"><ele>103.0</ele><time>2026-04-25T10:08:14.31Z</time></trkpt><trkpt lat="45.8517937" lon="13.4996635"><ele>103.0</ele><time>2026-04-25T10:08:17.315Z</time></trkpt><trkpt lat="45.8518586" lon="13.4996449"><ele>103.0</ele><time>2026-04-25T10:08:19.324Z</time></trkpt><trkpt lat="45.8519264" lon="13.4996265"><ele>103.00000000000001</ele><time>2026-04-25T10:08:21.329Z</time></trkpt><trkpt lat="45.8519911" lon="13.499609"><ele>103.0</ele><time>2026-04-25T10:08:23.318Z</time></trkpt><trkpt lat="45.852067" lon="13.4995888"><ele>102.33333333333334</ele><time>2026-04-25T10:08:25.315Z</time></trkpt><trkpt lat="45.8521471" lon="13.499563"><ele>101.66666666666667</ele><time>2026-04-25T10:08:27.32Z</time></trkpt><trkpt lat="45.8522269" lon="13.4995297"><ele>101.0</ele><time>2026-04-25T10:08:29.317Z</time></trkpt><trkpt lat="45.852308" lon="13.499504"><ele>100.33333333333334</ele><time>2026-04-25T10:08:31.316Z</time></trkpt><trkpt lat="45.8523919" lon="13.4994827"><ele>99.66666666666667</ele><time>2026-04-25T10:08:33.314Z</time></trkpt><trkpt lat="45.8524775" lon="13.4994633"><ele>99.0</ele><time>2026-04-25T10:08:35.318Z</time></trkpt><trkpt lat="45.852558" lon="13.4994455"><ele>98.57142857142857</ele><time>2026-04-25T10:08:37.304Z</time></trkpt><trkpt lat="45.8526291" lon="13.4994327"><ele>98.14285714285714</ele><time>2026-04-25T10:08:39.308Z</time></trkpt><trkpt lat="45.8527009" lon="13.4994085"><ele>97.71428571428571</ele><time>2026-04-25T10:08:41.313Z</time></trkpt><trkpt lat="45.8527769" lon="13.4993795"><ele>97.28571428571428</ele><time>2026-04-25T10:08:43.319Z</time></trkpt><trkpt lat="45.8528484" lon="13.499354"><ele>96.85714285714286</ele><time>2026-04-25T10:08:45.322Z</time></trkpt><trkpt lat="45.8529225" lon="13.4993316"><ele>96.42857142857142</ele><time>2026-04-25T10:08:47.32Z</time></trkpt><trkpt lat="45.8529942" lon="13.4993121"><ele>96.0</ele><time>2026-04-25T10:08:49.314Z</time></trkpt><trkpt lat="45.8530775" lon="13.4992829"><ele>96.0</ele><time>2026-04-25T10:08:52.321Z</time></trkpt><trkpt lat="45.8531636" lon="13.4992508"><ele>96.0</ele><time>2026-04-25T10:08:55.326Z</time></trkpt><trkpt lat="45.8532469" lon="13.4992387"><ele>96.0</ele><time>2026-04-25T10:08:58.331Z</time></trkpt><trkpt lat="45.8533199" lon="13.4992194"><ele>96.0</ele><time>2026-04-25T10:09:00.332Z</time></trkpt><trkpt lat="45.8534057" lon="13.4992012"><ele>96.0</ele><time>2026-04-25T10:09:02.319Z</time></trkpt><trkpt lat="45.8534764" lon="13.4991694"><ele>96.0</ele><time>2026-04-25T10:09:04.313Z</time></trkpt><trkpt lat="45.8535626" lon="13.4991201"><ele>95.83333333333333</ele><time>2026-04-25T10:09:07.317Z</time></trkpt><trkpt lat="45.8536287" lon="13.4990919"><ele>95.66666666666667</ele><time>2026-04-25T10:09:09.309Z</time></trkpt><trkpt lat="45.8537007" lon="13.4990542"><ele>95.5</ele><time>2026-04-25T10:09:11.323Z</time></trkpt><trkpt lat="45.8537835" lon="13.4990211"><ele>95.33333333333334</ele><time>2026-04-25T10:09:13.32Z</time></trkpt><trkpt lat="45.8538672" lon="13.4990168"><ele>95.16666666666667</ele><time>2026-04-25T10:09:15.338Z</time></trkpt><trkpt lat="45.8539667" lon="13.4990209"><ele>95.0</ele><time>2026-04-25T10:09:17.322Z</time></trkpt><trkpt lat="45.8540675" lon="13.4990193"><ele>95.0</ele><time>2026-04-25T10:09:19.326Z</time></trkpt><trkpt lat="45.854163" lon="13.49898"><ele>95.0</ele><time>2026-04-25T10:09:21.317Z</time></trkpt><trkpt lat="45.8542607" lon="13.4989597"><ele>95.0</ele><time>2026-04-25T10:09:23.335Z</time></trkpt><trkpt lat="45.8543555" lon="13.4989431"><ele>95.0</ele><time>2026-04-25T10:09:25.32Z</time></trkpt><trkpt lat="45.8544467" lon="13.4989193"><ele>95.0</ele><time>2026-04-25T10:09:27.352Z</time></trkpt><trkpt lat="45.8545437" lon="13.4988991"><ele>95.0</ele><time>2026-04-25T10:09:29.328Z</time></trkpt><trkpt lat="45.8546328" lon="13.4988801"><ele>95.0</ele><time>2026-04-25T10:09:31.318Z</time></trkpt><trkpt lat="45.8547181" lon="13.4988659"><ele>95.0</ele><time>2026-04-25T10:09:33.336Z</time></trkpt><trkpt lat="45.8548016" lon="13.4988483"><ele>95.0</ele><time>2026-04-25T10:09:35.347Z</time></trkpt><trkpt lat="45.8548804" lon="13.4988287"><ele>95.0</ele><time>2026-04-25T10:09:37.304Z</time></trkpt><trkpt lat="45.8549605" lon="13.4988067"><ele>95.0</ele><time>2026-04-25T10:09:39.32Z</time></trkpt><trkpt lat="45.8550414" lon="13.4987652"><ele>95.2</ele><time>2026-04-25T10:09:41.317Z</time></trkpt><trkpt lat="45.8551236" lon="13.4987499"><ele>95.4</ele><time>2026-04-25T10:09:43.316Z</time></trkpt><trkpt lat="45.8552138" lon="13.4987583"><ele>95.6</ele><time>2026-04-25T10:09:45.317Z</time></trkpt><trkpt lat="45.8553077" lon="13.4987434"><ele>95.8</ele><time>2026-04-25T10:09:47.317Z</time></trkpt><trkpt lat="45.8554037" lon="13.4987227"><ele>96.0</ele><time>2026-04-25T10:09:49.318Z</time></trkpt><trkpt lat="45.8555017" lon="13.4987141"><ele>95.83333333333333</ele><time>2026-04-25T10:09:51.371Z</time></trkpt><trkpt lat="45.8555947" lon="13.4986958"><ele>95.66666666666667</ele><time>2026-04-25T10:09:53.315Z</time></trkpt><trkpt lat="45.855678" lon="13.4986699"><ele>95.5</ele><time>2026-04-25T10:09:55.315Z</time></trkpt><trkpt lat="45.855764" lon="13.4986502"><ele>95.33333333333334</ele><time>2026-04-25T10:09:57.333Z</time></trkpt><trkpt lat="45.8558459" lon="13.4986369"><ele>95.16666666666667</ele><time>2026-04-25T10:09:59.316Z</time></trkpt><trkpt lat="45.855921" lon="13.4986183"><ele>95.0</ele><time>2026-04-25T10:10:01.329Z</time></trkpt><trkpt lat="45.8559871" lon="13.4986101"><ele>95.0</ele><time>2026-04-25T10:10:03.325Z</time></trkpt><trkpt lat="45.8560766" lon="13.4986068"><ele>95.0</ele><time>2026-04-25T10:10:06.329Z</time></trkpt><trkpt lat="45.8561496" lon="13.4986232"><ele>95.0</ele><time>2026-04-25T10:10:09.325Z</time></trkpt><trkpt lat="45.8562182" lon="13.498626"><ele>95.0</ele><time>2026-04-25T10:10:12.312Z</time></trkpt><trkpt lat="45.8562929" lon="13.4986166"><ele>95.0</ele><time>2026-04-25T10:10:15.319Z</time></trkpt><trkpt lat="45.8563604" lon="13.4985896"><ele>95.0</ele><time>2026-04-25T10:10:17.325Z</time></trkpt><trkpt lat="45.8564377" lon="13.4985627"><ele>95.0</ele><time>2026-04-25T10:10:19.325Z</time></trkpt><trkpt lat="45.8565267" lon="13.4985298"><ele>95.0</ele><time>2026-04-25T10:10:21.326Z</time></trkpt><trkpt lat="45.8566162" lon="13.4985044"><ele>95.0</ele><time>2026-04-25T10:10:23.321Z</time></trkpt><trkpt lat="45.8567025" lon="13.4984832"><ele>95.0</ele><time>2026-04-25T10:10:25.326Z</time></trkpt><trkpt lat="45.8567793" lon="13.498468"><ele>95.0</ele><time>2026-04-25T10:10:27.341Z</time></trkpt><trkpt lat="45.8568505" lon="13.4984567"><ele>95.0</ele><time>2026-04-25T10:10:29.322Z</time></trkpt><trkpt lat="45.8569206" lon="13.49845"><ele>95.14285714285714</ele><time>2026-04-25T10:10:31.327Z</time></trkpt><trkpt lat="45.8569951" lon="13.4984447"><ele>95.28571428571429</ele><time>2026-04-25T10:10:33.317Z</time></trkpt><trkpt lat="45.8570581" lon="13.4984319"><ele>95.42857142857142</ele><time>2026-04-25T10:10:35.339Z</time></trkpt><trkpt lat="45.8571236" lon="13.4984187"><ele>95.57142857142857</ele><time>2026-04-25T10:10:38.33Z</time></trkpt><trkpt lat="45.8572031" lon="13.4984048"><ele>95.71428571428571</ele><time>2026-04-25T10:10:43.317Z</time></trkpt><trkpt lat="45.8572667" lon="13.4983973"><ele>95.85714285714285</ele><time>2026-04-25T10:10:46.307Z</time></trkpt><trkpt lat="45.8573337" lon="13.498396"><ele>96.0</ele><time>2026-04-25T10:10:50.315Z</time></trkpt><trkpt lat="45.8574124" lon="13.4983641"><ele>96.0</ele><time>2026-04-25T10:10:54.323Z</time></trkpt><trkpt lat="45.8575068" lon="13.4983575"><ele>96.0</ele><time>2026-04-25T10:10:57.323Z</time></trkpt><trkpt lat="45.8575825" lon="13.4983579"><ele>96.0</ele><time>2026-04-25T10:10:59.344Z</time></trkpt><trkpt lat="45.8576698" lon="13.4983445"><ele>96.0</ele><time>2026-04-25T10:11:01.323Z</time></trkpt><trkpt lat="45.8577593" lon="13.4983363"><ele>96.0</ele><time>2026-04-25T10:11:03.331Z</time></trkpt><trkpt lat="45.8578465" lon="13.4983313"><ele>96.0</ele><time>2026-04-25T10:11:05.323Z</time></trkpt><trkpt lat="45.857933" lon="13.4983047"><ele>95.0</ele><time>2026-04-25T10:11:07.336Z</time></trkpt><trkpt lat="45.8580251" lon="13.4982736"><ele>94.0</ele><time>2026-04-25T10:11:09.32Z</time></trkpt><trkpt lat="45.8581229" lon="13.4982597"><ele>93.0</ele><time>2026-04-25T10:11:11.366Z</time></trkpt><trkpt lat="45.8582176" lon="13.4982489"><ele>92.0</ele><time>2026-04-25T10:11:13.314Z</time></trkpt><trkpt lat="45.858311" lon="13.4982357"><ele>91.0</ele><time>2026-04-25T10:11:15.329Z</time></trkpt><trkpt lat="45.8584076" lon="13.4982211"><ele>91.4</ele><time>2026-04-25T10:11:17.319Z</time></trkpt><trkpt lat="45.8585072" lon="13.4982078"><ele>91.8</ele><time>2026-04-25T10:11:19.32Z</time></trkpt><trkpt lat="45.8586075" lon="13.4981896"><ele>92.2</ele><time>2026-04-25T10:11:21.327Z</time></trkpt><trkpt lat="45.8587073" lon="13.4981725"><ele>92.60000000000001</ele><time>2026-04-25T10:11:23.322Z</time></trkpt><trkpt lat="45.8588017" lon="13.4981517"><ele>93.0</ele><time>2026-04-25T10:11:25.331Z</time></trkpt><trkpt lat="45.8588843" lon="13.4981376"><ele>93.0</ele><time>2026-04-25T10:11:27.325Z</time></trkpt><trkpt lat="45.8589566" lon="13.4981283"><ele>93.0</ele><time>2026-04-25T10:11:29.322Z</time></trkpt><trkpt lat="45.859029" lon="13.4981193"><ele>93.0</ele><time>2026-04-25T10:11:31.329Z</time></trkpt><trkpt lat="45.8591052" lon="13.4980964"><ele>93.0</ele><time>2026-04-25T10:11:33.323Z</time></trkpt><trkpt lat="45.8591893" lon="13.4980704"><ele>93.0</ele><time>2026-04-25T10:11:35.317Z</time></trkpt><trkpt lat="45.8592741" lon="13.4980557"><ele>93.0</ele><time>2026-04-25T10:11:37.32Z</time></trkpt><trkpt lat="45.8593669" lon="13.4980425"><ele>92.0</ele><time>2026-04-25T10:11:39.337Z</time></trkpt><trkpt lat="45.8594603" lon="13.4980322"><ele>91.0</ele><time>2026-04-25T10:11:41.322Z</time></trkpt><trkpt lat="45.8595436" lon="13.498025"><ele>90.0</ele><time>2026-04-25T10:11:43.315Z</time></trkpt><trkpt lat="45.8596157" lon="13.4980141"><ele>89.0</ele><time>2026-04-25T10:11:45.346Z</time></trkpt><trkpt lat="45.8596879" lon="13.498008"><ele>88.0</ele><time>2026-04-25T10:11:47.32Z</time></trkpt><trkpt lat="45.8597545" lon="13.4979849"><ele>87.0</ele><time>2026-04-25T10:11:49.315Z</time></trkpt><trkpt lat="45.8598231" lon="13.4979693"><ele>87.0</ele><time>2026-04-25T10:11:51.32Z</time></trkpt><trkpt lat="45.8598926" lon="13.4979618"><ele>87.0</ele><time>2026-04-25T10:11:53.327Z</time></trkpt><trkpt lat="45.8599747" lon="13.497951"><ele>87.0</ele><time>2026-04-25T10:11:55.318Z</time></trkpt><trkpt lat="45.8600529" lon="13.4979439"><ele>87.0</ele><time>2026-04-25T10:11:57.328Z</time></trkpt><trkpt lat="45.8601322" lon="13.4979349"><ele>87.0</ele><time>2026-04-25T10:11:59.32Z</time></trkpt><trkpt lat="45.8602138" lon="13.4979264"><ele>87.0</ele><time>2026-04-25T10:12:01.318Z</time></trkpt><trkpt lat="45.86029" lon="13.4979215"><ele>85.14285714285714</ele><time>2026-04-25T10:12:03.322Z</time></trkpt><trkpt lat="45.8603569" lon="13.4979168"><ele>83.28571428571429</ele><time>2026-04-25T10:12:05.317Z</time></trkpt><trkpt lat="45.860425" lon="13.4979018"><ele>81.42857142857143</ele><time>2026-04-25T10:12:07.33Z</time></trkpt><trkpt lat="45.860492" lon="13.4978831"><ele>79.57142857142857</ele><time>2026-04-25T10:12:09.354Z</time></trkpt><trkpt lat="45.8605581" lon="13.4978742"><ele>77.71428571428571</ele><time>2026-04-25T10:12:11.346Z</time></trkpt><trkpt lat="45.8606249" lon="13.497865"><ele>75.85714285714286</ele><time>2026-04-25T10:12:13.316Z</time></trkpt><trkpt lat="45.860689" lon="13.4978559"><ele>74.0</ele><time>2026-04-25T10:12:15.341Z</time></trkpt><trkpt lat="45.860754" lon="13.4978372"><ele>74.0</ele><time>2026-04-25T10:12:17.326Z</time></trkpt><trkpt lat="45.8608331" lon="13.4977916"><ele>74.0</ele><time>2026-04-25T10:12:20.345Z</time></trkpt><trkpt lat="45.8609113" lon="13.4977717"><ele>74.0</ele><time>2026-04-25T10:12:24.333Z</time></trkpt><trkpt lat="45.8609858" lon="13.4977525"><ele>74.0</ele><time>2026-04-25T10:12:27.35Z</time></trkpt><trkpt lat="45.8610514" lon="13.4977425"><ele>74.0</ele><time>2026-04-25T10:12:30.352Z</time></trkpt><trkpt lat="45.8611321" lon="13.4977429"><ele>74.0</ele><time>2026-04-25T10:12:34.329Z</time></trkpt><trkpt lat="45.8611981" lon="13.4977187"><ele>72.5</ele><time>2026-04-25T10:12:39.347Z</time></trkpt><trkpt lat="45.8612942" lon="13.4977152"><ele>71.0</ele><time>2026-04-25T10:13:17.327Z</time></trkpt><trkpt lat="45.861381" lon="13.4977044"><ele>69.5</ele><time>2026-04-25T10:13:19.328Z</time></trkpt><trkpt lat="45.8614579" lon="13.4977026"><ele>68.0</ele><time>2026-04-25T10:13:21.333Z</time></trkpt><trkpt lat="45.8615354" lon="13.4976997"><ele>66.5</ele><time>2026-04-25T10:13:23.323Z</time></trkpt><trkpt lat="45.8616327" lon="13.4976836"><ele>65.0</ele><time>2026-04-25T10:13:26.327Z</time></trkpt><trkpt lat="45.8617012" lon="13.4976718"><ele>65.00000000000001</ele><time>2026-04-25T10:13:28.333Z</time></trkpt><trkpt lat="45.8617811" lon="13.4976543"><ele>65.0</ele><time>2026-04-25T10:13:31.324Z</time></trkpt><trkpt lat="45.8618456" lon="13.4976422"><ele>65.0</ele><time>2026-04-25T10:13:34.318Z</time></trkpt><trkpt lat="45.861914" lon="13.49762"><ele>65.0</ele><time>2026-04-25T10:13:38.321Z</time></trkpt><trkpt lat="45.8619803" lon="13.497622"><ele>65.0</ele><time>2026-04-25T10:14:07.328Z</time></trkpt><trkpt lat="45.862044" lon="13.497615"><ele>65.00000000000001</ele><time>2026-04-25T10:14:17.332Z</time></trkpt><trkpt lat="45.8621116" lon="13.4976067"><ele>65.0</ele><time>2026-04-25T10:14:26.327Z</time></trkpt><trkpt lat="45.8621794" lon="13.4976074"><ele>66.42857142857143</ele><time>2026-04-25T10:14:35.333Z</time></trkpt><trkpt lat="45.8622454" lon="13.4976098"><ele>67.85714285714286</ele><time>2026-04-25T10:14:44.321Z</time></trkpt><trkpt lat="45.8623132" lon="13.4975872"><ele>69.28571428571428</ele><time>2026-04-25T10:14:52.329Z</time></trkpt><trkpt lat="45.8623907" lon="13.4975812"><ele>70.71428571428572</ele><time>2026-04-25T10:15:14.338Z</time></trkpt><trkpt lat="45.8624559" lon="13.4975688"><ele>72.14285714285714</ele><time>2026-04-25T10:15:17.327Z</time></trkpt><trkpt lat="45.8625292" lon="13.4975581"><ele>73.57142857142857</ele><time>2026-04-25T10:15:20.331Z</time></trkpt><trkpt lat="45.8626075" lon="13.4975525"><ele>75.0</ele><time>2026-04-25T10:15:23.318Z</time></trkpt><trkpt lat="45.8626924" lon="13.4975389"><ele>76.83333333333333</ele><time>2026-04-25T10:15:26.333Z</time></trkpt><trkpt lat="45.8627735" lon="13.4975315"><ele>78.66666666666667</ele><time>2026-04-25T10:15:29.328Z</time></trkpt><trkpt lat="45.8628541" lon="13.4975217"><ele>80.5</ele><time>2026-04-25T10:15:32.342Z</time></trkpt><trkpt lat="45.862925" lon="13.497514"><ele>82.33333333333334</ele><time>2026-04-25T10:15:35.315Z</time></trkpt><trkpt lat="45.8630065" lon="13.4974998"><ele>84.16666666666667</ele><time>2026-04-25T10:15:38.333Z</time></trkpt><trkpt lat="45.8630918" lon="13.4974882"><ele>86.0</ele><time>2026-04-25T10:15:41.323Z</time></trkpt><trkpt lat="45.8631614" lon="13.4974718"><ele>86.0</ele><time>2026-04-25T10:15:43.32Z</time></trkpt><trkpt lat="45.8632281" lon="13.4974466"><ele>86.0</ele><time>2026-04-25T10:15:45.35Z</time></trkpt><trkpt lat="45.86332" lon="13.497433"><ele>86.0</ele><time>2026-04-25T10:15:48.331Z</time></trkpt><trkpt lat="45.8633876" lon="13.4974243"><ele>86.0</ele><time>2026-04-25T10:15:50.328Z</time></trkpt><trkpt lat="45.8634534" lon="13.4974083"><ele>86.0</ele><time>2026-04-25T10:15:52.324Z</time></trkpt><trkpt lat="45.8635232" lon="13.4973979"><ele>86.0</ele><time>2026-04-25T10:15:54.355Z</time></trkpt><trkpt lat="45.8636081" lon="13.4973865"><ele>87.0</ele><time>2026-04-25T10:15:56.325Z</time></trkpt><trkpt lat="45.8637122" lon="13.4973746"><ele>88.0</ele><time>2026-04-25T10:15:58.32Z</time></trkpt><trkpt lat="45.8638159" lon="13.4973646"><ele>89.0</ele><time>2026-04-25T10:16:00.318Z</time></trkpt><trkpt lat="45.8639018" lon="13.4973523"><ele>90.0</ele><time>2026-04-25T10:16:02.351Z</time></trkpt><trkpt lat="45.8639784" lon="13.4973382"><ele>91.0</ele><time>2026-04-25T10:16:04.327Z</time></trkpt><trkpt lat="45.8640511" lon="13.4973242"><ele>92.0</ele><time>2026-04-25T10:16:06.325Z</time></trkpt><trkpt lat="45.8641243" lon="13.497306"><ele>92.0</ele><time>2026-04-25T10:16:08.322Z</time></trkpt><trkpt lat="45.8642109" lon="13.4972922"><ele>92.0</ele><time>2026-04-25T10:16:10.322Z</time></trkpt><trkpt lat="45.8642974" lon="13.4972719"><ele>92.0</ele><time>2026-04-25T10:16:12.32Z</time></trkpt><trkpt lat="45.864387" lon="13.4972571"><ele>92.0</ele><time>2026-04-25T10:16:14.327Z</time></trkpt><trkpt lat="45.8644748" lon="13.4972438"><ele>92.0</ele><time>2026-04-25T10:16:16.32Z</time></trkpt><trkpt lat="45.8645589" lon="13.4972433"><ele>92.0</ele><time>2026-04-25T10:16:18.32Z</time></trkpt><trkpt lat="45.8646453" lon="13.497233"><ele>93.0</ele><time>2026-04-25T10:16:20.322Z</time></trkpt><trkpt lat="45.8647305" lon="13.4972371"><ele>94.0</ele><time>2026-04-25T10:16:22.325Z</time></trkpt><trkpt lat="45.864811" lon="13.4972401"><ele>95.0</ele><time>2026-04-25T10:16:24.336Z</time></trkpt><trkpt lat="45.8649018" lon="13.4972398"><ele>96.0</ele><time>2026-04-25T10:16:26.322Z</time></trkpt><trkpt lat="45.86502" lon="13.4972324"><ele>97.0</ele><time>2026-04-25T10:16:28.348Z</time></trkpt><trkpt lat="45.8651334" lon="13.4972175"><ele>97.66666666666667</ele><time>2026-04-25T10:16:30.321Z</time></trkpt><trkpt lat="45.8651893" lon="13.4971654"><ele>98.33333333333334</ele><time>2026-04-25T10:16:33.341Z</time></trkpt><trkpt lat="45.8651758" lon="13.4970517"><ele>99.0</ele><time>2026-04-25T10:17:07.337Z</time></trkpt><trkpt lat="45.865151" lon="13.496942"><ele>99.66666666666666</ele><time>2026-04-25T10:17:09.322Z</time></trkpt><trkpt lat="45.8651096" lon="13.4967975"><ele>100.33333333333333</ele><time>2026-04-25T10:17:11.317Z</time></trkpt><trkpt lat="45.865089" lon="13.4967052"><ele>101.0</ele><time>2026-04-25T10:17:12.319Z</time></trkpt><trkpt lat="45.8651125" lon="13.4966134"><ele>99.49999999999999</ele><time>2026-04-25T10:17:13.313Z</time></trkpt><trkpt lat="45.8651405" lon="13.4965143"><ele>98.0</ele><time>2026-04-25T10:17:14.316Z</time></trkpt><trkpt lat="45.8652171" lon="13.4964529"><ele>96.5</ele><time>2026-04-25T10:17:15.321Z</time></trkpt><trkpt lat="45.8652977" lon="13.4964028"><ele>95.0</ele><time>2026-04-25T10:17:16.326Z</time></trkpt><trkpt lat="45.8653782" lon="13.4963479"><ele>93.5</ele><time>2026-04-25T10:17:17.311Z</time></trkpt><trkpt lat="45.8654585" lon="13.496296"><ele>92.0</ele><time>2026-04-25T10:17:18.326Z</time></trkpt><trkpt lat="45.8655266" lon="13.4962298"><ele>91.0</ele><time>2026-04-25T10:17:19.319Z</time></trkpt><trkpt lat="45.865582" lon="13.4961488"><ele>90.0</ele><time>2026-04-25T10:17:20.323Z</time></trkpt><trkpt lat="45.8656213" lon="13.4960461"><ele>89.0</ele><time>2026-04-25T10:17:21.349Z</time></trkpt><trkpt lat="45.8656554" lon="13.4959464"><ele>88.0</ele><time>2026-04-25T10:17:22.319Z</time></trkpt><trkpt lat="45.8656388" lon="13.4958272"><ele>87.0</ele><time>2026-04-25T10:17:23.313Z</time></trkpt><trkpt lat="45.8656185" lon="13.4957057"><ele>86.0</ele><time>2026-04-25T10:17:24.318Z</time></trkpt><trkpt lat="45.8655666" lon="13.4955962"><ele>86.0</ele><time>2026-04-25T10:17:25.322Z</time></trkpt><trkpt lat="45.8655204" lon="13.4954917"><ele>86.0</ele><time>2026-04-25T10:17:26.318Z</time></trkpt><trkpt lat="45.8654771" lon="13.4953864"><ele>86.0</ele><time>2026-04-25T10:17:27.312Z</time></trkpt><trkpt lat="45.8654367" lon="13.4952825"><ele>86.0</ele><time>2026-04-25T10:17:28.316Z</time></trkpt><trkpt lat="45.8654245" lon="13.4951693"><ele>86.0</ele><time>2026-04-25T10:17:29.329Z</time></trkpt><trkpt lat="45.8654312" lon="13.4950607"><ele>86.0</ele><time>2026-04-25T10:17:30.325Z</time></trkpt><trkpt lat="45.8654457" lon="13.4949583"><ele>85.6</ele><time>2026-04-25T10:17:31.318Z</time></trkpt><trkpt lat="45.8654619" lon="13.4948616"><ele>85.19999999999999</ele><time>2026-04-25T10:17:32.326Z</time></trkpt><trkpt lat="45.8654786" lon="13.4947733"><ele>84.80000000000001</ele><time>2026-04-25T10:17:33.302Z</time></trkpt><trkpt lat="45.8654992" lon="13.4946065"><ele>84.4</ele><time>2026-04-25T10:17:35.309Z</time></trkpt><trkpt lat="45.8655077" lon="13.4944375"><ele>84.0</ele><time>2026-04-25T10:17:37.327Z</time></trkpt><trkpt lat="45.8655165" lon="13.4942753"><ele>83.6</ele><time>2026-04-25T10:17:39.321Z</time></trkpt><trkpt lat="45.8655125" lon="13.4941162"><ele>83.2</ele><time>2026-04-25T10:17:41.321Z</time></trkpt><trkpt lat="45.8655042" lon="13.4939623"><ele>82.8</ele><time>2026-04-25T10:17:43.32Z</time></trkpt><trkpt lat="45.8654961" lon="13.493821"><ele>82.39999999999999</ele><time>2026-04-25T10:17:45.322Z</time></trkpt><trkpt lat="45.8654904" lon="13.4936713"><ele>82.0</ele><time>2026-04-25T10:17:47.321Z</time></trkpt><trkpt lat="45.8654793" lon="13.4935265"><ele>81.5</ele><time>2026-04-25T10:17:49.315Z</time></trkpt><trkpt lat="45.8654723" lon="13.4933609"><ele>81.0</ele><time>2026-04-25T10:17:51.328Z</time></trkpt><trkpt lat="45.8654736" lon="13.493269"><ele>80.5</ele><time>2026-04-25T10:17:52.326Z</time></trkpt><trkpt lat="45.8654775" lon="13.4931764"><ele>80.0</ele><time>2026-04-25T10:17:53.328Z</time></trkpt><trkpt lat="45.8654847" lon="13.4930788"><ele>79.5</ele><time>2026-04-25T10:17:54.311Z</time></trkpt><trkpt lat="45.8654952" lon="13.4929797"><ele>79.0</ele><time>2026-04-25T10:17:55.336Z</time></trkpt><trkpt lat="45.865526" lon="13.4928825"><ele>78.5</ele><time>2026-04-25T10:17:56.339Z</time></trkpt><trkpt lat="45.8655634" lon="13.4927868"><ele>78.0</ele><time>2026-04-25T10:17:57.33Z</time></trkpt><trkpt lat="45.8656073" lon="13.4926902"><ele>77.5</ele><time>2026-04-25T10:17:58.334Z</time></trkpt><trkpt lat="45.8656521" lon="13.4925921"><ele>77.0</ele><time>2026-04-25T10:17:59.317Z</time></trkpt><trkpt lat="45.865695" lon="13.4924873"><ele>76.5</ele><time>2026-04-25T10:18:00.326Z</time></trkpt><trkpt lat="45.8657405" lon="13.4923794"><ele>76.0</ele><time>2026-04-25T10:18:01.334Z</time></trkpt><trkpt lat="45.8657892" lon="13.4922714"><ele>76.0</ele><time>2026-04-25T10:18:02.332Z</time></trkpt><trkpt lat="45.8658426" lon="13.4921627"><ele>76.0</ele><time>2026-04-25T10:18:03.319Z</time></trkpt><trkpt lat="45.8658928" lon="13.4920507"><ele>76.0</ele><time>2026-04-25T10:18:04.322Z</time></trkpt><trkpt lat="45.8659426" lon="13.4919399"><ele>76.0</ele><time>2026-04-25T10:18:05.331Z</time></trkpt><trkpt lat="45.8659996" lon="13.4918149"><ele>76.0</ele><time>2026-04-25T10:18:06.315Z</time></trkpt><trkpt lat="45.8660519" lon="13.4916948"><ele>75.2</ele><time>2026-04-25T10:18:07.324Z</time></trkpt><trkpt lat="45.8661008" lon="13.4915656"><ele>74.39999999999999</ele><time>2026-04-25T10:18:08.331Z</time></trkpt><trkpt lat="45.8661372" lon="13.4914231"><ele>73.6</ele><time>2026-04-25T10:18:09.329Z</time></trkpt><trkpt lat="45.8661697" lon="13.4912854"><ele>72.8</ele><time>2026-04-25T10:18:10.359Z</time></trkpt><trkpt lat="45.8661718" lon="13.491134"><ele>72.0</ele><time>2026-04-25T10:18:11.341Z</time></trkpt><trkpt lat="45.8661724" lon="13.4909793"><ele>71.5</ele><time>2026-04-25T10:18:12.322Z</time></trkpt><trkpt lat="45.8661735" lon="13.490819"><ele>71.0</ele><time>2026-04-25T10:18:13.326Z</time></trkpt><trkpt lat="45.8661766" lon="13.4906542"><ele>70.5</ele><time>2026-04-25T10:18:14.338Z</time></trkpt><trkpt lat="45.8661793" lon="13.49049"><ele>70.0</ele><time>2026-04-25T10:18:15.329Z</time></trkpt><trkpt lat="45.8661806" lon="13.4903291"><ele>69.25</ele><time>2026-04-25T10:18:16.326Z</time></trkpt><trkpt lat="45.8661778" lon="13.4901591"><ele>68.5</ele><time>2026-04-25T10:18:17.326Z</time></trkpt><trkpt lat="45.8661811" lon="13.4899891"><ele>67.75</ele><time>2026-04-25T10:18:18.326Z</time></trkpt><trkpt lat="45.8661832" lon="13.4898216"><ele>67.0</ele><time>2026-04-25T10:18:19.338Z</time></trkpt><trkpt lat="45.8661855" lon="13.4896487"><ele>65.75</ele><time>2026-04-25T10:18:20.338Z</time></trkpt><trkpt lat="45.866185" lon="13.4894734"><ele>64.5</ele><time>2026-04-25T10:18:21.352Z</time></trkpt><trkpt lat="45.8661703" lon="13.489298"><ele>63.25</ele><time>2026-04-25T10:18:22.334Z</time></trkpt><trkpt lat="45.8661518" lon="13.4891282"><ele>62.0</ele><time>2026-04-25T10:18:23.328Z</time></trkpt><trkpt lat="45.86612" lon="13.4889581"><ele>62.0</ele><time>2026-04-25T10:18:24.327Z</time></trkpt><trkpt lat="45.8660884" lon="13.4887851"><ele>62.0</ele><time>2026-04-25T10:18:25.335Z</time></trkpt><trkpt lat="45.8660569" lon="13.4886014"><ele>62.0</ele><time>2026-04-25T10:18:26.333Z</time></trkpt><trkpt lat="45.8660296" lon="13.4884156"><ele>62.0</ele><time>2026-04-25T10:18:27.341Z</time></trkpt><trkpt lat="45.8660052" lon="13.4882276"><ele>61.75</ele><time>2026-04-25T10:18:28.317Z</time></trkpt><trkpt lat="45.8659803" lon="13.4880353"><ele>61.5</ele><time>2026-04-25T10:18:29.349Z</time></trkpt><trkpt lat="45.8659607" lon="13.4878354"><ele>61.25</ele><time>2026-04-25T10:18:30.338Z</time></trkpt><trkpt lat="45.8659414" lon="13.4876468"><ele>61.0</ele><time>2026-04-25T10:18:31.329Z</time></trkpt><trkpt lat="45.8659227" lon="13.4874641"><ele>56.599999999999994</ele><time>2026-04-25T10:18:32.319Z</time></trkpt><trkpt lat="45.8659094" lon="13.4872979"><ele>52.199999999999996</ele><time>2026-04-25T10:18:33.32Z</time></trkpt><trkpt lat="45.8658963" lon="13.4871356"><ele>47.8</ele><time>2026-04-25T10:18:34.335Z</time></trkpt><trkpt lat="45.8658886" lon="13.4869854"><ele>43.4</ele><time>2026-04-25T10:18:35.325Z</time></trkpt><trkpt lat="45.8658781" lon="13.4868423"><ele>39.0</ele><time>2026-04-25T10:18:36.327Z</time></trkpt><trkpt lat="45.8658851" lon="13.4866908"><ele>39.8</ele><time>2026-04-25T10:18:37.331Z</time></trkpt><trkpt lat="45.8659087" lon="13.4865301"><ele>40.599999999999994</ele><time>2026-04-25T10:18:38.324Z</time></trkpt><trkpt lat="45.8659539" lon="13.4863755"><ele>41.4</ele><time>2026-04-25T10:18:39.327Z</time></trkpt><trkpt lat="45.8659938" lon="13.4862283"><ele>42.199999999999996</ele><time>2026-04-25T10:18:40.325Z</time></trkpt><trkpt lat="45.8660307" lon="13.4860926"><ele>43.0</ele><time>2026-04-25T10:18:41.32Z</time></trkpt><trkpt lat="45.8660606" lon="13.4859533"><ele>43.0</ele><time>2026-04-25T10:18:42.337Z</time></trkpt><trkpt lat="45.8660883" lon="13.4858229"><ele>43.0</ele><time>2026-04-25T10:18:43.326Z</time></trkpt><trkpt lat="45.8661084" lon="13.4856866"><ele>43.0</ele><time>2026-04-25T10:18:44.331Z</time></trkpt><trkpt lat="45.8661273" lon="13.4855538"><ele>43.0</ele><time>2026-04-25T10:18:45.334Z</time></trkpt><trkpt lat="45.8661466" lon="13.4854206"><ele>43.0</ele><time>2026-04-25T10:18:46.336Z</time></trkpt><trkpt lat="45.8661794" lon="13.4852972"><ele>40.4</ele><time>2026-04-25T10:18:47.334Z</time></trkpt><trkpt lat="45.8662166" lon="13.4851735"><ele>37.8</ele><time>2026-04-25T10:18:48.327Z</time></trkpt><trkpt lat="45.8662601" lon="13.4850568"><ele>35.2</ele><time>2026-04-25T10:18:49.335Z</time></trkpt><trkpt lat="45.8663007" lon="13.4849426"><ele>32.6</ele><time>2026-04-25T10:18:50.341Z</time></trkpt><trkpt lat="45.8663421" lon="13.4848228"><ele>30.0</ele><time>2026-04-25T10:18:51.328Z</time></trkpt><trkpt lat="45.8663922" lon="13.4847111"><ele>30.0</ele><time>2026-04-25T10:18:52.331Z</time></trkpt><trkpt lat="45.8664465" lon="13.4846111"><ele>30.0</ele><time>2026-04-25T10:18:53.329Z</time></trkpt><trkpt lat="45.8665001" lon="13.4845198"><ele>30.0</ele><time>2026-04-25T10:18:54.338Z</time></trkpt><trkpt lat="45.8665479" lon="13.4844301"><ele>30.0</ele><time>2026-04-25T10:18:55.33Z</time></trkpt><trkpt lat="45.8665918" lon="13.4843441"><ele>30.0</ele><time>2026-04-25T10:18:56.336Z</time></trkpt><trkpt lat="45.8666351" lon="13.4842599"><ele>30.0</ele><time>2026-04-25T10:18:57.32Z</time></trkpt><trkpt lat="45.8666802" lon="13.4841811"><ele>30.142857142857146</ele><time>2026-04-25T10:18:58.328Z</time></trkpt><trkpt lat="45.8667242" lon="13.4841025"><ele>30.285714285714285</ele><time>2026-04-25T10:18:59.33Z</time></trkpt><trkpt lat="45.8667652" lon="13.4840234"><ele>30.42857142857143</ele><time>2026-04-25T10:19:00.328Z</time></trkpt><trkpt lat="45.8668044" lon="13.4839411"><ele>30.571428571428573</ele><time>2026-04-25T10:19:01.338Z</time></trkpt><trkpt lat="45.8668424" lon="13.4838605"><ele>30.714285714285715</ele><time>2026-04-25T10:19:02.339Z</time></trkpt><trkpt lat="45.8668782" lon="13.4837794"><ele>30.857142857142858</ele><time>2026-04-25T10:19:03.32Z</time></trkpt><trkpt lat="45.866915" lon="13.483705"><ele>31.0</ele><time>2026-04-25T10:19:04.319Z</time></trkpt><trkpt lat="45.8669482" lon="13.483627"><ele>31.0</ele><time>2026-04-25T10:19:05.326Z</time></trkpt><trkpt lat="45.8670123" lon="13.4834754"><ele>31.0</ele><time>2026-04-25T10:19:07.331Z</time></trkpt><trkpt lat="45.867073" lon="13.4833291"><ele>31.0</ele><time>2026-04-25T10:19:09.325Z</time></trkpt><trkpt lat="45.8671199" lon="13.4831779"><ele>31.0</ele><time>2026-04-25T10:19:11.33Z</time></trkpt><trkpt lat="45.8671304" lon="13.4830105"><ele>29.0</ele><time>2026-04-25T10:19:13.326Z</time></trkpt><trkpt lat="45.867099" lon="13.4828437"><ele>27.0</ele><time>2026-04-25T10:19:15.336Z</time></trkpt><trkpt lat="45.8670506" lon="13.4826763"><ele>25.0</ele><time>2026-04-25T10:19:17.318Z</time></trkpt><trkpt lat="45.8670233" lon="13.4825926"><ele>23.0</ele><time>2026-04-25T10:19:18.328Z</time></trkpt><trkpt lat="45.8669689" lon="13.4824396"><ele>21.0</ele><time>2026-04-25T10:19:20.322Z</time></trkpt><trkpt lat="45.8669197" lon="13.4822842"><ele>21.0</ele><time>2026-04-25T10:19:22.341Z</time></trkpt><trkpt lat="45.8668812" lon="13.4821508"><ele>21.0</ele><time>2026-04-25T10:19:24.321Z</time></trkpt><trkpt lat="45.8668648" lon="13.4820032"><ele>21.0</ele><time>2026-04-25T10:19:26.325Z</time></trkpt><trkpt lat="45.8668721" lon="13.4818608"><ele>21.0</ele><time>2026-04-25T10:19:28.326Z</time></trkpt><trkpt lat="45.8668873" lon="13.4817586"><ele>21.0</ele><time>2026-04-25T10:19:33.343Z</time></trkpt><trkpt lat="45.8669211" lon="13.4816577"><ele>20.75</ele><time>2026-04-25T10:19:36.32Z</time></trkpt><trkpt lat="45.8669405" lon="13.4815236"><ele>20.5</ele><time>2026-04-25T10:19:38.327Z</time></trkpt><trkpt lat="45.866886" lon="13.4813824"><ele>20.25</ele><time>2026-04-25T10:19:40.338Z</time></trkpt><trkpt lat="45.866771" lon="13.4813351"><ele>20.0</ele><time>2026-04-25T10:19:42.336Z</time></trkpt><trkpt lat="45.866645" lon="13.4813486"><ele>20.285714285714285</ele><time>2026-04-25T10:19:44.318Z</time></trkpt><trkpt lat="45.8665807" lon="13.4813545"><ele>20.571428571428573</ele><time>2026-04-25T10:19:45.335Z</time></trkpt><trkpt lat="45.8665169" lon="13.4813606"><ele>20.857142857142858</ele><time>2026-04-25T10:19:46.33Z</time></trkpt><trkpt lat="45.866392" lon="13.4813759"><ele>21.142857142857142</ele><time>2026-04-25T10:19:48.329Z</time></trkpt><trkpt lat="45.8663292" lon="13.4813835"><ele>21.428571428571427</ele><time>2026-04-25T10:19:49.326Z</time></trkpt><trkpt lat="45.8662656" lon="13.4813929"><ele>21.714285714285715</ele><time>2026-04-25T10:19:50.345Z</time></trkpt><trkpt lat="45.8662027" lon="13.481401"><ele>22.0</ele><time>2026-04-25T10:19:51.335Z</time></trkpt><trkpt lat="45.8660862" lon="13.4813395"><ele>22.0</ele><time>2026-04-25T10:19:53.316Z</time></trkpt><trkpt lat="45.8660334" lon="13.4812896"><ele>22.0</ele><time>2026-04-25T10:19:54.312Z</time></trkpt><trkpt lat="45.8659306" lon="13.4811854"><ele>22.0</ele><time>2026-04-25T10:19:56.32Z</time></trkpt><trkpt lat="45.8658798" lon="13.4811311"><ele>22.0</ele><time>2026-04-25T10:19:57.326Z</time></trkpt><trkpt lat="45.865781" lon="13.4810201"><ele>22.0</ele><time>2026-04-25T10:19:59.317Z</time></trkpt><trkpt lat="45.8656753" lon="13.4809285"><ele>21.8</ele><time>2026-04-25T10:20:01.325Z</time></trkpt><trkpt lat="45.8655594" lon="13.4808607"><ele>21.6</ele><time>2026-04-25T10:20:03.33Z</time></trkpt><trkpt lat="45.8654413" lon="13.4807967"><ele>21.400000000000002</ele><time>2026-04-25T10:20:05.318Z</time></trkpt><trkpt lat="45.8653264" lon="13.4807373"><ele>21.200000000000003</ele><time>2026-04-25T10:20:07.331Z</time></trkpt><trkpt lat="45.8652672" lon="13.4807038"><ele>21.0</ele><time>2026-04-25T10:20:08.315Z</time></trkpt><trkpt lat="45.8651537" lon="13.4806323"><ele>21.0</ele><time>2026-04-25T10:20:10.352Z</time></trkpt><trkpt lat="45.865042" lon="13.4805515"><ele>21.0</ele><time>2026-04-25T10:20:12.325Z</time></trkpt><trkpt lat="45.8649845" lon="13.4805096"><ele>21.0</ele><time>2026-04-25T10:20:13.347Z</time></trkpt><trkpt lat="45.8649301" lon="13.4804629"><ele>21.0</ele><time>2026-04-25T10:20:14.308Z</time></trkpt><trkpt lat="45.8648227" lon="13.4803712"><ele>21.0</ele><time>2026-04-25T10:20:16.324Z</time></trkpt><trkpt lat="45.8647095" lon="13.4802916"><ele>21.0</ele><time>2026-04-25T10:20:18.338Z</time></trkpt><trkpt lat="45.8646565" lon="13.4802416"><ele>21.0</ele><time>2026-04-25T10:20:19.312Z</time></trkpt><trkpt lat="45.8646126" lon="13.480176"><ele>21.0</ele><time>2026-04-25T10:20:20.33Z</time></trkpt><trkpt lat="45.8645718" lon="13.4801055"><ele>21.0</ele><time>2026-04-25T10:20:21.346Z</time></trkpt><trkpt lat="45.8644863" lon="13.4799747"><ele>21.0</ele><time>2026-04-25T10:20:23.327Z</time></trkpt><trkpt lat="45.8643977" lon="13.4798513"><ele>21.0</ele><time>2026-04-25T10:20:25.321Z</time></trkpt><trkpt lat="45.8643021" lon="13.4797339"><ele>21.200000000000003</ele><time>2026-04-25T10:20:27.334Z</time></trkpt><trkpt lat="45.8642086" lon="13.4796165"><ele>21.400000000000002</ele><time>2026-04-25T10:20:29.332Z</time></trkpt><trkpt lat="45.8641139" lon="13.4795032"><ele>21.6</ele><time>2026-04-25T10:20:31.322Z</time></trkpt><trkpt lat="45.8640203" lon="13.4793895"><ele>21.8</ele><time>2026-04-25T10:20:33.319Z</time></trkpt><trkpt lat="45.8639708" lon="13.4793309"><ele>22.0</ele><time>2026-04-25T10:20:34.322Z</time></trkpt><trkpt lat="45.8638748" lon="13.4792241"><ele>21.5</ele><time>2026-04-25T10:20:36.319Z</time></trkpt><trkpt lat="45.8637775" lon="13.4791141"><ele>21.0</ele><time>2026-04-25T10:20:38.325Z</time></trkpt><trkpt lat="45.8636833" lon="13.4790058"><ele>20.5</ele><time>2026-04-25T10:20:40.324Z</time></trkpt><trkpt lat="45.8635971" lon="13.4788908"><ele>20.0</ele><time>2026-04-25T10:20:42.341Z</time></trkpt><trkpt lat="45.8635149" lon="13.4787688"><ele>19.5</ele><time>2026-04-25T10:20:44.335Z</time></trkpt><trkpt lat="45.8634336" lon="13.4786405"><ele>19.0</ele><time>2026-04-25T10:20:46.332Z</time></trkpt><trkpt lat="45.8633513" lon="13.4785129"><ele>18.5</ele><time>2026-04-25T10:20:48.333Z</time></trkpt><trkpt lat="45.8632637" lon="13.4783872"><ele>18.0</ele><time>2026-04-25T10:20:50.326Z</time></trkpt><trkpt lat="45.8631755" lon="13.4782601"><ele>18.0</ele><time>2026-04-25T10:20:52.328Z</time></trkpt><trkpt lat="45.8630891" lon="13.4781335"><ele>18.0</ele><time>2026-04-25T10:20:54.322Z</time></trkpt><trkpt lat="45.8630039" lon="13.478009"><ele>18.0</ele><time>2026-04-25T10:20:56.328Z</time></trkpt><trkpt lat="45.8629194" lon="13.4778823"><ele>18.0</ele><time>2026-04-25T10:20:58.332Z</time></trkpt><trkpt lat="45.8628344" lon="13.4777552"><ele>17.75</ele><time>2026-04-25T10:21:00.32Z</time></trkpt><trkpt lat="45.8627486" lon="13.4776282"><ele>17.5</ele><time>2026-04-25T10:21:02.334Z</time></trkpt><trkpt lat="45.8626643" lon="13.4774995"><ele>17.25</ele><time>2026-04-25T10:21:04.33Z</time></trkpt><trkpt lat="45.86258" lon="13.477374"><ele>17.0</ele><time>2026-04-25T10:21:06.33Z</time></trkpt><trkpt lat="45.8624954" lon="13.4772488"><ele>17.0</ele><time>2026-04-25T10:21:08.329Z</time></trkpt><trkpt lat="45.8624116" lon="13.4771229"><ele>17.0</ele><time>2026-04-25T10:21:10.319Z</time></trkpt><trkpt lat="45.8623252" lon="13.4769972"><ele>17.0</ele><time>2026-04-25T10:21:12.324Z</time></trkpt><trkpt lat="45.86224" lon="13.4768714"><ele>17.0</ele><time>2026-04-25T10:21:14.33Z</time></trkpt><trkpt lat="45.8621572" lon="13.4767404"><ele>17.0</ele><time>2026-04-25T10:21:16.32Z</time></trkpt><trkpt lat="45.8620741" lon="13.4766104"><ele>17.0</ele><time>2026-04-25T10:21:18.325Z</time></trkpt><trkpt lat="45.8619895" lon="13.476486"><ele>17.0</ele><time>2026-04-25T10:21:20.32Z</time></trkpt><trkpt lat="45.861905" lon="13.4763591"><ele>17.0</ele><time>2026-04-25T10:21:22.344Z</time></trkpt><trkpt lat="45.8618227" lon="13.4762265"><ele>17.25</ele><time>2026-04-25T10:21:24.328Z</time></trkpt><trkpt lat="45.8617385" lon="13.4760959"><ele>17.5</ele><time>2026-04-25T10:21:26.328Z</time></trkpt><trkpt lat="45.8616523" lon="13.4759704"><ele>17.75</ele><time>2026-04-25T10:21:28.331Z</time></trkpt><trkpt lat="45.8615676" lon="13.4758437"><ele>18.0</ele><time>2026-04-25T10:21:30.321Z</time></trkpt><trkpt lat="45.8614836" lon="13.4757184"><ele>18.0</ele><time>2026-04-25T10:21:32.34Z</time></trkpt><trkpt lat="45.8613999" lon="13.4755901"><ele>18.0</ele><time>2026-04-25T10:21:34.331Z</time></trkpt><trkpt lat="45.8613165" lon="13.4754617"><ele>18.0</ele><time>2026-04-25T10:21:36.329Z</time></trkpt><trkpt lat="45.8612335" lon="13.4753344"><ele>18.0</ele><time>2026-04-25T10:21:38.347Z</time></trkpt><trkpt lat="45.8611487" lon="13.4752076"><ele>17.75</ele><time>2026-04-25T10:21:40.337Z</time></trkpt><trkpt lat="45.8610686" lon="13.4750768"><ele>17.5</ele><time>2026-04-25T10:21:42.322Z</time></trkpt><trkpt lat="45.8609852" lon="13.4749474"><ele>17.25</ele><time>2026-04-25T10:21:44.327Z</time></trkpt><trkpt lat="45.8608996" lon="13.4748184"><ele>17.0</ele><time>2026-04-25T10:21:46.327Z</time></trkpt><trkpt lat="45.8608148" lon="13.4746899"><ele>16.6</ele><time>2026-04-25T10:21:48.326Z</time></trkpt><trkpt lat="45.8607298" lon="13.4745571"><ele>16.2</ele><time>2026-04-25T10:21:50.321Z</time></trkpt><trkpt lat="45.8606873" lon="13.4744899"><ele>15.8</ele><time>2026-04-25T10:21:51.325Z</time></trkpt><trkpt lat="45.8606021" lon="13.4743578"><ele>15.4</ele><time>2026-04-25T10:21:53.327Z</time></trkpt><trkpt lat="45.860518" lon="13.4742276"><ele>15.0</ele><time>2026-04-25T10:21:55.322Z</time></trkpt><trkpt lat="45.8604352" lon="13.4740973"><ele>15.0</ele><time>2026-04-25T10:21:57.332Z</time></trkpt><trkpt lat="45.8603521" lon="13.4739672"><ele>15.0</ele><time>2026-04-25T10:21:59.327Z</time></trkpt><trkpt lat="45.8602704" lon="13.4738399"><ele>15.0</ele><time>2026-04-25T10:22:01.32Z</time></trkpt><trkpt lat="45.8601869" lon="13.4737067"><ele>15.0</ele><time>2026-04-25T10:22:03.32Z</time></trkpt><trkpt lat="45.8601053" lon="13.473578"><ele>15.0</ele><time>2026-04-25T10:22:05.332Z</time></trkpt><trkpt lat="45.8600205" lon="13.4734487"><ele>15.0</ele><time>2026-04-25T10:22:07.332Z</time></trkpt><trkpt lat="45.8599413" lon="13.4733178"><ele>15.0</ele><time>2026-04-25T10:22:09.324Z</time></trkpt><trkpt lat="45.8598586" lon="13.4731901"><ele>15.0</ele><time>2026-04-25T10:22:11.32Z</time></trkpt><trkpt lat="45.8597755" lon="13.4730603"><ele>15.25</ele><time>2026-04-25T10:22:13.333Z</time></trkpt><trkpt lat="45.8596885" lon="13.4729336"><ele>15.5</ele><time>2026-04-25T10:22:15.317Z</time></trkpt><trkpt lat="45.8595964" lon="13.4728196"><ele>15.75</ele><time>2026-04-25T10:22:17.324Z</time></trkpt><trkpt lat="45.8595011" lon="13.4727064"><ele>16.0</ele><time>2026-04-25T10:22:19.321Z</time></trkpt><trkpt lat="45.8594031" lon="13.4725963"><ele>16.0</ele><time>2026-04-25T10:22:21.328Z</time></trkpt><trkpt lat="45.8593016" lon="13.4724929"><ele>16.0</ele><time>2026-04-25T10:22:23.314Z</time></trkpt><trkpt lat="45.8591994" lon="13.4723902"><ele>16.0</ele><time>2026-04-25T10:22:25.33Z</time></trkpt><trkpt lat="45.8590981" lon="13.4722866"><ele>16.0</ele><time>2026-04-25T10:22:27.325Z</time></trkpt><trkpt lat="45.8589986" lon="13.4721843"><ele>15.75</ele><time>2026-04-25T10:22:29.324Z</time></trkpt><trkpt lat="45.8588991" lon="13.472083"><ele>15.5</ele><time>2026-04-25T10:22:31.324Z</time></trkpt><trkpt lat="45.8587985" lon="13.4719821"><ele>15.25</ele><time>2026-04-25T10:22:33.318Z</time></trkpt><trkpt lat="45.8587" lon="13.4718757"><ele>15.0</ele><time>2026-04-25T10:22:35.326Z</time></trkpt><trkpt lat="45.8585974" lon="13.4717763"><ele>15.0</ele><time>2026-04-25T10:22:37.323Z</time></trkpt><trkpt lat="45.8584942" lon="13.4716742"><ele>15.0</ele><time>2026-04-25T10:22:39.335Z</time></trkpt><trkpt lat="45.8583915" lon="13.4715741"><ele>15.0</ele><time>2026-04-25T10:22:41.312Z</time></trkpt><trkpt lat="45.85829" lon="13.4714709"><ele>15.0</ele><time>2026-04-25T10:22:43.329Z</time></trkpt><trkpt lat="45.8581894" lon="13.4713661"><ele>14.75</ele><time>2026-04-25T10:22:45.331Z</time></trkpt><trkpt lat="45.8580899" lon="13.4712607"><ele>14.5</ele><time>2026-04-25T10:22:47.343Z</time></trkpt><trkpt lat="45.8579893" lon="13.4711572"><ele>14.25</ele><time>2026-04-25T10:22:49.342Z</time></trkpt><trkpt lat="45.8578859" lon="13.4710574"><ele>14.0</ele><time>2026-04-25T10:22:51.328Z</time></trkpt><trkpt lat="45.8577824" lon="13.4709568"><ele>14.0</ele><time>2026-04-25T10:22:53.322Z</time></trkpt><trkpt lat="45.8576814" lon="13.470852"><ele>14.0</ele><time>2026-04-25T10:22:55.337Z</time></trkpt><trkpt lat="45.8575837" lon="13.4707531"><ele>14.0</ele><time>2026-04-25T10:22:57.34Z</time></trkpt><trkpt lat="45.8574777" lon="13.4706554"><ele>14.0</ele><time>2026-04-25T10:22:59.339Z</time></trkpt><trkpt lat="45.8573752" lon="13.4705538"><ele>14.5</ele><time>2026-04-25T10:23:01.325Z</time></trkpt><trkpt lat="45.8572745" lon="13.4704533"><ele>15.0</ele><time>2026-04-25T10:23:03.334Z</time></trkpt><trkpt lat="45.8571745" lon="13.4703515"><ele>15.5</ele><time>2026-04-25T10:23:05.325Z</time></trkpt><trkpt lat="45.8570734" lon="13.4702542"><ele>16.0</ele><time>2026-04-25T10:23:07.328Z</time></trkpt><trkpt lat="45.8569744" lon="13.4701517"><ele>16.5</ele><time>2026-04-25T10:23:09.331Z</time></trkpt><trkpt lat="45.8568742" lon="13.4700546"><ele>17.0</ele><time>2026-04-25T10:23:11.323Z</time></trkpt><trkpt lat="45.856776" lon="13.4699561"><ele>17.5</ele><time>2026-04-25T10:23:13.328Z</time></trkpt><trkpt lat="45.8566801" lon="13.4698526"><ele>18.0</ele><time>2026-04-25T10:23:15.323Z</time></trkpt><trkpt lat="45.8565829" lon="13.4697527"><ele>18.25</ele><time>2026-04-25T10:23:17.32Z</time></trkpt><trkpt lat="45.8564863" lon="13.4696479"><ele>18.5</ele><time>2026-04-25T10:23:19.329Z</time></trkpt><trkpt lat="45.8563909" lon="13.4695422"><ele>18.75</ele><time>2026-04-25T10:23:21.328Z</time></trkpt><trkpt lat="45.8562934" lon="13.4694381"><ele>19.0</ele><time>2026-04-25T10:23:23.322Z</time></trkpt><trkpt lat="45.8561961" lon="13.4693317"><ele>19.0</ele><time>2026-04-25T10:23:25.331Z</time></trkpt><trkpt lat="45.8561005" lon="13.4692233"><ele>19.0</ele><time>2026-04-25T10:23:27.328Z</time></trkpt><trkpt lat="45.8560034" lon="13.4691165"><ele>19.0</ele><time>2026-04-25T10:23:29.343Z</time></trkpt><trkpt lat="45.8559042" lon="13.4690119"><ele>19.0</ele><time>2026-04-25T10:23:31.322Z</time></trkpt><trkpt lat="45.8558074" lon="13.4689036"><ele>19.0</ele><time>2026-04-25T10:23:33.336Z</time></trkpt><trkpt lat="45.8557081" lon="13.4687991"><ele>19.0</ele><time>2026-04-25T10:23:35.335Z</time></trkpt><trkpt lat="45.8556126" lon="13.4686972"><ele>19.0</ele><time>2026-04-25T10:23:37.328Z</time></trkpt><trkpt lat="45.8555155" lon="13.4685941"><ele>19.0</ele><time>2026-04-25T10:23:39.325Z</time></trkpt><trkpt lat="45.8554182" lon="13.4684896"><ele>18.75</ele><time>2026-04-25T10:23:41.339Z</time></trkpt><trkpt lat="45.8553232" lon="13.4683881"><ele>18.5</ele><time>2026-04-25T10:23:43.335Z</time></trkpt><trkpt lat="45.8552259" lon="13.4682763"><ele>18.25</ele><time>2026-04-25T10:23:45.346Z</time></trkpt><trkpt lat="45.85513" lon="13.4681606"><ele>18.0</ele><time>2026-04-25T10:23:47.328Z</time></trkpt><trkpt lat="45.8550368" lon="13.4680435"><ele>17.75</ele><time>2026-04-25T10:23:49.348Z</time></trkpt><trkpt lat="45.8549447" lon="13.4679293"><ele>17.5</ele><time>2026-04-25T10:23:51.324Z</time></trkpt><trkpt lat="45.8548499" lon="13.4678158"><ele>17.25</ele><time>2026-04-25T10:23:53.329Z</time></trkpt><trkpt lat="45.8547584" lon="13.4677017"><ele>17.0</ele><time>2026-04-25T10:23:55.321Z</time></trkpt><trkpt lat="45.8546664" lon="13.4675868"><ele>17.0</ele><time>2026-04-25T10:23:57.323Z</time></trkpt><trkpt lat="45.8545706" lon="13.4674753"><ele>17.0</ele><time>2026-04-25T10:23:59.331Z</time></trkpt><trkpt lat="45.8544745" lon="13.4673613"><ele>17.0</ele><time>2026-04-25T10:24:01.342Z</time></trkpt><trkpt lat="45.8543783" lon="13.4672548"><ele>17.0</ele><time>2026-04-25T10:24:03.33Z</time></trkpt><trkpt lat="45.8542817" lon="13.4671456"><ele>17.75</ele><time>2026-04-25T10:24:05.335Z</time></trkpt><trkpt lat="45.8541853" lon="13.4670366"><ele>18.5</ele><time>2026-04-25T10:24:07.337Z</time></trkpt><trkpt lat="45.8540866" lon="13.4669287"><ele>19.25</ele><time>2026-04-25T10:24:09.331Z</time></trkpt><trkpt lat="45.8539887" lon="13.4668217"><ele>20.0</ele><time>2026-04-25T10:24:11.32Z</time></trkpt><trkpt lat="45.8538936" lon="13.4667116"><ele>20.0</ele><time>2026-04-25T10:24:13.322Z</time></trkpt><trkpt lat="45.8537964" lon="13.4666016"><ele>20.0</ele><time>2026-04-25T10:24:15.342Z</time></trkpt><trkpt lat="45.8536974" lon="13.4664932"><ele>20.0</ele><time>2026-04-25T10:24:17.334Z</time></trkpt><trkpt lat="45.8535975" lon="13.4663862"><ele>20.0</ele><time>2026-04-25T10:24:19.331Z</time></trkpt><trkpt lat="45.8535476" lon="13.4663306"><ele>20.0</ele><time>2026-04-25T10:24:20.328Z</time></trkpt><trkpt lat="45.8534983" lon="13.4662738"><ele>19.2</ele><time>2026-04-25T10:24:21.335Z</time></trkpt><trkpt lat="45.8533998" lon="13.4661618"><ele>18.4</ele><time>2026-04-25T10:24:23.326Z</time></trkpt><trkpt lat="45.8533499" lon="13.4661035"><ele>17.6</ele><time>2026-04-25T10:24:24.334Z</time></trkpt><trkpt lat="45.8533005" lon="13.4660456"><ele>16.8</ele><time>2026-04-25T10:24:25.339Z</time></trkpt><trkpt lat="45.8532066" lon="13.4659258"><ele>16.0</ele><time>2026-04-25T10:24:27.314Z</time></trkpt><trkpt lat="45.8531112" lon="13.4658098"><ele>16.0</ele><time>2026-04-25T10:24:29.319Z</time></trkpt><trkpt lat="45.8530152" lon="13.4656911"><ele>16.0</ele><time>2026-04-25T10:24:31.339Z</time></trkpt><trkpt lat="45.8529698" lon="13.4656279"><ele>16.0</ele><time>2026-04-25T10:24:32.341Z</time></trkpt><trkpt lat="45.8528816" lon="13.4655016"><ele>16.0</ele><time>2026-04-25T10:24:34.341Z</time></trkpt><trkpt lat="45.8527963" lon="13.4653707"><ele>16.0</ele><time>2026-04-25T10:24:36.327Z</time></trkpt><trkpt lat="45.8527111" lon="13.4652417"><ele>15.8</ele><time>2026-04-25T10:24:38.326Z</time></trkpt><trkpt lat="45.8526682" lon="13.4651753"><ele>15.600000000000001</ele><time>2026-04-25T10:24:39.322Z</time></trkpt><trkpt lat="45.852584" lon="13.4650433"><ele>15.4</ele><time>2026-04-25T10:24:41.336Z</time></trkpt><trkpt lat="45.8525003" lon="13.4649121"><ele>15.2</ele><time>2026-04-25T10:24:43.317Z</time></trkpt><trkpt lat="45.8524171" lon="13.4647784"><ele>15.0</ele><time>2026-04-25T10:24:45.332Z</time></trkpt><trkpt lat="45.852337" lon="13.4646428"><ele>15.25</ele><time>2026-04-25T10:24:47.317Z</time></trkpt><trkpt lat="45.852262" lon="13.4644999"><ele>15.5</ele><time>2026-04-25T10:24:49.336Z</time></trkpt><trkpt lat="45.8521922" lon="13.4643509"><ele>15.75</ele><time>2026-04-25T10:24:51.333Z</time></trkpt><trkpt lat="45.8521248" lon="13.4642005"><ele>16.0</ele><time>2026-04-25T10:24:53.321Z</time></trkpt><trkpt lat="45.8520602" lon="13.4640491"><ele>16.0</ele><time>2026-04-25T10:24:55.338Z</time></trkpt><trkpt lat="45.8519971" lon="13.4639"><ele>16.0</ele><time>2026-04-25T10:24:57.344Z</time></trkpt><trkpt lat="45.8519303" lon="13.4637473"><ele>16.0</ele><time>2026-04-25T10:24:59.322Z</time></trkpt><trkpt lat="45.8518639" lon="13.4635956"><ele>16.0</ele><time>2026-04-25T10:25:01.323Z</time></trkpt><trkpt lat="45.8517903" lon="13.4634528"><ele>16.0</ele><time>2026-04-25T10:25:03.317Z</time></trkpt><trkpt lat="45.8517159" lon="13.4633127"><ele>16.0</ele><time>2026-04-25T10:25:05.321Z</time></trkpt><trkpt lat="45.8516386" lon="13.4631716"><ele>16.0</ele><time>2026-04-25T10:25:07.336Z</time></trkpt><trkpt lat="45.851558" lon="13.463035"><ele>16.0</ele><time>2026-04-25T10:25:09.334Z</time></trkpt><trkpt lat="45.8514827" lon="13.4628959"><ele>15.8</ele><time>2026-04-25T10:25:11.316Z</time></trkpt><trkpt lat="45.8514317" lon="13.4627381"><ele>15.600000000000001</ele><time>2026-04-25T10:25:13.331Z</time></trkpt><trkpt lat="45.8514287" lon="13.462564"><ele>15.4</ele><time>2026-04-25T10:25:15.317Z</time></trkpt><trkpt lat="45.8514648" lon="13.4623913"><ele>15.2</ele><time>2026-04-25T10:25:17.331Z</time></trkpt><trkpt lat="45.8514915" lon="13.4623057"><ele>15.0</ele><time>2026-04-25T10:25:18.325Z</time></trkpt><trkpt lat="45.8515182" lon="13.4622198"><ele>15.0</ele><time>2026-04-25T10:25:19.322Z</time></trkpt><trkpt lat="45.8515457" lon="13.4621359"><ele>15.0</ele><time>2026-04-25T10:25:20.332Z</time></trkpt><trkpt lat="45.8515739" lon="13.4620523"><ele>15.0</ele><time>2026-04-25T10:25:21.336Z</time></trkpt><trkpt lat="45.8516012" lon="13.4619681"><ele>15.0</ele><time>2026-04-25T10:25:22.327Z</time></trkpt><trkpt lat="45.8516283" lon="13.4618844"><ele>15.0</ele><time>2026-04-25T10:25:23.311Z</time></trkpt><trkpt lat="45.8516564" lon="13.4617999"><ele>15.0</ele><time>2026-04-25T10:25:24.389Z</time></trkpt><trkpt lat="45.8517089" lon="13.4616416"><ele>15.0</ele><time>2026-04-25T10:25:26.325Z</time></trkpt><trkpt lat="45.8517652" lon="13.4614854"><ele>15.25</ele><time>2026-04-25T10:25:28.324Z</time></trkpt><trkpt lat="45.851817" lon="13.4613254"><ele>15.5</ele><time>2026-04-25T10:25:30.34Z</time></trkpt><trkpt lat="45.8518672" lon="13.4611636"><ele>15.75</ele><time>2026-04-25T10:25:32.328Z</time></trkpt><trkpt lat="45.8519177" lon="13.4610015"><ele>16.0</ele><time>2026-04-25T10:25:34.314Z</time></trkpt><trkpt lat="45.8519657" lon="13.4608398"><ele>16.0</ele><time>2026-04-25T10:25:36.32Z</time></trkpt><trkpt lat="45.8519913" lon="13.4607555"><ele>16.0</ele><time>2026-04-25T10:25:37.32Z</time></trkpt><trkpt lat="45.8520371" lon="13.4605891"><ele>16.0</ele><time>2026-04-25T10:25:39.332Z</time></trkpt><trkpt lat="45.8520795" lon="13.4604239"><ele>16.0</ele><time>2026-04-25T10:25:41.336Z</time></trkpt><trkpt lat="45.8521245" lon="13.4602609"><ele>16.0</ele><time>2026-04-25T10:25:43.321Z</time></trkpt><trkpt lat="45.8521662" lon="13.4601002"><ele>15.999999999999998</ele><time>2026-04-25T10:25:45.34Z</time></trkpt><trkpt lat="45.8522078" lon="13.4599389"><ele>16.0</ele><time>2026-04-25T10:25:47.333Z</time></trkpt><trkpt lat="45.8522509" lon="13.459772"><ele>16.0</ele><time>2026-04-25T10:25:49.333Z</time></trkpt><trkpt lat="45.8522745" lon="13.4596845"><ele>16.0</ele><time>2026-04-25T10:25:50.317Z</time></trkpt><trkpt lat="45.8522971" lon="13.4595922"><ele>15.999999999999998</ele><time>2026-04-25T10:25:51.336Z</time></trkpt><trkpt lat="45.8523057" lon="13.4594917"><ele>16.0</ele><time>2026-04-25T10:25:52.332Z</time></trkpt><trkpt lat="45.8523118" lon="13.4594014"><ele>15.999999999999998</ele><time>2026-04-25T10:25:53.32Z</time></trkpt><trkpt lat="45.8522483" lon="13.4592711"><ele>16.0</ele><time>2026-04-25T10:25:55.314Z</time></trkpt><trkpt lat="45.8521845" lon="13.4592073"><ele>16.0</ele><time>2026-04-25T10:25:56.308Z</time></trkpt><trkpt lat="45.8521086" lon="13.4591635"><ele>16.0</ele><time>2026-04-25T10:25:57.303Z</time></trkpt><trkpt lat="45.8520435" lon="13.4591123"><ele>15.999999999999998</ele><time>2026-04-25T10:25:58.313Z</time></trkpt><trkpt lat="45.8519856" lon="13.4590653"><ele>16.0</ele><time>2026-04-25T10:25:59.309Z</time></trkpt><trkpt lat="45.8518937" lon="13.4589556"><ele>15.999999999999998</ele><time>2026-04-25T10:26:01.33Z</time></trkpt><trkpt lat="45.8518521" lon="13.4588859"><ele>16.0</ele><time>2026-04-25T10:26:02.324Z</time></trkpt><trkpt lat="45.8517949" lon="13.4588387"><ele>16.0</ele><time>2026-04-25T10:26:03.339Z</time></trkpt><trkpt lat="45.8517109" lon="13.458795"><ele>16.0</ele><time>2026-04-25T10:26:05.319Z</time></trkpt><trkpt lat="45.8516176" lon="13.458797"><ele>15.999999999999998</ele><time>2026-04-25T10:26:07.335Z</time></trkpt><trkpt lat="45.8515322" lon="13.4588093"><ele>16.0</ele><time>2026-04-25T10:26:09.33Z</time></trkpt><trkpt lat="45.8514559" lon="13.458827"><ele>16.166666666666664</ele><time>2026-04-25T10:26:11.327Z</time></trkpt><trkpt lat="45.8513793" lon="13.4588591"><ele>16.333333333333332</ele><time>2026-04-25T10:26:13.32Z</time></trkpt><trkpt lat="45.8512925" lon="13.4588882"><ele>16.5</ele><time>2026-04-25T10:26:15.307Z</time></trkpt><trkpt lat="45.8512052" lon="13.4588942"><ele>16.666666666666668</ele><time>2026-04-25T10:26:17.333Z</time></trkpt><trkpt lat="45.8511436" lon="13.4588174"><ele>16.833333333333336</ele><time>2026-04-25T10:26:19.328Z</time></trkpt><trkpt lat="45.8511199" lon="13.4587017"><ele>17.0</ele><time>2026-04-25T10:26:21.331Z</time></trkpt><trkpt lat="45.8511025" lon="13.4585481"><ele>17.0</ele><time>2026-04-25T10:26:23.318Z</time></trkpt><trkpt lat="45.8510944" lon="13.458456"><ele>17.0</ele><time>2026-04-25T10:26:24.332Z</time></trkpt><trkpt lat="45.851091" lon="13.4583619"><ele>17.0</ele><time>2026-04-25T10:26:25.327Z</time></trkpt><trkpt lat="45.8510713" lon="13.4581912"><ele>17.0</ele><time>2026-04-25T10:26:27.322Z</time></trkpt><trkpt lat="45.851054" lon="13.4580343"><ele>17.0</ele><time>2026-04-25T10:26:29.324Z</time></trkpt><trkpt lat="45.8510391" lon="13.4579006"><ele>17.0</ele><time>2026-04-25T10:26:31.317Z</time></trkpt><trkpt lat="45.8510228" lon="13.457763"><ele>17.0</ele><time>2026-04-25T10:26:33.325Z</time></trkpt><trkpt lat="45.8510038" lon="13.4576044"><ele>17.0</ele><time>2026-04-25T10:26:35.326Z</time></trkpt><trkpt lat="45.8509859" lon="13.4574383"><ele>17.0</ele><time>2026-04-25T10:26:37.338Z</time></trkpt><trkpt lat="45.8509774" lon="13.4572674"><ele>17.0</ele><time>2026-04-25T10:26:39.328Z</time></trkpt><trkpt lat="45.8509358" lon="13.4571164"><ele>16.8</ele><time>2026-04-25T10:26:41.328Z</time></trkpt><trkpt lat="45.8509029" lon="13.4569591"><ele>16.6</ele><time>2026-04-25T10:26:43.331Z</time></trkpt><trkpt lat="45.8508917" lon="13.4568054"><ele>16.400000000000002</ele><time>2026-04-25T10:26:45.324Z</time></trkpt><trkpt lat="45.8508916" lon="13.4566572"><ele>16.2</ele><time>2026-04-25T10:26:47.327Z</time></trkpt><trkpt lat="45.8509153" lon="13.4565147"><ele>16.0</ele><time>2026-04-25T10:26:49.312Z</time></trkpt><trkpt lat="45.8509388" lon="13.4563873"><ele>15.8</ele><time>2026-04-25T10:26:51.366Z</time></trkpt><trkpt lat="45.8509693" lon="13.456288"><ele>15.600000000000001</ele><time>2026-04-25T10:26:53.337Z</time></trkpt><trkpt lat="45.8510307" lon="13.4562093"><ele>15.4</ele><time>2026-04-25T10:26:55.322Z</time></trkpt><trkpt lat="45.8511206" lon="13.4561332"><ele>15.2</ele><time>2026-04-25T10:26:57.316Z</time></trkpt><trkpt lat="45.8512168" lon="13.4560405"><ele>15.0</ele><time>2026-04-25T10:26:59.347Z</time></trkpt><trkpt lat="45.8513176" lon="13.4559442"><ele>15.0</ele><time>2026-04-25T10:27:01.33Z</time></trkpt><trkpt lat="45.8514002" lon="13.4558513"><ele>15.0</ele><time>2026-04-25T10:27:03.335Z</time></trkpt><trkpt lat="45.8514783" lon="13.4557346"><ele>15.0</ele><time>2026-04-25T10:27:05.319Z</time></trkpt><trkpt lat="45.851578" lon="13.4556449"><ele>15.0</ele><time>2026-04-25T10:27:07.329Z</time></trkpt><trkpt lat="45.8516794" lon="13.4555347"><ele>15.0</ele><time>2026-04-25T10:27:09.332Z</time></trkpt><trkpt lat="45.8517303" lon="13.4554771"><ele>15.0</ele><time>2026-04-25T10:27:10.329Z</time></trkpt><trkpt lat="45.8518217" lon="13.4553665"><ele>15.0</ele><time>2026-04-25T10:27:12.315Z</time></trkpt><trkpt lat="45.8519071" lon="13.4552659"><ele>15.0</ele><time>2026-04-25T10:27:14.325Z</time></trkpt><trkpt lat="45.8519886" lon="13.4551699"><ele>15.0</ele><time>2026-04-25T10:27:16.331Z</time></trkpt><trkpt lat="45.8520501" lon="13.4550979"><ele>15.0</ele><time>2026-04-25T10:27:18.323Z</time></trkpt><trkpt lat="45.8520272" lon="13.4549662"><ele>15.0</ele><time>2026-04-25T10:27:21.342Z</time></trkpt><trkpt lat="45.8519465" lon="13.4548991"><ele>15.0</ele><time>2026-04-25T10:27:23.337Z</time></trkpt><trkpt lat="45.8518373" lon="13.4548466"><ele>15.0</ele><time>2026-04-25T10:27:25.32Z</time></trkpt><trkpt lat="45.8517449" lon="13.4547987"><ele>15.0</ele><time>2026-04-25T10:27:27.33Z</time></trkpt><trkpt lat="45.8516643" lon="13.4547528"><ele>14.8</ele><time>2026-04-25T10:27:29.332Z</time></trkpt><trkpt lat="45.8515794" lon="13.454703"><ele>14.6</ele><time>2026-04-25T10:27:31.338Z</time></trkpt><trkpt lat="45.8515045" lon="13.4546175"><ele>14.399999999999999</ele><time>2026-04-25T10:27:33.335Z</time></trkpt><trkpt lat="45.8514245" lon="13.4545301"><ele>14.2</ele><time>2026-04-25T10:27:35.315Z</time></trkpt><trkpt lat="45.8513414" lon="13.4544376"><ele>14.0</ele><time>2026-04-25T10:27:37.334Z</time></trkpt><trkpt lat="45.8512812" lon="13.454367"><ele>13.857142857142858</ele><time>2026-04-25T10:27:38.337Z</time></trkpt><trkpt lat="45.8512302" lon="13.4543115"><ele>13.714285714285715</ele><time>2026-04-25T10:27:39.337Z</time></trkpt><trkpt lat="45.8511742" lon="13.4542601"><ele>13.571428571428571</ele><time>2026-04-25T10:27:40.314Z</time></trkpt><trkpt lat="45.8511206" lon="13.4542021"><ele>13.428571428571429</ele><time>2026-04-25T10:27:41.322Z</time></trkpt><trkpt lat="45.8510646" lon="13.4541528"><ele>13.285714285714286</ele><time>2026-04-25T10:27:42.329Z</time></trkpt><trkpt lat="45.8509707" lon="13.4540739"><ele>13.142857142857142</ele><time>2026-04-25T10:27:44.318Z</time></trkpt><trkpt lat="45.8509159" lon="13.454029"><ele>13.0</ele><time>2026-04-25T10:27:45.322Z</time></trkpt><trkpt lat="45.8508248" lon="13.4539459"><ele>13.0</ele><time>2026-04-25T10:27:47.322Z</time></trkpt><trkpt lat="45.8507394" lon="13.4538517"><ele>13.0</ele><time>2026-04-25T10:27:49.329Z</time></trkpt><trkpt lat="45.8506505" lon="13.4537656"><ele>13.0</ele><time>2026-04-25T10:27:51.326Z</time></trkpt><trkpt lat="45.8505558" lon="13.4536743"><ele>13.0</ele><time>2026-04-25T10:27:53.341Z</time></trkpt><trkpt lat="45.8504701" lon="13.4535728"><ele>13.0</ele><time>2026-04-25T10:27:55.316Z</time></trkpt><trkpt lat="45.8503844" lon="13.4534482"><ele>13.0</ele><time>2026-04-25T10:27:57.32Z</time></trkpt><trkpt lat="45.8503197" lon="13.4533053"><ele>13.0</ele><time>2026-04-25T10:27:59.339Z</time></trkpt><trkpt lat="45.8502757" lon="13.4531649"><ele>13.0</ele><time>2026-04-25T10:28:01.336Z</time></trkpt><trkpt lat="45.8502244" lon="13.4530051"><ele>13.0</ele><time>2026-04-25T10:28:03.313Z</time></trkpt><trkpt lat="45.8501791" lon="13.4528378"><ele>12.8</ele><time>2026-04-25T10:28:05.332Z</time></trkpt><trkpt lat="45.8501257" lon="13.4526809"><ele>12.600000000000001</ele><time>2026-04-25T10:28:07.314Z</time></trkpt><trkpt lat="45.8500992" lon="13.4525952"><ele>12.399999999999999</ele><time>2026-04-25T10:28:08.332Z</time></trkpt><trkpt lat="45.8500486" lon="13.4524408"><ele>12.2</ele><time>2026-04-25T10:28:10.324Z</time></trkpt><trkpt lat="45.8499908" lon="13.4522895"><ele>12.0</ele><time>2026-04-25T10:28:12.332Z</time></trkpt><trkpt lat="45.8499405" lon="13.4521279"><ele>11.6</ele><time>2026-04-25T10:28:14.328Z</time></trkpt><trkpt lat="45.8499044" lon="13.4519987"><ele>11.2</ele><time>2026-04-25T10:28:16.331Z</time></trkpt><trkpt lat="45.8498631" lon="13.4519253"><ele>10.8</ele><time>2026-04-25T10:28:17.324Z</time></trkpt><trkpt lat="45.8497812" lon="13.4517962"><ele>10.4</ele><time>2026-04-25T10:28:19.336Z</time></trkpt><trkpt lat="45.8496995" lon="13.4516672"><ele>10.0</ele><time>2026-04-25T10:28:21.321Z</time></trkpt><trkpt lat="45.8496265" lon="13.4515314"><ele>10.0</ele><time>2026-04-25T10:28:23.346Z</time></trkpt><trkpt lat="45.8495505" lon="13.4514073"><ele>10.0</ele><time>2026-04-25T10:28:25.319Z</time></trkpt><trkpt lat="45.8494704" lon="13.4512939"><ele>10.0</ele><time>2026-04-25T10:28:27.32Z</time></trkpt><trkpt lat="45.8493847" lon="13.451189"><ele>10.0</ele><time>2026-04-25T10:28:29.333Z</time></trkpt><trkpt lat="45.8493099" lon="13.4510777"><ele>10.0</ele><time>2026-04-25T10:28:31.321Z</time></trkpt><trkpt lat="45.8492148" lon="13.4509799"><ele>10.4</ele><time>2026-04-25T10:28:33.338Z</time></trkpt><trkpt lat="45.84912" lon="13.4508985"><ele>10.8</ele><time>2026-04-25T10:28:35.331Z</time></trkpt><trkpt lat="45.8490299" lon="13.4508058"><ele>11.2</ele><time>2026-04-25T10:28:37.324Z</time></trkpt><trkpt lat="45.8489396" lon="13.4507205"><ele>11.6</ele><time>2026-04-25T10:28:39.318Z</time></trkpt><trkpt lat="45.8488444" lon="13.4506582"><ele>12.0</ele><time>2026-04-25T10:28:41.319Z</time></trkpt><trkpt lat="45.848745" lon="13.4505754"><ele>12.0</ele><time>2026-04-25T10:28:43.32Z</time></trkpt><trkpt lat="45.8486476" lon="13.4504835"><ele>12.0</ele><time>2026-04-25T10:28:45.324Z</time></trkpt><trkpt lat="45.8485676" lon="13.4503945"><ele>12.0</ele><time>2026-04-25T10:28:47.34Z</time></trkpt><trkpt lat="45.8484829" lon="13.4503035"><ele>12.0</ele><time>2026-04-25T10:28:49.358Z</time></trkpt><trkpt lat="45.848432" lon="13.4502453"><ele>12.0</ele><time>2026-04-25T10:28:50.34Z</time></trkpt><trkpt lat="45.8483812" lon="13.4501847"><ele>11.833333333333334</ele><time>2026-04-25T10:28:51.323Z</time></trkpt><trkpt lat="45.8483275" lon="13.4501163"><ele>11.666666666666666</ele><time>2026-04-25T10:28:52.334Z</time></trkpt><trkpt lat="45.8482796" lon="13.4500501"><ele>11.5</ele><time>2026-04-25T10:28:53.317Z</time></trkpt><trkpt lat="45.848235" lon="13.449986"><ele>11.333333333333332</ele><time>2026-04-25T10:28:54.333Z</time></trkpt><trkpt lat="45.8481427" lon="13.4498688"><ele>11.166666666666666</ele><time>2026-04-25T10:28:56.326Z</time></trkpt><trkpt lat="45.8480601" lon="13.4497495"><ele>11.0</ele><time>2026-04-25T10:28:58.332Z</time></trkpt><trkpt lat="45.8479794" lon="13.4496543"><ele>10.8</ele><time>2026-04-25T10:29:00.33Z</time></trkpt><trkpt lat="45.8478968" lon="13.4495611"><ele>10.600000000000001</ele><time>2026-04-25T10:29:02.32Z</time></trkpt><trkpt lat="45.8478285" lon="13.4494392"><ele>10.4</ele><time>2026-04-25T10:29:04.316Z</time></trkpt><trkpt lat="45.8477295" lon="13.4493388"><ele>10.2</ele><time>2026-04-25T10:29:06.322Z</time></trkpt><trkpt lat="45.8476579" lon="13.4492261"><ele>10.0</ele><time>2026-04-25T10:29:08.352Z</time></trkpt><trkpt lat="45.8476023" lon="13.4490856"><ele>10.0</ele><time>2026-04-25T10:29:10.313Z</time></trkpt><trkpt lat="45.8475412" lon="13.4489578"><ele>10.0</ele><time>2026-04-25T10:29:12.343Z</time></trkpt><trkpt lat="45.8474701" lon="13.448828"><ele>10.0</ele><time>2026-04-25T10:29:14.327Z</time></trkpt><trkpt lat="45.8474217" lon="13.4487613"><ele>10.0</ele><time>2026-04-25T10:29:15.322Z</time></trkpt><trkpt lat="45.8473411" lon="13.4486467"><ele>10.0</ele><time>2026-04-25T10:29:17.347Z</time></trkpt><trkpt lat="45.847297" lon="13.4485788"><ele>10.0</ele><time>2026-04-25T10:29:18.332Z</time></trkpt><trkpt lat="45.8472205" lon="13.4484378"><ele>10.0</ele><time>2026-04-25T10:29:20.317Z</time></trkpt><trkpt lat="45.8471527" lon="13.4483039"><ele>10.0</ele><time>2026-04-25T10:29:22.321Z</time></trkpt><trkpt lat="45.8470778" lon="13.4481607"><ele>10.0</ele><time>2026-04-25T10:29:24.32Z</time></trkpt><trkpt lat="45.847" lon="13.448019"><ele>9.75</ele><time>2026-04-25T10:29:26.326Z</time></trkpt><trkpt lat="45.8469244" lon="13.4478829"><ele>9.5</ele><time>2026-04-25T10:29:28.316Z</time></trkpt><trkpt lat="45.8468494" lon="13.4477431"><ele>9.25</ele><time>2026-04-25T10:29:30.323Z</time></trkpt><trkpt lat="45.8467739" lon="13.4476016"><ele>9.0</ele><time>2026-04-25T10:29:32.32Z</time></trkpt><trkpt lat="45.8467006" lon="13.4474591"><ele>9.25</ele><time>2026-04-25T10:29:34.318Z</time></trkpt><trkpt lat="45.8466274" lon="13.4473125"><ele>9.5</ele><time>2026-04-25T10:29:36.325Z</time></trkpt><trkpt lat="45.8465566" lon="13.4471754"><ele>9.75</ele><time>2026-04-25T10:29:38.321Z</time></trkpt><trkpt lat="45.8464879" lon="13.4470318"><ele>10.0</ele><time>2026-04-25T10:29:40.32Z</time></trkpt><trkpt lat="45.8464183" lon="13.4468877"><ele>10.0</ele><time>2026-04-25T10:29:42.324Z</time></trkpt><trkpt lat="45.8463481" lon="13.4467471"><ele>10.0</ele><time>2026-04-25T10:29:44.321Z</time></trkpt><trkpt lat="45.8462759" lon="13.4466044"><ele>10.0</ele><time>2026-04-25T10:29:46.33Z</time></trkpt><trkpt lat="45.846207" lon="13.4464671"><ele>10.0</ele><time>2026-04-25T10:29:48.326Z</time></trkpt><trkpt lat="45.8461368" lon="13.4463339"><ele>10.0</ele><time>2026-04-25T10:29:50.331Z</time></trkpt><trkpt lat="45.8461038" lon="13.446254"><ele>10.0</ele><time>2026-04-25T10:29:51.328Z</time></trkpt><trkpt lat="45.8460431" lon="13.4461096"><ele>10.0</ele><time>2026-04-25T10:29:53.312Z</time></trkpt><trkpt lat="45.8459796" lon="13.4459899"><ele>10.0</ele><time>2026-04-25T10:29:55.327Z</time></trkpt><trkpt lat="45.8459136" lon="13.4458666"><ele>10.0</ele><time>2026-04-25T10:29:57.324Z</time></trkpt><trkpt lat="45.8458383" lon="13.4457208"><ele>10.0</ele><time>2026-04-25T10:29:59.334Z</time></trkpt><trkpt lat="45.8457995" lon="13.4456443"><ele>10.0</ele><time>2026-04-25T10:30:00.341Z</time></trkpt><trkpt lat="45.8457622" lon="13.4455679"><ele>10.0</ele><time>2026-04-25T10:30:01.348Z</time></trkpt><trkpt lat="45.8456873" lon="13.4454247"><ele>10.0</ele><time>2026-04-25T10:30:03.333Z</time></trkpt><trkpt lat="45.8456066" lon="13.445287"><ele>10.0</ele><time>2026-04-25T10:30:05.342Z</time></trkpt><trkpt lat="45.8455661" lon="13.445213"><ele>10.0</ele><time>2026-04-25T10:30:06.336Z</time></trkpt><trkpt lat="45.8455274" lon="13.4451411"><ele>10.0</ele><time>2026-04-25T10:30:07.315Z</time></trkpt><trkpt lat="45.8454591" lon="13.4449881"><ele>10.0</ele><time>2026-04-25T10:30:09.344Z</time></trkpt><trkpt lat="45.8454379" lon="13.4448992"><ele>10.0</ele><time>2026-04-25T10:30:10.323Z</time></trkpt><trkpt lat="45.8454389" lon="13.4448064"><ele>10.0</ele><time>2026-04-25T10:30:11.339Z</time></trkpt><trkpt lat="45.8454205" lon="13.444637"><ele>10.0</ele><time>2026-04-25T10:30:13.326Z</time></trkpt><trkpt lat="45.8453377" lon="13.4445127"><ele>10.4</ele><time>2026-04-25T10:30:15.327Z</time></trkpt><trkpt lat="45.8452349" lon="13.4444136"><ele>10.8</ele><time>2026-04-25T10:30:17.341Z</time></trkpt><trkpt lat="45.8451852" lon="13.4443574"><ele>11.2</ele><time>2026-04-25T10:30:18.315Z</time></trkpt><trkpt lat="45.8451384" lon="13.4442964"><ele>11.6</ele><time>2026-04-25T10:30:19.34Z</time></trkpt><trkpt lat="45.8450456" lon="13.4441748"><ele>12.0</ele><time>2026-04-25T10:30:21.338Z</time></trkpt><trkpt lat="45.8449611" lon="13.4440453"><ele>12.0</ele><time>2026-04-25T10:30:23.334Z</time></trkpt><trkpt lat="45.8448924" lon="13.4439064"><ele>12.0</ele><time>2026-04-25T10:30:25.327Z</time></trkpt><trkpt lat="45.8448152" lon="13.4437689"><ele>12.0</ele><time>2026-04-25T10:30:27.328Z</time></trkpt><trkpt lat="45.8447484" lon="13.4436465"><ele>12.0</ele><time>2026-04-25T10:30:29.343Z</time></trkpt><trkpt lat="45.8446857" lon="13.4435131"><ele>11.666666666666666</ele><time>2026-04-25T10:30:31.333Z</time></trkpt><trkpt lat="45.8446327" lon="13.4434062"><ele>11.333333333333334</ele><time>2026-04-25T10:30:33.328Z</time></trkpt><trkpt lat="45.844566" lon="13.4433379"><ele>11.0</ele><time>2026-04-25T10:30:35.352Z</time></trkpt><trkpt lat="45.844538" lon="13.4432068"><ele>10.666666666666668</ele><time>2026-04-25T10:30:37.32Z</time></trkpt><trkpt lat="45.8444756" lon="13.4430907"><ele>10.333333333333334</ele><time>2026-04-25T10:30:39.325Z</time></trkpt><trkpt lat="45.8444179" lon="13.443038"><ele>10.0</ele><time>2026-04-25T10:30:40.335Z</time></trkpt><trkpt lat="45.8443066" lon="13.4429781"><ele>10.5</ele><time>2026-04-25T10:30:42.306Z</time></trkpt><trkpt lat="45.8442454" lon="13.4429473"><ele>11.0</ele><time>2026-04-25T10:30:43.323Z</time></trkpt><trkpt lat="45.8441543" lon="13.4428844"><ele>11.5</ele><time>2026-04-25T10:30:45.313Z</time></trkpt><trkpt lat="45.8440932" lon="13.4428047"><ele>12.0</ele><time>2026-04-25T10:30:47.321Z</time></trkpt><trkpt lat="45.8440516" lon="13.4426486"><ele>12.499999999999998</ele><time>2026-04-25T10:30:49.314Z</time></trkpt><trkpt lat="45.8440333" lon="13.4425579"><ele>13.0</ele><time>2026-04-25T10:30:50.333Z</time></trkpt><trkpt lat="45.8440072" lon="13.4424525"><ele>12.999999999999998</ele><time>2026-04-25T10:30:51.325Z</time></trkpt><trkpt lat="45.8439756" lon="13.4423634"><ele>13.0</ele><time>2026-04-25T10:30:52.324Z</time></trkpt><trkpt lat="45.8439388" lon="13.442282"><ele>13.0</ele><time>2026-04-25T10:30:53.337Z</time></trkpt><trkpt lat="45.84389" lon="13.4422149"><ele>13.0</ele><time>2026-04-25T10:30:54.326Z</time></trkpt><trkpt lat="45.8438368" lon="13.4421558"><ele>12.999999999999998</ele><time>2026-04-25T10:30:55.327Z</time></trkpt><trkpt lat="45.843751" lon="13.4420259"><ele>13.0</ele><time>2026-04-25T10:30:57.321Z</time></trkpt><trkpt lat="45.8437077" lon="13.4419599"><ele>12.666666666666666</ele><time>2026-04-25T10:30:58.311Z</time></trkpt><trkpt lat="45.8436415" lon="13.4419108"><ele>12.333333333333332</ele><time>2026-04-25T10:30:59.323Z</time></trkpt><trkpt lat="45.843584" lon="13.4418622"><ele>12.0</ele><time>2026-04-25T10:31:00.344Z</time></trkpt><trkpt lat="45.8435338" lon="13.4417958"><ele>11.666666666666666</ele><time>2026-04-25T10:31:01.33Z</time></trkpt><trkpt lat="45.8434864" lon="13.4417347"><ele>11.333333333333332</ele><time>2026-04-25T10:31:02.335Z</time></trkpt><trkpt lat="45.8434117" lon="13.441611"><ele>11.0</ele><time>2026-04-25T10:31:04.343Z</time></trkpt><trkpt lat="45.8433354" lon="13.441457"><ele>11.600000000000001</ele><time>2026-04-25T10:31:06.313Z</time></trkpt><trkpt lat="45.8432728" lon="13.4413123"><ele>12.2</ele><time>2026-04-25T10:31:08.321Z</time></trkpt><trkpt lat="45.8432317" lon="13.4411624"><ele>12.799999999999999</ele><time>2026-04-25T10:31:10.316Z</time></trkpt><trkpt lat="45.8431823" lon="13.4410042"><ele>13.399999999999999</ele><time>2026-04-25T10:31:12.314Z</time></trkpt><trkpt lat="45.8431525" lon="13.4409161"><ele>14.0</ele><time>2026-04-25T10:31:13.325Z</time></trkpt><trkpt lat="45.8431197" lon="13.4408278"><ele>14.000000000000002</ele><time>2026-04-25T10:31:14.316Z</time></trkpt><trkpt lat="45.8430831" lon="13.4407486"><ele>14.0</ele><time>2026-04-25T10:31:15.324Z</time></trkpt><trkpt lat="45.8430412" lon="13.4406682"><ele>14.0</ele><time>2026-04-25T10:31:16.323Z</time></trkpt><trkpt lat="45.8430012" lon="13.4405941"><ele>14.0</ele><time>2026-04-25T10:31:17.322Z</time></trkpt><trkpt lat="45.8429296" lon="13.4404524"><ele>14.000000000000002</ele><time>2026-04-25T10:31:19.329Z</time></trkpt><trkpt lat="45.8428804" lon="13.4402964"><ele>14.0</ele><time>2026-04-25T10:31:21.343Z</time></trkpt><trkpt lat="45.8428634" lon="13.4402055"><ele>13.833333333333334</ele><time>2026-04-25T10:31:22.312Z</time></trkpt><trkpt lat="45.8428459" lon="13.4401148"><ele>13.666666666666668</ele><time>2026-04-25T10:31:23.31Z</time></trkpt><trkpt lat="45.8428062" lon="13.4399687"><ele>13.5</ele><time>2026-04-25T10:31:25.337Z</time></trkpt><trkpt lat="45.842754" lon="13.4398011"><ele>13.333333333333332</ele><time>2026-04-25T10:31:27.307Z</time></trkpt><trkpt lat="45.8427179" lon="13.4397097"><ele>13.166666666666666</ele><time>2026-04-25T10:31:28.324Z</time></trkpt><trkpt lat="45.8426792" lon="13.4396249"><ele>13.0</ele><time>2026-04-25T10:31:29.317Z</time></trkpt><trkpt lat="45.8426371" lon="13.4395361"><ele>13.4</ele><time>2026-04-25T10:31:30.325Z</time></trkpt><trkpt lat="45.8425994" lon="13.439451"><ele>13.8</ele><time>2026-04-25T10:31:31.324Z</time></trkpt><trkpt lat="45.8425281" lon="13.4393058"><ele>14.2</ele><time>2026-04-25T10:31:33.328Z</time></trkpt><trkpt lat="45.8424704" lon="13.4391521"><ele>14.6</ele><time>2026-04-25T10:31:35.32Z</time></trkpt><trkpt lat="45.8424205" lon="13.4390097"><ele>15.0</ele><time>2026-04-25T10:31:37.34Z</time></trkpt><trkpt lat="45.8423775" lon="13.4388857"><ele>14.333333333333334</ele><time>2026-04-25T10:31:39.32Z</time></trkpt><trkpt lat="45.8423333" lon="13.4387656"><ele>13.666666666666666</ele><time>2026-04-25T10:31:41.316Z</time></trkpt><trkpt lat="45.8422838" lon="13.4386581"><ele>13.0</ele><time>2026-04-25T10:31:43.321Z</time></trkpt><trkpt lat="45.8422398" lon="13.4385673"><ele>12.333333333333332</ele><time>2026-04-25T10:31:45.318Z</time></trkpt><trkpt lat="45.8421826" lon="13.4384794"><ele>11.666666666666666</ele><time>2026-04-25T10:31:47.319Z</time></trkpt><trkpt lat="45.8421116" lon="13.4383963"><ele>11.0</ele><time>2026-04-25T10:31:49.318Z</time></trkpt><trkpt lat="45.8420391" lon="13.4383233"><ele>11.0</ele><time>2026-04-25T10:31:51.326Z</time></trkpt><trkpt lat="45.8419362" lon="13.4382298"><ele>11.0</ele><time>2026-04-25T10:31:53.313Z</time></trkpt><trkpt lat="45.8418386" lon="13.4381417"><ele>11.0</ele><time>2026-04-25T10:31:55.323Z</time></trkpt><trkpt lat="45.8417417" lon="13.4380623"><ele>11.0</ele><time>2026-04-25T10:31:57.328Z</time></trkpt><trkpt lat="45.8416819" lon="13.4380252"><ele>11.0</ele><time>2026-04-25T10:31:58.311Z</time></trkpt><trkpt lat="45.8415749" lon="13.4379458"><ele>11.200000000000001</ele><time>2026-04-25T10:32:00.354Z</time></trkpt><trkpt lat="45.8415145" lon="13.4379051"><ele>11.4</ele><time>2026-04-25T10:32:01.333Z</time></trkpt><trkpt lat="45.8414153" lon="13.4378394"><ele>11.6</ele><time>2026-04-25T10:32:03.32Z</time></trkpt><trkpt lat="45.8413066" lon="13.4378035"><ele>11.8</ele><time>2026-04-25T10:32:05.319Z</time></trkpt><trkpt lat="45.8412095" lon="13.4377936"><ele>12.0</ele><time>2026-04-25T10:32:07.321Z</time></trkpt><trkpt lat="45.8411198" lon="13.4377951"><ele>12.0</ele><time>2026-04-25T10:32:09.319Z</time></trkpt><trkpt lat="45.8410386" lon="13.4377669"><ele>12.0</ele><time>2026-04-25T10:32:11.351Z</time></trkpt><trkpt lat="45.8409651" lon="13.4376299"><ele>12.0</ele><time>2026-04-25T10:32:13.323Z</time></trkpt><trkpt lat="45.8409254" lon="13.4375577"><ele>12.0</ele><time>2026-04-25T10:32:14.33Z</time></trkpt><trkpt lat="45.8408849" lon="13.437484"><ele>12.0</ele><time>2026-04-25T10:32:15.323Z</time></trkpt><trkpt lat="45.8408446" lon="13.4374092"><ele>12.0</ele><time>2026-04-25T10:32:16.329Z</time></trkpt><trkpt lat="45.8408035" lon="13.4373361"><ele>12.166666666666666</ele><time>2026-04-25T10:32:17.327Z</time></trkpt><trkpt lat="45.8407626" lon="13.4372632"><ele>12.333333333333332</ele><time>2026-04-25T10:32:18.33Z</time></trkpt><trkpt lat="45.8407241" lon="13.4371896"><ele>12.5</ele><time>2026-04-25T10:32:19.317Z</time></trkpt><trkpt lat="45.8406862" lon="13.4371169"><ele>12.666666666666666</ele><time>2026-04-25T10:32:20.314Z</time></trkpt><trkpt lat="45.8406113" lon="13.4369726"><ele>12.833333333333332</ele><time>2026-04-25T10:32:22.341Z</time></trkpt><trkpt lat="45.840536" lon="13.4368326"><ele>13.0</ele><time>2026-04-25T10:32:24.32Z</time></trkpt><trkpt lat="45.8404586" lon="13.436695"><ele>12.25</ele><time>2026-04-25T10:32:26.33Z</time></trkpt><trkpt lat="45.8403791" lon="13.4365586"><ele>11.5</ele><time>2026-04-25T10:32:28.324Z</time></trkpt><trkpt lat="45.8402992" lon="13.4364218"><ele>10.75</ele><time>2026-04-25T10:32:30.342Z</time></trkpt><trkpt lat="45.840219" lon="13.4362855"><ele>10.0</ele><time>2026-04-25T10:32:32.327Z</time></trkpt><trkpt lat="45.8401407" lon="13.4361487"><ele>10.0</ele><time>2026-04-25T10:32:34.323Z</time></trkpt><trkpt lat="45.840059" lon="13.4360164"><ele>10.0</ele><time>2026-04-25T10:32:36.329Z</time></trkpt><trkpt lat="45.8399791" lon="13.4358858"><ele>10.0</ele><time>2026-04-25T10:32:38.337Z</time></trkpt><trkpt lat="45.8398988" lon="13.4357541"><ele>10.0</ele><time>2026-04-25T10:32:40.326Z</time></trkpt><trkpt lat="45.8398135" lon="13.4356289"><ele>10.0</ele><time>2026-04-25T10:32:42.331Z</time></trkpt><trkpt lat="45.8397153" lon="13.435527"><ele>10.0</ele><time>2026-04-25T10:32:44.319Z</time></trkpt><trkpt lat="45.8396114" lon="13.4354416"><ele>10.0</ele><time>2026-04-25T10:32:46.325Z</time></trkpt><trkpt lat="45.8395076" lon="13.4353534"><ele>10.0</ele><time>2026-04-25T10:32:48.346Z</time></trkpt><trkpt lat="45.8394023" lon="13.4352661"><ele>10.0</ele><time>2026-04-25T10:32:50.325Z</time></trkpt><trkpt lat="45.8392963" lon="13.4351808"><ele>10.0</ele><time>2026-04-25T10:32:52.32Z</time></trkpt><trkpt lat="45.8391897" lon="13.4350922"><ele>10.0</ele><time>2026-04-25T10:32:54.328Z</time></trkpt><trkpt lat="45.8390809" lon="13.4350055"><ele>10.0</ele><time>2026-04-25T10:32:56.355Z</time></trkpt><trkpt lat="45.8389721" lon="13.434916"><ele>10.0</ele><time>2026-04-25T10:32:58.334Z</time></trkpt><trkpt lat="45.8388612" lon="13.4348309"><ele>10.0</ele><time>2026-04-25T10:33:00.332Z</time></trkpt><trkpt lat="45.838806" lon="13.434787"><ele>10.0</ele><time>2026-04-25T10:33:01.339Z</time></trkpt><trkpt lat="45.8387506" lon="13.434744"><ele>10.0</ele><time>2026-04-25T10:33:02.318Z</time></trkpt><trkpt lat="45.8386396" lon="13.4346605"><ele>10.0</ele><time>2026-04-25T10:33:04.324Z</time></trkpt><trkpt lat="45.8385271" lon="13.4345866"><ele>9.5</ele><time>2026-04-25T10:33:06.335Z</time></trkpt><trkpt lat="45.8384226" lon="13.4344956"><ele>9.0</ele><time>2026-04-25T10:33:08.336Z</time></trkpt><trkpt lat="45.8383114" lon="13.4344134"><ele>8.5</ele><time>2026-04-25T10:33:10.339Z</time></trkpt><trkpt lat="45.8382559" lon="13.4343705"><ele>8.0</ele><time>2026-04-25T10:33:11.335Z</time></trkpt><trkpt lat="45.8382001" lon="13.4343283"><ele>7.500000000000001</ele><time>2026-04-25T10:33:12.334Z</time></trkpt><trkpt lat="45.8381441" lon="13.4342866"><ele>7.0</ele><time>2026-04-25T10:33:13.329Z</time></trkpt><trkpt lat="45.8380876" lon="13.4342466"><ele>7.0</ele><time>2026-04-25T10:33:14.321Z</time></trkpt><trkpt lat="45.8379748" lon="13.4341695"><ele>6.999999999999999</ele><time>2026-04-25T10:33:16.325Z</time></trkpt><trkpt lat="45.8378623" lon="13.4340923"><ele>6.999999999999999</ele><time>2026-04-25T10:33:18.338Z</time></trkpt><trkpt lat="45.837747" lon="13.4340212"><ele>7.0</ele><time>2026-04-25T10:33:20.332Z</time></trkpt><trkpt lat="45.8376898" lon="13.4339827"><ele>7.0</ele><time>2026-04-25T10:33:21.338Z</time></trkpt><trkpt lat="45.8376323" lon="13.433945"><ele>7.0</ele><time>2026-04-25T10:33:22.337Z</time></trkpt><trkpt lat="45.8375178" lon="13.4338711"><ele>6.999999999999999</ele><time>2026-04-25T10:33:24.326Z</time></trkpt><trkpt lat="45.8374008" lon="13.4338061"><ele>6.999999999999999</ele><time>2026-04-25T10:33:26.332Z</time></trkpt><trkpt lat="45.8372791" lon="13.4337627"><ele>7.0</ele><time>2026-04-25T10:33:28.337Z</time></trkpt><trkpt lat="45.8372181" lon="13.4337397"><ele>7.0</ele><time>2026-04-25T10:33:29.325Z</time></trkpt><trkpt lat="45.8371039" lon="13.4336846"><ele>7.0</ele><time>2026-04-25T10:33:31.317Z</time></trkpt><trkpt lat="45.8370048" lon="13.433619"><ele>6.999999999999999</ele><time>2026-04-25T10:33:33.35Z</time></trkpt><trkpt lat="45.8369618" lon="13.4335164"><ele>6.999999999999999</ele><time>2026-04-25T10:33:35.321Z</time></trkpt><trkpt lat="45.8369468" lon="13.4333901"><ele>7.0</ele><time>2026-04-25T10:33:37.341Z</time></trkpt><trkpt lat="45.8368742" lon="13.4333106"><ele>7.0</ele><time>2026-04-25T10:33:39.31Z</time></trkpt><trkpt lat="45.8367681" lon="13.4333296"><ele>7.25</ele><time>2026-04-25T10:33:41.338Z</time></trkpt><trkpt lat="45.8366465" lon="13.4333294"><ele>7.5</ele><time>2026-04-25T10:33:43.329Z</time></trkpt><trkpt lat="45.8365254" lon="13.4332958"><ele>7.75</ele><time>2026-04-25T10:33:45.32Z</time></trkpt><trkpt lat="45.836407" lon="13.4332602"><ele>8.0</ele><time>2026-04-25T10:33:47.333Z</time></trkpt><trkpt lat="45.8362902" lon="13.4332165"><ele>8.0</ele><time>2026-04-25T10:33:49.337Z</time></trkpt><trkpt lat="45.8361732" lon="13.4331736"><ele>8.0</ele><time>2026-04-25T10:33:51.328Z</time></trkpt><trkpt lat="45.8360581" lon="13.4331291"><ele>8.0</ele><time>2026-04-25T10:33:53.325Z</time></trkpt><trkpt lat="45.8359437" lon="13.4330905"><ele>8.0</ele><time>2026-04-25T10:33:55.331Z</time></trkpt><trkpt lat="45.8358299" lon="13.4330506"><ele>8.25</ele><time>2026-04-25T10:33:57.332Z</time></trkpt><trkpt lat="45.8357144" lon="13.4330094"><ele>8.5</ele><time>2026-04-25T10:33:59.327Z</time></trkpt><trkpt lat="45.8355962" lon="13.4329736"><ele>8.75</ele><time>2026-04-25T10:34:01.334Z</time></trkpt><trkpt lat="45.8354765" lon="13.4329392"><ele>9.0</ele><time>2026-04-25T10:34:03.311Z</time></trkpt><trkpt lat="45.8353559" lon="13.4329076"><ele>9.0</ele><time>2026-04-25T10:34:05.324Z</time></trkpt><trkpt lat="45.8352383" lon="13.4328753"><ele>9.0</ele><time>2026-04-25T10:34:07.333Z</time></trkpt><trkpt lat="45.8351195" lon="13.4328446"><ele>9.0</ele><time>2026-04-25T10:34:09.353Z</time></trkpt><trkpt lat="45.8350026" lon="13.4328047"><ele>9.0</ele><time>2026-04-25T10:34:11.335Z</time></trkpt><trkpt lat="45.8348868" lon="13.4327599"><ele>9.0</ele><time>2026-04-25T10:34:13.348Z</time></trkpt><trkpt lat="45.8347693" lon="13.4327174"><ele>9.0</ele><time>2026-04-25T10:34:15.316Z</time></trkpt><trkpt lat="45.8346519" lon="13.4326708"><ele>9.0</ele><time>2026-04-25T10:34:17.339Z</time></trkpt><trkpt lat="45.8345328" lon="13.4326281"><ele>9.0</ele><time>2026-04-25T10:34:19.333Z</time></trkpt><trkpt lat="45.8344153" lon="13.4325871"><ele>9.0</ele><time>2026-04-25T10:34:21.328Z</time></trkpt><trkpt lat="45.8342975" lon="13.4325459"><ele>9.0</ele><time>2026-04-25T10:34:23.336Z</time></trkpt><trkpt lat="45.83418" lon="13.4325034"><ele>9.0</ele><time>2026-04-25T10:34:25.323Z</time></trkpt><trkpt lat="45.8340633" lon="13.4324591"><ele>9.0</ele><time>2026-04-25T10:34:27.315Z</time></trkpt><trkpt lat="45.8339454" lon="13.4324193"><ele>9.0</ele><time>2026-04-25T10:34:29.329Z</time></trkpt><trkpt lat="45.8338269" lon="13.4323782"><ele>9.0</ele><time>2026-04-25T10:34:31.327Z</time></trkpt><trkpt lat="45.833708" lon="13.4323377"><ele>9.0</ele><time>2026-04-25T10:34:33.336Z</time></trkpt><trkpt lat="45.8335903" lon="13.4322971"><ele>9.0</ele><time>2026-04-25T10:34:35.318Z</time></trkpt><trkpt lat="45.8334724" lon="13.43225"><ele>9.0</ele><time>2026-04-25T10:34:37.348Z</time></trkpt><trkpt lat="45.833355" lon="13.4322021"><ele>9.0</ele><time>2026-04-25T10:34:39.321Z</time></trkpt><trkpt lat="45.8332377" lon="13.4321622"><ele>9.0</ele><time>2026-04-25T10:34:41.318Z</time></trkpt><trkpt lat="45.8331198" lon="13.4321322"><ele>9.0</ele><time>2026-04-25T10:34:43.318Z</time></trkpt><trkpt lat="45.8330036" lon="13.4320848"><ele>9.2</ele><time>2026-04-25T10:34:45.328Z</time></trkpt><trkpt lat="45.8329419" lon="13.432061"><ele>9.4</ele><time>2026-04-25T10:34:46.329Z</time></trkpt><trkpt lat="45.832878" lon="13.432043"><ele>9.6</ele><time>2026-04-25T10:34:47.325Z</time></trkpt><trkpt lat="45.8327572" lon="13.4320091"><ele>9.8</ele><time>2026-04-25T10:34:49.331Z</time></trkpt><trkpt lat="45.8326357" lon="13.4319887"><ele>10.0</ele><time>2026-04-25T10:34:51.327Z</time></trkpt><trkpt lat="45.8325177" lon="13.431952"><ele>10.0</ele><time>2026-04-25T10:34:53.344Z</time></trkpt><trkpt lat="45.8323993" lon="13.4318974"><ele>10.0</ele><time>2026-04-25T10:34:55.322Z</time></trkpt><trkpt lat="45.8323402" lon="13.4318651"><ele>10.0</ele><time>2026-04-25T10:34:56.318Z</time></trkpt><trkpt lat="45.832227" lon="13.431792"><ele>10.0</ele><time>2026-04-25T10:34:58.324Z</time></trkpt><trkpt lat="45.8321159" lon="13.4317369"><ele>10.0</ele><time>2026-04-25T10:35:00.325Z</time></trkpt><trkpt lat="45.8320057" lon="13.4316782"><ele>10.0</ele><time>2026-04-25T10:35:02.326Z</time></trkpt><trkpt lat="45.8318825" lon="13.43164"><ele>10.0</ele><time>2026-04-25T10:35:04.325Z</time></trkpt><trkpt lat="45.8317714" lon="13.4315938"><ele>10.0</ele><time>2026-04-25T10:35:06.316Z</time></trkpt><trkpt lat="45.8316641" lon="13.4315231"><ele>10.0</ele><time>2026-04-25T10:35:08.326Z</time></trkpt><trkpt lat="45.8315641" lon="13.4314417"><ele>10.2</ele><time>2026-04-25T10:35:10.337Z</time></trkpt><trkpt lat="45.8315114" lon="13.4313911"><ele>10.4</ele><time>2026-04-25T10:35:11.319Z</time></trkpt><trkpt lat="45.8313999" lon="13.4312922"><ele>10.600000000000001</ele><time>2026-04-25T10:35:13.337Z</time></trkpt><trkpt lat="45.8313383" lon="13.4312539"><ele>10.8</ele><time>2026-04-25T10:35:14.321Z</time></trkpt><trkpt lat="45.8312256" lon="13.4311848"><ele>11.0</ele><time>2026-04-25T10:35:16.315Z</time></trkpt><trkpt lat="45.8311633" lon="13.4311497"><ele>10.4</ele><time>2026-04-25T10:35:17.314Z</time></trkpt><trkpt lat="45.8311043" lon="13.4311172"><ele>9.8</ele><time>2026-04-25T10:35:18.318Z</time></trkpt><trkpt lat="45.8310415" lon="13.4310829"><ele>9.200000000000001</ele><time>2026-04-25T10:35:19.328Z</time></trkpt><trkpt lat="45.8309275" lon="13.4310255"><ele>8.600000000000001</ele><time>2026-04-25T10:35:21.322Z</time></trkpt><trkpt lat="45.8308129" lon="13.430971"><ele>8.0</ele><time>2026-04-25T10:35:23.32Z</time></trkpt><trkpt lat="45.8307003" lon="13.430926"><ele>8.0</ele><time>2026-04-25T10:35:25.334Z</time></trkpt><trkpt lat="45.8305783" lon="13.4308806"><ele>8.0</ele><time>2026-04-25T10:35:27.33Z</time></trkpt><trkpt lat="45.8304651" lon="13.430833"><ele>8.0</ele><time>2026-04-25T10:35:29.324Z</time></trkpt><trkpt lat="45.8303581" lon="13.4307865"><ele>8.0</ele><time>2026-04-25T10:35:31.318Z</time></trkpt><trkpt lat="45.8302485" lon="13.4307421"><ele>8.0</ele><time>2026-04-25T10:35:33.328Z</time></trkpt><trkpt lat="45.8301201" lon="13.430695"><ele>8.0</ele><time>2026-04-25T10:35:35.325Z</time></trkpt><trkpt lat="45.8300566" lon="13.4306705"><ele>8.0</ele><time>2026-04-25T10:35:36.324Z</time></trkpt><trkpt lat="45.8299359" lon="13.4306354"><ele>8.0</ele><time>2026-04-25T10:35:38.332Z</time></trkpt><trkpt lat="45.8298174" lon="13.4306061"><ele>8.0</ele><time>2026-04-25T10:35:40.322Z</time></trkpt><trkpt lat="45.8297549" lon="13.4305914"><ele>8.0</ele><time>2026-04-25T10:35:41.312Z</time></trkpt><trkpt lat="45.8296376" lon="13.4305617"><ele>8.0</ele><time>2026-04-25T10:35:43.322Z</time></trkpt><trkpt lat="45.8295171" lon="13.4305208"><ele>8.0</ele><time>2026-04-25T10:35:45.326Z</time></trkpt><trkpt lat="45.8293963" lon="13.430488"><ele>8.0</ele><time>2026-04-25T10:35:47.309Z</time></trkpt><trkpt lat="45.8292811" lon="13.430456"><ele>7.0</ele><time>2026-04-25T10:35:49.323Z</time></trkpt><trkpt lat="45.8291677" lon="13.4304214"><ele>6.0</ele><time>2026-04-25T10:35:51.312Z</time></trkpt><trkpt lat="45.8290494" lon="13.4303928"><ele>5.0</ele><time>2026-04-25T10:35:53.346Z</time></trkpt><trkpt lat="45.8289282" lon="13.4303959"><ele>4.0</ele><time>2026-04-25T10:35:55.312Z</time></trkpt><trkpt lat="45.8288133" lon="13.4304161"><ele>3.9999999999999996</ele><time>2026-04-25T10:35:57.319Z</time></trkpt><trkpt lat="45.8287161" lon="13.4304448"><ele>4.0</ele><time>2026-04-25T10:35:59.333Z</time></trkpt><trkpt lat="45.82863" lon="13.4304728"><ele>4.0</ele><time>2026-04-25T10:36:01.336Z</time></trkpt><trkpt lat="45.8285409" lon="13.4305005"><ele>4.0</ele><time>2026-04-25T10:36:03.319Z</time></trkpt><trkpt lat="45.8284779" lon="13.4305353"><ele>3.9999999999999996</ele><time>2026-04-25T10:36:05.315Z</time></trkpt><trkpt lat="45.8284175" lon="13.4306273"><ele>4.0</ele><time>2026-04-25T10:36:08.313Z</time></trkpt><trkpt lat="45.828339" lon="13.4307004"><ele>4.6</ele><time>2026-04-25T10:36:10.333Z</time></trkpt><trkpt lat="45.8282403" lon="13.4307022"><ele>5.2</ele><time>2026-04-25T10:36:12.335Z</time></trkpt><trkpt lat="45.8281407" lon="13.4306957"><ele>5.799999999999999</ele><time>2026-04-25T10:36:14.333Z</time></trkpt><trkpt lat="45.8280369" lon="13.4306902"><ele>6.3999999999999995</ele><time>2026-04-25T10:36:16.327Z</time></trkpt><trkpt lat="45.827934" lon="13.4306831"><ele>7.0</ele><time>2026-04-25T10:36:18.367Z</time></trkpt><trkpt lat="45.8278309" lon="13.4306658"><ele>7.0</ele><time>2026-04-25T10:36:20.325Z</time></trkpt><trkpt lat="45.827731" lon="13.4306261"><ele>6.999999999999999</ele><time>2026-04-25T10:36:22.32Z</time></trkpt><trkpt lat="45.8276375" lon="13.4305711"><ele>6.999999999999999</ele><time>2026-04-25T10:36:24.335Z</time></trkpt><trkpt lat="45.8275396" lon="13.4305542"><ele>7.0</ele><time>2026-04-25T10:36:26.323Z</time></trkpt><trkpt lat="45.8274405" lon="13.4305859"><ele>7.0</ele><time>2026-04-25T10:36:28.329Z</time></trkpt><trkpt lat="45.8273361" lon="13.4306326"><ele>7.5</ele><time>2026-04-25T10:36:30.329Z</time></trkpt><trkpt lat="45.8272242" lon="13.4306544"><ele>8.0</ele><time>2026-04-25T10:36:32.322Z</time></trkpt><trkpt lat="45.827112" lon="13.4306692"><ele>8.5</ele><time>2026-04-25T10:36:34.34Z</time></trkpt><trkpt lat="45.8270006" lon="13.4306809"><ele>9.0</ele><time>2026-04-25T10:36:36.338Z</time></trkpt><trkpt lat="45.8268836" lon="13.4306944"><ele>9.5</ele><time>2026-04-25T10:36:38.309Z</time></trkpt><trkpt lat="45.8267674" lon="13.4307062"><ele>10.0</ele><time>2026-04-25T10:36:40.337Z</time></trkpt><trkpt lat="45.826649" lon="13.4307174"><ele>10.5</ele><time>2026-04-25T10:36:42.322Z</time></trkpt><trkpt lat="45.82653" lon="13.4307287"><ele>11.0</ele><time>2026-04-25T10:36:44.339Z</time></trkpt><trkpt lat="45.8264128" lon="13.4307412"><ele>11.0</ele><time>2026-04-25T10:36:46.327Z</time></trkpt><trkpt lat="45.8262952" lon="13.430756"><ele>11.0</ele><time>2026-04-25T10:36:48.335Z</time></trkpt><trkpt lat="45.8261763" lon="13.4307667"><ele>11.0</ele><time>2026-04-25T10:36:50.331Z</time></trkpt><trkpt lat="45.8260555" lon="13.4307789"><ele>11.0</ele><time>2026-04-25T10:36:52.322Z</time></trkpt><trkpt lat="45.8259354" lon="13.4307941"><ele>10.0</ele><time>2026-04-25T10:36:54.337Z</time></trkpt><trkpt lat="45.8258152" lon="13.4308048"><ele>9.0</ele><time>2026-04-25T10:36:56.332Z</time></trkpt><trkpt lat="45.8256939" lon="13.4308163"><ele>8.0</ele><time>2026-04-25T10:36:58.327Z</time></trkpt><trkpt lat="45.8255739" lon="13.4308288"><ele>7.0</ele><time>2026-04-25T10:37:00.335Z</time></trkpt><trkpt lat="45.8254528" lon="13.430842"><ele>7.0</ele><time>2026-04-25T10:37:02.319Z</time></trkpt><trkpt lat="45.8253331" lon="13.4308561"><ele>7.0</ele><time>2026-04-25T10:37:04.325Z</time></trkpt><trkpt lat="45.8252143" lon="13.4308744"><ele>7.0</ele><time>2026-04-25T10:37:06.327Z</time></trkpt><trkpt lat="45.8250953" lon="13.4308849"><ele>7.0</ele><time>2026-04-25T10:37:08.336Z</time></trkpt><trkpt lat="45.8249753" lon="13.4308976"><ele>7.0</ele><time>2026-04-25T10:37:10.332Z</time></trkpt><trkpt lat="45.8248542" lon="13.4309134"><ele>7.0</ele><time>2026-04-25T10:37:12.321Z</time></trkpt><trkpt lat="45.8247327" lon="13.4309278"><ele>7.0</ele><time>2026-04-25T10:37:14.328Z</time></trkpt><trkpt lat="45.8246138" lon="13.4309439"><ele>7.0</ele><time>2026-04-25T10:37:16.328Z</time></trkpt><trkpt lat="45.8244955" lon="13.4309566"><ele>7.0</ele><time>2026-04-25T10:37:18.336Z</time></trkpt><trkpt lat="45.8243775" lon="13.4309672"><ele>7.0</ele><time>2026-04-25T10:37:20.337Z</time></trkpt><trkpt lat="45.8242595" lon="13.4309689"><ele>7.0</ele><time>2026-04-25T10:37:22.327Z</time></trkpt><trkpt lat="45.8241441" lon="13.4309696"><ele>7.0</ele><time>2026-04-25T10:37:24.315Z</time></trkpt><trkpt lat="45.8240313" lon="13.4309627"><ele>7.25</ele><time>2026-04-25T10:37:26.325Z</time></trkpt><trkpt lat="45.823922" lon="13.4309518"><ele>7.5</ele><time>2026-04-25T10:37:28.333Z</time></trkpt><trkpt lat="45.8238108" lon="13.4309383"><ele>7.75</ele><time>2026-04-25T10:37:30.329Z</time></trkpt><trkpt lat="45.8236984" lon="13.4309181"><ele>8.0</ele><time>2026-04-25T10:37:32.321Z</time></trkpt><trkpt lat="45.8235835" lon="13.4308943"><ele>8.25</ele><time>2026-04-25T10:37:34.327Z</time></trkpt><trkpt lat="45.8234666" lon="13.4308762"><ele>8.5</ele><time>2026-04-25T10:37:36.327Z</time></trkpt><trkpt lat="45.82335" lon="13.4308875"><ele>8.75</ele><time>2026-04-25T10:37:38.321Z</time></trkpt><trkpt lat="45.8232336" lon="13.4309254"><ele>9.0</ele><time>2026-04-25T10:37:40.321Z</time></trkpt><trkpt lat="45.823116" lon="13.4309643"><ele>9.0</ele><time>2026-04-25T10:37:42.336Z</time></trkpt><trkpt lat="45.822999" lon="13.4310033"><ele>9.0</ele><time>2026-04-25T10:37:44.32Z</time></trkpt><trkpt lat="45.822887" lon="13.4310313"><ele>9.0</ele><time>2026-04-25T10:37:46.335Z</time></trkpt><trkpt lat="45.8227767" lon="13.4310551"><ele>9.0</ele><time>2026-04-25T10:37:48.321Z</time></trkpt><trkpt lat="45.8226634" lon="13.4310718"><ele>8.6</ele><time>2026-04-25T10:37:50.321Z</time></trkpt><trkpt lat="45.8225475" lon="13.431081"><ele>8.2</ele><time>2026-04-25T10:37:52.335Z</time></trkpt><trkpt lat="45.8224332" lon="13.4310782"><ele>7.799999999999999</ele><time>2026-04-25T10:37:54.324Z</time></trkpt><trkpt lat="45.8223283" lon="13.4310614"><ele>7.3999999999999995</ele><time>2026-04-25T10:37:56.322Z</time></trkpt><trkpt lat="45.8222322" lon="13.4310894"><ele>7.0</ele><time>2026-04-25T10:37:58.322Z</time></trkpt><trkpt lat="45.822113" lon="13.4311125"><ele>7.0</ele><time>2026-04-25T10:38:00.338Z</time></trkpt><trkpt lat="45.821999" lon="13.4311687"><ele>6.999999999999999</ele><time>2026-04-25T10:38:02.328Z</time></trkpt><trkpt lat="45.8219361" lon="13.431196"><ele>6.999999999999999</ele><time>2026-04-25T10:38:03.32Z</time></trkpt><trkpt lat="45.8218189" lon="13.4311614"><ele>7.0</ele><time>2026-04-25T10:38:05.329Z</time></trkpt><trkpt lat="45.8217117" lon="13.4311056"><ele>7.0</ele><time>2026-04-25T10:38:07.316Z</time></trkpt><trkpt lat="45.8216071" lon="13.4310996"><ele>7.5</ele><time>2026-04-25T10:38:09.341Z</time></trkpt><trkpt lat="45.8214931" lon="13.43112"><ele>8.0</ele><time>2026-04-25T10:38:11.325Z</time></trkpt><trkpt lat="45.8213786" lon="13.4311344"><ele>8.5</ele><time>2026-04-25T10:38:13.318Z</time></trkpt><trkpt lat="45.8212547" lon="13.431153"><ele>9.0</ele><time>2026-04-25T10:38:15.338Z</time></trkpt><trkpt lat="45.8211422" lon="13.4311775"><ele>9.0</ele><time>2026-04-25T10:38:17.328Z</time></trkpt><trkpt lat="45.821032" lon="13.4312125"><ele>9.0</ele><time>2026-04-25T10:38:19.326Z</time></trkpt><trkpt lat="45.8209168" lon="13.4312463"><ele>9.0</ele><time>2026-04-25T10:38:21.336Z</time></trkpt><trkpt lat="45.8207912" lon="13.4312695"><ele>9.0</ele><time>2026-04-25T10:38:23.329Z</time></trkpt><trkpt lat="45.8206709" lon="13.4312905"><ele>9.25</ele><time>2026-04-25T10:38:25.344Z</time></trkpt><trkpt lat="45.8205481" lon="13.4313067"><ele>9.5</ele><time>2026-04-25T10:38:27.315Z</time></trkpt><trkpt lat="45.8204319" lon="13.4313204"><ele>9.75</ele><time>2026-04-25T10:38:29.324Z</time></trkpt><trkpt lat="45.8203138" lon="13.4313359"><ele>10.0</ele><time>2026-04-25T10:38:31.323Z</time></trkpt><trkpt lat="45.8201998" lon="13.4313466"><ele>10.25</ele><time>2026-04-25T10:38:33.323Z</time></trkpt><trkpt lat="45.8200765" lon="13.4313664"><ele>10.5</ele><time>2026-04-25T10:38:35.319Z</time></trkpt><trkpt lat="45.8199623" lon="13.4313897"><ele>10.75</ele><time>2026-04-25T10:38:37.326Z</time></trkpt><trkpt lat="45.8198439" lon="13.4314031"><ele>11.0</ele><time>2026-04-25T10:38:39.325Z</time></trkpt><trkpt lat="45.8197246" lon="13.4314112"><ele>11.0</ele><time>2026-04-25T10:38:41.335Z</time></trkpt><trkpt lat="45.8196072" lon="13.431419"><ele>11.0</ele><time>2026-04-25T10:38:43.326Z</time></trkpt><trkpt lat="45.8194838" lon="13.4314186"><ele>11.0</ele><time>2026-04-25T10:38:45.317Z</time></trkpt><trkpt lat="45.8193657" lon="13.4314065"><ele>11.0</ele><time>2026-04-25T10:38:47.332Z</time></trkpt><trkpt lat="45.8192386" lon="13.4313902"><ele>10.166666666666666</ele><time>2026-04-25T10:38:49.323Z</time></trkpt><trkpt lat="45.8191138" lon="13.431375"><ele>9.333333333333332</ele><time>2026-04-25T10:38:51.326Z</time></trkpt><trkpt lat="45.8189989" lon="13.4313616"><ele>8.5</ele><time>2026-04-25T10:38:53.322Z</time></trkpt><trkpt lat="45.8189334" lon="13.4313545"><ele>7.666666666666666</ele><time>2026-04-25T10:38:54.339Z</time></trkpt><trkpt lat="45.8188706" lon="13.4313474"><ele>6.833333333333333</ele><time>2026-04-25T10:38:55.326Z</time></trkpt><trkpt lat="45.818807" lon="13.4313414"><ele>6.0</ele><time>2026-04-25T10:38:56.329Z</time></trkpt><trkpt lat="45.8186893" lon="13.4313342"><ele>6.0</ele><time>2026-04-25T10:38:58.327Z</time></trkpt><trkpt lat="45.8186204" lon="13.4313324"><ele>6.0</ele><time>2026-04-25T10:38:59.33Z</time></trkpt><trkpt lat="45.8185008" lon="13.431332"><ele>6.0</ele><time>2026-04-25T10:39:01.319Z</time></trkpt><trkpt lat="45.8183815" lon="13.4313335"><ele>6.0</ele><time>2026-04-25T10:39:03.347Z</time></trkpt><trkpt lat="45.8182532" lon="13.4313364"><ele>6.0</ele><time>2026-04-25T10:39:05.334Z</time></trkpt><trkpt lat="45.8181341" lon="13.4313398"><ele>6.0</ele><time>2026-04-25T10:39:07.336Z</time></trkpt><trkpt lat="45.8180693" lon="13.4313483"><ele>6.0</ele><time>2026-04-25T10:39:08.33Z</time></trkpt><trkpt lat="45.8179518" lon="13.4313686"><ele>6.0</ele><time>2026-04-25T10:39:10.333Z</time></trkpt><trkpt lat="45.8178313" lon="13.4313994"><ele>6.0</ele><time>2026-04-25T10:39:12.333Z</time></trkpt><trkpt lat="45.8177105" lon="13.4314277"><ele>6.0</ele><time>2026-04-25T10:39:14.323Z</time></trkpt><trkpt lat="45.817602" lon="13.431457"><ele>6.75</ele><time>2026-04-25T10:39:16.322Z</time></trkpt><trkpt lat="45.8174811" lon="13.4314812"><ele>7.5</ele><time>2026-04-25T10:39:18.331Z</time></trkpt><trkpt lat="45.817358" lon="13.4314968"><ele>8.25</ele><time>2026-04-25T10:39:20.321Z</time></trkpt><trkpt lat="45.8172373" lon="13.4315068"><ele>9.0</ele><time>2026-04-25T10:39:22.313Z</time></trkpt><trkpt lat="45.8171147" lon="13.4315098"><ele>9.0</ele><time>2026-04-25T10:39:24.313Z</time></trkpt><trkpt lat="45.8170035" lon="13.4314997"><ele>9.0</ele><time>2026-04-25T10:39:26.328Z</time></trkpt><trkpt lat="45.8168893" lon="13.4314958"><ele>9.0</ele><time>2026-04-25T10:39:28.323Z</time></trkpt><trkpt lat="45.8167683" lon="13.431491"><ele>9.0</ele><time>2026-04-25T10:39:30.325Z</time></trkpt><trkpt lat="45.8166534" lon="13.4314874"><ele>9.0</ele><time>2026-04-25T10:39:32.333Z</time></trkpt><trkpt lat="45.816545" lon="13.4314667"><ele>9.0</ele><time>2026-04-25T10:39:34.316Z</time></trkpt><trkpt lat="45.8164331" lon="13.4314534"><ele>9.0</ele><time>2026-04-25T10:39:36.325Z</time></trkpt><trkpt lat="45.81637" lon="13.4314539"><ele>9.0</ele><time>2026-04-25T10:39:37.323Z</time></trkpt><trkpt lat="45.816305" lon="13.431458"><ele>9.0</ele><time>2026-04-25T10:39:38.312Z</time></trkpt><trkpt lat="45.8162336" lon="13.4314559"><ele>9.0</ele><time>2026-04-25T10:39:39.314Z</time></trkpt><trkpt lat="45.8161651" lon="13.4314586"><ele>9.0</ele><time>2026-04-25T10:39:40.316Z</time></trkpt><trkpt lat="45.8160957" lon="13.4314587"><ele>9.0</ele><time>2026-04-25T10:39:41.328Z</time></trkpt><trkpt lat="45.8160298" lon="13.4314647"><ele>9.0</ele><time>2026-04-25T10:39:42.318Z</time></trkpt><trkpt lat="45.8159661" lon="13.4314755"><ele>9.0</ele><time>2026-04-25T10:39:43.335Z</time></trkpt><trkpt lat="45.8159023" lon="13.4314856"><ele>9.0</ele><time>2026-04-25T10:39:44.325Z</time></trkpt><trkpt lat="45.8157788" lon="13.4315101"><ele>9.0</ele><time>2026-04-25T10:39:46.324Z</time></trkpt><trkpt lat="45.8157151" lon="13.4315237"><ele>9.0</ele><time>2026-04-25T10:39:47.325Z</time></trkpt><trkpt lat="45.8156527" lon="13.431539"><ele>9.0</ele><time>2026-04-25T10:39:48.311Z</time></trkpt><trkpt lat="45.8155291" lon="13.4315723"><ele>9.0</ele><time>2026-04-25T10:39:50.326Z</time></trkpt><trkpt lat="45.8154668" lon="13.43159"><ele>9.0</ele><time>2026-04-25T10:39:51.33Z</time></trkpt><trkpt lat="45.8153475" lon="13.4316249"><ele>9.0</ele><time>2026-04-25T10:39:53.327Z</time></trkpt><trkpt lat="45.8152272" lon="13.4316634"><ele>9.0</ele><time>2026-04-25T10:39:55.323Z</time></trkpt><trkpt lat="45.8151649" lon="13.4316836"><ele>9.0</ele><time>2026-04-25T10:39:56.342Z</time></trkpt><trkpt lat="45.8150464" lon="13.4317177"><ele>9.0</ele><time>2026-04-25T10:39:58.335Z</time></trkpt><trkpt lat="45.8149268" lon="13.4317518"><ele>9.0</ele><time>2026-04-25T10:40:00.336Z</time></trkpt><trkpt lat="45.8148057" lon="13.4317706"><ele>9.0</ele><time>2026-04-25T10:40:02.332Z</time></trkpt><trkpt lat="45.8146851" lon="13.4317835"><ele>9.0</ele><time>2026-04-25T10:40:04.317Z</time></trkpt><trkpt lat="45.8145619" lon="13.4317836"><ele>9.0</ele><time>2026-04-25T10:40:06.336Z</time></trkpt><trkpt lat="45.8144399" lon="13.4317564"><ele>9.0</ele><time>2026-04-25T10:40:08.334Z</time></trkpt><trkpt lat="45.8143234" lon="13.4316954"><ele>9.0</ele><time>2026-04-25T10:40:10.342Z</time></trkpt><trkpt lat="45.8142086" lon="13.4316333"><ele>9.000000000000002</ele><time>2026-04-25T10:40:12.325Z</time></trkpt><trkpt lat="45.8141479" lon="13.4316091"><ele>9.0</ele><time>2026-04-25T10:40:13.338Z</time></trkpt><trkpt lat="45.8140854" lon="13.4315941"><ele>9.0</ele><time>2026-04-25T10:40:14.324Z</time></trkpt><trkpt lat="45.814022" lon="13.431588"><ele>9.0</ele><time>2026-04-25T10:40:15.331Z</time></trkpt><trkpt lat="45.8139591" lon="13.4315938"><ele>9.0</ele><time>2026-04-25T10:40:16.318Z</time></trkpt><trkpt lat="45.813897" lon="13.4316093"><ele>9.000000000000002</ele><time>2026-04-25T10:40:17.287Z</time></trkpt><trkpt lat="45.8138347" lon="13.4316248"><ele>9.0</ele><time>2026-04-25T10:40:18.305Z</time></trkpt><trkpt lat="45.8137108" lon="13.4316463"><ele>9.0</ele><time>2026-04-25T10:40:20.317Z</time></trkpt><trkpt lat="45.8135939" lon="13.4316684"><ele>9.0</ele><time>2026-04-25T10:40:22.307Z</time></trkpt><trkpt lat="45.8134738" lon="13.4316937"><ele>9.0</ele><time>2026-04-25T10:40:24.332Z</time></trkpt><trkpt lat="45.8133546" lon="13.4317125"><ele>9.0</ele><time>2026-04-25T10:40:26.347Z</time></trkpt><trkpt lat="45.8132337" lon="13.4317206"><ele>8.8</ele><time>2026-04-25T10:40:28.336Z</time></trkpt><trkpt lat="45.8131094" lon="13.4317211"><ele>8.600000000000001</ele><time>2026-04-25T10:40:30.317Z</time></trkpt><trkpt lat="45.8130455" lon="13.431724"><ele>8.4</ele><time>2026-04-25T10:40:31.309Z</time></trkpt><trkpt lat="45.8129216" lon="13.4317275"><ele>8.200000000000001</ele><time>2026-04-25T10:40:33.334Z</time></trkpt><trkpt lat="45.8127979" lon="13.4317238"><ele>8.0</ele><time>2026-04-25T10:40:35.323Z</time></trkpt><trkpt lat="45.8126773" lon="13.4317295"><ele>8.75</ele><time>2026-04-25T10:40:37.325Z</time></trkpt><trkpt lat="45.8125595" lon="13.4317264"><ele>9.5</ele><time>2026-04-25T10:40:39.338Z</time></trkpt><trkpt lat="45.8124347" lon="13.4317024"><ele>10.25</ele><time>2026-04-25T10:40:41.343Z</time></trkpt><trkpt lat="45.8123107" lon="13.4316789"><ele>11.0</ele><time>2026-04-25T10:40:43.327Z</time></trkpt><trkpt lat="45.8121896" lon="13.4316479"><ele>11.0</ele><time>2026-04-25T10:40:45.327Z</time></trkpt><trkpt lat="45.8120726" lon="13.431604"><ele>11.0</ele><time>2026-04-25T10:40:47.332Z</time></trkpt><trkpt lat="45.8119566" lon="13.4315573"><ele>11.0</ele><time>2026-04-25T10:40:49.332Z</time></trkpt><trkpt lat="45.8118379" lon="13.4315005"><ele>11.0</ele><time>2026-04-25T10:40:51.323Z</time></trkpt><trkpt lat="45.8117775" lon="13.4314721"><ele>11.0</ele><time>2026-04-25T10:40:52.331Z</time></trkpt><trkpt lat="45.8116618" lon="13.4314194"><ele>10.600000000000001</ele><time>2026-04-25T10:40:54.334Z</time></trkpt><trkpt lat="45.8115433" lon="13.4313928"><ele>10.200000000000001</ele><time>2026-04-25T10:40:56.324Z</time></trkpt><trkpt lat="45.8114227" lon="13.4313966"><ele>9.8</ele><time>2026-04-25T10:40:58.328Z</time></trkpt><trkpt lat="45.8113584" lon="13.4314152"><ele>9.4</ele><time>2026-04-25T10:40:59.328Z</time></trkpt><trkpt lat="45.8112945" lon="13.4314371"><ele>9.0</ele><time>2026-04-25T10:41:00.329Z</time></trkpt><trkpt lat="45.8111718" lon="13.4314714"><ele>9.0</ele><time>2026-04-25T10:41:02.327Z</time></trkpt><trkpt lat="45.8110534" lon="13.4315091"><ele>9.0</ele><time>2026-04-25T10:41:04.318Z</time></trkpt><trkpt lat="45.8109888" lon="13.4315273"><ele>9.0</ele><time>2026-04-25T10:41:05.324Z</time></trkpt><trkpt lat="45.810927" lon="13.431546"><ele>9.0</ele><time>2026-04-25T10:41:06.323Z</time></trkpt><trkpt lat="45.8108125" lon="13.4315838"><ele>9.0</ele><time>2026-04-25T10:41:08.325Z</time></trkpt><trkpt lat="45.810695" lon="13.4316307"><ele>8.5</ele><time>2026-04-25T10:41:10.317Z</time></trkpt><trkpt lat="45.8105781" lon="13.4316763"><ele>8.0</ele><time>2026-04-25T10:41:12.345Z</time></trkpt><trkpt lat="45.8104595" lon="13.4317252"><ele>7.5</ele><time>2026-04-25T10:41:14.334Z</time></trkpt><trkpt lat="45.8103425" lon="13.4317691"><ele>7.0</ele><time>2026-04-25T10:41:16.33Z</time></trkpt><trkpt lat="45.810218" lon="13.4318138"><ele>7.000000000000001</ele><time>2026-04-25T10:41:18.327Z</time></trkpt><trkpt lat="45.810155" lon="13.4318315"><ele>7.0</ele><time>2026-04-25T10:41:19.323Z</time></trkpt><trkpt lat="45.8100914" lon="13.431852"><ele>7.0</ele><time>2026-04-25T10:41:20.314Z</time></trkpt><trkpt lat="45.8099751" lon="13.4319106"><ele>7.0</ele><time>2026-04-25T10:41:22.33Z</time></trkpt><trkpt lat="45.8099154" lon="13.4319433"><ele>7.000000000000001</ele><time>2026-04-25T10:41:23.358Z</time></trkpt><trkpt lat="45.8098134" lon="13.4319846"><ele>7.0</ele><time>2026-04-25T10:41:25.311Z</time></trkpt><trkpt lat="45.809693" lon="13.4320253"><ele>7.0</ele><time>2026-04-25T10:41:27.334Z</time></trkpt><trkpt lat="45.8095746" lon="13.4320724"><ele>7.0</ele><time>2026-04-25T10:41:29.333Z</time></trkpt><trkpt lat="45.8094593" lon="13.4321178"><ele>7.0</ele><time>2026-04-25T10:41:31.329Z</time></trkpt><trkpt lat="45.8093474" lon="13.4321762"><ele>7.0</ele><time>2026-04-25T10:41:33.334Z</time></trkpt><trkpt lat="45.8092407" lon="13.4322177"><ele>7.199999999999999</ele><time>2026-04-25T10:41:35.321Z</time></trkpt><trkpt lat="45.8091369" lon="13.432263"><ele>7.3999999999999995</ele><time>2026-04-25T10:41:37.326Z</time></trkpt><trkpt lat="45.809038" lon="13.4323034"><ele>7.6000000000000005</ele><time>2026-04-25T10:41:39.325Z</time></trkpt><trkpt lat="45.8089554" lon="13.4323574"><ele>7.800000000000001</ele><time>2026-04-25T10:41:41.325Z</time></trkpt><trkpt lat="45.8089134" lon="13.4324551"><ele>8.0</ele><time>2026-04-25T10:41:43.33Z</time></trkpt><trkpt lat="45.8089223" lon="13.4325629"><ele>8.0</ele><time>2026-04-25T10:41:45.324Z</time></trkpt><trkpt lat="45.8089314" lon="13.4326919"><ele>8.0</ele><time>2026-04-25T10:41:47.34Z</time></trkpt><trkpt lat="45.808902" lon="13.4328395"><ele>8.0</ele><time>2026-04-25T10:41:49.323Z</time></trkpt><trkpt lat="45.8088426" lon="13.432962"><ele>8.0</ele><time>2026-04-25T10:41:51.311Z</time></trkpt><trkpt lat="45.8087643" lon="13.4330544"><ele>8.0</ele><time>2026-04-25T10:41:53.342Z</time></trkpt><trkpt lat="45.8086864" lon="13.4331414"><ele>7.800000000000001</ele><time>2026-04-25T10:41:55.342Z</time></trkpt><trkpt lat="45.8086012" lon="13.4332175"><ele>7.6000000000000005</ele><time>2026-04-25T10:41:57.329Z</time></trkpt><trkpt lat="45.8085088" lon="13.4332922"><ele>7.3999999999999995</ele><time>2026-04-25T10:41:59.319Z</time></trkpt><trkpt lat="45.8084089" lon="13.4333728"><ele>7.199999999999999</ele><time>2026-04-25T10:42:01.323Z</time></trkpt><trkpt lat="45.8083039" lon="13.4334516"><ele>7.0</ele><time>2026-04-25T10:42:03.33Z</time></trkpt><trkpt lat="45.8081991" lon="13.4335361"><ele>6.75</ele><time>2026-04-25T10:42:05.323Z</time></trkpt><trkpt lat="45.8080932" lon="13.4336208"><ele>6.5</ele><time>2026-04-25T10:42:07.325Z</time></trkpt><trkpt lat="45.8079863" lon="13.4337052"><ele>6.25</ele><time>2026-04-25T10:42:09.339Z</time></trkpt><trkpt lat="45.8078798" lon="13.4337924"><ele>6.0</ele><time>2026-04-25T10:42:11.306Z</time></trkpt><trkpt lat="45.8077747" lon="13.4338817"><ele>6.0</ele><time>2026-04-25T10:42:13.342Z</time></trkpt><trkpt lat="45.8076686" lon="13.4339667"><ele>6.0</ele><time>2026-04-25T10:42:15.323Z</time></trkpt><trkpt lat="45.8075639" lon="13.4340515"><ele>6.0</ele><time>2026-04-25T10:42:17.328Z</time></trkpt><trkpt lat="45.8074609" lon="13.4341394"><ele>6.0</ele><time>2026-04-25T10:42:19.325Z</time></trkpt><trkpt lat="45.8073639" lon="13.4342296"><ele>6.166666666666667</ele><time>2026-04-25T10:42:21.327Z</time></trkpt><trkpt lat="45.8072767" lon="13.4343149"><ele>6.333333333333334</ele><time>2026-04-25T10:42:23.338Z</time></trkpt><trkpt lat="45.8072032" lon="13.4344007"><ele>6.5</ele><time>2026-04-25T10:42:25.341Z</time></trkpt><trkpt lat="45.8071417" lon="13.434471"><ele>6.666666666666667</ele><time>2026-04-25T10:42:27.321Z</time></trkpt><trkpt lat="45.8070639" lon="13.4344763"><ele>6.833333333333334</ele><time>2026-04-25T10:42:30.333Z</time></trkpt><trkpt lat="45.8070328" lon="13.4343723"><ele>7.0</ele><time>2026-04-25T10:42:32.337Z</time></trkpt><trkpt lat="45.8069989" lon="13.4342365"><ele>7.0</ele><time>2026-04-25T10:42:34.338Z</time></trkpt><trkpt lat="45.8069565" lon="13.4340824"><ele>7.0</ele><time>2026-04-25T10:42:36.326Z</time></trkpt><trkpt lat="45.8069093" lon="13.4339177"><ele>7.0</ele><time>2026-04-25T10:42:38.34Z</time></trkpt><trkpt lat="45.8068633" lon="13.4337503"><ele>7.0</ele><time>2026-04-25T10:42:40.339Z</time></trkpt><trkpt lat="45.8068138" lon="13.4335857"><ele>7.75</ele><time>2026-04-25T10:42:42.319Z</time></trkpt><trkpt lat="45.8067661" lon="13.4334253"><ele>8.5</ele><time>2026-04-25T10:42:44.336Z</time></trkpt><trkpt lat="45.8067202" lon="13.4332655"><ele>9.25</ele><time>2026-04-25T10:42:46.327Z</time></trkpt><trkpt lat="45.8066749" lon="13.433105"><ele>10.0</ele><time>2026-04-25T10:42:48.327Z</time></trkpt><trkpt lat="45.8066288" lon="13.432938"><ele>10.0</ele><time>2026-04-25T10:42:50.316Z</time></trkpt><trkpt lat="45.806605" lon="13.4328542"><ele>10.0</ele><time>2026-04-25T10:42:51.319Z</time></trkpt><trkpt lat="45.8065582" lon="13.4326878"><ele>10.0</ele><time>2026-04-25T10:42:53.333Z</time></trkpt><trkpt lat="45.8065339" lon="13.4326043"><ele>10.0</ele><time>2026-04-25T10:42:54.329Z</time></trkpt><trkpt lat="45.80651" lon="13.4325201"><ele>10.0</ele><time>2026-04-25T10:42:55.329Z</time></trkpt><trkpt lat="45.8064616" lon="13.4323542"><ele>10.0</ele><time>2026-04-25T10:42:57.318Z</time></trkpt><trkpt lat="45.8064143" lon="13.432188"><ele>9.166666666666668</ele><time>2026-04-25T10:42:59.324Z</time></trkpt><trkpt lat="45.8063682" lon="13.4320213"><ele>8.333333333333334</ele><time>2026-04-25T10:43:01.328Z</time></trkpt><trkpt lat="45.8063443" lon="13.4319377"><ele>7.5</ele><time>2026-04-25T10:43:02.324Z</time></trkpt><trkpt lat="45.8063208" lon="13.4318536"><ele>6.666666666666667</ele><time>2026-04-25T10:43:03.32Z</time></trkpt><trkpt lat="45.8062973" lon="13.4317698"><ele>5.833333333333334</ele><time>2026-04-25T10:43:04.317Z</time></trkpt><trkpt lat="45.8062491" lon="13.4316025"><ele>5.0</ele><time>2026-04-25T10:43:06.336Z</time></trkpt><trkpt lat="45.8062253" lon="13.4315179"><ele>5.0</ele><time>2026-04-25T10:43:07.33Z</time></trkpt><trkpt lat="45.8061786" lon="13.4313504"><ele>5.0</ele><time>2026-04-25T10:43:09.336Z</time></trkpt><trkpt lat="45.8061544" lon="13.4312663"><ele>5.0</ele><time>2026-04-25T10:43:10.331Z</time></trkpt><trkpt lat="45.8061301" lon="13.4311822"><ele>5.0</ele><time>2026-04-25T10:43:11.334Z</time></trkpt><trkpt lat="45.8061063" lon="13.4310981"><ele>5.0</ele><time>2026-04-25T10:43:12.318Z</time></trkpt><trkpt lat="45.8060826" lon="13.4310137"><ele>5.0</ele><time>2026-04-25T10:43:13.328Z</time></trkpt><trkpt lat="45.8060577" lon="13.4309292"><ele>5.0</ele><time>2026-04-25T10:43:14.338Z</time></trkpt><trkpt lat="45.8060331" lon="13.4308443"><ele>4.875</ele><time>2026-04-25T10:43:15.328Z</time></trkpt><trkpt lat="45.806008" lon="13.4307595"><ele>4.75</ele><time>2026-04-25T10:43:16.328Z</time></trkpt><trkpt lat="45.8059838" lon="13.4306747"><ele>4.625</ele><time>2026-04-25T10:43:17.317Z</time></trkpt><trkpt lat="45.8059601" lon="13.4305892"><ele>4.5</ele><time>2026-04-25T10:43:18.329Z</time></trkpt><trkpt lat="45.8059365" lon="13.4305037"><ele>4.375</ele><time>2026-04-25T10:43:19.333Z</time></trkpt><trkpt lat="45.8059121" lon="13.4304195"><ele>4.25</ele><time>2026-04-25T10:43:20.328Z</time></trkpt><trkpt lat="45.8058875" lon="13.4303347"><ele>4.125</ele><time>2026-04-25T10:43:21.326Z</time></trkpt><trkpt lat="45.8058636" lon="13.4302499"><ele>4.0</ele><time>2026-04-25T10:43:22.319Z</time></trkpt><trkpt lat="45.805839" lon="13.4301654"><ele>4.0</ele><time>2026-04-25T10:43:23.316Z</time></trkpt><trkpt lat="45.8058148" lon="13.4300809"><ele>4.0</ele><time>2026-04-25T10:43:24.324Z</time></trkpt><trkpt lat="45.8057899" lon="13.4299964"><ele>4.0</ele><time>2026-04-25T10:43:25.341Z</time></trkpt><trkpt lat="45.8057648" lon="13.4299117"><ele>4.0</ele><time>2026-04-25T10:43:26.338Z</time></trkpt><trkpt lat="45.8057403" lon="13.4298263"><ele>4.0</ele><time>2026-04-25T10:43:27.318Z</time></trkpt><trkpt lat="45.8057162" lon="13.4297411"><ele>4.0</ele><time>2026-04-25T10:43:28.323Z</time></trkpt><trkpt lat="45.8056926" lon="13.4296555"><ele>4.0</ele><time>2026-04-25T10:43:29.336Z</time></trkpt><trkpt lat="45.8056682" lon="13.42957"><ele>4.0</ele><time>2026-04-25T10:43:30.344Z</time></trkpt><trkpt lat="45.8056438" lon="13.4294849"><ele>3.875</ele><time>2026-04-25T10:43:31.334Z</time></trkpt><trkpt lat="45.8056194" lon="13.4294"><ele>3.75</ele><time>2026-04-25T10:43:32.318Z</time></trkpt><trkpt lat="45.8055953" lon="13.429315"><ele>3.625</ele><time>2026-04-25T10:43:33.326Z</time></trkpt><trkpt lat="45.8055728" lon="13.429228"><ele>3.5</ele><time>2026-04-25T10:43:34.328Z</time></trkpt><trkpt lat="45.8055483" lon="13.4291434"><ele>3.375</ele><time>2026-04-25T10:43:35.334Z</time></trkpt><trkpt lat="45.8055233" lon="13.4290593"><ele>3.25</ele><time>2026-04-25T10:43:36.337Z</time></trkpt><trkpt lat="45.8054996" lon="13.4289738"><ele>3.125</ele><time>2026-04-25T10:43:37.334Z</time></trkpt><trkpt lat="45.8054752" lon="13.4288886"><ele>3.0</ele><time>2026-04-25T10:43:38.33Z</time></trkpt><trkpt lat="45.8054513" lon="13.4288035"><ele>3.833333333333333</ele><time>2026-04-25T10:43:39.346Z</time></trkpt><trkpt lat="45.8054267" lon="13.4287188"><ele>4.666666666666666</ele><time>2026-04-25T10:43:40.334Z</time></trkpt><trkpt lat="45.8054021" lon="13.4286342"><ele>5.5</ele><time>2026-04-25T10:43:41.341Z</time></trkpt><trkpt lat="45.8053784" lon="13.4285487"><ele>6.333333333333333</ele><time>2026-04-25T10:43:42.33Z</time></trkpt><trkpt lat="45.8053544" lon="13.4284641"><ele>7.166666666666666</ele><time>2026-04-25T10:43:43.317Z</time></trkpt><trkpt lat="45.8053076" lon="13.4282966"><ele>8.0</ele><time>2026-04-25T10:43:45.333Z</time></trkpt><trkpt lat="45.8052606" lon="13.4281303"><ele>8.200000000000001</ele><time>2026-04-25T10:43:47.328Z</time></trkpt><trkpt lat="45.8052127" lon="13.4279649"><ele>8.4</ele><time>2026-04-25T10:43:49.324Z</time></trkpt><trkpt lat="45.8051635" lon="13.4277968"><ele>8.600000000000001</ele><time>2026-04-25T10:43:51.338Z</time></trkpt><trkpt lat="45.8051397" lon="13.4277087"><ele>8.8</ele><time>2026-04-25T10:43:52.326Z</time></trkpt><trkpt lat="45.8051145" lon="13.4276204"><ele>9.0</ele><time>2026-04-25T10:43:53.332Z</time></trkpt><trkpt lat="45.8050887" lon="13.4275309"><ele>9.142857142857144</ele><time>2026-04-25T10:43:54.332Z</time></trkpt><trkpt lat="45.8050643" lon="13.4274399"><ele>9.285714285714286</ele><time>2026-04-25T10:43:55.326Z</time></trkpt><trkpt lat="45.805039" lon="13.4273508"><ele>9.428571428571429</ele><time>2026-04-25T10:43:56.329Z</time></trkpt><trkpt lat="45.8050139" lon="13.4272609"><ele>9.571428571428573</ele><time>2026-04-25T10:43:57.332Z</time></trkpt><trkpt lat="45.8049914" lon="13.4271714"><ele>9.714285714285715</ele><time>2026-04-25T10:43:58.316Z</time></trkpt><trkpt lat="45.804971" lon="13.4270809"><ele>9.857142857142858</ele><time>2026-04-25T10:43:59.335Z</time></trkpt><trkpt lat="45.8049532" lon="13.4269903"><ele>10.0</ele><time>2026-04-25T10:44:00.333Z</time></trkpt><trkpt lat="45.8049361" lon="13.4268999"><ele>10.0</ele><time>2026-04-25T10:44:01.328Z</time></trkpt><trkpt lat="45.8049197" lon="13.4268099"><ele>10.0</ele><time>2026-04-25T10:44:02.324Z</time></trkpt><trkpt lat="45.8049043" lon="13.426719"><ele>10.0</ele><time>2026-04-25T10:44:03.328Z</time></trkpt><trkpt lat="45.804892" lon="13.4266281"><ele>10.0</ele><time>2026-04-25T10:44:04.333Z</time></trkpt><trkpt lat="45.8048802" lon="13.4265366"><ele>10.0</ele><time>2026-04-25T10:44:05.331Z</time></trkpt><trkpt lat="45.8048653" lon="13.4263586"><ele>10.0</ele><time>2026-04-25T10:44:07.327Z</time></trkpt><trkpt lat="45.8048572" lon="13.4261919"><ele>9.4</ele><time>2026-04-25T10:44:09.327Z</time></trkpt><trkpt lat="45.8048521" lon="13.4260366"><ele>8.8</ele><time>2026-04-25T10:44:11.336Z</time></trkpt><trkpt lat="45.8048548" lon="13.4258991"><ele>8.2</ele><time>2026-04-25T10:44:13.322Z</time></trkpt><trkpt lat="45.8048565" lon="13.4257632"><ele>7.6</ele><time>2026-04-25T10:44:15.334Z</time></trkpt><trkpt lat="45.8048503" lon="13.4255978"><ele>7.0</ele><time>2026-04-25T10:44:17.338Z</time></trkpt><trkpt lat="45.80478" lon="13.4254563"><ele>6.714285714285714</ele><time>2026-04-25T10:44:19.345Z</time></trkpt><trkpt lat="45.8047204" lon="13.4254247"><ele>6.428571428571429</ele><time>2026-04-25T10:44:20.326Z</time></trkpt><trkpt lat="45.8046552" lon="13.4254021"><ele>6.142857142857142</ele><time>2026-04-25T10:44:21.32Z</time></trkpt><trkpt lat="45.804588" lon="13.4253734"><ele>5.857142857142858</ele><time>2026-04-25T10:44:22.323Z</time></trkpt><trkpt lat="45.8045194" lon="13.4253414"><ele>5.571428571428571</ele><time>2026-04-25T10:44:23.321Z</time></trkpt><trkpt lat="45.8044497" lon="13.425303"><ele>5.285714285714286</ele><time>2026-04-25T10:44:24.334Z</time></trkpt><trkpt lat="45.8043794" lon="13.42526"><ele>5.0</ele><time>2026-04-25T10:44:25.324Z</time></trkpt><trkpt lat="45.8043085" lon="13.4252149"><ele>5.0</ele><time>2026-04-25T10:44:26.329Z</time></trkpt><trkpt lat="45.8042353" lon="13.4251764"><ele>5.0</ele><time>2026-04-25T10:44:27.319Z</time></trkpt><trkpt lat="45.8041637" lon="13.4251384"><ele>5.0</ele><time>2026-04-25T10:44:28.328Z</time></trkpt><trkpt lat="45.8040941" lon="13.4250997"><ele>5.0</ele><time>2026-04-25T10:44:29.325Z</time></trkpt><trkpt lat="45.8040267" lon="13.4250622"><ele>5.0</ele><time>2026-04-25T10:44:30.333Z</time></trkpt><trkpt lat="45.8039601" lon="13.4250279"><ele>5.0</ele><time>2026-04-25T10:44:31.331Z</time></trkpt><trkpt lat="45.8038967" lon="13.4249947"><ele>5.0</ele><time>2026-04-25T10:44:32.327Z</time></trkpt><trkpt lat="45.8038364" lon="13.4249579"><ele>5.0</ele><time>2026-04-25T10:44:33.316Z</time></trkpt><trkpt lat="45.803779" lon="13.4249199"><ele>5.0</ele><time>2026-04-25T10:44:34.316Z</time></trkpt><trkpt lat="45.8036659" lon="13.4248456"><ele>5.0</ele><time>2026-04-25T10:44:36.328Z</time></trkpt><trkpt lat="45.8036093" lon="13.4248047"><ele>5.0</ele><time>2026-04-25T10:44:37.34Z</time></trkpt><trkpt lat="45.8035541" lon="13.4247609"><ele>5.0</ele><time>2026-04-25T10:44:38.317Z</time></trkpt><trkpt lat="45.8034994" lon="13.424716"><ele>5.0</ele><time>2026-04-25T10:44:39.335Z</time></trkpt><trkpt lat="45.803393" lon="13.4246212"><ele>4.5</ele><time>2026-04-25T10:44:41.344Z</time></trkpt><trkpt lat="45.8032897" lon="13.4245199"><ele>4.0</ele><time>2026-04-25T10:44:43.323Z</time></trkpt><trkpt lat="45.8031906" lon="13.424412"><ele>3.5</ele><time>2026-04-25T10:44:45.327Z</time></trkpt><trkpt lat="45.8031003" lon="13.4242924"><ele>3.0</ele><time>2026-04-25T10:44:47.325Z</time></trkpt><trkpt lat="45.8030045" lon="13.4241839"><ele>3.0</ele><time>2026-04-25T10:44:49.321Z</time></trkpt><trkpt lat="45.802903" lon="13.4240845"><ele>3.0</ele><time>2026-04-25T10:44:51.33Z</time></trkpt><trkpt lat="45.8028066" lon="13.4239737"><ele>3.0</ele><time>2026-04-25T10:44:53.312Z</time></trkpt><trkpt lat="45.8027121" lon="13.4238576"><ele>3.0</ele><time>2026-04-25T10:44:55.343Z</time></trkpt><trkpt lat="45.802614" lon="13.4237475"><ele>3.0</ele><time>2026-04-25T10:44:57.343Z</time></trkpt><trkpt lat="45.8025174" lon="13.4236351"><ele>3.0</ele><time>2026-04-25T10:44:59.321Z</time></trkpt><trkpt lat="45.8024186" lon="13.4235283"><ele>3.0</ele><time>2026-04-25T10:45:01.332Z</time></trkpt><trkpt lat="45.8023062" lon="13.4234706"><ele>3.0</ele><time>2026-04-25T10:45:03.323Z</time></trkpt><trkpt lat="45.8022108" lon="13.4235669"><ele>3.0</ele><time>2026-04-25T10:45:05.337Z</time></trkpt><trkpt lat="45.8021066" lon="13.4235671"><ele>3.0</ele><time>2026-04-25T10:45:07.317Z</time></trkpt><trkpt lat="45.8020221" lon="13.4234599"><ele>3.0</ele><time>2026-04-25T10:45:09.327Z</time></trkpt><trkpt lat="45.8019426" lon="13.423332"><ele>3.0</ele><time>2026-04-25T10:45:11.331Z</time></trkpt><trkpt lat="45.8018611" lon="13.4232105"><ele>3.0</ele><time>2026-04-25T10:45:13.326Z</time></trkpt><trkpt lat="45.8017845" lon="13.4230948"><ele>3.0</ele><time>2026-04-25T10:45:15.342Z</time></trkpt><trkpt lat="45.8017116" lon="13.4229888"><ele>3.0</ele><time>2026-04-25T10:45:17.323Z</time></trkpt><trkpt lat="45.8016499" lon="13.4228809"><ele>3.0</ele><time>2026-04-25T10:45:19.324Z</time></trkpt><trkpt lat="45.8015933" lon="13.4227821"><ele>3.0</ele><time>2026-04-25T10:45:21.325Z</time></trkpt><trkpt lat="45.80154" lon="13.4226932"><ele>3.3333333333333335</ele><time>2026-04-25T10:45:23.347Z</time></trkpt><trkpt lat="45.8014894" lon="13.422613"><ele>3.666666666666667</ele><time>2026-04-25T10:45:25.318Z</time></trkpt><trkpt lat="45.8014403" lon="13.4225373"><ele>4.0</ele><time>2026-04-25T10:45:27.325Z</time></trkpt><trkpt lat="45.8013816" lon="13.4224652"><ele>4.333333333333334</ele><time>2026-04-25T10:45:29.326Z</time></trkpt><trkpt lat="45.8013314" lon="13.4223727"><ele>4.666666666666667</ele><time>2026-04-25T10:45:31.322Z</time></trkpt><trkpt lat="45.801274" lon="13.4222814"><ele>5.0</ele><time>2026-04-25T10:45:33.334Z</time></trkpt><trkpt lat="45.8012015" lon="13.422192"><ele>4.8</ele><time>2026-04-25T10:45:35.325Z</time></trkpt><trkpt lat="45.8011094" lon="13.4221322"><ele>4.6</ele><time>2026-04-25T10:45:37.339Z</time></trkpt><trkpt lat="45.8010047" lon="13.4220896"><ele>4.4</ele><time>2026-04-25T10:45:39.339Z</time></trkpt><trkpt lat="45.8009015" lon="13.4220749"><ele>4.2</ele><time>2026-04-25T10:45:41.331Z</time></trkpt><trkpt lat="45.8008101" lon="13.42211"><ele>4.0</ele><time>2026-04-25T10:45:43.346Z</time></trkpt><trkpt lat="45.8007213" lon="13.4221039"><ele>4.5</ele><time>2026-04-25T10:45:45.334Z</time></trkpt><trkpt lat="45.8006391" lon="13.4220838"><ele>5.0</ele><time>2026-04-25T10:45:47.335Z</time></trkpt><trkpt lat="45.800578" lon="13.4220544"><ele>5.5</ele><time>2026-04-25T10:45:51.329Z</time></trkpt><trkpt lat="45.8005182" lon="13.4220094"><ele>6.0</ele><time>2026-04-25T10:47:19.317Z</time></trkpt><trkpt lat="45.8004413" lon="13.4219358"><ele>6.500000000000001</ele><time>2026-04-25T10:47:22.325Z</time></trkpt><trkpt lat="45.8003688" lon="13.4218772"><ele>7.0</ele><time>2026-04-25T10:47:25.328Z</time></trkpt><trkpt lat="45.8003157" lon="13.4218147"><ele>7.0</ele><time>2026-04-25T10:47:28.331Z</time></trkpt><trkpt lat="45.8002638" lon="13.4216943"><ele>6.999999999999999</ele><time>2026-04-25T10:47:31.32Z</time></trkpt><trkpt lat="45.8002307" lon="13.421577"><ele>6.999999999999999</ele><time>2026-04-25T10:47:33.337Z</time></trkpt><trkpt lat="45.8001982" lon="13.4214705"><ele>7.0</ele><time>2026-04-25T10:47:35.338Z</time></trkpt><trkpt lat="45.8001469" lon="13.4213637"><ele>7.0</ele><time>2026-04-25T10:47:37.333Z</time></trkpt><trkpt lat="45.800094" lon="13.4212411"><ele>6.199999999999999</ele><time>2026-04-25T10:47:39.336Z</time></trkpt><trkpt lat="45.8000562" lon="13.4210979"><ele>5.3999999999999995</ele><time>2026-04-25T10:47:41.329Z</time></trkpt><trkpt lat="45.8000248" lon="13.4209452"><ele>4.6</ele><time>2026-04-25T10:47:43.338Z</time></trkpt><trkpt lat="45.7999902" lon="13.4207988"><ele>3.8</ele><time>2026-04-25T10:47:45.323Z</time></trkpt><trkpt lat="45.7999585" lon="13.4206619"><ele>3.0</ele><time>2026-04-25T10:47:47.321Z</time></trkpt><trkpt lat="45.7999283" lon="13.4205392"><ele>3.3333333333333335</ele><time>2026-04-25T10:47:49.329Z</time></trkpt><trkpt lat="45.7999" lon="13.4204254"><ele>3.666666666666667</ele><time>2026-04-25T10:47:51.323Z</time></trkpt><trkpt lat="45.7998678" lon="13.4202969"><ele>4.0</ele><time>2026-04-25T10:47:53.326Z</time></trkpt><trkpt lat="45.7998603" lon="13.4201664"><ele>4.333333333333334</ele><time>2026-04-25T10:47:55.326Z</time></trkpt><trkpt lat="45.7999275" lon="13.4200658"><ele>4.666666666666667</ele><time>2026-04-25T10:47:57.324Z</time></trkpt><trkpt lat="45.7999865" lon="13.4200201"><ele>5.0</ele><time>2026-04-25T10:47:59.325Z</time></trkpt><trkpt lat="45.7999166" lon="13.4200167"><ele>5.0</ele><time>2026-04-25T10:48:05.329Z</time></trkpt><trkpt lat="45.7998565" lon="13.4201303"><ele>5.0</ele><time>2026-04-25T10:48:08.327Z</time></trkpt><trkpt lat="45.7997822" lon="13.4202034"><ele>5.0</ele><time>2026-04-25T10:48:10.328Z</time></trkpt><trkpt lat="45.7997028" lon="13.4202987"><ele>5.0</ele><time>2026-04-25T10:48:12.331Z</time></trkpt><trkpt lat="45.7996152" lon="13.4203972"><ele>5.0</ele><time>2026-04-25T10:48:14.325Z</time></trkpt><trkpt lat="45.7995259" lon="13.4204994"><ele>4.75</ele><time>2026-04-25T10:48:16.309Z</time></trkpt><trkpt lat="45.7994345" lon="13.4206019"><ele>4.5</ele><time>2026-04-25T10:48:18.349Z</time></trkpt><trkpt lat="45.7993413" lon="13.420706"><ele>4.25</ele><time>2026-04-25T10:48:20.357Z</time></trkpt><trkpt lat="45.7992448" lon="13.4208024"><ele>4.0</ele><time>2026-04-25T10:48:22.349Z</time></trkpt><trkpt lat="45.7991284" lon="13.4208371"><ele>4.0</ele><time>2026-04-25T10:48:24.323Z</time></trkpt><trkpt lat="45.7990145" lon="13.4207913"><ele>4.0</ele><time>2026-04-25T10:48:26.321Z</time></trkpt><trkpt lat="45.7989194" lon="13.4206949"><ele>4.0</ele><time>2026-04-25T10:48:28.338Z</time></trkpt><trkpt lat="45.7988558" lon="13.4205518"><ele>4.0</ele><time>2026-04-25T10:48:30.341Z</time></trkpt><trkpt lat="45.7988043" lon="13.4204043"><ele>4.25</ele><time>2026-04-25T10:48:32.328Z</time></trkpt><trkpt lat="45.7988032" lon="13.4202423"><ele>4.5</ele><time>2026-04-25T10:48:34.325Z</time></trkpt><trkpt lat="45.7988867" lon="13.4201272"><ele>4.75</ele><time>2026-04-25T10:48:36.316Z</time></trkpt><trkpt lat="45.7989811" lon="13.420012"><ele>5.0</ele><time>2026-04-25T10:48:38.327Z</time></trkpt><trkpt lat="45.7990741" lon="13.4198927"><ele>5.0</ele><time>2026-04-25T10:48:40.33Z</time></trkpt><trkpt lat="45.7991644" lon="13.4197751"><ele>5.0</ele><time>2026-04-25T10:48:42.32Z</time></trkpt><trkpt lat="45.7992537" lon="13.4196512"><ele>5.0</ele><time>2026-04-25T10:48:44.333Z</time></trkpt><trkpt lat="45.7993431" lon="13.4195318"><ele>5.0</ele><time>2026-04-25T10:48:46.331Z</time></trkpt><trkpt lat="45.7994334" lon="13.4194149"><ele>5.75</ele><time>2026-04-25T10:48:48.331Z</time></trkpt><trkpt lat="45.7995203" lon="13.4192921"><ele>6.5</ele><time>2026-04-25T10:48:50.327Z</time></trkpt><trkpt lat="45.7996071" lon="13.4191688"><ele>7.25</ele><time>2026-04-25T10:48:52.325Z</time></trkpt><trkpt lat="45.7996871" lon="13.4190417"><ele>8.0</ele><time>2026-04-25T10:48:54.33Z</time></trkpt><trkpt lat="45.799735" lon="13.4188877"><ele>7.2</ele><time>2026-04-25T10:48:56.337Z</time></trkpt><trkpt lat="45.7997274" lon="13.4187271"><ele>6.4</ele><time>2026-04-25T10:48:58.345Z</time></trkpt><trkpt lat="45.7996506" lon="13.4186423"><ele>5.6000000000000005</ele><time>2026-04-25T10:49:00.322Z</time></trkpt><trkpt lat="45.7995464" lon="13.4186577"><ele>4.800000000000001</ele><time>2026-04-25T10:49:02.329Z</time></trkpt><trkpt lat="45.7994305" lon="13.4186783"><ele>4.0</ele><time>2026-04-25T10:49:04.33Z</time></trkpt><trkpt lat="45.7993111" lon="13.4186974"><ele>3.25</ele><time>2026-04-25T10:49:06.324Z</time></trkpt><trkpt lat="45.7991922" lon="13.4187115"><ele>2.5</ele><time>2026-04-25T10:49:08.334Z</time></trkpt><trkpt lat="45.7990774" lon="13.4187293"><ele>1.75</ele><time>2026-04-25T10:49:10.341Z</time></trkpt><trkpt lat="45.7989608" lon="13.4187244"><ele>1.0</ele><time>2026-04-25T10:49:12.31Z</time></trkpt><trkpt lat="45.7988412" lon="13.4187064"><ele>1.0</ele><time>2026-04-25T10:49:14.347Z</time></trkpt><trkpt lat="45.7987215" lon="13.4186849"><ele>1.0</ele><time>2026-04-25T10:49:16.337Z</time></trkpt><trkpt lat="45.7986029" lon="13.4186607"><ele>1.0</ele><time>2026-04-25T10:49:18.332Z</time></trkpt><trkpt lat="45.7984842" lon="13.4186403"><ele>1.0</ele><time>2026-04-25T10:49:20.33Z</time></trkpt><trkpt lat="45.798376" lon="13.4186017"><ele>1.0</ele><time>2026-04-25T10:49:22.325Z</time></trkpt><trkpt lat="45.7983588" lon="13.4184867"><ele>1.0</ele><time>2026-04-25T10:49:24.333Z</time></trkpt><trkpt lat="45.7983781" lon="13.4183517"><ele>1.0</ele><time>2026-04-25T10:49:26.335Z</time></trkpt><trkpt lat="45.7983678" lon="13.4181968"><ele>1.0</ele><time>2026-04-25T10:49:28.32Z</time></trkpt><trkpt lat="45.7983253" lon="13.4180432"><ele>1.0</ele><time>2026-04-25T10:49:30.325Z</time></trkpt><trkpt lat="45.7982715" lon="13.4178936"><ele>1.5</ele><time>2026-04-25T10:49:32.326Z</time></trkpt><trkpt lat="45.7982195" lon="13.4177398"><ele>2.0</ele><time>2026-04-25T10:49:34.324Z</time></trkpt><trkpt lat="45.7981682" lon="13.4175871"><ele>2.5</ele><time>2026-04-25T10:49:36.335Z</time></trkpt><trkpt lat="45.7981147" lon="13.4174386"><ele>3.0</ele><time>2026-04-25T10:49:38.329Z</time></trkpt><trkpt lat="45.7980445" lon="13.4173155"><ele>3.0</ele><time>2026-04-25T10:49:40.341Z</time></trkpt><trkpt lat="45.7979472" lon="13.4173359"><ele>3.0</ele><time>2026-04-25T10:49:42.313Z</time></trkpt><trkpt lat="45.7978892" lon="13.4174641"><ele>3.0</ele><time>2026-04-25T10:49:44.316Z</time></trkpt><trkpt lat="45.797818" lon="13.4176049"><ele>3.0</ele><time>2026-04-25T10:49:46.32Z</time></trkpt><trkpt lat="45.7977244" lon="13.4177154"><ele>3.0</ele><time>2026-04-25T10:49:48.324Z</time></trkpt><trkpt lat="45.7976149" lon="13.4177902"><ele>3.0</ele><time>2026-04-25T10:49:50.322Z</time></trkpt><trkpt lat="45.797501" lon="13.4178567"><ele>3.0</ele><time>2026-04-25T10:49:52.322Z</time></trkpt><trkpt lat="45.7973854" lon="13.4179191"><ele>3.0</ele><time>2026-04-25T10:49:54.322Z</time></trkpt><trkpt lat="45.7972681" lon="13.4179811"><ele>3.0</ele><time>2026-04-25T10:49:56.333Z</time></trkpt><trkpt lat="45.7971513" lon="13.4180441"><ele>3.0</ele><time>2026-04-25T10:49:58.329Z</time></trkpt><trkpt lat="45.797036" lon="13.4181099"><ele>3.0</ele><time>2026-04-25T10:50:00.327Z</time></trkpt><trkpt lat="45.7969231" lon="13.4181768"><ele>3.0</ele><time>2026-04-25T10:50:02.319Z</time></trkpt><trkpt lat="45.7968091" lon="13.4182343"><ele>3.0</ele><time>2026-04-25T10:50:04.338Z</time></trkpt><trkpt lat="45.7966938" lon="13.4182924"><ele>3.25</ele><time>2026-04-25T10:50:06.328Z</time></trkpt><trkpt lat="45.7965777" lon="13.4183513"><ele>3.5</ele><time>2026-04-25T10:50:08.338Z</time></trkpt><trkpt lat="45.7964616" lon="13.4184142"><ele>3.75</ele><time>2026-04-25T10:50:10.315Z</time></trkpt><trkpt lat="45.7963458" lon="13.4184762"><ele>4.0</ele><time>2026-04-25T10:50:12.319Z</time></trkpt><trkpt lat="45.7962319" lon="13.4185386"><ele>4.0</ele><time>2026-04-25T10:50:14.339Z</time></trkpt><trkpt lat="45.7961206" lon="13.4186022"><ele>4.0</ele><time>2026-04-25T10:50:16.327Z</time></trkpt><trkpt lat="45.7960121" lon="13.4186667"><ele>4.0</ele><time>2026-04-25T10:50:18.322Z</time></trkpt><trkpt lat="45.795898" lon="13.4187288"><ele>4.0</ele><time>2026-04-25T10:50:20.326Z</time></trkpt><trkpt lat="45.7957839" lon="13.418789"><ele>3.8000000000000003</ele><time>2026-04-25T10:50:22.327Z</time></trkpt><trkpt lat="45.7956697" lon="13.4188501"><ele>3.6000000000000005</ele><time>2026-04-25T10:50:24.32Z</time></trkpt><trkpt lat="45.7955564" lon="13.4189113"><ele>3.4</ele><time>2026-04-25T10:50:26.335Z</time></trkpt><trkpt lat="45.7954545" lon="13.4189782"><ele>3.2</ele><time>2026-04-25T10:50:28.329Z</time></trkpt><trkpt lat="45.7953781" lon="13.4189729"><ele>3.0</ele><time>2026-04-25T10:50:30.327Z</time></trkpt><trkpt lat="45.7953473" lon="13.4188688"><ele>3.0</ele><time>2026-04-25T10:50:32.355Z</time></trkpt><trkpt lat="45.7953269" lon="13.4187657"><ele>3.0</ele><time>2026-04-25T10:50:34.321Z</time></trkpt><trkpt lat="45.7952603" lon="13.418795"><ele>3.0</ele><time>2026-04-25T10:50:36.341Z</time></trkpt><trkpt lat="45.795182" lon="13.4188544"><ele>3.0</ele><time>2026-04-25T10:50:38.314Z</time></trkpt><trkpt lat="45.7950855" lon="13.418917"><ele>3.0</ele><time>2026-04-25T10:50:40.369Z</time></trkpt><trkpt lat="45.7949791" lon="13.4189849"><ele>3.0</ele><time>2026-04-25T10:50:42.332Z</time></trkpt><trkpt lat="45.7948687" lon="13.4190557"><ele>3.0</ele><time>2026-04-25T10:50:44.339Z</time></trkpt><trkpt lat="45.794759" lon="13.4191281"><ele>3.0</ele><time>2026-04-25T10:50:46.316Z</time></trkpt><trkpt lat="45.7946498" lon="13.419199"><ele>3.0</ele><time>2026-04-25T10:50:48.318Z</time></trkpt><trkpt lat="45.7945391" lon="13.4192728"><ele>3.0</ele><time>2026-04-25T10:50:50.33Z</time></trkpt><trkpt lat="45.7944317" lon="13.4193469"><ele>3.0</ele><time>2026-04-25T10:50:52.334Z</time></trkpt><trkpt lat="45.7943356" lon="13.4194058"><ele>3.0</ele><time>2026-04-25T10:50:54.324Z</time></trkpt><trkpt lat="45.7942588" lon="13.4194015"><ele>3.0</ele><time>2026-04-25T10:50:56.349Z</time></trkpt><trkpt lat="45.7941708" lon="13.419409"><ele>3.0</ele><time>2026-04-25T10:50:59.343Z</time></trkpt><trkpt lat="45.7941007" lon="13.4194667"><ele>3.2</ele><time>2026-04-25T10:51:01.34Z</time></trkpt><trkpt lat="45.7940141" lon="13.4195373"><ele>3.4</ele><time>2026-04-25T10:51:03.32Z</time></trkpt><trkpt lat="45.7939116" lon="13.4195644"><ele>3.6000000000000005</ele><time>2026-04-25T10:51:05.339Z</time></trkpt><trkpt lat="45.7938513" lon="13.4195164"><ele>3.8000000000000003</ele><time>2026-04-25T10:51:07.35Z</time></trkpt><trkpt lat="45.7938057" lon="13.4193697"><ele>4.0</ele><time>2026-04-25T10:51:09.329Z</time></trkpt><trkpt lat="45.793727" lon="13.4193372"><ele>4.0</ele><time>2026-04-25T10:51:11.328Z</time></trkpt><trkpt lat="45.7936303" lon="13.4193642"><ele>4.0</ele><time>2026-04-25T10:51:13.33Z</time></trkpt><trkpt lat="45.7935219" lon="13.4193917"><ele>4.0</ele><time>2026-04-25T10:51:15.347Z</time></trkpt><trkpt lat="45.7934023" lon="13.4193876"><ele>4.0</ele><time>2026-04-25T10:51:17.331Z</time></trkpt><trkpt lat="45.7933254" lon="13.4192591"><ele>4.0</ele><time>2026-04-25T10:51:19.325Z</time></trkpt><trkpt lat="45.7932855" lon="13.4190914"><ele>3.75</ele><time>2026-04-25T10:51:21.31Z</time></trkpt><trkpt lat="45.793242" lon="13.4189243"><ele>3.5</ele><time>2026-04-25T10:51:23.33Z</time></trkpt><trkpt lat="45.7932022" lon="13.4187548"><ele>3.25</ele><time>2026-04-25T10:51:25.357Z</time></trkpt><trkpt lat="45.7931639" lon="13.4185856"><ele>3.0</ele><time>2026-04-25T10:51:27.317Z</time></trkpt><trkpt lat="45.7931207" lon="13.4184205"><ele>3.0</ele><time>2026-04-25T10:51:29.316Z</time></trkpt><trkpt lat="45.7930785" lon="13.4182541"><ele>3.0</ele><time>2026-04-25T10:51:31.31Z</time></trkpt><trkpt lat="45.7930376" lon="13.4180885"><ele>3.0</ele><time>2026-04-25T10:51:33.305Z</time></trkpt><trkpt lat="45.7929946" lon="13.417931"><ele>3.0</ele><time>2026-04-25T10:51:35.286Z</time></trkpt><trkpt lat="45.7929542" lon="13.4177708"><ele>3.5</ele><time>2026-04-25T10:51:37.286Z</time></trkpt><trkpt lat="45.7929169" lon="13.4176201"><ele>4.0</ele><time>2026-04-25T10:51:39.344Z</time></trkpt><trkpt lat="45.7928855" lon="13.4174667"><ele>4.5</ele><time>2026-04-25T10:51:41.344Z</time></trkpt><trkpt lat="45.7928715" lon="13.4173038"><ele>5.0</ele><time>2026-04-25T10:51:43.288Z</time></trkpt><trkpt lat="45.7928648" lon="13.4171401"><ele>5.0</ele><time>2026-04-25T10:51:45.289Z</time></trkpt></trkseg></trk></gpx>